<?xml version='1.0' encoding='UTF-8'?><gpx version="1.1" creator="JPX - https://github.com/jenetics/jpx" xmlns="http://www.topografix.com/GPX/1/1"><trk><trkseg><trkpt lat="44.5027861640456" lon="0.9387673470964674"><ele>86.00000000000001</ele><time>2026-04-03T15:46:06Z</time></trkpt><trkpt lat="44.502736990163825" lon="0.9388307545713989"><ele>86.0</ele><time>2026-04-03T15:46:30.999Z</time></trkpt><trkpt lat="44.50268791593167" lon="0.9388887103789583"><ele>86.0</ele><time>2026-04-03T15:46:42.999Z</time></trkpt><trkpt lat="44.50272405261784" lon="0.9390030609781437"><ele>86.0</ele><time>2026-04-03T15:46:45.999Z</time></trkpt><trkpt lat="44.50280544196683" lon="0.9390238283849662"><ele>86.0</ele><time>2026-04-03T15:46:47.999Z</time></trkpt><trkpt lat="44.502868990264446" lon="0.9389991229265373"><ele>86.00000000000001</ele><time>2026-04-03T15:46:48.999Z</time></trkpt><trkpt lat="44.50293294823334" lon="0.9389497998343921"><ele>86.0</ele><time>2026-04-03T15:46:51.999Z</time></trkpt><trkpt lat="44.50299861379545" lon="0.9389225805538867"><ele>85.75</ele><time>2026-04-03T15:46:52.999Z</time></trkpt><trkpt lat="44.5030937388742" lon="0.9388823594568677"><ele>85.5</ele><time>2026-04-03T15:46:53.999Z</time></trkpt><trkpt lat="44.50320021270684" lon="0.9388355106200287"><ele>85.25</ele><time>2026-04-03T15:46:54.999Z</time></trkpt><trkpt lat="44.50331246525524" lon="0.9387840509311846"><ele>85.0</ele><time>2026-04-03T15:46:55.999Z</time></trkpt><trkpt lat="44.50343752694356" lon="0.9387285957929954"><ele>85.0</ele><time>2026-04-03T15:46:56.999Z</time></trkpt><trkpt lat="44.503571224844514" lon="0.9386680749041674"><ele>85.0</ele><time>2026-04-03T15:46:57.999Z</time></trkpt><trkpt lat="44.50370770214026" lon="0.9385978353437854"><ele>85.0</ele><time>2026-04-03T15:46:58.999Z</time></trkpt><trkpt lat="44.503845006528984" lon="0.9385252772364882"><ele>85.0</ele><time>2026-04-03T15:46:59.999Z</time></trkpt><trkpt lat="44.50399396109953" lon="0.93845102174153"><ele>85.33333333333333</ele><time>2026-04-03T15:47:00.999Z</time></trkpt><trkpt lat="44.50414570100802" lon="0.9383738047292053"><ele>85.66666666666667</ele><time>2026-04-03T15:47:01.999Z</time></trkpt><trkpt lat="44.50430787515557" lon="0.9382905305958616"><ele>86.0</ele><time>2026-04-03T15:47:02.999Z</time></trkpt><trkpt lat="44.50446301419657" lon="0.9382105977238275"><ele>86.66666666666667</ele><time>2026-04-03T15:47:03.999Z</time></trkpt><trkpt lat="44.5046193118274" lon="0.9381241890284192"><ele>87.33333333333333</ele><time>2026-04-03T15:47:04.999Z</time></trkpt><trkpt lat="44.50477809715584" lon="0.93803592275676"><ele>88.0</ele><time>2026-04-03T15:47:05.999Z</time></trkpt><trkpt lat="44.504937115175515" lon="0.9379504288355437"><ele>88.0</ele><time>2026-04-03T15:47:06.999Z</time></trkpt><trkpt lat="44.50510129708144" lon="0.9378729155217761"><ele>88.0</ele><time>2026-04-03T15:47:07.999Z</time></trkpt><trkpt lat="44.50526476373906" lon="0.9377881967476156"><ele>88.0</ele><time>2026-04-03T15:47:08.999Z</time></trkpt><trkpt lat="44.50542728556107" lon="0.9377051631064558"><ele>88.0</ele><time>2026-04-03T15:47:09.999Z</time></trkpt><trkpt lat="44.50559154012599" lon="0.9376304379249609"><ele>88.0</ele><time>2026-04-03T15:47:10.999Z</time></trkpt><trkpt lat="44.505756033380855" lon="0.9375549663281563"><ele>88.0</ele><time>2026-04-03T15:47:11.999Z</time></trkpt><trkpt lat="44.50591334599928" lon="0.9374806556734692"><ele>88.33333333333333</ele><time>2026-04-03T15:47:12.999Z</time></trkpt><trkpt lat="44.50607070489854" lon="0.9374081898131242"><ele>88.66666666666667</ele><time>2026-04-03T15:47:13.999Z</time></trkpt><trkpt lat="44.506232907657264" lon="0.9373383266476142"><ele>89.0</ele><time>2026-04-03T15:47:14.999Z</time></trkpt><trkpt lat="44.506398757384325" lon="0.9372653278675319"><ele>89.66666666666667</ele><time>2026-04-03T15:47:15.999Z</time></trkpt><trkpt lat="44.506558882810154" lon="0.9371858348612535"><ele>90.33333333333333</ele><time>2026-04-03T15:47:16.999Z</time></trkpt><trkpt lat="44.50672086047376" lon="0.9371075211439551"><ele>91.0</ele><time>2026-04-03T15:47:17.999Z</time></trkpt><trkpt lat="44.50687744309917" lon="0.9370185514923259"><ele>91.0</ele><time>2026-04-03T15:47:18.999Z</time></trkpt><trkpt lat="44.5070359065031" lon="0.9369466726389686"><ele>91.0</ele><time>2026-04-03T15:47:19.999Z</time></trkpt><trkpt lat="44.5071753838248" lon="0.9368822640055393"><ele>91.0</ele><time>2026-04-03T15:47:20.999Z</time></trkpt><trkpt lat="44.50729161584481" lon="0.9368158169467471"><ele>91.0</ele><time>2026-04-03T15:47:21.999Z</time></trkpt><trkpt lat="44.507428784017186" lon="0.9367548363952126"><ele>91.0</ele><time>2026-04-03T15:47:22.999Z</time></trkpt><trkpt lat="44.507553490266666" lon="0.9366909774011378"><ele>91.0</ele><time>2026-04-03T15:47:23.999Z</time></trkpt><trkpt lat="44.50765019567062" lon="0.9366351696060808"><ele>91.0</ele><time>2026-04-03T15:47:24.999Z</time></trkpt><trkpt lat="44.5077430240426" lon="0.9365734077555314"><ele>91.0</ele><time>2026-04-03T15:47:25.999Z</time></trkpt><trkpt lat="44.50782109103437" lon="0.9365170576073462"><ele>91.0</ele><time>2026-04-03T15:47:26.999Z</time></trkpt><trkpt lat="44.507899107529624" lon="0.9364624769284227"><ele>90.75</ele><time>2026-04-03T15:47:27.999Z</time></trkpt><trkpt lat="44.50797869673966" lon="0.9363781185469415"><ele>90.5</ele><time>2026-04-03T15:47:28.999Z</time></trkpt><trkpt lat="44.508071893030845" lon="0.9362900649006"><ele>90.25</ele><time>2026-04-03T15:47:29.999Z</time></trkpt><trkpt lat="44.5081822281452" lon="0.9361766146249212"><ele>90.0</ele><time>2026-04-03T15:47:30.999Z</time></trkpt><trkpt lat="44.508298345767685" lon="0.9360873881339836"><ele>90.0</ele><time>2026-04-03T15:47:31.999Z</time></trkpt><trkpt lat="44.50842618645957" lon="0.9359643713196135"><ele>90.0</ele><time>2026-04-03T15:47:32.999Z</time></trkpt><trkpt lat="44.50856000761485" lon="0.9358701083212589"><ele>90.0</ele><time>2026-04-03T15:47:33.999Z</time></trkpt><trkpt lat="44.508711736360524" lon="0.9357893308432975"><ele>90.33333333333333</ele><time>2026-04-03T15:47:34.999Z</time></trkpt><trkpt lat="44.50885203973504" lon="0.9356982698896368"><ele>90.66666666666666</ele><time>2026-04-03T15:47:35.999Z</time></trkpt><trkpt lat="44.508995680919725" lon="0.9356113039395786"><ele>91.0</ele><time>2026-04-03T15:47:36.999Z</time></trkpt><trkpt lat="44.50914167304961" lon="0.9355128027239069"><ele>91.0</ele><time>2026-04-03T15:47:37.999Z</time></trkpt><trkpt lat="44.50929813690823" lon="0.9354349308167537"><ele>91.0</ele><time>2026-04-03T15:47:38.999Z</time></trkpt><trkpt lat="44.50945531827144" lon="0.9353480667987699"><ele>91.0</ele><time>2026-04-03T15:47:40Z</time></trkpt><trkpt lat="44.50961720934862" lon="0.9352569262776342"><ele>91.0</ele><time>2026-04-03T15:47:41Z</time></trkpt><trkpt lat="44.509781292634464" lon="0.9351761451350241"><ele>91.0</ele><time>2026-04-03T15:47:42Z</time></trkpt><trkpt lat="44.50995331707011" lon="0.9351334329787419"><ele>91.0</ele><time>2026-04-03T15:47:43Z</time></trkpt><trkpt lat="44.5101224123595" lon="0.9350971333152598"><ele>91.0</ele><time>2026-04-03T15:47:44Z</time></trkpt><trkpt lat="44.51029598131597" lon="0.9350739315064849"><ele>91.0</ele><time>2026-04-03T15:47:45Z</time></trkpt><trkpt lat="44.510472196240244" lon="0.9350540122529817"><ele>91.0</ele><time>2026-04-03T15:47:46Z</time></trkpt><trkpt lat="44.51064210922032" lon="0.9350168075645959"><ele>91.66666666666666</ele><time>2026-04-03T15:47:47Z</time></trkpt><trkpt lat="44.510813632057875" lon="0.9349985264191222"><ele>92.33333333333333</ele><time>2026-04-03T15:47:48Z</time></trkpt><trkpt lat="44.510987455111575" lon="0.9349780932705027"><ele>93.0</ele><time>2026-04-03T15:47:49Z</time></trkpt><trkpt lat="44.511166806303514" lon="0.9349515472520245"><ele>93.33333333333333</ele><time>2026-04-03T15:47:50Z</time></trkpt><trkpt lat="44.5113471168307" lon="0.9349347451519678"><ele>93.66666666666666</ele><time>2026-04-03T15:47:51Z</time></trkpt><trkpt lat="44.511525865330555" lon="0.9349090211438974"><ele>94.0</ele><time>2026-04-03T15:47:52Z</time></trkpt><trkpt lat="44.511704848443955" lon="0.9348822108144201"><ele>94.0</ele><time>2026-04-03T15:47:53Z</time></trkpt><trkpt lat="44.511876535192926" lon="0.934884311685453"><ele>94.0</ele><time>2026-04-03T15:47:54Z</time></trkpt><trkpt lat="44.512039329045045" lon="0.9348646586891042"><ele>94.0</ele><time>2026-04-03T15:47:55Z</time></trkpt><trkpt lat="44.512205353052664" lon="0.934845630547138"><ele>94.0</ele><time>2026-04-03T15:47:56Z</time></trkpt><trkpt lat="44.512373723879534" lon="0.9348007666187934"><ele>94.0</ele><time>2026-04-03T15:47:57Z</time></trkpt><trkpt lat="44.51252603985482" lon="0.934781080186634"><ele>94.0</ele><time>2026-04-03T15:47:58Z</time></trkpt><trkpt lat="44.51265698764518" lon="0.9347779762475916"><ele>94.0</ele><time>2026-04-03T15:47:59Z</time></trkpt><trkpt lat="44.51278276977791" lon="0.9347522694615545"><ele>94.0</ele><time>2026-04-03T15:48:00Z</time></trkpt><trkpt lat="44.512896389469546" lon="0.9346916152758669"><ele>94.0</ele><time>2026-04-03T15:48:01Z</time></trkpt><trkpt lat="44.51301197687335" lon="0.9346623944908399"><ele>94.0</ele><time>2026-04-03T15:48:02Z</time></trkpt><trkpt lat="44.51312198343788" lon="0.9346106377228091"><ele>93.25</ele><time>2026-04-03T15:48:03Z</time></trkpt><trkpt lat="44.51323682839593" lon="0.9345544758228899"><ele>92.5</ele><time>2026-04-03T15:48:04Z</time></trkpt><trkpt lat="44.51335937565886" lon="0.9344903754317668"><ele>91.75</ele><time>2026-04-03T15:48:05Z</time></trkpt><trkpt lat="44.513477414217625" lon="0.9344002837941285"><ele>91.0</ele><time>2026-04-03T15:48:06Z</time></trkpt><trkpt lat="44.51359737403889" lon="0.9343212750827333"><ele>91.0</ele><time>2026-04-03T15:48:07Z</time></trkpt><trkpt lat="44.513723820554034" lon="0.9342132649656465"><ele>91.0</ele><time>2026-04-03T15:48:08Z</time></trkpt><trkpt lat="44.51384793186248" lon="0.9340837596117544"><ele>91.0</ele><time>2026-04-03T15:48:09Z</time></trkpt><trkpt lat="44.51396914638039" lon="0.9339287038588023"><ele>91.0</ele><time>2026-04-03T15:48:10Z</time></trkpt><trkpt lat="44.51409445284424" lon="0.9337734554538236"><ele>91.0</ele><time>2026-04-03T15:48:11Z</time></trkpt><trkpt lat="44.514228834771764" lon="0.9336264468488121"><ele>91.0</ele><time>2026-04-03T15:48:12Z</time></trkpt><trkpt lat="44.514354983769536" lon="0.9334869966023551"><ele>92.0</ele><time>2026-04-03T15:48:13Z</time></trkpt><trkpt lat="44.51448316264274" lon="0.9333787821568911"><ele>93.0</ele><time>2026-04-03T15:48:14Z</time></trkpt><trkpt lat="44.51461059121458" lon="0.9333026198385591"><ele>94.0</ele><time>2026-04-03T15:48:15Z</time></trkpt><trkpt lat="44.51474242117035" lon="0.933331622555938"><ele>95.0</ele><time>2026-04-03T15:48:16Z</time></trkpt><trkpt lat="44.51488387693533" lon="0.9333829616683471"><ele>95.33333333333334</ele><time>2026-04-03T15:48:17Z</time></trkpt><trkpt lat="44.5150320589505" lon="0.9334227215289498"><ele>95.66666666666667</ele><time>2026-04-03T15:48:18Z</time></trkpt><trkpt lat="44.515174657666925" lon="0.9334411958782938"><ele>96.0</ele><time>2026-04-03T15:48:19Z</time></trkpt><trkpt lat="44.515332875668754" lon="0.9334620460755962"><ele>96.33333333333334</ele><time>2026-04-03T15:48:20Z</time></trkpt><trkpt lat="44.51548428059467" lon="0.9334690340428926"><ele>96.66666666666667</ele><time>2026-04-03T15:48:21Z</time></trkpt><trkpt lat="44.515642792668366" lon="0.9334697359529388"><ele>97.0</ele><time>2026-04-03T15:48:22Z</time></trkpt><trkpt lat="44.515808563942606" lon="0.9334563458500514"><ele>97.0</ele><time>2026-04-03T15:48:23Z</time></trkpt><trkpt lat="44.51597124491498" lon="0.9334221911561899"><ele>97.0</ele><time>2026-04-03T15:48:24Z</time></trkpt><trkpt lat="44.51613813611852" lon="0.9333800438057176"><ele>97.0</ele><time>2026-04-03T15:48:25Z</time></trkpt><trkpt lat="44.516306082782" lon="0.9333432523991785"><ele>97.5</ele><time>2026-04-03T15:48:26Z</time></trkpt><trkpt lat="44.516462200587554" lon="0.9333131836090305"><ele>98.0</ele><time>2026-04-03T15:48:27Z</time></trkpt><trkpt lat="44.516609515820704" lon="0.9333311617444913"><ele>98.5</ele><time>2026-04-03T15:48:28Z</time></trkpt><trkpt lat="44.51673191528254" lon="0.9333405063106499"><ele>99.0</ele><time>2026-04-03T15:48:29Z</time></trkpt><trkpt lat="44.516824117759136" lon="0.933332346258143"><ele>99.0</ele><time>2026-04-03T15:48:30Z</time></trkpt><trkpt lat="44.51689037062609" lon="0.9333479984387331"><ele>99.0</ele><time>2026-04-03T15:48:31Z</time></trkpt><trkpt lat="44.51696631658317" lon="0.9331325722710392"><ele>99.0</ele><time>2026-04-03T15:48:33.999Z</time></trkpt><trkpt lat="44.51694594950639" lon="0.9330002901719822"><ele>99.0</ele><time>2026-04-03T15:48:34.999Z</time></trkpt><trkpt lat="44.51693412889314" lon="0.9328486418320316"><ele>99.0</ele><time>2026-04-03T15:48:35.999Z</time></trkpt><trkpt lat="44.516942656312565" lon="0.9326809686514395"><ele>100.0</ele><time>2026-04-03T15:48:36.999Z</time></trkpt><trkpt lat="44.51692335992899" lon="0.9325029723725841"><ele>101.0</ele><time>2026-04-03T15:48:37.999Z</time></trkpt><trkpt lat="44.5169187662756" lon="0.9323245126069301"><ele>102.0</ele><time>2026-04-03T15:48:38.999Z</time></trkpt><trkpt lat="44.51690997659889" lon="0.9321385878118386"><ele>103.0</ele><time>2026-04-03T15:48:39.999Z</time></trkpt><trkpt lat="44.5169046293588" lon="0.931942056738945"><ele>103.0</ele><time>2026-04-03T15:48:40.999Z</time></trkpt><trkpt lat="44.51689398502771" lon="0.9317447008601408"><ele>103.0</ele><time>2026-04-03T15:48:41.999Z</time></trkpt><trkpt lat="44.516914595965126" lon="0.9315331057886572"><ele>103.0</ele><time>2026-04-03T15:48:42.999Z</time></trkpt><trkpt lat="44.51691027501762" lon="0.9313244893876669"><ele>103.0</ele><time>2026-04-03T15:48:43.999Z</time></trkpt><trkpt lat="44.51693503144237" lon="0.9311071939202246"><ele>107.33333333333334</ele><time>2026-04-03T15:48:44.999Z</time></trkpt><trkpt lat="44.51695906008584" lon="0.9308879928235256"><ele>111.66666666666666</ele><time>2026-04-03T15:48:45.999Z</time></trkpt><trkpt lat="44.51698541893049" lon="0.9306728933507953"><ele>116.0</ele><time>2026-04-03T15:48:46.999Z</time></trkpt><trkpt lat="44.51701530215644" lon="0.9304485191907458"><ele>116.0</ele><time>2026-04-03T15:48:47.999Z</time></trkpt><trkpt lat="44.517030123756115" lon="0.9302357875035389"><ele>116.0</ele><time>2026-04-03T15:48:48.999Z</time></trkpt><trkpt lat="44.51703837433066" lon="0.9300345460329468"><ele>116.0</ele><time>2026-04-03T15:48:49.999Z</time></trkpt><trkpt lat="44.51703057358447" lon="0.9298312338629962"><ele>116.0</ele><time>2026-04-03T15:48:50.999Z</time></trkpt><trkpt lat="44.51699253578975" lon="0.9296317548961449"><ele>117.66666666666666</ele><time>2026-04-03T15:48:51.999Z</time></trkpt><trkpt lat="44.51692992879646" lon="0.9294411887610704"><ele>119.33333333333334</ele><time>2026-04-03T15:48:52.999Z</time></trkpt><trkpt lat="44.51684820441434" lon="0.9292618247643081"><ele>121.0</ele><time>2026-04-03T15:48:53.999Z</time></trkpt><trkpt lat="44.516786890092355" lon="0.9290589206980291"><ele>122.33333333333334</ele><time>2026-04-03T15:48:54.999Z</time></trkpt><trkpt lat="44.516725644594736" lon="0.9288560778305073"><ele>123.66666666666666</ele><time>2026-04-03T15:48:55.999Z</time></trkpt><trkpt lat="44.516673067114226" lon="0.9286495859685039"><ele>125.0</ele><time>2026-04-03T15:48:56.999Z</time></trkpt><trkpt lat="44.51662777180054" lon="0.928428862187965"><ele>126.0</ele><time>2026-04-03T15:48:57.999Z</time></trkpt><trkpt lat="44.516603536675355" lon="0.9282147144093259"><ele>127.0</ele><time>2026-04-03T15:48:58.999Z</time></trkpt><trkpt lat="44.51659004067961" lon="0.9280033406794739"><ele>128.0</ele><time>2026-04-03T15:48:59.999Z</time></trkpt><trkpt lat="44.51662582077218" lon="0.9277992376460783"><ele>128.0</ele><time>2026-04-03T15:49:00.999Z</time></trkpt><trkpt lat="44.51666927911707" lon="0.9275903000055067"><ele>128.0</ele><time>2026-04-03T15:49:01.999Z</time></trkpt><trkpt lat="44.51670707325272" lon="0.9273714340076326"><ele>128.0</ele><time>2026-04-03T15:49:02.999Z</time></trkpt><trkpt lat="44.51677235603177" lon="0.927178318954806"><ele>126.75</ele><time>2026-04-03T15:49:03.999Z</time></trkpt><trkpt lat="44.5168465794542" lon="0.9270425825050834"><ele>125.5</ele><time>2026-04-03T15:49:04.999Z</time></trkpt><trkpt lat="44.516924924849064" lon="0.9269340931612331"><ele>124.25</ele><time>2026-04-03T15:49:05.999Z</time></trkpt><trkpt lat="44.51701078277756" lon="0.9268506868697308"><ele>123.0</ele><time>2026-04-03T15:49:06.999Z</time></trkpt><trkpt lat="44.517131771681186" lon="0.9267671341944033"><ele>123.66666666666666</ele><time>2026-04-03T15:49:07.999Z</time></trkpt><trkpt lat="44.51726806699643" lon="0.9266468702078468"><ele>124.33333333333333</ele><time>2026-04-03T15:49:08.999Z</time></trkpt><trkpt lat="44.517409455670325" lon="0.9265499209188756"><ele>125.0</ele><time>2026-04-03T15:49:09.999Z</time></trkpt><trkpt lat="44.51755015427589" lon="0.926447943943884"><ele>125.0</ele><time>2026-04-03T15:49:10.999Z</time></trkpt><trkpt lat="44.51767469186746" lon="0.9263526471547533"><ele>125.0</ele><time>2026-04-03T15:49:11.999Z</time></trkpt><trkpt lat="44.517762868930554" lon="0.926240254145437"><ele>125.0</ele><time>2026-04-03T15:49:12.999Z</time></trkpt><trkpt lat="44.517821331601844" lon="0.926103273103009"><ele>125.0</ele><time>2026-04-03T15:49:13.999Z</time></trkpt><trkpt lat="44.51784357280409" lon="0.9259388147437064"><ele>123.75</ele><time>2026-04-03T15:49:14.999Z</time></trkpt><trkpt lat="44.51783196976163" lon="0.9257711627852234"><ele>122.5</ele><time>2026-04-03T15:49:15.999Z</time></trkpt><trkpt lat="44.51779792029413" lon="0.9255917880842277"><ele>121.25</ele><time>2026-04-03T15:49:16.999Z</time></trkpt><trkpt lat="44.517746514985326" lon="0.9254072928960217"><ele>120.0</ele><time>2026-04-03T15:49:17.999Z</time></trkpt><trkpt lat="44.51769825695631" lon="0.9252518605771165"><ele>120.0</ele><time>2026-04-03T15:49:18.999Z</time></trkpt><trkpt lat="44.5176313436445" lon="0.9251234422008763"><ele>120.0</ele><time>2026-04-03T15:49:19.999Z</time></trkpt><trkpt lat="44.51754101418601" lon="0.9250262635474337"><ele>120.0</ele><time>2026-04-03T15:49:20.999Z</time></trkpt><trkpt lat="44.51742022386997" lon="0.9249734116961923"><ele>120.0</ele><time>2026-04-03T15:49:21.999Z</time></trkpt><trkpt lat="44.51726743258934" lon="0.9249310394160981"><ele>119.5</ele><time>2026-04-03T15:49:22.999Z</time></trkpt><trkpt lat="44.517119616097" lon="0.9248749557856831"><ele>119.0</ele><time>2026-04-03T15:49:23.999Z</time></trkpt><trkpt lat="44.51699320292802" lon="0.9247976323644677"><ele>118.5</ele><time>2026-04-03T15:49:24.999Z</time></trkpt><trkpt lat="44.516907642585906" lon="0.9246574877806383"><ele>118.0</ele><time>2026-04-03T15:49:25.999Z</time></trkpt><trkpt lat="44.516817500400286" lon="0.9244995291017133"><ele>118.33333333333334</ele><time>2026-04-03T15:49:26.999Z</time></trkpt><trkpt lat="44.51672387710089" lon="0.9243304802894542"><ele>118.66666666666666</ele><time>2026-04-03T15:49:27.999Z</time></trkpt><trkpt lat="44.51662722692221" lon="0.9241610351592299"><ele>119.0</ele><time>2026-04-03T15:49:28.999Z</time></trkpt><trkpt lat="44.516529351655656" lon="0.9239808548686521"><ele>119.0</ele><time>2026-04-03T15:49:29.999Z</time></trkpt><trkpt lat="44.51643220553057" lon="0.9237928224011147"><ele>119.0</ele><time>2026-04-03T15:49:30.999Z</time></trkpt><trkpt lat="44.516331122169994" lon="0.9236051234562568"><ele>119.0</ele><time>2026-04-03T15:49:31.999Z</time></trkpt><trkpt lat="44.51622051077733" lon="0.9234232865240734"><ele>121.33333333333333</ele><time>2026-04-03T15:49:32.999Z</time></trkpt><trkpt lat="44.516124351371836" lon="0.923218529670269"><ele>123.66666666666666</ele><time>2026-04-03T15:49:33.999Z</time></trkpt><trkpt lat="44.516034271637785" lon="0.9230224089758189"><ele>126.0</ele><time>2026-04-03T15:49:34.999Z</time></trkpt><trkpt lat="44.5159590247698" lon="0.9228242139559749"><ele>126.0</ele><time>2026-04-03T15:49:35.999Z</time></trkpt><trkpt lat="44.51588771110556" lon="0.922612681329495"><ele>126.0</ele><time>2026-04-03T15:49:36.999Z</time></trkpt><trkpt lat="44.515805091061004" lon="0.9223997279109579"><ele>126.0</ele><time>2026-04-03T15:49:37.999Z</time></trkpt><trkpt lat="44.51573678450431" lon="0.9221945330563104"><ele>124.5</ele><time>2026-04-03T15:49:38.999Z</time></trkpt><trkpt lat="44.51567463447613" lon="0.9220179178392688"><ele>123.0</ele><time>2026-04-03T15:49:39.999Z</time></trkpt><trkpt lat="44.51560508157071" lon="0.9218604091229665"><ele>121.5</ele><time>2026-04-03T15:49:40.999Z</time></trkpt><trkpt lat="44.51551795971156" lon="0.9216826840570733"><ele>120.0</ele><time>2026-04-03T15:49:41.999Z</time></trkpt><trkpt lat="44.51541512244708" lon="0.9214968590643305"><ele>119.66666666666666</ele><time>2026-04-03T15:49:42.999Z</time></trkpt><trkpt lat="44.515330366569174" lon="0.9212904078816045"><ele>119.33333333333333</ele><time>2026-04-03T15:49:43.999Z</time></trkpt><trkpt lat="44.515227429840174" lon="0.9210876519677151"><ele>119.0</ele><time>2026-04-03T15:49:44.999Z</time></trkpt><trkpt lat="44.51512348743258" lon="0.920881671431798"><ele>116.66666666666666</ele><time>2026-04-03T15:49:46Z</time></trkpt><trkpt lat="44.51501308887536" lon="0.9206593903597247"><ele>114.33333333333334</ele><time>2026-04-03T15:49:47Z</time></trkpt><trkpt lat="44.514911193013276" lon="0.9204542287797172"><ele>112.0</ele><time>2026-04-03T15:49:48Z</time></trkpt><trkpt lat="44.51480769373867" lon="0.9202933161926811"><ele>112.0</ele><time>2026-04-03T15:49:49Z</time></trkpt><trkpt lat="44.51473144787425" lon="0.9201659407091808"><ele>111.99999999999999</ele><time>2026-04-03T15:49:50Z</time></trkpt><trkpt lat="44.514650268690694" lon="0.9200770134130289"><ele>111.99999999999999</ele><time>2026-04-03T15:49:51Z</time></trkpt><trkpt lat="44.51456028085994" lon="0.9200139621529775"><ele>112.0</ele><time>2026-04-03T15:49:52Z</time></trkpt><trkpt lat="44.51443576681219" lon="0.9200240259563707"><ele>112.0</ele><time>2026-04-03T15:49:53Z</time></trkpt><trkpt lat="44.51429646884947" lon="0.9200330220921176"><ele>112.33333333333334</ele><time>2026-04-03T15:49:54Z</time></trkpt><trkpt lat="44.514153408950605" lon="0.9200544459854489"><ele>112.66666666666666</ele><time>2026-04-03T15:49:55Z</time></trkpt><trkpt lat="44.513994774927134" lon="0.9200831426263737"><ele>113.0</ele><time>2026-04-03T15:49:56Z</time></trkpt><trkpt lat="44.51383164671267" lon="0.9201126619954627"><ele>112.66666666666666</ele><time>2026-04-03T15:49:57Z</time></trkpt><trkpt lat="44.513667049971225" lon="0.9201419821534458"><ele>112.33333333333334</ele><time>2026-04-03T15:49:58Z</time></trkpt><trkpt lat="44.51350320471304" lon="0.9201705332564858"><ele>112.0</ele><time>2026-04-03T15:49:59Z</time></trkpt><trkpt lat="44.513344550847144" lon="0.9202068116288047"><ele>112.0</ele><time>2026-04-03T15:50:00Z</time></trkpt><trkpt lat="44.51318322979319" lon="0.9202594385488683"><ele>112.0</ele><time>2026-04-03T15:50:01Z</time></trkpt><trkpt lat="44.5130260625731" lon="0.920356341281623"><ele>112.0</ele><time>2026-04-03T15:50:02Z</time></trkpt><trkpt lat="44.512870472899316" lon="0.9204499829590834"><ele>112.66666666666667</ele><time>2026-04-03T15:50:03Z</time></trkpt><trkpt lat="44.51270993453522" lon="0.920528463412145"><ele>113.33333333333334</ele><time>2026-04-03T15:50:04Z</time></trkpt><trkpt lat="44.512552008492165" lon="0.9206299355273212"><ele>114.0</ele><time>2026-04-03T15:50:05Z</time></trkpt><trkpt lat="44.512412113615106" lon="0.9207309500358531"><ele>114.0</ele><time>2026-04-03T15:50:06Z</time></trkpt><trkpt lat="44.512274338701765" lon="0.9208505893001306"><ele>114.0</ele><time>2026-04-03T15:50:07Z</time></trkpt><trkpt lat="44.51213861405739" lon="0.9209816893950994"><ele>114.0</ele><time>2026-04-03T15:50:08Z</time></trkpt><trkpt lat="44.51199953242498" lon="0.9211199378462822"><ele>117.33333333333334</ele><time>2026-04-03T15:50:09Z</time></trkpt><trkpt lat="44.511861351021146" lon="0.9212652827977785"><ele>120.66666666666667</ele><time>2026-04-03T15:50:10Z</time></trkpt><trkpt lat="44.511736613830884" lon="0.9214104303831802"><ele>124.0</ele><time>2026-04-03T15:50:11Z</time></trkpt><trkpt lat="44.51160961003051" lon="0.9215691863330386"><ele>124.0</ele><time>2026-04-03T15:50:12Z</time></trkpt><trkpt lat="44.51149329202799" lon="0.9217161559648878"><ele>124.0</ele><time>2026-04-03T15:50:13Z</time></trkpt><trkpt lat="44.51139772440748" lon="0.9218369011005494"><ele>124.0</ele><time>2026-04-03T15:50:14Z</time></trkpt><trkpt lat="44.511315450795315" lon="0.9219388785827484"><ele>124.0</ele><time>2026-04-03T15:50:15Z</time></trkpt><trkpt lat="44.51123249495302" lon="0.9220303371743112"><ele>124.4</ele><time>2026-04-03T15:50:16Z</time></trkpt><trkpt lat="44.511144128427766" lon="0.9220983569995449"><ele>124.80000000000001</ele><time>2026-04-03T15:50:17Z</time></trkpt><trkpt lat="44.51105176077595" lon="0.9221345756647858"><ele>125.19999999999999</ele><time>2026-04-03T15:50:18Z</time></trkpt><trkpt lat="44.51095306735821" lon="0.9221399953087398"><ele>125.6</ele><time>2026-04-03T15:50:19Z</time></trkpt><trkpt lat="44.510843945649896" lon="0.9221254441467408"><ele>126.0</ele><time>2026-04-03T15:50:20Z</time></trkpt><trkpt lat="44.510737616135295" lon="0.9221106748153611"><ele>126.0</ele><time>2026-04-03T15:50:21Z</time></trkpt><trkpt lat="44.51062524614225" lon="0.9220939224589088"><ele>126.0</ele><time>2026-04-03T15:50:22Z</time></trkpt><trkpt lat="44.51052325523377" lon="0.9220782099644338"><ele>126.0</ele><time>2026-04-03T15:50:23Z</time></trkpt><trkpt lat="44.51042309584278" lon="0.9220632537404555"><ele>126.0</ele><time>2026-04-03T15:50:24Z</time></trkpt><trkpt lat="44.510328046651864" lon="0.9220504488581618"><ele>126.0</ele><time>2026-04-03T15:50:25Z</time></trkpt><trkpt lat="44.51023647754454" lon="0.9220381128137968"><ele>125.66666666666667</ele><time>2026-04-03T15:50:26Z</time></trkpt><trkpt lat="44.510149441691304" lon="0.9220263874874008"><ele>125.33333333333334</ele><time>2026-04-03T15:50:27Z</time></trkpt><trkpt lat="44.510072305800186" lon="0.9220149223467663"><ele>125.0</ele><time>2026-04-03T15:50:28Z</time></trkpt><trkpt lat="44.509996178448134" lon="0.9220027910773115"><ele>124.66666666666667</ele><time>2026-04-03T15:50:29Z</time></trkpt><trkpt lat="44.509925006684846" lon="0.9219905810222533"><ele>124.33333333333334</ele><time>2026-04-03T15:50:30Z</time></trkpt><trkpt lat="44.50985644543417" lon="0.9219781213038379"><ele>124.0</ele><time>2026-04-03T15:50:31Z</time></trkpt><trkpt lat="44.5097595363523" lon="0.9219558879794415"><ele>124.00000000000001</ele><time>2026-04-03T15:50:33Z</time></trkpt><trkpt lat="44.50983260287755" lon="0.9219857973374483"><ele>124.0</ele><time>2026-04-03T15:50:59.999Z</time></trkpt><trkpt lat="44.50990002654462" lon="0.9219996402267024"><ele>124.0</ele><time>2026-04-03T15:51:02.999Z</time></trkpt><trkpt lat="44.50999937362894" lon="0.9220152314402964"><ele>124.0</ele><time>2026-04-03T15:51:05.999Z</time></trkpt><trkpt lat="44.5100851769199" lon="0.922031994620943"><ele>124.00000000000001</ele><time>2026-04-03T15:51:07.999Z</time></trkpt><trkpt lat="44.51017866815825" lon="0.922045486206967"><ele>124.0</ele><time>2026-04-03T15:51:09.999Z</time></trkpt><trkpt lat="44.510286297040146" lon="0.9220614174691895"><ele>124.0</ele><time>2026-04-03T15:51:11.999Z</time></trkpt><trkpt lat="44.51039941387822" lon="0.922075305141185"><ele>124.0</ele><time>2026-04-03T15:51:13.999Z</time></trkpt><trkpt lat="44.51051935671475" lon="0.9220934365135183"><ele>124.0</ele><time>2026-04-03T15:51:15.999Z</time></trkpt><trkpt lat="44.51068821031473" lon="0.9221098246007088"><ele>124.0</ele><time>2026-04-03T15:51:17.999Z</time></trkpt><trkpt lat="44.510752195793586" lon="0.9221180603806637"><ele>124.4</ele><time>2026-04-03T15:51:18.999Z</time></trkpt><trkpt lat="44.51087034450559" lon="0.9221390165279271"><ele>124.80000000000001</ele><time>2026-04-03T15:51:20.999Z</time></trkpt><trkpt lat="44.510976821443364" lon="0.9221516006837259"><ele>125.19999999999999</ele><time>2026-04-03T15:51:22.999Z</time></trkpt><trkpt lat="44.51106895078302" lon="0.9221497798912448"><ele>125.6</ele><time>2026-04-03T15:51:24.999Z</time></trkpt><trkpt lat="44.51114619288796" lon="0.9221332386675836"><ele>126.0</ele><time>2026-04-03T15:51:26.999Z</time></trkpt><trkpt lat="44.51121470374997" lon="0.9220950690398255"><ele>125.71428571428572</ele><time>2026-04-03T15:51:28.999Z</time></trkpt><trkpt lat="44.51126825747536" lon="0.9220448383128426"><ele>125.42857142857143</ele><time>2026-04-03T15:51:30.999Z</time></trkpt><trkpt lat="44.51133011675347" lon="0.9219777753398112"><ele>125.14285714285714</ele><time>2026-04-03T15:51:33.999Z</time></trkpt><trkpt lat="44.51137917627229" lon="0.9219062982128977"><ele>124.85714285714286</ele><time>2026-04-03T15:51:36.999Z</time></trkpt><trkpt lat="44.51142649313191" lon="0.9218328615664929"><ele>124.57142857142858</ele><time>2026-04-03T15:51:39.999Z</time></trkpt><trkpt lat="44.511469451518046" lon="0.9217679695590479"><ele>124.28571428571429</ele><time>2026-04-03T15:51:42.999Z</time></trkpt><trkpt lat="44.51151908908426" lon="0.9217089305803116"><ele>124.0</ele><time>2026-04-03T15:51:44.999Z</time></trkpt><trkpt lat="44.511631391654284" lon="0.921574406362225"><ele>124.0</ele><time>2026-04-03T15:51:45.999Z</time></trkpt><trkpt lat="44.51172978483984" lon="0.9214561852957861"><ele>124.0</ele><time>2026-04-03T15:51:46.999Z</time></trkpt><trkpt lat="44.51182168341626" lon="0.9213472733643947"><ele>124.0</ele><time>2026-04-03T15:51:47.999Z</time></trkpt><trkpt lat="44.5119425006521" lon="0.9212186684298893"><ele>124.0</ele><time>2026-04-03T15:51:48.999Z</time></trkpt><trkpt lat="44.51206718577169" lon="0.9210919311036417"><ele>124.0</ele><time>2026-04-03T15:51:49.999Z</time></trkpt><trkpt lat="44.5121903867119" lon="0.9209689994227673"><ele>124.0</ele><time>2026-04-03T15:51:50.999Z</time></trkpt><trkpt lat="44.512337364908845" lon="0.9208400808276119"><ele>124.0</ele><time>2026-04-03T15:51:52Z</time></trkpt><trkpt lat="44.51249286890096" lon="0.9206946576401863"><ele>120.66666666666667</ele><time>2026-04-03T15:51:53Z</time></trkpt><trkpt lat="44.512669990782406" lon="0.9206053434682857"><ele>117.33333333333334</ele><time>2026-04-03T15:51:54Z</time></trkpt><trkpt lat="44.51282256766662" lon="0.9205101698972344"><ele>114.0</ele><time>2026-04-03T15:51:55Z</time></trkpt><trkpt lat="44.512985469541285" lon="0.9203866392191791"><ele>113.33333333333334</ele><time>2026-04-03T15:51:56Z</time></trkpt><trkpt lat="44.5131655267205" lon="0.9203030060329439"><ele>112.66666666666667</ele><time>2026-04-03T15:51:57Z</time></trkpt><trkpt lat="44.51330979964517" lon="0.9202637292618266"><ele>112.0</ele><time>2026-04-03T15:51:58Z</time></trkpt><trkpt lat="44.51345757759941" lon="0.9202267785703878"><ele>112.0</ele><time>2026-04-03T15:51:59Z</time></trkpt><trkpt lat="44.51361320502008" lon="0.9201983805460884"><ele>112.0</ele><time>2026-04-03T15:52:00Z</time></trkpt><trkpt lat="44.51377925805234" lon="0.9201500535939671"><ele>112.0</ele><time>2026-04-03T15:52:01Z</time></trkpt><trkpt lat="44.51395287251443" lon="0.920124011328979"><ele>112.33333333333334</ele><time>2026-04-03T15:52:02Z</time></trkpt><trkpt lat="44.51412710956565" lon="0.9200990638686259"><ele>112.66666666666666</ele><time>2026-04-03T15:52:03Z</time></trkpt><trkpt lat="44.51429775585448" lon="0.9200584901918022"><ele>113.0</ele><time>2026-04-03T15:52:04Z</time></trkpt><trkpt lat="44.514458548411085" lon="0.9200742531895739"><ele>112.75</ele><time>2026-04-03T15:52:05Z</time></trkpt><trkpt lat="44.51458878732214" lon="0.9201029103427191"><ele>112.5</ele><time>2026-04-03T15:52:06Z</time></trkpt><trkpt lat="44.51471395961278" lon="0.9201843510208666"><ele>112.25</ele><time>2026-04-03T15:52:07Z</time></trkpt><trkpt lat="44.51479988523651" lon="0.9203216173931242"><ele>112.0</ele><time>2026-04-03T15:52:08Z</time></trkpt><trkpt lat="44.514885654525614" lon="0.9204844159456503"><ele>112.0</ele><time>2026-04-03T15:52:09Z</time></trkpt><trkpt lat="44.514973403179454" lon="0.9206610929158745"><ele>112.0</ele><time>2026-04-03T15:52:10Z</time></trkpt><trkpt lat="44.515067818457254" lon="0.9208511927057121"><ele>112.0</ele><time>2026-04-03T15:52:11Z</time></trkpt><trkpt lat="44.5151636221077" lon="0.9210423846357481"><ele>113.66666666666667</ele><time>2026-04-03T15:52:12Z</time></trkpt><trkpt lat="44.51526787639005" lon="0.9212202833981488"><ele>115.33333333333334</ele><time>2026-04-03T15:52:13Z</time></trkpt><trkpt lat="44.51536235651183" lon="0.9214002081292805"><ele>117.0</ele><time>2026-04-03T15:52:14Z</time></trkpt><trkpt lat="44.51545633224454" lon="0.9215900099014921"><ele>118.0</ele><time>2026-04-03T15:52:15Z</time></trkpt><trkpt lat="44.5155515053641" lon="0.9217762975753327"><ele>119.0</ele><time>2026-04-03T15:52:16Z</time></trkpt><trkpt lat="44.515627331884076" lon="0.9219661580941467"><ele>120.0</ele><time>2026-04-03T15:52:17Z</time></trkpt><trkpt lat="44.51570685589178" lon="0.9221606483861239"><ele>120.0</ele><time>2026-04-03T15:52:18Z</time></trkpt><trkpt lat="44.515775135939414" lon="0.9223736379714713"><ele>120.0</ele><time>2026-04-03T15:52:19Z</time></trkpt><trkpt lat="44.515848240720786" lon="0.9226042238108497"><ele>120.0</ele><time>2026-04-03T15:52:20Z</time></trkpt><trkpt lat="44.51592513194027" lon="0.9228322387527695"><ele>122.0</ele><time>2026-04-03T15:52:21Z</time></trkpt><trkpt lat="44.51600867777388" lon="0.9230535268724113"><ele>124.0</ele><time>2026-04-03T15:52:22Z</time></trkpt><trkpt lat="44.51611596290687" lon="0.9232613820420404"><ele>126.0</ele><time>2026-04-03T15:52:23Z</time></trkpt><trkpt lat="44.51622598310888" lon="0.9234678491345647"><ele>123.66666666666666</ele><time>2026-04-03T15:52:24Z</time></trkpt><trkpt lat="44.516341383314575" lon="0.9236765919897005"><ele>121.33333333333333</ele><time>2026-04-03T15:52:25Z</time></trkpt><trkpt lat="44.51644399637358" lon="0.9238986113249118"><ele>119.0</ele><time>2026-04-03T15:52:26Z</time></trkpt><trkpt lat="44.516559304883344" lon="0.9241079681495086"><ele>120.66666666666666</ele><time>2026-04-03T15:52:27Z</time></trkpt><trkpt lat="44.516663114899295" lon="0.9242964480723534"><ele>122.33333333333334</ele><time>2026-04-03T15:52:28Z</time></trkpt><trkpt lat="44.51675717701666" lon="0.9244672294565035"><ele>124.0</ele><time>2026-04-03T15:52:29Z</time></trkpt><trkpt lat="44.516842975049265" lon="0.9246178145419698"><ele>124.0</ele><time>2026-04-03T15:52:30Z</time></trkpt><trkpt lat="44.51693670861733" lon="0.9247585557250981"><ele>124.0</ele><time>2026-04-03T15:52:31Z</time></trkpt><trkpt lat="44.51704769014008" lon="0.9248690351925752"><ele>124.0</ele><time>2026-04-03T15:52:32Z</time></trkpt><trkpt lat="44.51719191488385" lon="0.9249348392741442"><ele>124.0</ele><time>2026-04-03T15:52:33Z</time></trkpt><trkpt lat="44.51735064983092" lon="0.9249883298285946"><ele>123.0</ele><time>2026-04-03T15:52:34Z</time></trkpt><trkpt lat="44.517499492922006" lon="0.9250734649302154"><ele>122.0</ele><time>2026-04-03T15:52:35Z</time></trkpt><trkpt lat="44.51760689149152" lon="0.9251879174881404"><ele>121.0</ele><time>2026-04-03T15:52:36Z</time></trkpt><trkpt lat="44.517680070965746" lon="0.9253322740938582"><ele>120.0</ele><time>2026-04-03T15:52:37Z</time></trkpt><trkpt lat="44.51773022757328" lon="0.9255013956031998"><ele>120.0</ele><time>2026-04-03T15:52:38Z</time></trkpt><trkpt lat="44.51776894553437" lon="0.9256997501107147"><ele>120.0</ele><time>2026-04-03T15:52:39Z</time></trkpt><trkpt lat="44.51779317671966" lon="0.9259057107403071"><ele>120.0</ele><time>2026-04-03T15:52:40Z</time></trkpt><trkpt lat="44.51778539783764" lon="0.9260677168147886"><ele>120.0</ele><time>2026-04-03T15:52:41Z</time></trkpt><trkpt lat="44.517742337306416" lon="0.9262150643945491"><ele>121.25</ele><time>2026-04-03T15:52:42Z</time></trkpt><trkpt lat="44.51765753497478" lon="0.9263382326503982"><ele>122.5</ele><time>2026-04-03T15:52:43Z</time></trkpt><trkpt lat="44.51753258000329" lon="0.9264434331301823"><ele>123.75</ele><time>2026-04-03T15:52:44Z</time></trkpt><trkpt lat="44.517404385257954" lon="0.9265226739915461"><ele>125.0</ele><time>2026-04-03T15:52:45Z</time></trkpt><trkpt lat="44.51727727627059" lon="0.926633020954394"><ele>124.5</ele><time>2026-04-03T15:52:46Z</time></trkpt><trkpt lat="44.51713746835275" lon="0.9267313539518316"><ele>124.0</ele><time>2026-04-03T15:52:47Z</time></trkpt><trkpt lat="44.516996322451234" lon="0.9268189658402828"><ele>123.5</ele><time>2026-04-03T15:52:48Z</time></trkpt><trkpt lat="44.51689321549798" lon="0.9269282475838017"><ele>123.0</ele><time>2026-04-03T15:52:49Z</time></trkpt><trkpt lat="44.51679795955769" lon="0.9270569853688827"><ele>124.25</ele><time>2026-04-03T15:52:50Z</time></trkpt><trkpt lat="44.51673135492088" lon="0.927223667370848"><ele>125.5</ele><time>2026-04-03T15:52:51Z</time></trkpt><trkpt lat="44.516684492905654" lon="0.9274207938170782"><ele>126.75</ele><time>2026-04-03T15:52:52Z</time></trkpt><trkpt lat="44.51662421640136" lon="0.9276340360931606"><ele>128.0</ele><time>2026-04-03T15:52:53Z</time></trkpt><trkpt lat="44.51658002762662" lon="0.9278753039550767"><ele>128.0</ele><time>2026-04-03T15:52:54Z</time></trkpt><trkpt lat="44.516568981385895" lon="0.9281014099765806"><ele>128.0</ele><time>2026-04-03T15:52:55Z</time></trkpt><trkpt lat="44.51658796710749" lon="0.9283226703247224"><ele>128.0</ele><time>2026-04-03T15:52:56Z</time></trkpt><trkpt lat="44.51661834442926" lon="0.928559721848361"><ele>127.0</ele><time>2026-04-03T15:52:57Z</time></trkpt><trkpt lat="44.51667626985798" lon="0.9288060463469886"><ele>126.0</ele><time>2026-04-03T15:52:58Z</time></trkpt><trkpt lat="44.51674918676326" lon="0.9290533613616732"><ele>125.0</ele><time>2026-04-03T15:52:59Z</time></trkpt><trkpt lat="44.51683004173953" lon="0.9292933743458388"><ele>123.66666666666666</ele><time>2026-04-03T15:53:00Z</time></trkpt><trkpt lat="44.516906420934916" lon="0.9295022989411895"><ele>122.33333333333334</ele><time>2026-04-03T15:53:00.999Z</time></trkpt><trkpt lat="44.51697165170506" lon="0.9297017292073577"><ele>121.0</ele><time>2026-04-03T15:53:01.999Z</time></trkpt><trkpt lat="44.51699807280779" lon="0.929884667898502"><ele>119.33333333333334</ele><time>2026-04-03T15:53:02.999Z</time></trkpt><trkpt lat="44.51700720915831" lon="0.9300950841818467"><ele>117.66666666666666</ele><time>2026-04-03T15:53:03.999Z</time></trkpt><trkpt lat="44.516996821373915" lon="0.9303117272261555"><ele>116.0</ele><time>2026-04-03T15:53:04.999Z</time></trkpt><trkpt lat="44.51697187918859" lon="0.9305516564141244"><ele>116.0</ele><time>2026-04-03T15:53:05.999Z</time></trkpt><trkpt lat="44.51694387944056" lon="0.9308102713169802"><ele>116.0</ele><time>2026-04-03T15:53:06.999Z</time></trkpt><trkpt lat="44.516914667075156" lon="0.9310702197014996"><ele>116.0</ele><time>2026-04-03T15:53:07.999Z</time></trkpt><trkpt lat="44.5168925043335" lon="0.9313353414574181"><ele>113.66666666666666</ele><time>2026-04-03T15:53:08.999Z</time></trkpt><trkpt lat="44.516877716933486" lon="0.9316136084325555"><ele>111.33333333333334</ele><time>2026-04-03T15:53:09.999Z</time></trkpt><trkpt lat="44.516876631601335" lon="0.9318917826964032"><ele>109.0</ele><time>2026-04-03T15:53:10.999Z</time></trkpt><trkpt lat="44.51688430949089" lon="0.9321618598993564"><ele>107.0</ele><time>2026-04-03T15:53:11.999Z</time></trkpt><trkpt lat="44.51689527502822" lon="0.9324101197311002"><ele>105.0</ele><time>2026-04-03T15:53:12.999Z</time></trkpt><trkpt lat="44.516906486165546" lon="0.9326242287122197"><ele>103.0</ele><time>2026-04-03T15:53:13.999Z</time></trkpt><trkpt lat="44.516915137936856" lon="0.9328105905381071"><ele>102.2</ele><time>2026-04-03T15:53:14.999Z</time></trkpt><trkpt lat="44.516923235230244" lon="0.9329901992340897"><ele>101.4</ele><time>2026-04-03T15:53:15.999Z</time></trkpt><trkpt lat="44.516926925745" lon="0.9331355347044946"><ele>100.60000000000001</ele><time>2026-04-03T15:53:16.999Z</time></trkpt><trkpt lat="44.516927438727166" lon="0.933248331386061"><ele>99.80000000000001</ele><time>2026-04-03T15:53:17.999Z</time></trkpt><trkpt lat="44.51693400545949" lon="0.9333637255759871"><ele>99.0</ele><time>2026-04-03T15:53:19.999Z</time></trkpt><trkpt lat="44.516994833221815" lon="0.9334486036071442"><ele>98.0</ele><time>2026-04-03T15:53:22.999Z</time></trkpt><trkpt lat="44.517225230318736" lon="0.9334425813467353"><ele>97.0</ele><time>2026-04-03T15:53:24.999Z</time></trkpt><trkpt lat="44.51734790255267" lon="0.933473955406751"><ele>96.0</ele><time>2026-04-03T15:53:25.999Z</time></trkpt><trkpt lat="44.51748877653424" lon="0.9335002487015902"><ele>96.0</ele><time>2026-04-03T15:53:26.999Z</time></trkpt><trkpt lat="44.517634659194705" lon="0.9335307714413772"><ele>96.0</ele><time>2026-04-03T15:53:27.999Z</time></trkpt><trkpt lat="44.51779249170242" lon="0.9335241158684924"><ele>96.0</ele><time>2026-04-03T15:53:28.999Z</time></trkpt><trkpt lat="44.517959597609604" lon="0.9334862684311016"><ele>96.0</ele><time>2026-04-03T15:53:29.999Z</time></trkpt><trkpt lat="44.51812072848566" lon="0.9334180785477004"><ele>96.0</ele><time>2026-04-03T15:53:30.999Z</time></trkpt><trkpt lat="44.518294799628876" lon="0.9333613255936041"><ele>96.0</ele><time>2026-04-03T15:53:31.999Z</time></trkpt><trkpt lat="44.51846653453926" lon="0.9332892100280064"><ele>96.0</ele><time>2026-04-03T15:53:32.999Z</time></trkpt><trkpt lat="44.518629464822716" lon="0.9332204887436313"><ele>96.0</ele><time>2026-04-03T15:53:33.999Z</time></trkpt><trkpt lat="44.51878641483226" lon="0.9331424661293644"><ele>96.0</ele><time>2026-04-03T15:53:34.999Z</time></trkpt><trkpt lat="44.51895249689778" lon="0.9330458641138559"><ele>94.0</ele><time>2026-04-03T15:53:35.999Z</time></trkpt><trkpt lat="44.5191116629602" lon="0.9329241185338275"><ele>92.0</ele><time>2026-04-03T15:53:36.999Z</time></trkpt><trkpt lat="44.519267866959275" lon="0.9327909295659597"><ele>90.0</ele><time>2026-04-03T15:53:37.999Z</time></trkpt><trkpt lat="44.519429588049135" lon="0.9326569718858676"><ele>89.33333333333333</ele><time>2026-04-03T15:53:38.999Z</time></trkpt><trkpt lat="44.519589236898696" lon="0.9325249873141743"><ele>88.66666666666666</ele><time>2026-04-03T15:53:39.999Z</time></trkpt><trkpt lat="44.519758284358865" lon="0.9324053874257348"><ele>88.0</ele><time>2026-04-03T15:53:40.999Z</time></trkpt><trkpt lat="44.519936536168125" lon="0.9323059208114894"><ele>88.0</ele><time>2026-04-03T15:53:41.999Z</time></trkpt><trkpt lat="44.520093417248304" lon="0.9322214061741058"><ele>88.0</ele><time>2026-04-03T15:53:42.999Z</time></trkpt><trkpt lat="44.52024275642385" lon="0.932159469895112"><ele>88.0</ele><time>2026-04-03T15:53:43.999Z</time></trkpt><trkpt lat="44.520382083201845" lon="0.9320961029289501"><ele>87.25</ele><time>2026-04-03T15:53:44.999Z</time></trkpt><trkpt lat="44.52050713540862" lon="0.9320434516427056"><ele>86.5</ele><time>2026-04-03T15:53:45.999Z</time></trkpt><trkpt lat="44.52062195388538" lon="0.9319760131342465"><ele>85.75</ele><time>2026-04-03T15:53:46.999Z</time></trkpt><trkpt lat="44.52072479393562" lon="0.9319231150426891"><ele>85.0</ele><time>2026-04-03T15:53:47.999Z</time></trkpt><trkpt lat="44.52082167674159" lon="0.9318762652430187"><ele>85.0</ele><time>2026-04-03T15:53:48.999Z</time></trkpt><trkpt lat="44.52091134183271" lon="0.9318467705259371"><ele>85.0</ele><time>2026-04-03T15:53:49.999Z</time></trkpt><trkpt lat="44.52099388262792" lon="0.9318277992986282"><ele>85.0</ele><time>2026-04-03T15:53:50.999Z</time></trkpt><trkpt lat="44.52110940126862" lon="0.9318307856146324"><ele>85.0</ele><time>2026-04-03T15:53:52.999Z</time></trkpt><trkpt lat="44.52103112784542" lon="0.9318298596662882"><ele>85.0</ele><time>2026-04-03T15:55:14.999Z</time></trkpt><trkpt lat="44.5209503891914" lon="0.931848434877467"><ele>85.0</ele><time>2026-04-03T15:56:07Z</time></trkpt><trkpt lat="44.52085411935066" lon="0.9318895766514"><ele>85.0</ele><time>2026-04-03T15:56:09Z</time></trkpt><trkpt lat="44.520780331507524" lon="0.9319022385685923"><ele>85.0</ele><time>2026-04-03T15:56:11Z</time></trkpt><trkpt lat="44.52068786447926" lon="0.9319361290709248"><ele>85.0</ele><time>2026-04-03T15:56:13Z</time></trkpt><trkpt lat="44.5205513932115" lon="0.93200866063114"><ele>85.0</ele><time>2026-04-03T15:56:15Z</time></trkpt><trkpt lat="44.52046621575572" lon="0.9320493007908542"><ele>85.5</ele><time>2026-04-03T15:56:16Z</time></trkpt><trkpt lat="44.5203784257118" lon="0.9321226735205319"><ele>86.0</ele><time>2026-04-03T15:56:17Z</time></trkpt><trkpt lat="44.52028848929406" lon="0.9321600166700217"><ele>86.5</ele><time>2026-04-03T15:56:18Z</time></trkpt><trkpt lat="44.520198316766546" lon="0.9321404900566157"><ele>87.0</ele><time>2026-04-03T15:56:19Z</time></trkpt><trkpt lat="44.52012528318381" lon="0.9321754389601491"><ele>87.5</ele><time>2026-04-03T15:56:20Z</time></trkpt><trkpt lat="44.52006016997141" lon="0.9322065977127155"><ele>88.0</ele><time>2026-04-03T15:56:21Z</time></trkpt><trkpt lat="44.51999102422612" lon="0.9322394919975899"><ele>88.0</ele><time>2026-04-03T15:56:22Z</time></trkpt><trkpt lat="44.51989600639976" lon="0.9322836098498982"><ele>88.0</ele><time>2026-04-03T15:56:23Z</time></trkpt><trkpt lat="44.51978689757606" lon="0.932340066287499"><ele>88.0</ele><time>2026-04-03T15:56:24Z</time></trkpt><trkpt lat="44.51967917234082" lon="0.9324276947463563"><ele>88.0</ele><time>2026-04-03T15:56:25Z</time></trkpt><trkpt lat="44.51956328343057" lon="0.9325125528599465"><ele>88.5</ele><time>2026-04-03T15:56:26Z</time></trkpt><trkpt lat="44.51943624669805" lon="0.9326081845940324"><ele>89.0</ele><time>2026-04-03T15:56:27Z</time></trkpt><trkpt lat="44.51930936156081" lon="0.9327145479433011"><ele>89.5</ele><time>2026-04-03T15:56:28Z</time></trkpt><trkpt lat="44.519174021535214" lon="0.9328239115585331"><ele>90.0</ele><time>2026-04-03T15:56:29Z</time></trkpt><trkpt lat="44.51903126386096" lon="0.9329354387046399"><ele>90.0</ele><time>2026-04-03T15:56:30Z</time></trkpt><trkpt lat="44.51888558400158" lon="0.9330442142190196"><ele>90.0</ele><time>2026-04-03T15:56:31Z</time></trkpt><trkpt lat="44.518741152528946" lon="0.9331151232418771"><ele>90.0</ele><time>2026-04-03T15:56:32Z</time></trkpt><trkpt lat="44.5185896144985" lon="0.9331865208693637"><ele>92.0</ele><time>2026-04-03T15:56:33Z</time></trkpt><trkpt lat="44.518427212136814" lon="0.9332490451966463"><ele>94.0</ele><time>2026-04-03T15:56:34Z</time></trkpt><trkpt lat="44.518267468397" lon="0.9333070191398369"><ele>96.0</ele><time>2026-04-03T15:56:35Z</time></trkpt><trkpt lat="44.518104911856476" lon="0.9333874923120042"><ele>96.0</ele><time>2026-04-03T15:56:36Z</time></trkpt><trkpt lat="44.51794746111823" lon="0.9334433465182929"><ele>96.0</ele><time>2026-04-03T15:56:37Z</time></trkpt><trkpt lat="44.517798176439875" lon="0.933466813339967"><ele>96.0</ele><time>2026-04-03T15:56:38Z</time></trkpt><trkpt lat="44.517642480894395" lon="0.9334859593107337"><ele>96.0</ele><time>2026-04-03T15:56:39Z</time></trkpt><trkpt lat="44.51747909823334" lon="0.9334594894577819"><ele>96.0</ele><time>2026-04-03T15:56:40Z</time></trkpt><trkpt lat="44.517312977235896" lon="0.9334177208713461"><ele>96.0</ele><time>2026-04-03T15:56:41Z</time></trkpt><trkpt lat="44.51714402709582" lon="0.9333789730511227"><ele>97.0</ele><time>2026-04-03T15:56:42Z</time></trkpt><trkpt lat="44.516977017505894" lon="0.933361641645085"><ele>98.0</ele><time>2026-04-03T15:56:43Z</time></trkpt><trkpt lat="44.51681449777706" lon="0.9333065592938589"><ele>99.0</ele><time>2026-04-03T15:56:44Z</time></trkpt><trkpt lat="44.51664172899469" lon="0.9332859645398119"><ele>99.0</ele><time>2026-04-03T15:56:45Z</time></trkpt><trkpt lat="44.5164649345725" lon="0.9333044341696428"><ele>99.0</ele><time>2026-04-03T15:56:46Z</time></trkpt><trkpt lat="44.5162921053546" lon="0.933320960255312"><ele>99.0</ele><time>2026-04-03T15:56:47Z</time></trkpt><trkpt lat="44.5161183255995" lon="0.9333647977466256"><ele>98.33333333333334</ele><time>2026-04-03T15:56:48Z</time></trkpt><trkpt lat="44.5159469021362" lon="0.9334067996726673"><ele>97.66666666666667</ele><time>2026-04-03T15:56:49Z</time></trkpt><trkpt lat="44.51578600341898" lon="0.9334157456677322"><ele>97.0</ele><time>2026-04-03T15:56:50Z</time></trkpt><trkpt lat="44.515612968058846" lon="0.9334267732498921"><ele>97.0</ele><time>2026-04-03T15:56:51Z</time></trkpt><trkpt lat="44.515433807516864" lon="0.933421749580171"><ele>97.0</ele><time>2026-04-03T15:56:52Z</time></trkpt><trkpt lat="44.515255466572484" lon="0.9334047892099321"><ele>97.0</ele><time>2026-04-03T15:56:53Z</time></trkpt><trkpt lat="44.515086702539655" lon="0.9333799847672669"><ele>98.0</ele><time>2026-04-03T15:56:54Z</time></trkpt><trkpt lat="44.51493717363899" lon="0.9333485642334971"><ele>99.0</ele><time>2026-04-03T15:56:55Z</time></trkpt><trkpt lat="44.51480870444488" lon="0.9333388606564578"><ele>100.0</ele><time>2026-04-03T15:56:56Z</time></trkpt><trkpt lat="44.51469799101158" lon="0.9332868839834194"><ele>101.0</ele><time>2026-04-03T15:56:57Z</time></trkpt><trkpt lat="44.514594319319016" lon="0.9332793055135044"><ele>99.8</ele><time>2026-04-03T15:56:58Z</time></trkpt><trkpt lat="44.5144945890417" lon="0.9333411637303168"><ele>98.6</ele><time>2026-04-03T15:56:59Z</time></trkpt><trkpt lat="44.5144023494821" lon="0.9334023087641146"><ele>97.4</ele><time>2026-04-03T15:57:00Z</time></trkpt><trkpt lat="44.51432929831946" lon="0.9334920308325891"><ele>96.2</ele><time>2026-04-03T15:57:01Z</time></trkpt><trkpt lat="44.5142339801512" lon="0.9335773525861681"><ele>95.0</ele><time>2026-04-03T15:57:02Z</time></trkpt><trkpt lat="44.51413849665611" lon="0.9337132015321787"><ele>93.66666666666667</ele><time>2026-04-03T15:57:03Z</time></trkpt><trkpt lat="44.514026184169865" lon="0.933849126946915"><ele>92.33333333333333</ele><time>2026-04-03T15:57:04Z</time></trkpt><trkpt lat="44.51390750802382" lon="0.9339908758363205"><ele>91.0</ele><time>2026-04-03T15:57:04.999Z</time></trkpt><trkpt lat="44.5137675025407" lon="0.9341328881606347"><ele>91.0</ele><time>2026-04-03T15:57:05.999Z</time></trkpt><trkpt lat="44.51363417337428" lon="0.9342840045177242"><ele>91.0</ele><time>2026-04-03T15:57:06.999Z</time></trkpt><trkpt lat="44.513473625922565" lon="0.93437532760098"><ele>91.0</ele><time>2026-04-03T15:57:07.999Z</time></trkpt><trkpt lat="44.51331198477239" lon="0.9344654770006571"><ele>91.0</ele><time>2026-04-03T15:57:08.999Z</time></trkpt><trkpt lat="44.513147063124755" lon="0.9345495766003076"><ele>91.0</ele><time>2026-04-03T15:57:09.999Z</time></trkpt><trkpt lat="44.512981337952674" lon="0.9346270249388606"><ele>91.0</ele><time>2026-04-03T15:57:10.999Z</time></trkpt><trkpt lat="44.5128133739958" lon="0.9346943696021898"><ele>92.0</ele><time>2026-04-03T15:57:11.999Z</time></trkpt><trkpt lat="44.51264176018121" lon="0.9347339759234174"><ele>93.0</ele><time>2026-04-03T15:57:12.999Z</time></trkpt><trkpt lat="44.51246654464076" lon="0.9347616162385564"><ele>94.0</ele><time>2026-04-03T15:57:13.999Z</time></trkpt><trkpt lat="44.51228961691281" lon="0.9347868421581208"><ele>94.0</ele><time>2026-04-03T15:57:14.999Z</time></trkpt><trkpt lat="44.512117239905365" lon="0.9348094156492813"><ele>94.0</ele><time>2026-04-03T15:57:15.999Z</time></trkpt><trkpt lat="44.51195105840109" lon="0.934828610009529"><ele>94.0</ele><time>2026-04-03T15:57:16.999Z</time></trkpt><trkpt lat="44.5117759541371" lon="0.9348497512090409"><ele>94.0</ele><time>2026-04-03T15:57:17.999Z</time></trkpt><trkpt lat="44.511601863509355" lon="0.9348926367554113"><ele>94.0</ele><time>2026-04-03T15:57:18.999Z</time></trkpt><trkpt lat="44.51142469664118" lon="0.9348921602477359"><ele>94.0</ele><time>2026-04-03T15:57:19.999Z</time></trkpt><trkpt lat="44.511250718122845" lon="0.9349131655296004"><ele>93.66666666666666</ele><time>2026-04-03T15:57:20.999Z</time></trkpt><trkpt lat="44.511064508562654" lon="0.9349356475185652"><ele>93.33333333333333</ele><time>2026-04-03T15:57:21.999Z</time></trkpt><trkpt lat="44.51088234650347" lon="0.9349576408399726"><ele>93.0</ele><time>2026-04-03T15:57:22.999Z</time></trkpt><trkpt lat="44.51070826047677" lon="0.9349786591005483"><ele>93.0</ele><time>2026-04-03T15:57:23.999Z</time></trkpt><trkpt lat="44.510541272429464" lon="0.9349988203895229"><ele>93.0</ele><time>2026-04-03T15:57:24.999Z</time></trkpt><trkpt lat="44.51036761624701" lon="0.9350197866493235"><ele>93.0</ele><time>2026-04-03T15:57:25.999Z</time></trkpt><trkpt lat="44.510187795424876" lon="0.9350409075924813"><ele>92.33333333333333</ele><time>2026-04-03T15:57:26.999Z</time></trkpt><trkpt lat="44.510004873897124" lon="0.9350737083021357"><ele>91.66666666666666</ele><time>2026-04-03T15:57:27.999Z</time></trkpt><trkpt lat="44.50981900528075" lon="0.9351265902544211"><ele>91.0</ele><time>2026-04-03T15:57:28.999Z</time></trkpt><trkpt lat="44.50964685584511" lon="0.9352244500563263"><ele>91.0</ele><time>2026-04-03T15:57:29.999Z</time></trkpt><trkpt lat="44.50946702024534" lon="0.9352937019487809"><ele>91.0</ele><time>2026-04-03T15:57:30.999Z</time></trkpt><trkpt lat="44.5092893735994" lon="0.9353927937003115"><ele>91.0</ele><time>2026-04-03T15:57:31.999Z</time></trkpt><trkpt lat="44.50910843148111" lon="0.9354955896882068"><ele>91.0</ele><time>2026-04-03T15:57:32.999Z</time></trkpt><trkpt lat="44.50893826980444" lon="0.9355949125142549"><ele>91.0</ele><time>2026-04-03T15:57:33.999Z</time></trkpt><trkpt lat="44.508772579715455" lon="0.9356976905120084"><ele>91.0</ele><time>2026-04-03T15:57:34.999Z</time></trkpt><trkpt lat="44.508616574223886" lon="0.9358026059072989"><ele>90.66666666666666</ele><time>2026-04-03T15:57:35.999Z</time></trkpt><trkpt lat="44.50844862190624" lon="0.9359205675374883"><ele>90.33333333333333</ele><time>2026-04-03T15:57:36.999Z</time></trkpt><trkpt lat="44.50828320961564" lon="0.9360441416735996"><ele>90.0</ele><time>2026-04-03T15:57:37.999Z</time></trkpt><trkpt lat="44.50812490950219" lon="0.9361928482488814"><ele>90.0</ele><time>2026-04-03T15:57:38.999Z</time></trkpt><trkpt lat="44.50797831916219" lon="0.9363583519887053"><ele>90.0</ele><time>2026-04-03T15:57:39.999Z</time></trkpt><trkpt lat="44.50784025851349" lon="0.9364633527659166"><ele>90.0</ele><time>2026-04-03T15:57:40.999Z</time></trkpt><trkpt lat="44.50771001878182" lon="0.9365636039794866"><ele>90.0</ele><time>2026-04-03T15:57:41.999Z</time></trkpt><trkpt lat="44.5075936767238" lon="0.936634255877974"><ele>90.0</ele><time>2026-04-03T15:57:42.999Z</time></trkpt><trkpt lat="44.50748190338933" lon="0.9366902014747674"><ele>90.0</ele><time>2026-04-03T15:57:43.999Z</time></trkpt><trkpt lat="44.50736529089611" lon="0.9367470069802379"><ele>90.0</ele><time>2026-04-03T15:57:44.999Z</time></trkpt><trkpt lat="44.50722998050059" lon="0.9368334947481696"><ele>90.0</ele><time>2026-04-03T15:57:45.999Z</time></trkpt><trkpt lat="44.50708062364548" lon="0.93690549987535"><ele>90.0</ele><time>2026-04-03T15:57:46.999Z</time></trkpt><trkpt lat="44.506924006089726" lon="0.9369773289719326"><ele>90.0</ele><time>2026-04-03T15:57:47.999Z</time></trkpt><trkpt lat="44.50679506588339" lon="0.9370490440263133"><ele>90.25</ele><time>2026-04-03T15:57:48.999Z</time></trkpt><trkpt lat="44.50669274876884" lon="0.9370963016408774"><ele>90.5</ele><time>2026-04-03T15:57:49.999Z</time></trkpt><trkpt lat="44.50661745429763" lon="0.9371248658634824"><ele>90.75</ele><time>2026-04-03T15:57:50.999Z</time></trkpt><trkpt lat="44.50653142765415" lon="0.9371079987837033"><ele>91.0</ele><time>2026-04-03T15:57:52.999Z</time></trkpt><trkpt lat="44.50659806524788" lon="0.9368766361562846"><ele>91.0</ele><time>2026-04-03T15:59:14.999Z</time></trkpt><trkpt lat="44.50659525166924" lon="0.9367785843971129"><ele>91.0</ele><time>2026-04-03T15:59:15.999Z</time></trkpt><trkpt lat="44.506578440812376" lon="0.9366829545849171"><ele>91.0</ele><time>2026-04-03T15:59:18.999Z</time></trkpt><trkpt lat="44.506597004812654" lon="0.9368307582768014"><ele>91.0</ele><time>2026-04-03T15:59:22.999Z</time></trkpt><trkpt lat="44.50660069863568" lon="0.9369688042573117"><ele>91.0</ele><time>2026-04-03T15:59:23.999Z</time></trkpt><trkpt lat="44.50660363930002" lon="0.937071727458095"><ele>91.0</ele><time>2026-04-03T15:59:24.999Z</time></trkpt><trkpt lat="44.50659565032847" lon="0.9369771787355666"><ele>91.0</ele><time>2026-04-03T16:00:08.999Z</time></trkpt><trkpt lat="44.50660391527051" lon="0.9370813867830499"><ele>91.0</ele><time>2026-04-03T16:00:24Z</time></trkpt><trkpt lat="44.50660709626702" lon="0.9371927215106722"><ele>91.0</ele><time>2026-04-03T16:00:35Z</time></trkpt><trkpt lat="44.506595263747165" lon="0.9373049305774308"><ele>91.0</ele><time>2026-04-03T16:00:37Z</time></trkpt><trkpt lat="44.50660323683572" lon="0.9374448466134065"><ele>91.0</ele><time>2026-04-03T16:00:39Z</time></trkpt><trkpt lat="44.50660921691158" lon="0.9375890180386525"><ele>91.0</ele><time>2026-04-03T16:00:40Z</time></trkpt><trkpt lat="44.506602522655086" lon="0.9377415020227843"><ele>90.5</ele><time>2026-04-03T16:00:41Z</time></trkpt><trkpt lat="44.506628109127305" lon="0.9379089661244479"><ele>90.0</ele><time>2026-04-03T16:00:42Z</time></trkpt><trkpt lat="44.50663433190911" lon="0.9381099755653336"><ele>89.5</ele><time>2026-04-03T16:00:43Z</time></trkpt><trkpt lat="44.50664248074441" lon="0.9383181438514586"><ele>89.0</ele><time>2026-04-03T16:00:44Z</time></trkpt><trkpt lat="44.50665059403078" lon="0.9385443066336034"><ele>87.66666666666667</ele><time>2026-04-03T16:00:45Z</time></trkpt><trkpt lat="44.50666366861593" lon="0.938783271491475"><ele>86.33333333333333</ele><time>2026-04-03T16:00:46Z</time></trkpt><trkpt lat="44.506671958972305" lon="0.9390231417452419"><ele>85.0</ele><time>2026-04-03T16:00:47Z</time></trkpt><trkpt lat="44.506683797282335" lon="0.9392724997120012"><ele>84.66666666666666</ele><time>2026-04-03T16:00:48Z</time></trkpt><trkpt lat="44.50667988312966" lon="0.9395255101658134"><ele>84.33333333333333</ele><time>2026-04-03T16:00:49Z</time></trkpt><trkpt lat="44.50671085278027" lon="0.9397806952944244"><ele>84.0</ele><time>2026-04-03T16:00:50Z</time></trkpt><trkpt lat="44.50674124871019" lon="0.940020349911314"><ele>83.33333333333333</ele><time>2026-04-03T16:00:51Z</time></trkpt><trkpt lat="44.50680782710255" lon="0.9402328620636298"><ele>82.66666666666666</ele><time>2026-04-03T16:00:52Z</time></trkpt><trkpt lat="44.506911506633294" lon="0.9404370300317283"><ele>82.0</ele><time>2026-04-03T16:00:53Z</time></trkpt><trkpt lat="44.50699826458621" lon="0.9406518713954087"><ele>82.0</ele><time>2026-04-03T16:00:54Z</time></trkpt><trkpt lat="44.50705574583429" lon="0.9408731048563628"><ele>82.0</ele><time>2026-04-03T16:00:55Z</time></trkpt><trkpt lat="44.50709921667395" lon="0.9410582526830249"><ele>82.0</ele><time>2026-04-03T16:00:56Z</time></trkpt><trkpt lat="44.50713220206868" lon="0.9411852225251135"><ele>82.0</ele><time>2026-04-03T16:00:57Z</time></trkpt><trkpt lat="44.507173466451555" lon="0.9413017071037977"><ele>81.8</ele><time>2026-04-03T16:00:59Z</time></trkpt><trkpt lat="44.50727973636121" lon="0.9412064949169239"><ele>81.6</ele><time>2026-04-03T16:01:01Z</time></trkpt><trkpt lat="44.50738101082853" lon="0.9411357699410641"><ele>81.39999999999999</ele><time>2026-04-03T16:01:13.999Z</time></trkpt><trkpt lat="44.50746385367547" lon="0.9410788515045831"><ele>81.19999999999999</ele><time>2026-04-03T16:01:15.999Z</time></trkpt><trkpt lat="44.50753183003077" lon="0.9410301994702412"><ele>81.0</ele><time>2026-04-03T16:01:17.999Z</time></trkpt><trkpt lat="44.50762344462129" lon="0.9409722542210528"><ele>81.0</ele><time>2026-04-03T16:01:19.999Z</time></trkpt><trkpt lat="44.50771284003535" lon="0.9409102575828144"><ele>81.0</ele><time>2026-04-03T16:01:20.999Z</time></trkpt><trkpt lat="44.507817616093085" lon="0.9408314936054462"><ele>81.0</ele><time>2026-04-03T16:01:21.999Z</time></trkpt><trkpt lat="44.50792803205114" lon="0.9407332735865418"><ele>81.0</ele><time>2026-04-03T16:01:22.999Z</time></trkpt><trkpt lat="44.5080466762698" lon="0.9406315231906824"><ele>80.33333333333333</ele><time>2026-04-03T16:01:23.999Z</time></trkpt><trkpt lat="44.50818035353639" lon="0.9405446140626585"><ele>79.66666666666666</ele><time>2026-04-03T16:01:24.999Z</time></trkpt><trkpt lat="44.508316810815536" lon="0.9404460171267351"><ele>79.0</ele><time>2026-04-03T16:01:25.999Z</time></trkpt><trkpt lat="44.50845723063199" lon="0.94032844800849"><ele>79.0</ele><time>2026-04-03T16:01:26.999Z</time></trkpt><trkpt lat="44.50859387275646" lon="0.9401968839889019"><ele>79.0</ele><time>2026-04-03T16:01:27.999Z</time></trkpt><trkpt lat="44.50874834318229" lon="0.9401077022139792"><ele>79.0</ele><time>2026-04-03T16:01:28.999Z</time></trkpt><trkpt lat="44.508888925439244" lon="0.9400057862610833"><ele>79.0</ele><time>2026-04-03T16:01:29.999Z</time></trkpt><trkpt lat="44.50902373172443" lon="0.939909088339379"><ele>79.0</ele><time>2026-04-03T16:01:30.999Z</time></trkpt><trkpt lat="44.50914497381164" lon="0.9398225799574739"><ele>79.0</ele><time>2026-04-03T16:01:31.999Z</time></trkpt><trkpt lat="44.50928565723587" lon="0.9397221998184866"><ele>79.0</ele><time>2026-04-03T16:01:32.999Z</time></trkpt><trkpt lat="44.50941463776607" lon="0.9395996349391111"><ele>79.0</ele><time>2026-04-03T16:01:33.999Z</time></trkpt><trkpt lat="44.509553559697125" lon="0.9395023172808208"><ele>79.0</ele><time>2026-04-03T16:01:34.999Z</time></trkpt><trkpt lat="44.50967066667012" lon="0.9393938059058693"><ele>79.0</ele><time>2026-04-03T16:01:35.999Z</time></trkpt><trkpt lat="44.50981938595034" lon="0.9392921086835636"><ele>79.0</ele><time>2026-04-03T16:01:36.999Z</time></trkpt><trkpt lat="44.50996439160195" lon="0.9391920225284431"><ele>79.0</ele><time>2026-04-03T16:01:37.999Z</time></trkpt><trkpt lat="44.51011169281753" lon="0.9390995975806078"><ele>79.0</ele><time>2026-04-03T16:01:38.999Z</time></trkpt><trkpt lat="44.51026781853457" lon="0.9389809414163165"><ele>79.33333333333333</ele><time>2026-04-03T16:01:39.999Z</time></trkpt><trkpt lat="44.51041387773296" lon="0.9388584888875525"><ele>79.66666666666667</ele><time>2026-04-03T16:01:40.999Z</time></trkpt><trkpt lat="44.510566055809605" lon="0.9387557996437179"><ele>80.0</ele><time>2026-04-03T16:01:41.999Z</time></trkpt><trkpt lat="44.51068306690303" lon="0.938651079289762"><ele>80.0</ele><time>2026-04-03T16:01:42.999Z</time></trkpt><trkpt lat="44.51079321023233" lon="0.9385955458093566"><ele>80.0</ele><time>2026-04-03T16:01:43.999Z</time></trkpt><trkpt lat="44.51089995355354" lon="0.9385451241471995"><ele>80.0</ele><time>2026-04-03T16:01:44.999Z</time></trkpt><trkpt lat="44.51099106080033" lon="0.9385138360998243"><ele>80.0</ele><time>2026-04-03T16:01:45.999Z</time></trkpt><trkpt lat="44.51107998785045" lon="0.9384892640390231"><ele>80.0</ele><time>2026-04-03T16:01:46.999Z</time></trkpt><trkpt lat="44.51118379443473" lon="0.9384468479160826"><ele>79.83333333333334</ele><time>2026-04-03T16:01:47.999Z</time></trkpt><trkpt lat="44.511286687821205" lon="0.938421940437968"><ele>79.66666666666667</ele><time>2026-04-03T16:01:48.999Z</time></trkpt><trkpt lat="44.51136789235412" lon="0.9383993460337247"><ele>79.5</ele><time>2026-04-03T16:01:49.999Z</time></trkpt><trkpt lat="44.511436806157725" lon="0.9383428306671348"><ele>79.33333333333333</ele><time>2026-04-03T16:01:51.999Z</time></trkpt><trkpt lat="44.51149934986227" lon="0.9383115019142935"><ele>79.16666666666666</ele><time>2026-04-03T16:02:37Z</time></trkpt><trkpt lat="44.51157744739245" lon="0.9382575438626222"><ele>79.0</ele><time>2026-04-03T16:02:39Z</time></trkpt><trkpt lat="44.51167473569757" lon="0.9381903267920813"><ele>79.4</ele><time>2026-04-03T16:02:41Z</time></trkpt><trkpt lat="44.511650001179476" lon="0.9379979289450195"><ele>79.80000000000001</ele><time>2026-04-03T16:02:42Z</time></trkpt><trkpt lat="44.5117085103854" lon="0.9379578980754588"><ele>80.19999999999999</ele><time>2026-04-03T16:02:44Z</time></trkpt><trkpt lat="44.511776398780476" lon="0.9379317150933013"><ele>80.6</ele><time>2026-04-03T16:02:46Z</time></trkpt><trkpt lat="44.51191953985865" lon="0.9378472196083226"><ele>81.0</ele><time>2026-04-03T16:02:48Z</time></trkpt><trkpt lat="44.5120182216065" lon="0.9377898726963024"><ele>79.75</ele><time>2026-04-03T16:02:49Z</time></trkpt><trkpt lat="44.5121109425031" lon="0.9377542102436399"><ele>78.5</ele><time>2026-04-03T16:02:50Z</time></trkpt><trkpt lat="44.51221921222564" lon="0.9376822805287562"><ele>77.25</ele><time>2026-04-03T16:02:51Z</time></trkpt><trkpt lat="44.51235322883052" lon="0.9376239029765601"><ele>76.0</ele><time>2026-04-03T16:02:52Z</time></trkpt><trkpt lat="44.512487868709925" lon="0.93756753420598"><ele>77.0</ele><time>2026-04-03T16:02:53Z</time></trkpt><trkpt lat="44.512633894172644" lon="0.9375037490163227"><ele>78.0</ele><time>2026-04-03T16:02:54Z</time></trkpt><trkpt lat="44.512787746207714" lon="0.9374425435947251"><ele>79.0</ele><time>2026-04-03T16:02:55Z</time></trkpt><trkpt lat="44.512937298149104" lon="0.9373607217660288"><ele>79.0</ele><time>2026-04-03T16:02:56Z</time></trkpt><trkpt lat="44.5130982220051" lon="0.9372921174692764"><ele>79.0</ele><time>2026-04-03T16:02:57Z</time></trkpt><trkpt lat="44.51323350046728" lon="0.937216215814319"><ele>79.0</ele><time>2026-04-03T16:02:58Z</time></trkpt><trkpt lat="44.51334905114723" lon="0.9370927793596049"><ele>79.0</ele><time>2026-04-03T16:02:59Z</time></trkpt><trkpt lat="44.51348821627921" lon="0.9369908068929405"><ele>79.0</ele><time>2026-04-03T16:03:00Z</time></trkpt><trkpt lat="44.5136749056573" lon="0.9369970963512416"><ele>79.0</ele><time>2026-04-03T16:03:01Z</time></trkpt><trkpt lat="44.513842675585714" lon="0.9369492133133348"><ele>78.66666666666666</ele><time>2026-04-03T16:03:02Z</time></trkpt><trkpt lat="44.51399884901329" lon="0.9369028708294478"><ele>78.33333333333333</ele><time>2026-04-03T16:03:03Z</time></trkpt><trkpt lat="44.51414499291611" lon="0.9368432674603397"><ele>78.0</ele><time>2026-04-03T16:03:04Z</time></trkpt><trkpt lat="44.51431550990916" lon="0.936779691989856"><ele>78.0</ele><time>2026-04-03T16:03:05Z</time></trkpt><trkpt lat="44.51447221404513" lon="0.9367554896038105"><ele>78.0</ele><time>2026-04-03T16:03:06Z</time></trkpt><trkpt lat="44.51462255192054" lon="0.9367349402046368"><ele>78.0</ele><time>2026-04-03T16:03:07Z</time></trkpt><trkpt lat="44.5147513590702" lon="0.9367126385095241"><ele>78.0</ele><time>2026-04-03T16:03:08Z</time></trkpt><trkpt lat="44.51496807707187" lon="0.9366582353390669"><ele>79.33333333333333</ele><time>2026-04-03T16:03:09Z</time></trkpt><trkpt lat="44.51517000018164" lon="0.9365852934805984"><ele>80.66666666666666</ele><time>2026-04-03T16:03:10Z</time></trkpt><trkpt lat="44.51538108769573" lon="0.9364738356594375"><ele>82.0</ele><time>2026-04-03T16:03:10.999Z</time></trkpt><trkpt lat="44.515398918555924" lon="0.9365955429177301"><ele>81.66666666666666</ele><time>2026-04-03T16:03:11.999Z</time></trkpt><trkpt lat="44.51550425584464" lon="0.936573946920019"><ele>81.33333333333333</ele><time>2026-04-03T16:03:12.999Z</time></trkpt><trkpt lat="44.51559860210458" lon="0.9365493741902091"><ele>81.0</ele><time>2026-04-03T16:03:13.999Z</time></trkpt><trkpt lat="44.51568287987004" lon="0.9365280403019974"><ele>80.66666666666667</ele><time>2026-04-03T16:03:14.999Z</time></trkpt><trkpt lat="44.51575420400386" lon="0.9365276135863796"><ele>80.33333333333334</ele><time>2026-04-03T16:03:15.999Z</time></trkpt><trkpt lat="44.515818849565285" lon="0.9365313838625052"><ele>80.0</ele><time>2026-04-03T16:03:16.999Z</time></trkpt><trkpt lat="44.51593459414802" lon="0.936510258993587"><ele>80.0</ele><time>2026-04-03T16:03:18.999Z</time></trkpt><trkpt lat="44.51603195550489" lon="0.9364979133320749"><ele>80.0</ele><time>2026-04-03T16:03:20.999Z</time></trkpt><trkpt lat="44.51611530477933" lon="0.9365030948989947"><ele>80.0</ele><time>2026-04-03T16:03:23.999Z</time></trkpt><trkpt lat="44.51618312019825" lon="0.9365087631514085"><ele>80.0</ele><time>2026-04-03T16:03:26.999Z</time></trkpt><trkpt lat="44.516250456153536" lon="0.936516368236323"><ele>80.0</ele><time>2026-04-03T16:03:29.999Z</time></trkpt><trkpt lat="44.51634568452844" lon="0.9365252730612454"><ele>80.0</ele><time>2026-04-03T16:03:33.999Z</time></trkpt><trkpt lat="44.51645076035311" lon="0.9365675811634145"><ele>80.0</ele><time>2026-04-03T16:03:35.999Z</time></trkpt><trkpt lat="44.51656405482739" lon="0.9365759047768344"><ele>80.0</ele><time>2026-04-03T16:03:37.999Z</time></trkpt><trkpt lat="44.51666683999703" lon="0.9365186372862235"><ele>80.0</ele><time>2026-04-03T16:03:39.999Z</time></trkpt><trkpt lat="44.51668934843093" lon="0.9363746057988168"><ele>80.0</ele><time>2026-04-03T16:03:41.999Z</time></trkpt><trkpt lat="44.51667006006903" lon="0.9362016514584581"><ele>80.0</ele><time>2026-04-03T16:03:43.999Z</time></trkpt><trkpt lat="44.51666669750924" lon="0.9361088219162831"><ele>80.0</ele><time>2026-04-03T16:03:44.999Z</time></trkpt><trkpt lat="44.51671416758258" lon="0.9360002232511527"><ele>80.0</ele><time>2026-04-03T16:03:46.999Z</time></trkpt><trkpt lat="44.516853645983666" lon="0.9359599368807366"><ele>80.0</ele><time>2026-04-03T16:03:48.999Z</time></trkpt><trkpt lat="44.51692898512002" lon="0.9359013012401389"><ele>80.0</ele><time>2026-04-03T16:03:49.999Z</time></trkpt><trkpt lat="44.5169879570277" lon="0.9358301912137011"><ele>80.83333333333334</ele><time>2026-04-03T16:03:50.999Z</time></trkpt><trkpt lat="44.51702120274533" lon="0.9357307860599304"><ele>81.66666666666667</ele><time>2026-04-03T16:03:51.999Z</time></trkpt><trkpt lat="44.516995913644784" lon="0.9356007262771182"><ele>82.5</ele><time>2026-04-03T16:03:52.999Z</time></trkpt><trkpt lat="44.5170047484407" lon="0.9355010988146469"><ele>83.33333333333333</ele><time>2026-04-03T16:03:53.999Z</time></trkpt><trkpt lat="44.51699113201659" lon="0.9354078352309272"><ele>84.16666666666666</ele><time>2026-04-03T16:03:54.999Z</time></trkpt><trkpt lat="44.516995381401095" lon="0.9353002988811666"><ele>85.0</ele><time>2026-04-03T16:03:55.999Z</time></trkpt><trkpt lat="44.51700437312585" lon="0.9351697511863047"><ele>86.25</ele><time>2026-04-03T16:03:56.999Z</time></trkpt><trkpt lat="44.51701972954525" lon="0.9350244613696513"><ele>87.5</ele><time>2026-04-03T16:03:57.999Z</time></trkpt><trkpt lat="44.51703721540591" lon="0.9348657633467994"><ele>88.75</ele><time>2026-04-03T16:03:58.999Z</time></trkpt><trkpt lat="44.51703566858988" lon="0.9346963278005743"><ele>90.0</ele><time>2026-04-03T16:03:59.999Z</time></trkpt><trkpt lat="44.517041243013246" lon="0.9345210146261093"><ele>90.0</ele><time>2026-04-03T16:04:00.999Z</time></trkpt><trkpt lat="44.51704705479779" lon="0.934331328076399"><ele>90.0</ele><time>2026-04-03T16:04:01.999Z</time></trkpt><trkpt lat="44.517051251892426" lon="0.9341403928273252"><ele>90.0</ele><time>2026-04-03T16:04:02.999Z</time></trkpt><trkpt lat="44.517060459074905" lon="0.9339360464893286"><ele>90.0</ele><time>2026-04-03T16:04:03.999Z</time></trkpt><trkpt lat="44.51706436914464" lon="0.9337555873796368"><ele>91.0</ele><time>2026-04-03T16:04:04.999Z</time></trkpt><trkpt lat="44.517055872413" lon="0.93362909939188"><ele>92.0</ele><time>2026-04-03T16:04:05.999Z</time></trkpt><trkpt lat="44.51703392221445" lon="0.9334925987804601"><ele>93.0</ele><time>2026-04-03T16:04:07.999Z</time></trkpt><trkpt lat="44.51705364608022" lon="0.9333956237562584"><ele>94.0</ele><time>2026-04-03T16:05:21.999Z</time></trkpt><trkpt lat="44.51715351463269" lon="0.9334283061951211"><ele>95.0</ele><time>2026-04-03T16:05:22.999Z</time></trkpt><trkpt lat="44.5172498190755" lon="0.9334503931267123"><ele>95.25</ele><time>2026-04-03T16:05:23.999Z</time></trkpt><trkpt lat="44.517367365100036" lon="0.9334655726489715"><ele>95.5</ele><time>2026-04-03T16:05:24.999Z</time></trkpt><trkpt lat="44.51749995211177" lon="0.9335002104032764"><ele>95.75</ele><time>2026-04-03T16:05:25.999Z</time></trkpt><trkpt lat="44.51762289525971" lon="0.9335358884185649"><ele>96.0</ele><time>2026-04-03T16:05:26.999Z</time></trkpt><trkpt lat="44.51774232878768" lon="0.9335226189158059"><ele>96.0</ele><time>2026-04-03T16:05:27.999Z</time></trkpt><trkpt lat="44.517856009967666" lon="0.9334929927240305"><ele>96.0</ele><time>2026-04-03T16:05:28.999Z</time></trkpt><trkpt lat="44.51798377002302" lon="0.9334482212614171"><ele>96.0</ele><time>2026-04-03T16:05:29.999Z</time></trkpt><trkpt lat="44.518123876047866" lon="0.9333906620157877"><ele>96.0</ele><time>2026-04-03T16:05:30.999Z</time></trkpt><trkpt lat="44.51827079715445" lon="0.933335294274526"><ele>96.0</ele><time>2026-04-03T16:05:31.999Z</time></trkpt><trkpt lat="44.518421736034924" lon="0.933281780859539"><ele>96.0</ele><time>2026-04-03T16:05:32.999Z</time></trkpt><trkpt lat="44.51857218047483" lon="0.9332246431462488"><ele>96.0</ele><time>2026-04-03T16:05:33.999Z</time></trkpt><trkpt lat="44.51869662980987" lon="0.933164774548098"><ele>96.0</ele><time>2026-04-03T16:05:34.999Z</time></trkpt><trkpt lat="44.51881592010621" lon="0.9331029590429453"><ele>94.8</ele><time>2026-04-03T16:05:35.999Z</time></trkpt><trkpt lat="44.51892482331113" lon="0.9330404089917463"><ele>93.6</ele><time>2026-04-03T16:05:36.999Z</time></trkpt><trkpt lat="44.51901956752587" lon="0.9329620959482546"><ele>92.4</ele><time>2026-04-03T16:05:37.999Z</time></trkpt><trkpt lat="44.519111666582276" lon="0.9328892758280868"><ele>91.2</ele><time>2026-04-03T16:05:38.999Z</time></trkpt><trkpt lat="44.51920125420148" lon="0.9328206887259534"><ele>90.0</ele><time>2026-04-03T16:05:39.999Z</time></trkpt><trkpt lat="44.51929777405785" lon="0.9327547584842617"><ele>90.0</ele><time>2026-04-03T16:05:40.999Z</time></trkpt><trkpt lat="44.51939376496621" lon="0.9326792812621858"><ele>90.0</ele><time>2026-04-03T16:05:41.999Z</time></trkpt><trkpt lat="44.519497592467175" lon="0.932597939745916"><ele>90.0</ele><time>2026-04-03T16:05:42.999Z</time></trkpt><trkpt lat="44.519595881263875" lon="0.9325108548933938"><ele>90.0</ele><time>2026-04-03T16:05:43.999Z</time></trkpt><trkpt lat="44.51969542976758" lon="0.9324276473386893"><ele>89.5</ele><time>2026-04-03T16:05:44.999Z</time></trkpt><trkpt lat="44.519806589036" lon="0.932379074090787"><ele>89.0</ele><time>2026-04-03T16:05:45.999Z</time></trkpt><trkpt lat="44.5199260688344" lon="0.932318689107478"><ele>88.5</ele><time>2026-04-03T16:05:46.999Z</time></trkpt><trkpt lat="44.520040319775376" lon="0.9322431659394311"><ele>88.0</ele><time>2026-04-03T16:05:47.999Z</time></trkpt><trkpt lat="44.52016457719947" lon="0.9321925664494413"><ele>88.0</ele><time>2026-04-03T16:05:48.999Z</time></trkpt><trkpt lat="44.52028060798982" lon="0.932137602177291"><ele>88.0</ele><time>2026-04-03T16:05:49.999Z</time></trkpt><trkpt lat="44.5204033928464" lon="0.9320788714959138"><ele>88.0</ele><time>2026-04-03T16:05:50.999Z</time></trkpt><trkpt lat="44.52051225038411" lon="0.9320382277083729"><ele>88.0</ele><time>2026-04-03T16:05:51.999Z</time></trkpt><trkpt lat="44.5206027581154" lon="0.9319761659686246"><ele>87.5</ele><time>2026-04-03T16:05:52.999Z</time></trkpt><trkpt lat="44.52069263129405" lon="0.9319284546281221"><ele>87.0</ele><time>2026-04-03T16:05:53.999Z</time></trkpt><trkpt lat="44.52077869624293" lon="0.931895241352847"><ele>86.5</ele><time>2026-04-03T16:05:54.999Z</time></trkpt><trkpt lat="44.52084608894167" lon="0.9318694812365755"><ele>86.0</ele><time>2026-04-03T16:05:55.999Z</time></trkpt><trkpt lat="44.52090849657801" lon="0.931851102229548"><ele>85.5</ele><time>2026-04-03T16:05:56.999Z</time></trkpt><trkpt lat="44.52101581192585" lon="0.9318409802885084"><ele>85.0</ele><time>2026-04-03T16:05:58.999Z</time></trkpt><trkpt lat="44.521157873084945" lon="0.9318482398764707"><ele>85.0</ele><time>2026-04-03T16:06:00.999Z</time></trkpt><trkpt lat="44.52122375073318" lon="0.9319237389759727"><ele>85.0</ele><time>2026-04-03T16:06:01.999Z</time></trkpt><trkpt lat="44.52131252426152" lon="0.9319873844865154"><ele>85.0</ele><time>2026-04-03T16:06:02.999Z</time></trkpt><trkpt lat="44.52138630101937" lon="0.9320670772378219"><ele>85.0</ele><time>2026-04-03T16:06:03.999Z</time></trkpt><trkpt lat="44.52144758371583" lon="0.9321331582876322"><ele>85.0</ele><time>2026-04-03T16:06:04.999Z</time></trkpt><trkpt lat="44.52150753556361" lon="0.9321787634121091"><ele>85.0</ele><time>2026-04-03T16:06:05.999Z</time></trkpt><trkpt lat="44.521821733960195" lon="0.9317439813757777"><ele>86.8</ele><time>2026-04-03T16:06:06.999Z</time></trkpt><trkpt lat="44.52192547690554" lon="0.9317001314923065"><ele>88.6</ele><time>2026-04-03T16:06:07.999Z</time></trkpt><trkpt lat="44.52201136869853" lon="0.931658271864066"><ele>90.4</ele><time>2026-04-03T16:06:08.999Z</time></trkpt><trkpt lat="44.52210071865943" lon="0.9315651687933931"><ele>92.2</ele><time>2026-04-03T16:06:09.999Z</time></trkpt><trkpt lat="44.52220243007134" lon="0.9314768912408702"><ele>94.0</ele><time>2026-04-03T16:06:10.999Z</time></trkpt><trkpt lat="44.52230683982177" lon="0.9313906474391388"><ele>97.0</ele><time>2026-04-03T16:06:11.999Z</time></trkpt><trkpt lat="44.52241913372354" lon="0.9313193364740894"><ele>100.0</ele><time>2026-04-03T16:06:12.999Z</time></trkpt><trkpt lat="44.52252788591706" lon="0.9312563313273177"><ele>103.0</ele><time>2026-04-03T16:06:13.999Z</time></trkpt><trkpt lat="44.522609140468624" lon="0.9312016719866222"><ele>106.0</ele><time>2026-04-03T16:06:14.999Z</time></trkpt><trkpt lat="44.52269601821886" lon="0.9311482087729993"><ele>109.0</ele><time>2026-04-03T16:06:15.999Z</time></trkpt><trkpt lat="44.52277361643583" lon="0.9311068218250769"><ele>109.0</ele><time>2026-04-03T16:06:16.999Z</time></trkpt><trkpt lat="44.52284908501594" lon="0.9310444878735725"><ele>109.0</ele><time>2026-04-03T16:06:17.999Z</time></trkpt><trkpt lat="44.52294023948782" lon="0.9309996128860563"><ele>109.0</ele><time>2026-04-03T16:06:18.999Z</time></trkpt><trkpt lat="44.52305136974938" lon="0.9309573857300976"><ele>109.0</ele><time>2026-04-03T16:06:19.999Z</time></trkpt><trkpt lat="44.52317059454715" lon="0.9309371715008523"><ele>109.0</ele><time>2026-04-03T16:06:20.999Z</time></trkpt><trkpt lat="44.52328826902908" lon="0.9309559443230644"><ele>112.25</ele><time>2026-04-03T16:06:21.999Z</time></trkpt><trkpt lat="44.523415619030814" lon="0.930979238676787"><ele>115.5</ele><time>2026-04-03T16:06:22.999Z</time></trkpt><trkpt lat="44.52353940495887" lon="0.930971241244027"><ele>118.75</ele><time>2026-04-03T16:06:23.999Z</time></trkpt><trkpt lat="44.52365990151183" lon="0.9309338923107472"><ele>122.0</ele><time>2026-04-03T16:06:24.999Z</time></trkpt><trkpt lat="44.52376858945051" lon="0.9308804489898926"><ele>122.33333333333333</ele><time>2026-04-03T16:06:25.999Z</time></trkpt><trkpt lat="44.52382761045489" lon="0.9308171168514776"><ele>122.66666666666666</ele><time>2026-04-03T16:06:26.998Z</time></trkpt><trkpt lat="44.52387381694619" lon="0.930745827902685"><ele>123.0</ele><time>2026-04-03T16:06:27.998Z</time></trkpt><trkpt lat="44.52393844305518" lon="0.9306699647396969"><ele>123.33333333333334</ele><time>2026-04-03T16:06:28.998Z</time></trkpt><trkpt lat="44.524004783797416" lon="0.9305840864016964"><ele>123.66666666666667</ele><time>2026-04-03T16:06:29.998Z</time></trkpt><trkpt lat="44.52405906976357" lon="0.9304983296150561"><ele>124.0</ele><time>2026-04-03T16:06:30.998Z</time></trkpt><trkpt lat="44.52410689885686" lon="0.930396953107292"><ele>124.0</ele><time>2026-04-03T16:06:31.998Z</time></trkpt><trkpt lat="44.52414813233409" lon="0.9303170164482905"><ele>124.00000000000001</ele><time>2026-04-03T16:06:33Z</time></trkpt><trkpt lat="44.524204213238676" lon="0.9302558745737466"><ele>124.0</ele><time>2026-04-03T16:06:35Z</time></trkpt><trkpt lat="44.52425195606651" lon="0.9301602153162338"><ele>124.0</ele><time>2026-04-03T16:06:46Z</time></trkpt><trkpt lat="44.524314002020205" lon="0.9301113244327498"><ele>124.00000000000001</ele><time>2026-04-03T16:07:10Z</time></trkpt><trkpt lat="44.52436845877925" lon="0.9300492248142459"><ele>124.0</ele><time>2026-04-03T16:07:37.999Z</time></trkpt><trkpt lat="44.52444020972174" lon="0.9299964052536989"><ele>124.0</ele><time>2026-04-03T16:07:41.999Z</time></trkpt><trkpt lat="44.524490408987326" lon="0.9299427026017769"><ele>123.66666666666667</ele><time>2026-04-03T16:07:44.999Z</time></trkpt><trkpt lat="44.52454843413732" lon="0.9298849794953551"><ele>123.33333333333334</ele><time>2026-04-03T16:07:49.999Z</time></trkpt><trkpt lat="44.52460559338429" lon="0.9298325636019494"><ele>123.0</ele><time>2026-04-03T16:07:52.999Z</time></trkpt><trkpt lat="44.52467729093843" lon="0.929757261522054"><ele>122.66666666666666</ele><time>2026-04-03T16:07:54.999Z</time></trkpt><trkpt lat="44.52475359939154" lon="0.9296693100833162"><ele>122.33333333333333</ele><time>2026-04-03T16:07:55.999Z</time></trkpt><trkpt lat="44.52483068583766" lon="0.9295555843296726"><ele>122.0</ele><time>2026-04-03T16:07:56.999Z</time></trkpt><trkpt lat="44.524919535722205" lon="0.9294383345608498"><ele>123.5</ele><time>2026-04-03T16:07:57.999Z</time></trkpt><trkpt lat="44.525007233352575" lon="0.9293199270312691"><ele>125.0</ele><time>2026-04-03T16:07:58.999Z</time></trkpt><trkpt lat="44.52509444144666" lon="0.9291868037328235"><ele>126.5</ele><time>2026-04-03T16:07:59.999Z</time></trkpt><trkpt lat="44.52518698988819" lon="0.9290582407827745"><ele>128.0</ele><time>2026-04-03T16:08:00.999Z</time></trkpt><trkpt lat="44.525273000831696" lon="0.9289233422208639"><ele>128.25</ele><time>2026-04-03T16:08:01.999Z</time></trkpt><trkpt lat="44.52536936135128" lon="0.9287854737397022"><ele>128.5</ele><time>2026-04-03T16:08:02.999Z</time></trkpt><trkpt lat="44.52545543064392" lon="0.9286477265822497"><ele>128.75</ele><time>2026-04-03T16:08:03.999Z</time></trkpt><trkpt lat="44.52554614593243" lon="0.9285217242297128"><ele>129.0</ele><time>2026-04-03T16:08:04.999Z</time></trkpt><trkpt lat="44.52561496639219" lon="0.9284035259404212"><ele>130.0</ele><time>2026-04-03T16:08:05.999Z</time></trkpt><trkpt lat="44.52569053113989" lon="0.9283114190202447"><ele>131.0</ele><time>2026-04-03T16:08:06.999Z</time></trkpt><trkpt lat="44.52577313640335" lon="0.9282171094646441"><ele>132.0</ele><time>2026-04-03T16:08:07.999Z</time></trkpt><trkpt lat="44.52584897633676" lon="0.9281365412974134"><ele>133.0</ele><time>2026-04-03T16:08:08.999Z</time></trkpt><trkpt lat="44.52595143971487" lon="0.9280497291157621"><ele>134.0</ele><time>2026-04-03T16:08:09.999Z</time></trkpt><trkpt lat="44.52608756921015" lon="0.9279534357655428"><ele>134.0</ele><time>2026-04-03T16:08:10.999Z</time></trkpt><trkpt lat="44.526215567084954" lon="0.927827160720383"><ele>134.0</ele><time>2026-04-03T16:08:11.999Z</time></trkpt><trkpt lat="44.526360319343915" lon="0.9277186283313603"><ele>134.0</ele><time>2026-04-03T16:08:12.999Z</time></trkpt><trkpt lat="44.52653370199941" lon="0.9276342699863739"><ele>133.66666666666666</ele><time>2026-04-03T16:08:13.999Z</time></trkpt><trkpt lat="44.526687996205986" lon="0.9275365864812495"><ele>133.33333333333334</ele><time>2026-04-03T16:08:14.999Z</time></trkpt><trkpt lat="44.52684041113268" lon="0.9274566492140631"><ele>133.0</ele><time>2026-04-03T16:08:15.999Z</time></trkpt><trkpt lat="44.52697939583655" lon="0.9273916952335983"><ele>134.25</ele><time>2026-04-03T16:08:16.999Z</time></trkpt><trkpt lat="44.5270989129574" lon="0.9273419288589531"><ele>135.5</ele><time>2026-04-03T16:08:17.999Z</time></trkpt><trkpt lat="44.52723176381411" lon="0.9273120601101705"><ele>136.75</ele><time>2026-04-03T16:08:18.999Z</time></trkpt><trkpt lat="44.527378350082174" lon="0.9273372614290866"><ele>138.0</ele><time>2026-04-03T16:08:19.999Z</time></trkpt><trkpt lat="44.527530698673466" lon="0.927326204843276"><ele>138.0</ele><time>2026-04-03T16:08:20.999Z</time></trkpt><trkpt lat="44.52768085031791" lon="0.9273407172063756"><ele>138.0</ele><time>2026-04-03T16:08:21.999Z</time></trkpt><trkpt lat="44.52778192940551" lon="0.9273505745220547"><ele>138.0</ele><time>2026-04-03T16:08:22.999Z</time></trkpt><trkpt lat="44.52787069083578" lon="0.9273700219277655"><ele>138.0</ele><time>2026-04-03T16:08:23.999Z</time></trkpt><trkpt lat="44.52795203472322" lon="0.92740013552889"><ele>138.0</ele><time>2026-04-03T16:08:25.999Z</time></trkpt><trkpt lat="44.52805272898544" lon="0.9273498833091786"><ele>138.6</ele><time>2026-04-03T16:08:27.999Z</time></trkpt><trkpt lat="44.52814345368607" lon="0.9273044344594491"><ele>139.20000000000002</ele><time>2026-04-03T16:08:29.999Z</time></trkpt><trkpt lat="44.52824949429558" lon="0.9272592736150146"><ele>139.8</ele><time>2026-04-03T16:08:31.999Z</time></trkpt><trkpt lat="44.5283828667433" lon="0.9272410074837723"><ele>140.4</ele><time>2026-04-03T16:08:33.999Z</time></trkpt><trkpt lat="44.5284857815742" lon="0.9272389367595878"><ele>141.0</ele><time>2026-04-03T16:08:34.998Z</time></trkpt><trkpt lat="44.528604839459604" lon="0.9272264223045612"><ele>141.8</ele><time>2026-04-03T16:08:35.998Z</time></trkpt><trkpt lat="44.528731585557885" lon="0.9271831747015512"><ele>142.6</ele><time>2026-04-03T16:08:36.998Z</time></trkpt><trkpt lat="44.52883214317928" lon="0.9271472996893702"><ele>143.4</ele><time>2026-04-03T16:08:37.998Z</time></trkpt><trkpt lat="44.52892164997278" lon="0.9271143279535314"><ele>144.2</ele><time>2026-04-03T16:08:39Z</time></trkpt><trkpt lat="44.529025907205025" lon="0.9270677273283476"><ele>145.0</ele><time>2026-04-03T16:08:40Z</time></trkpt><trkpt lat="44.52913016895765" lon="0.9270311920375423"><ele>145.0</ele><time>2026-04-03T16:08:41Z</time></trkpt><trkpt lat="44.529244110751684" lon="0.9270107837725289"><ele>145.0</ele><time>2026-04-03T16:08:42Z</time></trkpt><trkpt lat="44.52936948941595" lon="0.9270038644072722"><ele>145.0</ele><time>2026-04-03T16:08:43Z</time></trkpt><trkpt lat="44.5295045299171" lon="0.9269954931463195"><ele>145.0</ele><time>2026-04-03T16:08:44Z</time></trkpt><trkpt lat="44.52962614587503" lon="0.9269660306390305"><ele>145.0</ele><time>2026-04-03T16:08:45Z</time></trkpt><trkpt lat="44.5297628749659" lon="0.9269384024449617"><ele>145.0</ele><time>2026-04-03T16:08:46Z</time></trkpt><trkpt lat="44.529876548416034" lon="0.9269212815574784"><ele>145.0</ele><time>2026-04-03T16:08:47Z</time></trkpt><trkpt lat="44.52998668656275" lon="0.9269069799899082"><ele>145.0</ele><time>2026-04-03T16:08:48Z</time></trkpt><trkpt lat="44.530124458337745" lon="0.9269122606566395"><ele>145.0</ele><time>2026-04-03T16:08:49Z</time></trkpt><trkpt lat="44.5302685314471" lon="0.9269046245157133"><ele>145.0</ele><time>2026-04-03T16:08:50Z</time></trkpt><trkpt lat="44.53036965870205" lon="0.9268791000338578"><ele>145.0</ele><time>2026-04-03T16:08:51Z</time></trkpt><trkpt lat="44.53048656584771" lon="0.9268566594916166"><ele>145.0</ele><time>2026-04-03T16:08:52Z</time></trkpt><trkpt lat="44.53058166192301" lon="0.9268383474105417"><ele>145.16666666666669</ele><time>2026-04-03T16:08:53Z</time></trkpt><trkpt lat="44.53066909062494" lon="0.9268064992754041"><ele>145.33333333333334</ele><time>2026-04-03T16:08:54Z</time></trkpt><trkpt lat="44.530743105043676" lon="0.9267691067813068"><ele>145.5</ele><time>2026-04-03T16:08:55Z</time></trkpt><trkpt lat="44.53082652339763" lon="0.9267065997793222"><ele>145.66666666666666</ele><time>2026-04-03T16:08:56Z</time></trkpt><trkpt lat="44.53090645546726" lon="0.9266456252268913"><ele>145.83333333333331</ele><time>2026-04-03T16:08:57Z</time></trkpt><trkpt lat="44.530985715502815" lon="0.9265940963257081"><ele>146.0</ele><time>2026-04-03T16:08:58Z</time></trkpt><trkpt lat="44.53104902625986" lon="0.9265246952247429"><ele>146.0</ele><time>2026-04-03T16:08:59Z</time></trkpt><trkpt lat="44.531125275188025" lon="0.9264934386756557"><ele>146.0</ele><time>2026-04-03T16:09:00Z</time></trkpt><trkpt lat="44.531226571362986" lon="0.9264751766017273"><ele>146.0</ele><time>2026-04-03T16:09:01Z</time></trkpt><trkpt lat="44.53132733387866" lon="0.9264125555280678"><ele>146.0</ele><time>2026-04-03T16:09:02Z</time></trkpt><trkpt lat="44.531437574191564" lon="0.9263546455538095"><ele>146.0</ele><time>2026-04-03T16:09:03Z</time></trkpt><trkpt lat="44.53155020426766" lon="0.9262901159956048"><ele>145.8</ele><time>2026-04-03T16:09:04Z</time></trkpt><trkpt lat="44.53166068977671" lon="0.9262447335663436"><ele>145.6</ele><time>2026-04-03T16:09:05Z</time></trkpt><trkpt lat="44.531771084115775" lon="0.926201453596517"><ele>145.4</ele><time>2026-04-03T16:09:06Z</time></trkpt><trkpt lat="44.53184396098607" lon="0.9261657746554729"><ele>145.2</ele><time>2026-04-03T16:09:07Z</time></trkpt><trkpt lat="44.531956013201665" lon="0.9261002052515189"><ele>145.0</ele><time>2026-04-03T16:09:09Z</time></trkpt><trkpt lat="44.53205307484223" lon="0.9260824740584175"><ele>145.5</ele><time>2026-04-03T16:09:11Z</time></trkpt><trkpt lat="44.53209427309182" lon="0.9259805732860369"><ele>146.0</ele><time>2026-04-03T16:09:15Z</time></trkpt><trkpt lat="44.532157398782985" lon="0.926028368314997"><ele>146.5</ele><time>2026-04-03T16:09:18Z</time></trkpt><trkpt lat="44.5321653162073" lon="0.9261384824749463"><ele>147.0</ele><time>2026-04-03T16:09:25Z</time></trkpt><trkpt lat="44.5320890177342" lon="0.9260740941368877"><ele>147.5</ele><time>2026-04-03T16:09:27.999Z</time></trkpt><trkpt lat="44.53215293239903" lon="0.9260397606692904"><ele>148.0</ele><time>2026-04-03T16:09:29.999Z</time></trkpt><trkpt lat="44.53221385696979" lon="0.9261309842743183"><ele>148.0</ele><time>2026-04-03T16:09:31.999Z</time></trkpt><trkpt lat="44.53225862176939" lon="0.9261978496607532"><ele>148.0</ele><time>2026-04-03T16:09:32.999Z</time></trkpt><trkpt lat="44.53230707296884" lon="0.9262672661719955"><ele>148.0</ele><time>2026-04-03T16:09:33.999Z</time></trkpt><trkpt lat="44.53236304198998" lon="0.9263636797954541"><ele>148.0</ele><time>2026-04-03T16:09:35.999Z</time></trkpt><trkpt lat="44.53232106507564" lon="0.9262977309338801"><ele>148.0</ele><time>2026-04-03T16:10:03.999Z</time></trkpt><trkpt lat="44.53226728668756" lon="0.9262207768140309"><ele>148.0</ele><time>2026-04-03T16:10:05.999Z</time></trkpt><trkpt lat="44.53221575120758" lon="0.9261514414432371"><ele>148.0</ele><time>2026-04-03T16:10:07.999Z</time></trkpt><trkpt lat="44.53215382367865" lon="0.9260516521100884"><ele>148.0</ele><time>2026-04-03T16:10:09.999Z</time></trkpt><trkpt lat="44.53206834020583" lon="0.9259184808383775"><ele>148.0</ele><time>2026-04-03T16:10:11.999Z</time></trkpt><trkpt lat="44.532001931344894" lon="0.925838698840605"><ele>148.0</ele><time>2026-04-03T16:10:12.999Z</time></trkpt><trkpt lat="44.53194841282031" lon="0.9257771885783728"><ele>148.0</ele><time>2026-04-03T16:10:13.999Z</time></trkpt><trkpt lat="44.531844200689065" lon="0.9256180966179708"><ele>148.0</ele><time>2026-04-03T16:10:15.999Z</time></trkpt><trkpt lat="44.53179890194552" lon="0.9254958069702093"><ele>148.16666666666669</ele><time>2026-04-03T16:10:16.999Z</time></trkpt><trkpt lat="44.53173196524932" lon="0.9253828772658861"><ele>148.33333333333334</ele><time>2026-04-03T16:10:17.999Z</time></trkpt><trkpt lat="44.531697219586476" lon="0.9252952830636219"><ele>148.5</ele><time>2026-04-03T16:10:18.999Z</time></trkpt><trkpt lat="44.531667202482126" lon="0.9252098219587398"><ele>148.66666666666666</ele><time>2026-04-03T16:10:19.999Z</time></trkpt><trkpt lat="44.53162459074229" lon="0.9250867430884712"><ele>148.83333333333331</ele><time>2026-04-03T16:10:21.999Z</time></trkpt><trkpt lat="44.5316470788118" lon="0.9249873111460108"><ele>149.0</ele><time>2026-04-03T16:13:00Z</time></trkpt><trkpt lat="44.531665014214255" lon="0.9251709057171055"><ele>149.0</ele><time>2026-04-03T16:36:48.999Z</time></trkpt><trkpt lat="44.53169200070997" lon="0.9252816952460623"><ele>149.0</ele><time>2026-04-03T16:36:51.999Z</time></trkpt><trkpt lat="44.53175444419156" lon="0.9254100049625059"><ele>149.0</ele><time>2026-04-03T16:36:53.999Z</time></trkpt><trkpt lat="44.53181550650868" lon="0.9255317631086113"><ele>149.0</ele><time>2026-04-03T16:36:55.999Z</time></trkpt><trkpt lat="44.53186339570167" lon="0.9256422478125785"><ele>149.0</ele><time>2026-04-03T16:36:56.999Z</time></trkpt><trkpt lat="44.53191972589739" lon="0.925735991626429"><ele>149.0</ele><time>2026-04-03T16:36:57.999Z</time></trkpt><trkpt lat="44.53199384807711" lon="0.9258178655438817"><ele>149.0</ele><time>2026-04-03T16:36:58.999Z</time></trkpt><trkpt lat="44.532044599937784" lon="0.9258972916962375"><ele>149.0</ele><time>2026-04-03T16:36:59.999Z</time></trkpt><trkpt lat="44.53208986000032" lon="0.9259630461962025"><ele>149.0</ele><time>2026-04-03T16:37:00.999Z</time></trkpt><trkpt lat="44.53215889147716" lon="0.9260452279056904"><ele>149.0</ele><time>2026-04-03T16:37:01.999Z</time></trkpt><trkpt lat="44.532231555949984" lon="0.9261735746970441"><ele>149.0</ele><time>2026-04-03T16:37:02.999Z</time></trkpt><trkpt lat="44.53230191121493" lon="0.9262792460149606"><ele>148.83333333333331</ele><time>2026-04-03T16:37:03.999Z</time></trkpt><trkpt lat="44.53235725464366" lon="0.9263517703254379"><ele>148.66666666666666</ele><time>2026-04-03T16:37:04.999Z</time></trkpt><trkpt lat="44.532399245826724" lon="0.9264199515409884"><ele>148.5</ele><time>2026-04-03T16:37:05.999Z</time></trkpt><trkpt lat="44.53246061530647" lon="0.9265034382159771"><ele>148.33333333333334</ele><time>2026-04-03T16:37:07.999Z</time></trkpt><trkpt lat="44.532531685365825" lon="0.9265094281194033"><ele>148.16666666666669</ele><time>2026-04-03T16:37:09.999Z</time></trkpt><trkpt lat="44.532642455719426" lon="0.9263912861108281"><ele>148.0</ele><time>2026-04-03T16:37:11.999Z</time></trkpt><trkpt lat="44.53269895589979" lon="0.9263040153792196"><ele>148.0</ele><time>2026-04-03T16:37:12.999Z</time></trkpt><trkpt lat="44.53276098743411" lon="0.9262346895653247"><ele>148.0</ele><time>2026-04-03T16:37:13.999Z</time></trkpt><trkpt lat="44.53282247748194" lon="0.9261620294199006"><ele>148.0</ele><time>2026-04-03T16:37:14.999Z</time></trkpt><trkpt lat="44.53287759463127" lon="0.9261051290257606"><ele>148.0</ele><time>2026-04-03T16:37:15.999Z</time></trkpt><trkpt lat="44.53296941128969" lon="0.9260122070376263"><ele>148.0</ele><time>2026-04-03T16:37:17.999Z</time></trkpt><trkpt lat="44.53305637905932" lon="0.9259717069299164"><ele>148.0</ele><time>2026-04-03T16:37:20.999Z</time></trkpt><trkpt lat="44.53313390847685" lon="0.9262729931900493"><ele>148.0</ele><time>2026-04-03T16:37:23.999Z</time></trkpt><trkpt lat="44.533168554399545" lon="0.9263966733083737"><ele>148.0</ele><time>2026-04-03T16:37:24.999Z</time></trkpt><trkpt lat="44.53319986937143" lon="0.9264824271017597"><ele>148.0</ele><time>2026-04-03T16:37:25.999Z</time></trkpt><trkpt lat="44.5332127458971" lon="0.9266717580528059"><ele>148.0</ele><time>2026-04-03T16:37:27.999Z</time></trkpt><trkpt lat="44.53325191075407" lon="0.9268548488176456"><ele>148.0</ele><time>2026-04-03T16:37:29.999Z</time></trkpt><trkpt lat="44.53330625390171" lon="0.9269766657944689"><ele>148.0</ele><time>2026-04-03T16:37:30.999Z</time></trkpt><trkpt lat="44.53334640800532" lon="0.927069623615361"><ele>148.0</ele><time>2026-04-03T16:37:32Z</time></trkpt><trkpt lat="44.53341046928407" lon="0.9271195884320488"><ele>148.0</ele><time>2026-04-03T16:37:33Z</time></trkpt><trkpt lat="44.53349379544055" lon="0.9271686726845246"><ele>148.0</ele><time>2026-04-03T16:37:34Z</time></trkpt><trkpt lat="44.5335508804753" lon="0.9272145682045958"><ele>148.0</ele><time>2026-04-03T16:37:35Z</time></trkpt><trkpt lat="44.53358752015888" lon="0.9272967738810283"><ele>148.0</ele><time>2026-04-03T16:37:36Z</time></trkpt><trkpt lat="44.53360960100772" lon="0.9273823024756023"><ele>148.0</ele><time>2026-04-03T16:37:37Z</time></trkpt><trkpt lat="44.5336512383698" lon="0.9274565091398048"><ele>147.4</ele><time>2026-04-03T16:37:38Z</time></trkpt><trkpt lat="44.53375065845527" lon="0.9275205653018551"><ele>146.8</ele><time>2026-04-03T16:37:40Z</time></trkpt><trkpt lat="44.533744070339765" lon="0.927687156488373"><ele>146.2</ele><time>2026-04-03T16:37:42Z</time></trkpt><trkpt lat="44.53369823029834" lon="0.9278421356628376"><ele>145.6</ele><time>2026-04-03T16:37:44Z</time></trkpt><trkpt lat="44.5336730403987" lon="0.9279707571234007"><ele>145.0</ele><time>2026-04-03T16:37:45Z</time></trkpt><trkpt lat="44.53366492866665" lon="0.9280797115021698"><ele>144.66666666666669</ele><time>2026-04-03T16:37:46Z</time></trkpt><trkpt lat="44.53367703963667" lon="0.9282171784011924"><ele>144.33333333333334</ele><time>2026-04-03T16:37:47Z</time></trkpt><trkpt lat="44.53369250383292" lon="0.9283669987950127"><ele>144.0</ele><time>2026-04-03T16:37:48Z</time></trkpt><trkpt lat="44.533728163961364" lon="0.9284675920090618"><ele>143.66666666666666</ele><time>2026-04-03T16:37:49Z</time></trkpt><trkpt lat="44.53374968867624" lon="0.9285896310514147"><ele>143.33333333333331</ele><time>2026-04-03T16:37:51Z</time></trkpt><trkpt lat="44.53368787375504" lon="0.9286373651288474"><ele>143.0</ele><time>2026-04-03T16:37:53Z</time></trkpt><trkpt lat="44.53356049337152" lon="0.9286527027237372"><ele>141.83333333333331</ele><time>2026-04-03T16:37:55Z</time></trkpt><trkpt lat="44.533496492896234" lon="0.9286623028892043"><ele>140.66666666666666</ele><time>2026-04-03T16:37:56Z</time></trkpt><trkpt lat="44.533432131611555" lon="0.9286674762485247"><ele>139.5</ele><time>2026-04-03T16:37:57Z</time></trkpt><trkpt lat="44.533413048112656" lon="0.9287612172609976"><ele>138.33333333333334</ele><time>2026-04-03T16:38:26.999Z</time></trkpt><trkpt lat="44.53345115026325" lon="0.9288950562172099"><ele>137.16666666666669</ele><time>2026-04-03T16:38:29.999Z</time></trkpt><trkpt lat="44.5334981003873" lon="0.9290322691644815"><ele>136.0</ele><time>2026-04-03T16:38:31.999Z</time></trkpt><trkpt lat="44.53353333765308" lon="0.9291631826671058"><ele>134.6</ele><time>2026-04-03T16:38:33.999Z</time></trkpt><trkpt lat="44.53355276649017" lon="0.9292485218073601"><ele>133.2</ele><time>2026-04-03T16:38:34.999Z</time></trkpt><trkpt lat="44.53358684447365" lon="0.9294114702943439"><ele>131.8</ele><time>2026-04-03T16:38:36.999Z</time></trkpt><trkpt lat="44.53358603039408" lon="0.929544826114838"><ele>130.4</ele><time>2026-04-03T16:38:38.999Z</time></trkpt><trkpt lat="44.53355536996731" lon="0.9296926615180864"><ele>129.0</ele><time>2026-04-03T16:38:40.999Z</time></trkpt><trkpt lat="44.53354935063157" lon="0.9298151825575274"><ele>129.0</ele><time>2026-04-03T16:38:42.999Z</time></trkpt><trkpt lat="44.53350223720636" lon="0.9299340665025325"><ele>129.0</ele><time>2026-04-03T16:38:44.999Z</time></trkpt><trkpt lat="44.53351243779599" lon="0.9300671616728775"><ele>129.0</ele><time>2026-04-03T16:38:46.999Z</time></trkpt><trkpt lat="44.53353221423659" lon="0.9301522695828682"><ele>129.0</ele><time>2026-04-03T16:38:47.999Z</time></trkpt><trkpt lat="44.53355997981359" lon="0.9302606872261235"><ele>129.0</ele><time>2026-04-03T16:38:48.999Z</time></trkpt><trkpt lat="44.53355995323712" lon="0.9304070999370367"><ele>129.0</ele><time>2026-04-03T16:38:50.999Z</time></trkpt><trkpt lat="44.53353167799987" lon="0.9304864277959034"><ele>128.33333333333334</ele><time>2026-04-03T16:38:51.999Z</time></trkpt><trkpt lat="44.53345470189242" lon="0.9305893049642437"><ele>127.66666666666666</ele><time>2026-04-03T16:38:53.999Z</time></trkpt><trkpt lat="44.53340381014233" lon="0.9306424692083224"><ele>127.0</ele><time>2026-04-03T16:38:55.999Z</time></trkpt><trkpt lat="44.53333287108529" lon="0.9306347584689529"><ele>126.33333333333333</ele><time>2026-04-03T16:38:58.999Z</time></trkpt><trkpt lat="44.53322584069603" lon="0.930539419787827"><ele>125.66666666666666</ele><time>2026-04-03T16:39:00.999Z</time></trkpt><trkpt lat="44.53315729714105" lon="0.9304908361321943"><ele>125.0</ele><time>2026-04-03T16:39:01.999Z</time></trkpt><trkpt lat="44.533050696702205" lon="0.9305304259458942"><ele>125.0</ele><time>2026-04-03T16:39:03.999Z</time></trkpt><trkpt lat="44.532968688550966" lon="0.9306046586357906"><ele>125.0</ele><time>2026-04-03T16:39:05.999Z</time></trkpt><trkpt lat="44.532875620555146" lon="0.9307494591036847"><ele>125.0</ele><time>2026-04-03T16:39:07.999Z</time></trkpt><trkpt lat="44.53278963951073" lon="0.9308159617182292"><ele>125.0</ele><time>2026-04-03T16:39:09.999Z</time></trkpt><trkpt lat="44.532746985794475" lon="0.930934513270868"><ele>125.0</ele><time>2026-04-03T16:39:12.999Z</time></trkpt><trkpt lat="44.532719039418176" lon="0.9310297377006215"><ele>125.33333333333333</ele><time>2026-04-03T16:39:14.999Z</time></trkpt><trkpt lat="44.5326779319824" lon="0.9310992582332525"><ele>125.66666666666666</ele><time>2026-04-03T16:39:16.999Z</time></trkpt><trkpt lat="44.532550866143986" lon="0.9310986654648739"><ele>126.0</ele><time>2026-04-03T16:39:18.999Z</time></trkpt><trkpt lat="44.53245857739392" lon="0.9311214251624345"><ele>126.33333333333334</ele><time>2026-04-03T16:39:19.999Z</time></trkpt><trkpt lat="44.53240504107197" lon="0.9311721791832425"><ele>126.66666666666667</ele><time>2026-04-03T16:39:20.999Z</time></trkpt><trkpt lat="44.53238592533503" lon="0.9312859609567856"><ele>127.0</ele><time>2026-04-03T16:39:21.999Z</time></trkpt><trkpt lat="44.5323587968688" lon="0.9313718448809765"><ele>127.0</ele><time>2026-04-03T16:39:22.999Z</time></trkpt><trkpt lat="44.53229653054359" lon="0.9314490425853079"><ele>126.99999999999999</ele><time>2026-04-03T16:39:23.999Z</time></trkpt><trkpt lat="44.53222080032915" lon="0.9315472413423388"><ele>126.99999999999999</ele><time>2026-04-03T16:39:24.999Z</time></trkpt><trkpt lat="44.53214112466283" lon="0.9316599998195949"><ele>127.0</ele><time>2026-04-03T16:39:25.999Z</time></trkpt><trkpt lat="44.53206928443441" lon="0.9317828887659751"><ele>127.0</ele><time>2026-04-03T16:39:26.999Z</time></trkpt><trkpt lat="44.53202505354664" lon="0.9318890240645212"><ele>127.00000000000001</ele><time>2026-04-03T16:39:27.999Z</time></trkpt><trkpt lat="44.531986690320046" lon="0.931969714418782"><ele>127.0</ele><time>2026-04-03T16:39:28.999Z</time></trkpt><trkpt lat="44.53198271996299" lon="0.9320961392708288"><ele>127.0</ele><time>2026-04-03T16:39:30.999Z</time></trkpt><trkpt lat="44.5320112054043" lon="0.9322017809467485"><ele>127.0</ele><time>2026-04-03T16:39:32.999Z</time></trkpt><trkpt lat="44.53201634087876" lon="0.9322909173897954"><ele>127.00000000000001</ele><time>2026-04-03T16:39:34.999Z</time></trkpt><trkpt lat="44.532018809201105" lon="0.9324110979108129"><ele>127.0</ele><time>2026-04-03T16:39:35.998Z</time></trkpt><trkpt lat="44.532019969427076" lon="0.9325557614817473"><ele>126.19999999999999</ele><time>2026-04-03T16:39:36.998Z</time></trkpt><trkpt lat="44.5319942142009" lon="0.9327225454776356"><ele>125.39999999999999</ele><time>2026-04-03T16:39:38Z</time></trkpt><trkpt lat="44.53196864929746" lon="0.9328566240509147"><ele>124.60000000000001</ele><time>2026-04-03T16:39:39Z</time></trkpt><trkpt lat="44.53197829558389" lon="0.9329629455971263"><ele>123.80000000000001</ele><time>2026-04-03T16:39:40Z</time></trkpt><trkpt lat="44.53196107257445" lon="0.9330679528153474"><ele>123.0</ele><time>2026-04-03T16:39:41Z</time></trkpt><trkpt lat="44.531895702473804" lon="0.9331652264166315"><ele>123.0</ele><time>2026-04-03T16:39:43Z</time></trkpt><trkpt lat="44.53177829277574" lon="0.9332447860664117"><ele>123.0</ele><time>2026-04-03T16:39:45Z</time></trkpt><trkpt lat="44.53175271937357" lon="0.9333671953151129"><ele>123.0</ele><time>2026-04-03T16:39:47Z</time></trkpt><trkpt lat="44.53173615163092" lon="0.9335228337895493"><ele>123.0</ele><time>2026-04-03T16:39:49Z</time></trkpt><trkpt lat="44.53171056660306" lon="0.9337326959045856"><ele>122.60000000000001</ele><time>2026-04-03T16:39:51Z</time></trkpt><trkpt lat="44.531686027422616" lon="0.9338655929323308"><ele>122.20000000000002</ele><time>2026-04-03T16:39:52Z</time></trkpt><trkpt lat="44.53168286355809" lon="0.9339592264707168"><ele>121.8</ele><time>2026-04-03T16:39:53Z</time></trkpt><trkpt lat="44.531653729026715" lon="0.9341185108176218"><ele>121.4</ele><time>2026-04-03T16:39:55Z</time></trkpt><trkpt lat="44.531579272500394" lon="0.934210527347599"><ele>121.0</ele><time>2026-04-03T16:39:57Z</time></trkpt><trkpt lat="44.531529361000416" lon="0.9343464917723865"><ele>120.0</ele><time>2026-04-03T16:39:59Z</time></trkpt><trkpt lat="44.53154845027056" lon="0.9345164902932072"><ele>119.0</ele><time>2026-04-03T16:40:01Z</time></trkpt><trkpt lat="44.53152609351228" lon="0.9346391755161668"><ele>118.0</ele><time>2026-04-03T16:40:03Z</time></trkpt><trkpt lat="44.531468034533845" lon="0.9347374313459021"><ele>117.0</ele><time>2026-04-03T16:40:04Z</time></trkpt><trkpt lat="44.53141609940996" lon="0.9348819119015255"><ele>116.0</ele><time>2026-04-03T16:40:05Z</time></trkpt><trkpt lat="44.53136297236688" lon="0.9350519500808967"><ele>115.4</ele><time>2026-04-03T16:40:06Z</time></trkpt><trkpt lat="44.53129824242944" lon="0.9352171353073059"><ele>114.8</ele><time>2026-04-03T16:40:07Z</time></trkpt><trkpt lat="44.53125433921726" lon="0.9353379039997288"><ele>114.20000000000002</ele><time>2026-04-03T16:40:08Z</time></trkpt><trkpt lat="44.53121599917454" lon="0.9354598838347747"><ele>113.60000000000001</ele><time>2026-04-03T16:40:09Z</time></trkpt><trkpt lat="44.5311856559528" lon="0.9355515864958227"><ele>113.0</ele><time>2026-04-03T16:40:10Z</time></trkpt><trkpt lat="44.53113938213462" lon="0.9356504851800871"><ele>112.85714285714286</ele><time>2026-04-03T16:40:12Z</time></trkpt><trkpt lat="44.53109540707627" lon="0.9357222541114654"><ele>112.71428571428571</ele><time>2026-04-03T16:40:14Z</time></trkpt><trkpt lat="44.53106772990263" lon="0.9358017055457861"><ele>112.57142857142857</ele><time>2026-04-03T16:40:25.999Z</time></trkpt><trkpt lat="44.531031000108946" lon="0.9358774162450767"><ele>112.42857142857143</ele><time>2026-04-03T16:40:35.999Z</time></trkpt><trkpt lat="44.53099053365749" lon="0.9359647090905325"><ele>112.28571428571428</ele><time>2026-04-03T16:40:42.999Z</time></trkpt><trkpt lat="44.530947436609395" lon="0.9360539339744643"><ele>112.14285714285714</ele><time>2026-04-03T16:40:45.999Z</time></trkpt><trkpt lat="44.53092058140848" lon="0.9361368218216318"><ele>112.0</ele><time>2026-04-03T16:40:48.999Z</time></trkpt><trkpt lat="44.5308745596429" lon="0.9362260328074375"><ele>111.25</ele><time>2026-04-03T16:40:51.999Z</time></trkpt><trkpt lat="44.5308121103796" lon="0.9363779838532904"><ele>110.5</ele><time>2026-04-03T16:40:54.999Z</time></trkpt><trkpt lat="44.53075355090774" lon="0.9364969176937207"><ele>109.75</ele><time>2026-04-03T16:40:55.999Z</time></trkpt><trkpt lat="44.53068287365559" lon="0.9366328319459486"><ele>109.0</ele><time>2026-04-03T16:40:56.999Z</time></trkpt><trkpt lat="44.53062189092038" lon="0.9367985696736487"><ele>108.4</ele><time>2026-04-03T16:40:57.999Z</time></trkpt><trkpt lat="44.53055781205169" lon="0.9369487452510548"><ele>107.80000000000001</ele><time>2026-04-03T16:40:58.999Z</time></trkpt><trkpt lat="44.530507117178594" lon="0.937069297099515"><ele>107.19999999999999</ele><time>2026-04-03T16:40:59.999Z</time></trkpt><trkpt lat="44.53046560801363" lon="0.9371763072856015"><ele>106.6</ele><time>2026-04-03T16:41:03.999Z</time></trkpt><trkpt lat="44.53040549559754" lon="0.9373274492570403"><ele>106.0</ele><time>2026-04-03T16:41:05.999Z</time></trkpt><trkpt lat="44.5303603674267" lon="0.937430380317264"><ele>106.00000000000001</ele><time>2026-04-03T16:41:06.999Z</time></trkpt><trkpt lat="44.530321557747385" lon="0.9375292233675953"><ele>106.0</ele><time>2026-04-03T16:41:08.999Z</time></trkpt><trkpt lat="44.53043821783164" lon="0.9375596761349452"><ele>106.0</ele><time>2026-04-03T16:41:11.999Z</time></trkpt><trkpt lat="44.530501176629535" lon="0.9375966627600755"><ele>106.0</ele><time>2026-04-03T16:41:12.999Z</time></trkpt><trkpt lat="44.530565919890556" lon="0.9376464203447181"><ele>106.00000000000001</ele><time>2026-04-03T16:41:13.999Z</time></trkpt><trkpt lat="44.53062047470534" lon="0.9377360029681081"><ele>106.0</ele><time>2026-04-03T16:41:14.999Z</time></trkpt><trkpt lat="44.53068691245374" lon="0.9378782827089791"><ele>104.8</ele><time>2026-04-03T16:41:15.999Z</time></trkpt><trkpt lat="44.530739927203086" lon="0.9380274512503759"><ele>103.6</ele><time>2026-04-03T16:41:16.999Z</time></trkpt><trkpt lat="44.53078291868746" lon="0.93811887818939"><ele>102.4</ele><time>2026-04-03T16:41:17.999Z</time></trkpt><trkpt lat="44.53084289979869" lon="0.9382034860043673"><ele>101.2</ele><time>2026-04-03T16:41:18.999Z</time></trkpt><trkpt lat="44.53092318958867" lon="0.9382796395640676"><ele>100.0</ele><time>2026-04-03T16:41:19.999Z</time></trkpt><trkpt lat="44.53099859501359" lon="0.9383882568743876"><ele>100.00000000000001</ele><time>2026-04-03T16:41:20.999Z</time></trkpt><trkpt lat="44.53104009240464" lon="0.9384875170306896"><ele>100.0</ele><time>2026-04-03T16:41:21.999Z</time></trkpt><trkpt lat="44.53107952300879" lon="0.9385744002201276"><ele>100.0</ele><time>2026-04-03T16:41:23.999Z</time></trkpt><trkpt lat="44.531156684601505" lon="0.9384974497416525"><ele>100.0</ele><time>2026-04-03T16:41:26.999Z</time></trkpt><trkpt lat="44.531156739952635" lon="0.9383699198419563"><ele>100.00000000000001</ele><time>2026-04-03T16:41:27.999Z</time></trkpt><trkpt lat="44.53118551966008" lon="0.9382481161055143"><ele>100.0</ele><time>2026-04-03T16:41:28.999Z</time></trkpt><trkpt lat="44.53122284064414" lon="0.9381125237417582"><ele>103.5</ele><time>2026-04-03T16:41:29.999Z</time></trkpt><trkpt lat="44.531250975489314" lon="0.9379635585047703"><ele>107.0</ele><time>2026-04-03T16:41:30.999Z</time></trkpt><trkpt lat="44.5312665771874" lon="0.9377810475954419"><ele>110.5</ele><time>2026-04-03T16:41:31.999Z</time></trkpt><trkpt lat="44.53129162379602" lon="0.9376198821778002"><ele>114.0</ele><time>2026-04-03T16:41:32.999Z</time></trkpt><trkpt lat="44.53129194606398" lon="0.9374909407837139"><ele>115.0</ele><time>2026-04-03T16:41:33.999Z</time></trkpt><trkpt lat="44.53129780449835" lon="0.937334141870326"><ele>116.0</ele><time>2026-04-03T16:41:34.999Z</time></trkpt><trkpt lat="44.53131276659854" lon="0.9371901849094142"><ele>117.0</ele><time>2026-04-03T16:41:35.999Z</time></trkpt><trkpt lat="44.531338989261336" lon="0.9370500443909465"><ele>118.0</ele><time>2026-04-03T16:41:36.999Z</time></trkpt><trkpt lat="44.53137658830451" lon="0.93690671587692"><ele>119.0</ele><time>2026-04-03T16:41:37.999Z</time></trkpt><trkpt lat="44.53143539066682" lon="0.9367882786380519"><ele>119.0</ele><time>2026-04-03T16:41:38.999Z</time></trkpt><trkpt lat="44.5315223782249" lon="0.9366916920477606"><ele>119.0</ele><time>2026-04-03T16:41:39.998Z</time></trkpt><trkpt lat="44.53161755696254" lon="0.936598970185285"><ele>119.0</ele><time>2026-04-03T16:41:40.998Z</time></trkpt><trkpt lat="44.53169933365536" lon="0.9364823881527007"><ele>119.0</ele><time>2026-04-03T16:41:41.998Z</time></trkpt><trkpt lat="44.531772065935215" lon="0.9363434154929073"><ele>119.0</ele><time>2026-04-03T16:41:42.998Z</time></trkpt><trkpt lat="44.531833216729474" lon="0.9361760761561972"><ele>119.0</ele><time>2026-04-03T16:41:44Z</time></trkpt><trkpt lat="44.53188710149874" lon="0.9360490927261315"><ele>119.0</ele><time>2026-04-03T16:41:45Z</time></trkpt><trkpt lat="44.531950572871835" lon="0.9359647485101544"><ele>119.0</ele><time>2026-04-03T16:41:46Z</time></trkpt><trkpt lat="44.53203254701713" lon="0.9358818464646917"><ele>119.0</ele><time>2026-04-03T16:41:47Z</time></trkpt><trkpt lat="44.53212580563005" lon="0.9357984728376061"><ele>121.0</ele><time>2026-04-03T16:41:48Z</time></trkpt><trkpt lat="44.53223131269195" lon="0.9357482791764834"><ele>123.0</ele><time>2026-04-03T16:41:49Z</time></trkpt><trkpt lat="44.53233655628619" lon="0.9357231930721053"><ele>125.0</ele><time>2026-04-03T16:41:50Z</time></trkpt><trkpt lat="44.53244817915182" lon="0.9357181634791859"><ele>127.0</ele><time>2026-04-03T16:41:51Z</time></trkpt><trkpt lat="44.53255730362848" lon="0.9357472724373158"><ele>129.0</ele><time>2026-04-03T16:41:52Z</time></trkpt><trkpt lat="44.53263189333965" lon="0.9357648037753187"><ele>129.0</ele><time>2026-04-03T16:41:53Z</time></trkpt><trkpt lat="44.532690535344216" lon="0.9357200996369088"><ele>129.0</ele><time>2026-04-03T16:41:54Z</time></trkpt><trkpt lat="44.5327485645192" lon="0.9356192244470632"><ele>129.0</ele><time>2026-04-03T16:41:55Z</time></trkpt><trkpt lat="44.53277109856105" lon="0.9354930460042566"><ele>129.0</ele><time>2026-04-03T16:41:56Z</time></trkpt><trkpt lat="44.53273934544081" lon="0.9353520198764159"><ele>129.0</ele><time>2026-04-03T16:41:57Z</time></trkpt><trkpt lat="44.532714068635464" lon="0.93521595582602"><ele>129.0</ele><time>2026-04-03T16:41:58Z</time></trkpt><trkpt lat="44.532728658371255" lon="0.9350810825009082"><ele>129.0</ele><time>2026-04-03T16:41:59Z</time></trkpt><trkpt lat="44.532775402615" lon="0.9349529075559725"><ele>129.0</ele><time>2026-04-03T16:42:00Z</time></trkpt><trkpt lat="44.532846653912245" lon="0.9348395624644995"><ele>129.0</ele><time>2026-04-03T16:42:01Z</time></trkpt><trkpt lat="44.53290788509155" lon="0.9347148050821744"><ele>129.0</ele><time>2026-04-03T16:42:02Z</time></trkpt><trkpt lat="44.53298283109005" lon="0.9345745554038539"><ele>131.25</ele><time>2026-04-03T16:42:03Z</time></trkpt><trkpt lat="44.53304391453553" lon="0.934413903111153"><ele>133.5</ele><time>2026-04-03T16:42:04Z</time></trkpt><trkpt lat="44.533125254551216" lon="0.9342658284537766"><ele>135.75</ele><time>2026-04-03T16:42:05Z</time></trkpt><trkpt lat="44.53322426354444" lon="0.9341443104461948"><ele>138.0</ele><time>2026-04-03T16:42:06Z</time></trkpt><trkpt lat="44.53331857462272" lon="0.9340490670496221"><ele>138.8</ele><time>2026-04-03T16:42:07Z</time></trkpt><trkpt lat="44.53341550966007" lon="0.9339613136153967"><ele>139.60000000000002</ele><time>2026-04-03T16:42:08Z</time></trkpt><trkpt lat="44.53349276514118" lon="0.933931366786554"><ele>140.39999999999998</ele><time>2026-04-03T16:42:09Z</time></trkpt><trkpt lat="44.53357261262306" lon="0.9339456961913637"><ele>141.2</ele><time>2026-04-03T16:42:10Z</time></trkpt><trkpt lat="44.53366481820912" lon="0.933941264314977"><ele>142.0</ele><time>2026-04-03T16:42:11Z</time></trkpt><trkpt lat="44.533764920713764" lon="0.9338704451848427"><ele>143.0</ele><time>2026-04-03T16:42:12Z</time></trkpt><trkpt lat="44.533853986198665" lon="0.933783494451556"><ele>144.0</ele><time>2026-04-03T16:42:13Z</time></trkpt><trkpt lat="44.53391934128222" lon="0.9337106985549366"><ele>145.0</ele><time>2026-04-03T16:42:14Z</time></trkpt><trkpt lat="44.53397540714532" lon="0.9336673050807026"><ele>146.0</ele><time>2026-04-03T16:42:15Z</time></trkpt><trkpt lat="44.5340525711558" lon="0.9336221398076038"><ele>147.0</ele><time>2026-04-03T16:42:16Z</time></trkpt><trkpt lat="44.534110236452285" lon="0.9335821645107356"><ele>148.0</ele><time>2026-04-03T16:42:17Z</time></trkpt><trkpt lat="44.534224912774924" lon="0.9335819845598985"><ele>148.0</ele><time>2026-04-03T16:42:19Z</time></trkpt><trkpt lat="44.53429209041122" lon="0.9336137324235714"><ele>148.0</ele><time>2026-04-03T16:42:20Z</time></trkpt><trkpt lat="44.53434632589117" lon="0.9337058764481292"><ele>148.0</ele><time>2026-04-03T16:42:21Z</time></trkpt><trkpt lat="44.534411681801224" lon="0.9338024128881928"><ele>148.0</ele><time>2026-04-03T16:42:22Z</time></trkpt><trkpt lat="44.53449288265856" lon="0.933868778768985"><ele>148.0</ele><time>2026-04-03T16:42:23Z</time></trkpt><trkpt lat="44.53457232884858" lon="0.9338771353464138"><ele>148.0</ele><time>2026-04-03T16:42:24Z</time></trkpt><trkpt lat="44.53463441746088" lon="0.9338510267166048"><ele>149.0</ele><time>2026-04-03T16:42:25Z</time></trkpt><trkpt lat="44.53471619753987" lon="0.9337835597653663"><ele>150.0</ele><time>2026-04-03T16:42:26Z</time></trkpt><trkpt lat="44.53478042807345" lon="0.9337537833914317"><ele>151.0</ele><time>2026-04-03T16:42:27Z</time></trkpt><trkpt lat="44.53486196876727" lon="0.9337156511083494"><ele>152.0</ele><time>2026-04-03T16:42:29Z</time></trkpt><trkpt lat="44.53496796025573" lon="0.9336591042501968"><ele>153.0</ele><time>2026-04-03T16:42:31Z</time></trkpt><trkpt lat="44.5350276039683" lon="0.9336219605368639"><ele>154.0</ele><time>2026-04-03T16:42:32Z</time></trkpt><trkpt lat="44.535093531983314" lon="0.9335898962468878"><ele>154.0</ele><time>2026-04-03T16:42:33Z</time></trkpt><trkpt lat="44.53515717117355" lon="0.9335639351340863"><ele>154.0</ele><time>2026-04-03T16:42:34Z</time></trkpt><trkpt lat="44.53527605150382" lon="0.9335454455831507"><ele>154.0</ele><time>2026-04-03T16:42:35.999Z</time></trkpt><trkpt lat="44.53533849067158" lon="0.9335894394565689"><ele>154.0</ele><time>2026-04-03T16:42:36.999Z</time></trkpt><trkpt lat="44.53537799353825" lon="0.933666477798473"><ele>154.0</ele><time>2026-04-03T16:42:37.999Z</time></trkpt><trkpt lat="44.53547000058786" lon="0.933745406888269"><ele>154.0</ele><time>2026-04-03T16:42:39.999Z</time></trkpt><trkpt lat="44.53555390414979" lon="0.933677630190227"><ele>154.16666666666669</ele><time>2026-04-03T16:42:41.999Z</time></trkpt><trkpt lat="44.53561171104677" lon="0.9336341441317011"><ele>154.33333333333334</ele><time>2026-04-03T16:42:42.999Z</time></trkpt><trkpt lat="44.53572045910059" lon="0.9335339171400326"><ele>154.5</ele><time>2026-04-03T16:42:44.999Z</time></trkpt><trkpt lat="44.5357819516786" lon="0.9334834926628481"><ele>154.66666666666666</ele><time>2026-04-03T16:42:45.999Z</time></trkpt><trkpt lat="44.5358432898142" lon="0.9334258939998854"><ele>154.83333333333331</ele><time>2026-04-03T16:42:46.999Z</time></trkpt><trkpt lat="44.53589880434677" lon="0.9333602768033827"><ele>155.0</ele><time>2026-04-03T16:42:47.999Z</time></trkpt><trkpt lat="44.53596205296647" lon="0.9332948290914154"><ele>155.4</ele><time>2026-04-03T16:42:48.999Z</time></trkpt><trkpt lat="44.53602744248352" lon="0.9332166549140551"><ele>155.8</ele><time>2026-04-03T16:42:49.999Z</time></trkpt><trkpt lat="44.53611212257073" lon="0.9331297472477411"><ele>156.2</ele><time>2026-04-03T16:42:50.999Z</time></trkpt><trkpt lat="44.53620659849673" lon="0.9330205956063229"><ele>156.6</ele><time>2026-04-03T16:42:51.999Z</time></trkpt><trkpt lat="44.536288164278766" lon="0.9329396436477296"><ele>157.0</ele><time>2026-04-03T16:42:52.999Z</time></trkpt><trkpt lat="44.53635226404269" lon="0.9328971034839156"><ele>157.16666666666669</ele><time>2026-04-03T16:42:53.999Z</time></trkpt><trkpt lat="44.536420230673116" lon="0.9328936679740788"><ele>157.33333333333334</ele><time>2026-04-03T16:42:54.999Z</time></trkpt><trkpt lat="44.536482632462125" lon="0.932952238020201"><ele>157.5</ele><time>2026-04-03T16:42:55.999Z</time></trkpt><trkpt lat="44.53654796368119" lon="0.9330912529765238"><ele>157.66666666666666</ele><time>2026-04-03T16:42:57.999Z</time></trkpt><trkpt lat="44.5365738128437" lon="0.933175982850679"><ele>157.83333333333331</ele><time>2026-04-03T16:42:58.999Z</time></trkpt><trkpt lat="44.536615846376385" lon="0.9332652701845973"><ele>158.0</ele><time>2026-04-03T16:42:59.999Z</time></trkpt><trkpt lat="44.53668204660667" lon="0.9333700559849769"><ele>157.0</ele><time>2026-04-03T16:43:00.999Z</time></trkpt><trkpt lat="44.5367511901599" lon="0.9335151966153742"><ele>156.0</ele><time>2026-04-03T16:43:01.999Z</time></trkpt><trkpt lat="44.53681902297769" lon="0.9336837800198654"><ele>155.0</ele><time>2026-04-03T16:43:02.999Z</time></trkpt><trkpt lat="44.53688592737344" lon="0.9338360923245851"><ele>154.0</ele><time>2026-04-03T16:43:03.999Z</time></trkpt><trkpt lat="44.536946832880545" lon="0.9339574024270851"><ele>154.0</ele><time>2026-04-03T16:43:04.999Z</time></trkpt><trkpt lat="44.53699756640094" lon="0.9340203506925168"><ele>154.0</ele><time>2026-04-03T16:43:05.999Z</time></trkpt><trkpt lat="44.53709663747916" lon="0.9340458610573726"><ele>154.0</ele><time>2026-04-03T16:43:07.999Z</time></trkpt><trkpt lat="44.53718187601669" lon="0.9339187577530236"><ele>154.0</ele><time>2026-04-03T16:43:09.999Z</time></trkpt><trkpt lat="44.53722952165739" lon="0.9338014607847885"><ele>154.0</ele><time>2026-04-03T16:43:10.999Z</time></trkpt><trkpt lat="44.53728773782834" lon="0.9336983910573925"><ele>153.33333333333334</ele><time>2026-04-03T16:43:11.999Z</time></trkpt><trkpt lat="44.53734577652978" lon="0.9335967364080384"><ele>152.66666666666669</ele><time>2026-04-03T16:43:12.999Z</time></trkpt><trkpt lat="44.53741340854834" lon="0.9335146533101351"><ele>152.0</ele><time>2026-04-03T16:43:14.999Z</time></trkpt><trkpt lat="44.53747869343887" lon="0.933620418594173"><ele>151.33333333333334</ele><time>2026-04-03T16:43:16.999Z</time></trkpt><trkpt lat="44.537544309066085" lon="0.9336933777896388"><ele>150.66666666666666</ele><time>2026-04-03T16:43:19.999Z</time></trkpt><trkpt lat="44.53760871111857" lon="0.9337441070971855"><ele>150.0</ele><time>2026-04-03T16:43:23.999Z</time></trkpt><trkpt lat="44.53764700795779" lon="0.9338172645043129"><ele>150.0</ele><time>2026-04-03T16:43:35.999Z</time></trkpt><trkpt lat="44.537721284746034" lon="0.9339070739719505"><ele>150.0</ele><time>2026-04-03T16:43:37.999Z</time></trkpt><trkpt lat="44.53780796818788" lon="0.933983412918592"><ele>150.0</ele><time>2026-04-03T16:43:39.999Z</time></trkpt><trkpt lat="44.537896336423" lon="0.9340843681717316"><ele>150.0</ele><time>2026-04-03T16:43:41.999Z</time></trkpt><trkpt lat="44.53795174822338" lon="0.9342007294742619"><ele>150.0</ele><time>2026-04-03T16:43:43.999Z</time></trkpt><trkpt lat="44.53797240393656" lon="0.9343492902624481"><ele>148.75</ele><time>2026-04-03T16:43:45.999Z</time></trkpt><trkpt lat="44.53793032743346" lon="0.934468439201254"><ele>147.5</ele><time>2026-04-03T16:43:46.999Z</time></trkpt><trkpt lat="44.53789340912738" lon="0.93463855048406"><ele>146.25</ele><time>2026-04-03T16:43:47.999Z</time></trkpt><trkpt lat="44.537862849087276" lon="0.9348337762836569"><ele>145.0</ele><time>2026-04-03T16:43:48.998Z</time></trkpt><trkpt lat="44.537818111856836" lon="0.9349745654694589"><ele>143.8</ele><time>2026-04-03T16:43:50Z</time></trkpt><trkpt lat="44.53784407273178" lon="0.9351387800893842"><ele>142.6</ele><time>2026-04-03T16:43:52Z</time></trkpt><trkpt lat="44.53789949793589" lon="0.9351839129921949"><ele>141.4</ele><time>2026-04-03T16:43:53Z</time></trkpt><trkpt lat="44.53797462185739" lon="0.9351698309999267"><ele>140.2</ele><time>2026-04-03T16:43:54Z</time></trkpt><trkpt lat="44.53807412225394" lon="0.9351235834728014"><ele>139.0</ele><time>2026-04-03T16:43:56Z</time></trkpt><trkpt lat="44.538181786457926" lon="0.9349927264604722"><ele>139.0</ele><time>2026-04-03T16:43:58Z</time></trkpt><trkpt lat="44.53827652359788" lon="0.9348847101117539"><ele>139.0</ele><time>2026-04-03T16:43:59Z</time></trkpt><trkpt lat="44.53838363704233" lon="0.9347728886570479"><ele>139.0</ele><time>2026-04-03T16:44:00Z</time></trkpt><trkpt lat="44.53851606057595" lon="0.9346686989495117"><ele>139.0</ele><time>2026-04-03T16:44:01Z</time></trkpt><trkpt lat="44.538660985818915" lon="0.9345575631643064"><ele>134.0</ele><time>2026-04-03T16:44:02Z</time></trkpt><trkpt lat="44.53882118594834" lon="0.9344378806368381"><ele>129.0</ele><time>2026-04-03T16:44:03Z</time></trkpt><trkpt lat="44.53898601344122" lon="0.9343723675912501"><ele>124.0</ele><time>2026-04-03T16:44:04Z</time></trkpt><trkpt lat="44.53909443046445" lon="0.9342410697196746"><ele>125.25</ele><time>2026-04-03T16:44:05Z</time></trkpt><trkpt lat="44.539209193647665" lon="0.9341427212289382"><ele>126.5</ele><time>2026-04-03T16:44:06Z</time></trkpt><trkpt lat="44.53928669396068" lon="0.9339921016314666"><ele>127.75</ele><time>2026-04-03T16:44:07Z</time></trkpt><trkpt lat="44.53935064275395" lon="0.9338262650325289"><ele>129.0</ele><time>2026-04-03T16:44:08Z</time></trkpt><trkpt lat="44.53944081555853" lon="0.9337319007422235"><ele>128.4</ele><time>2026-04-03T16:44:09Z</time></trkpt><trkpt lat="44.5395515171381" lon="0.9337833760775069"><ele>127.80000000000001</ele><time>2026-04-03T16:44:10Z</time></trkpt><trkpt lat="44.53964585817973" lon="0.9338277747545242"><ele>127.19999999999999</ele><time>2026-04-03T16:44:11Z</time></trkpt><trkpt lat="44.53972648869643" lon="0.9339264920958469"><ele>126.6</ele><time>2026-04-03T16:44:12Z</time></trkpt><trkpt lat="44.53978219525414" lon="0.9340524216555333"><ele>126.0</ele><time>2026-04-03T16:44:13Z</time></trkpt><trkpt lat="44.53977445222932" lon="0.9342311825595885"><ele>124.25</ele><time>2026-04-03T16:44:14Z</time></trkpt><trkpt lat="44.539794304313695" lon="0.9344469349471218"><ele>122.5</ele><time>2026-04-03T16:44:15Z</time></trkpt><trkpt lat="44.53983451298623" lon="0.934644232264584"><ele>120.75</ele><time>2026-04-03T16:44:16Z</time></trkpt><trkpt lat="44.539847734989046" lon="0.934817876796909"><ele>119.0</ele><time>2026-04-03T16:44:17Z</time></trkpt><trkpt lat="44.53986693661526" lon="0.9349510483653993"><ele>117.80000000000001</ele><time>2026-04-03T16:44:18Z</time></trkpt><trkpt lat="44.539895185966145" lon="0.9350586925585235"><ele>116.60000000000001</ele><time>2026-04-03T16:44:19Z</time></trkpt><trkpt lat="44.539916780626726" lon="0.9352001252896728"><ele>115.4</ele><time>2026-04-03T16:44:21Z</time></trkpt><trkpt lat="44.540062727292245" lon="0.9352378258781888"><ele>114.2</ele><time>2026-04-03T16:44:28Z</time></trkpt><trkpt lat="44.540133683399716" lon="0.9351979805393362"><ele>113.0</ele><time>2026-04-03T16:44:31Z</time></trkpt><trkpt lat="44.54020732845818" lon="0.9351955238841237"><ele>112.99999999999999</ele><time>2026-04-03T16:44:35Z</time></trkpt><trkpt lat="44.54028380200771" lon="0.9352209497933084"><ele>113.0</ele><time>2026-04-03T16:44:39Z</time></trkpt><trkpt lat="44.54036821594546" lon="0.9352630918517744"><ele>113.0</ele><time>2026-04-03T16:44:41Z</time></trkpt><trkpt lat="44.5404476475733" lon="0.9352859496310675"><ele>113.0</ele><time>2026-04-03T16:44:41.999Z</time></trkpt><trkpt lat="44.54050851463846" lon="0.9353085276849412"><ele>112.99999999999999</ele><time>2026-04-03T16:44:42.999Z</time></trkpt><trkpt lat="44.54057252862937" lon="0.9353372535126069"><ele>113.0</ele><time>2026-04-03T16:44:44.999Z</time></trkpt><trkpt lat="44.54064878144331" lon="0.9353427975243807"><ele>112.80000000000001</ele><time>2026-04-03T16:44:46.999Z</time></trkpt><trkpt lat="44.54076222331427" lon="0.9353593711601185"><ele>112.60000000000001</ele><time>2026-04-03T16:44:48.999Z</time></trkpt><trkpt lat="44.540851833872914" lon="0.9354037749080881"><ele>112.39999999999999</ele><time>2026-04-03T16:44:50.999Z</time></trkpt><trkpt lat="44.54092644149132" lon="0.9354108473637661"><ele>112.19999999999999</ele><time>2026-04-03T16:44:52.999Z</time></trkpt><trkpt lat="44.541012294660675" lon="0.9354129761318036"><ele>112.0</ele><time>2026-04-03T16:44:54.999Z</time></trkpt><trkpt lat="44.54113258712329" lon="0.9354046984975503"><ele>111.5</ele><time>2026-04-03T16:44:56.999Z</time></trkpt><trkpt lat="44.541224022977445" lon="0.935392205417044"><ele>111.0</ele><time>2026-04-03T16:44:57.999Z</time></trkpt><trkpt lat="44.541341429310805" lon="0.9353653300180984"><ele>110.5</ele><time>2026-04-03T16:44:58.999Z</time></trkpt><trkpt lat="44.54146955059004" lon="0.9353048728658814"><ele>110.0</ele><time>2026-04-03T16:44:59.999Z</time></trkpt><trkpt lat="44.54160719559339" lon="0.935254265511951"><ele>110.0</ele><time>2026-04-03T16:45:00.999Z</time></trkpt><trkpt lat="44.541757029110094" lon="0.9352122163574396"><ele>110.0</ele><time>2026-04-03T16:45:01.999Z</time></trkpt><trkpt lat="44.54191269161378" lon="0.9351707682212427"><ele>110.0</ele><time>2026-04-03T16:45:02.999Z</time></trkpt><trkpt lat="44.54208359965899" lon="0.9351457090658248"><ele>111.0</ele><time>2026-04-03T16:45:03.999Z</time></trkpt><trkpt lat="44.54225770593421" lon="0.9351172018275032"><ele>112.0</ele><time>2026-04-03T16:45:04.999Z</time></trkpt><trkpt lat="44.54242457747737" lon="0.9351082070102726"><ele>113.0</ele><time>2026-04-03T16:45:05.999Z</time></trkpt><trkpt lat="44.54256570695046" lon="0.9351412788243829"><ele>113.0</ele><time>2026-04-03T16:45:06.999Z</time></trkpt><trkpt lat="44.54269061460266" lon="0.9352182157672804"><ele>113.0</ele><time>2026-04-03T16:45:07.999Z</time></trkpt><trkpt lat="44.54279948043985" lon="0.9353680389953349"><ele>113.0</ele><time>2026-04-03T16:45:08.999Z</time></trkpt><trkpt lat="44.542916287886854" lon="0.9354889955382516"><ele>113.0</ele><time>2026-04-03T16:45:09.999Z</time></trkpt><trkpt lat="44.54301714175542" lon="0.9355369748753775"><ele>112.5</ele><time>2026-04-03T16:45:10.999Z</time></trkpt><trkpt lat="44.543096697744865" lon="0.9355621881081913"><ele>112.0</ele><time>2026-04-03T16:45:11.999Z</time></trkpt><trkpt lat="44.54317107717648" lon="0.9355708622420602"><ele>111.5</ele><time>2026-04-03T16:45:12.999Z</time></trkpt><trkpt lat="44.5432406195368" lon="0.935597981771785"><ele>111.0</ele><time>2026-04-03T16:45:14.999Z</time></trkpt><trkpt lat="44.543167787940675" lon="0.9358965926021101"><ele>113.0</ele><time>2026-04-03T16:45:19.999Z</time></trkpt><trkpt lat="44.54307764802961" lon="0.9359753047640474"><ele>115.0</ele><time>2026-04-03T16:45:20.999Z</time></trkpt><trkpt lat="44.54297073622657" lon="0.936026353462318"><ele>117.0</ele><time>2026-04-03T16:45:21.999Z</time></trkpt><trkpt lat="44.54286451165061" lon="0.9360662694385511"><ele>119.0</ele><time>2026-04-03T16:45:22.999Z</time></trkpt><trkpt lat="44.54274893340955" lon="0.936121082741057"><ele>121.0</ele><time>2026-04-03T16:45:23.999Z</time></trkpt><trkpt lat="44.54263073575005" lon="0.936176316766199"><ele>123.0</ele><time>2026-04-03T16:45:24.999Z</time></trkpt><trkpt lat="44.54250314370068" lon="0.9362321951677858"><ele>125.0</ele><time>2026-04-03T16:45:25.999Z</time></trkpt><trkpt lat="44.54237836413992" lon="0.9362688133944426"><ele>127.0</ele><time>2026-04-03T16:45:26.999Z</time></trkpt><trkpt lat="44.54228577914262" lon="0.9362874326355407"><ele>127.0</ele><time>2026-04-03T16:45:27.999Z</time></trkpt><trkpt lat="44.54220301879194" lon="0.9363544044366546"><ele>127.0</ele><time>2026-04-03T16:45:28.999Z</time></trkpt><trkpt lat="44.542131095287765" lon="0.9364889100747233"><ele>127.0</ele><time>2026-04-03T16:45:29.999Z</time></trkpt><trkpt lat="44.542048206238455" lon="0.9366123028569882"><ele>127.0</ele><time>2026-04-03T16:45:30.999Z</time></trkpt><trkpt lat="44.54196096062649" lon="0.9367397882984688"><ele>129.0</ele><time>2026-04-03T16:45:31.999Z</time></trkpt><trkpt lat="44.54187686635576" lon="0.9368725794999935"><ele>131.0</ele><time>2026-04-03T16:45:32.999Z</time></trkpt><trkpt lat="44.541777821603596" lon="0.9369905022228364"><ele>133.0</ele><time>2026-04-03T16:45:33.999Z</time></trkpt><trkpt lat="44.54166647704113" lon="0.9371065066852444"><ele>135.0</ele><time>2026-04-03T16:45:34.999Z</time></trkpt><trkpt lat="44.54156539774568" lon="0.9372513258072313"><ele>135.0</ele><time>2026-04-03T16:45:35.999Z</time></trkpt><trkpt lat="44.54146346375437" lon="0.9374005615281011"><ele>135.0</ele><time>2026-04-03T16:45:36.999Z</time></trkpt><trkpt lat="44.54137856025786" lon="0.9375518505666643"><ele>135.0</ele><time>2026-04-03T16:45:37.999Z</time></trkpt><trkpt lat="44.54129876341935" lon="0.9377125262860888"><ele>135.0</ele><time>2026-04-03T16:45:38.999Z</time></trkpt><trkpt lat="44.54122164755221" lon="0.9378279502280419"><ele>137.0</ele><time>2026-04-03T16:45:39.999Z</time></trkpt><trkpt lat="44.541146142166745" lon="0.9379397829446453"><ele>139.0</ele><time>2026-04-03T16:45:40.999Z</time></trkpt><trkpt lat="44.541064252062945" lon="0.9379949381809952"><ele>141.0</ele><time>2026-04-03T16:45:41.999Z</time></trkpt><trkpt lat="44.540953834720604" lon="0.9380346900445881"><ele>143.0</ele><time>2026-04-03T16:45:42.999Z</time></trkpt><trkpt lat="44.540830722396414" lon="0.9380792878337414"><ele>145.0</ele><time>2026-04-03T16:45:43.999Z</time></trkpt><trkpt lat="44.54072155310571" lon="0.93812518033394"><ele>145.0</ele><time>2026-04-03T16:45:44.999Z</time></trkpt><trkpt lat="44.54063970597168" lon="0.9381639863363034"><ele>145.0</ele><time>2026-04-03T16:45:45.999Z</time></trkpt><trkpt lat="44.54058566535438" lon="0.9382096701359859"><ele>145.0</ele><time>2026-04-03T16:45:46.999Z</time></trkpt><trkpt lat="44.540521277004146" lon="0.9383602517116676"><ele>145.0</ele><time>2026-04-03T16:45:48.999Z</time></trkpt><trkpt lat="44.54048849466856" lon="0.9384973609775686"><ele>145.0</ele><time>2026-04-03T16:45:50.999Z</time></trkpt><trkpt lat="44.54045584392249" lon="0.9385968500843889"><ele>144.6</ele><time>2026-04-03T16:45:52.999Z</time></trkpt><trkpt lat="44.54041668817265" lon="0.9387125388900106"><ele>144.2</ele><time>2026-04-03T16:45:54.998Z</time></trkpt><trkpt lat="44.54037208068402" lon="0.938901922426378"><ele>143.8</ele><time>2026-04-03T16:45:57Z</time></trkpt><trkpt lat="44.54033808326428" lon="0.9390199353196281"><ele>143.4</ele><time>2026-04-03T16:45:58Z</time></trkpt><trkpt lat="44.54029520455146" lon="0.9391339077060571"><ele>143.0</ele><time>2026-04-03T16:45:59Z</time></trkpt><trkpt lat="44.54025926191042" lon="0.9392512449116042"><ele>143.0</ele><time>2026-04-03T16:46:00Z</time></trkpt><trkpt lat="44.5402353111952" lon="0.9393643677058693"><ele>143.0</ele><time>2026-04-03T16:46:01Z</time></trkpt><trkpt lat="44.540208151603984" lon="0.9394848738825677"><ele>143.0</ele><time>2026-04-03T16:46:02Z</time></trkpt><trkpt lat="44.540194282445476" lon="0.939602256263464"><ele>143.0</ele><time>2026-04-03T16:46:03Z</time></trkpt><trkpt lat="44.54018104043771" lon="0.9397269229354087"><ele>143.0</ele><time>2026-04-03T16:46:04Z</time></trkpt><trkpt lat="44.54017412169999" lon="0.9398626056961021"><ele>143.0</ele><time>2026-04-03T16:46:05Z</time></trkpt><trkpt lat="44.540173553790844" lon="0.9400123017305205"><ele>140.66666666666666</ele><time>2026-04-03T16:46:06Z</time></trkpt><trkpt lat="44.54017619045706" lon="0.9402108325695346"><ele>138.33333333333334</ele><time>2026-04-03T16:46:07Z</time></trkpt><trkpt lat="44.54019141434634" lon="0.9404311661670518"><ele>136.0</ele><time>2026-04-03T16:46:08Z</time></trkpt><trkpt lat="44.540205355250286" lon="0.9406567570209124"><ele>133.66666666666669</ele><time>2026-04-03T16:46:09Z</time></trkpt><trkpt lat="44.54020437981139" lon="0.9408935061331847"><ele>131.33333333333334</ele><time>2026-04-03T16:46:10Z</time></trkpt><trkpt lat="44.540203136576274" lon="0.9411208791836289"><ele>129.0</ele><time>2026-04-03T16:46:11Z</time></trkpt><trkpt lat="44.54021566282552" lon="0.9413341519370463"><ele>129.0</ele><time>2026-04-03T16:46:12Z</time></trkpt><trkpt lat="44.540230812304095" lon="0.9415279261331195"><ele>129.0</ele><time>2026-04-03T16:46:13Z</time></trkpt><trkpt lat="44.540236643394636" lon="0.9416985756351313"><ele>129.0</ele><time>2026-04-03T16:46:14Z</time></trkpt><trkpt lat="44.54024586954833" lon="0.941835032956565"><ele>129.0</ele><time>2026-04-03T16:46:15Z</time></trkpt><trkpt lat="44.54024321712517" lon="0.9419712669573022"><ele>127.33333333333333</ele><time>2026-04-03T16:46:16Z</time></trkpt><trkpt lat="44.540236936616424" lon="0.9420880449829466"><ele>125.66666666666666</ele><time>2026-04-03T16:46:17Z</time></trkpt><trkpt lat="44.54022764820128" lon="0.9421950900781773"><ele>124.0</ele><time>2026-04-03T16:46:18Z</time></trkpt><trkpt lat="44.54021726477644" lon="0.9422825751664592"><ele>122.33333333333333</ele><time>2026-04-03T16:46:19Z</time></trkpt><trkpt lat="44.54020725129662" lon="0.9424412487014057"><ele>120.66666666666666</ele><time>2026-04-03T16:46:21Z</time></trkpt><trkpt lat="44.54021089214528" lon="0.9425740273997516"><ele>119.0</ele><time>2026-04-03T16:46:23Z</time></trkpt><trkpt lat="44.54019469871205" lon="0.9426979588080009"><ele>117.42857142857143</ele><time>2026-04-03T16:46:25Z</time></trkpt><trkpt lat="44.54019143700766" lon="0.9427981196762037"><ele>115.85714285714286</ele><time>2026-04-03T16:46:27Z</time></trkpt><trkpt lat="44.54018162026902" lon="0.9429121830202543"><ele>114.28571428571428</ele><time>2026-04-03T16:46:30Z</time></trkpt><trkpt lat="44.54012672616901" lon="0.9429600731658464"><ele>112.71428571428572</ele><time>2026-04-03T16:46:34Z</time></trkpt><trkpt lat="44.540040139501066" lon="0.9429467313394321"><ele>111.14285714285714</ele><time>2026-04-03T16:46:38Z</time></trkpt><trkpt lat="44.539978117301665" lon="0.9429291176265918"><ele>109.57142857142857</ele><time>2026-04-03T16:46:41Z</time></trkpt><trkpt lat="44.53992138042164" lon="0.9429711556470731"><ele>108.0</ele><time>2026-04-03T16:46:44Z</time></trkpt><trkpt lat="44.539925738957265" lon="0.9430810970982603"><ele>108.0</ele><time>2026-04-03T16:46:48.999Z</time></trkpt><trkpt lat="44.5399596906971" lon="0.9431681752425058"><ele>108.00000000000001</ele><time>2026-04-03T16:46:53.999Z</time></trkpt><trkpt lat="44.53997111650207" lon="0.9432769939359048"><ele>108.00000000000001</ele><time>2026-04-03T16:46:58.999Z</time></trkpt><trkpt lat="44.5399958885128" lon="0.9433811956787734"><ele>108.0</ele><time>2026-04-03T16:48:08Z</time></trkpt><trkpt lat="44.540021396933476" lon="0.9434700844193123"><ele>108.0</ele><time>2026-04-03T16:48:11Z</time></trkpt><trkpt lat="44.54014654718513" lon="0.9432872472284365"><ele>108.0</ele><time>2026-04-03T16:48:16Z</time></trkpt><trkpt lat="44.54008693038625" lon="0.9433673607524408"><ele>108.0</ele><time>2026-04-03T16:59:28.999Z</time></trkpt><trkpt lat="44.54006841465971" lon="0.943458166197239"><ele>108.0</ele><time>2026-04-03T16:59:31.999Z</time></trkpt><trkpt lat="44.540054369111495" lon="0.943578788035069"><ele>108.0</ele><time>2026-04-03T16:59:33.999Z</time></trkpt><trkpt lat="44.540104678033785" lon="0.9437360102334669"><ele>108.0</ele><time>2026-04-03T16:59:35.999Z</time></trkpt><trkpt lat="44.54013362227854" lon="0.943826489897194"><ele>108.0</ele><time>2026-04-03T16:59:36.999Z</time></trkpt><trkpt lat="44.54017782477669" lon="0.9439749165578336"><ele>105.80000000000001</ele><time>2026-04-03T16:59:38.999Z</time></trkpt><trkpt lat="44.54022378280988" lon="0.9441288859970532"><ele>103.60000000000001</ele><time>2026-04-03T16:59:40.999Z</time></trkpt><trkpt lat="44.54026601334463" lon="0.9442700285996829"><ele>101.4</ele><time>2026-04-03T16:59:42.999Z</time></trkpt><trkpt lat="44.54029097251707" lon="0.9443534469462489"><ele>99.19999999999999</ele><time>2026-04-03T16:59:43.999Z</time></trkpt><trkpt lat="44.54031958011507" lon="0.9444490591092882"><ele>97.0</ele><time>2026-04-03T16:59:44.999Z</time></trkpt><trkpt lat="44.5403689429794" lon="0.944581618895365"><ele>96.0</ele><time>2026-04-03T16:59:46.999Z</time></trkpt><trkpt lat="44.54017548176466" lon="0.9446564623709046"><ele>95.0</ele><time>2026-04-03T16:59:51.999Z</time></trkpt><trkpt lat="44.54010899848282" lon="0.9446694927227178"><ele>94.0</ele><time>2026-04-03T16:59:53.999Z</time></trkpt><trkpt lat="44.539979630743126" lon="0.9447153468758094"><ele>93.0</ele><time>2026-04-03T16:59:55.999Z</time></trkpt><trkpt lat="44.53986469941344" lon="0.944742458909344"><ele>93.0</ele><time>2026-04-03T16:59:56.999Z</time></trkpt><trkpt lat="44.5397512765541" lon="0.9447734901126578"><ele>93.0</ele><time>2026-04-03T16:59:57.999Z</time></trkpt><trkpt lat="44.53963131490891" lon="0.9448032165133392"><ele>93.0</ele><time>2026-04-03T16:59:58.999Z</time></trkpt><trkpt lat="44.53949035114809" lon="0.944780670967951"><ele>93.0</ele><time>2026-04-03T16:59:59.999Z</time></trkpt><trkpt lat="44.539351514149374" lon="0.9447460506242915"><ele>93.0</ele><time>2026-04-03T17:00:00.999Z</time></trkpt><trkpt lat="44.53919835855085" lon="0.9446903251703386"><ele>93.0</ele><time>2026-04-03T17:00:01.999Z</time></trkpt><trkpt lat="44.53904796623105" lon="0.9446254428247671"><ele>93.0</ele><time>2026-04-03T17:00:02.999Z</time></trkpt><trkpt lat="44.53890639750202" lon="0.9445263278944188"><ele>93.0</ele><time>2026-04-03T17:00:03.999Z</time></trkpt><trkpt lat="44.53876652666109" lon="0.9443881844326509"><ele>93.0</ele><time>2026-04-03T17:00:04.999Z</time></trkpt><trkpt lat="44.538633078900546" lon="0.9442388848097456"><ele>93.0</ele><time>2026-04-03T17:00:05.999Z</time></trkpt><trkpt lat="44.53847630092645" lon="0.9441297124435242"><ele>93.0</ele><time>2026-04-03T17:00:06.999Z</time></trkpt><trkpt lat="44.53831536676134" lon="0.9440433943291783"><ele>93.0</ele><time>2026-04-03T17:00:07.999Z</time></trkpt><trkpt lat="44.538158990136054" lon="0.9439462790826879"><ele>93.0</ele><time>2026-04-03T17:00:08.999Z</time></trkpt><trkpt lat="44.53799374845087" lon="0.943846295849456"><ele>93.0</ele><time>2026-04-03T17:00:09.999Z</time></trkpt><trkpt lat="44.537853227353025" lon="0.9437576079422547"><ele>93.0</ele><time>2026-04-03T17:00:10.999Z</time></trkpt><trkpt lat="44.537704158975274" lon="0.9436767371088639"><ele>93.0</ele><time>2026-04-03T17:00:11.999Z</time></trkpt><trkpt lat="44.53758647072403" lon="0.9436356748558609"><ele>93.0</ele><time>2026-04-03T17:00:12.999Z</time></trkpt><trkpt lat="44.537485041951484" lon="0.9436010254629064"><ele>93.0</ele><time>2026-04-03T17:00:13.999Z</time></trkpt><trkpt lat="44.53739040475731" lon="0.9435404111621318"><ele>93.0</ele><time>2026-04-03T17:00:14.999Z</time></trkpt><trkpt lat="44.53731137906531" lon="0.9434731810204525"><ele>93.0</ele><time>2026-04-03T17:00:15.999Z</time></trkpt><trkpt lat="44.53725770829889" lon="0.9434230491421239"><ele>93.0</ele><time>2026-04-03T17:00:16.999Z</time></trkpt><trkpt lat="44.53719335277736" lon="0.9433751733100343"><ele>93.0</ele><time>2026-04-03T17:00:17.999Z</time></trkpt><trkpt lat="44.5371244028916" lon="0.9433513250923534"><ele>93.0</ele><time>2026-04-03T17:00:18.999Z</time></trkpt><trkpt lat="44.537015354883" lon="0.9433905263481839"><ele>93.0</ele><time>2026-04-03T17:00:20.999Z</time></trkpt><trkpt lat="44.536948372762815" lon="0.9434330051645688"><ele>93.0</ele><time>2026-04-03T17:00:22.999Z</time></trkpt><trkpt lat="44.536882129225575" lon="0.9434283067361487"><ele>93.0</ele><time>2026-04-03T17:00:24.999Z</time></trkpt><trkpt lat="44.53680802326021" lon="0.9433880215097858"><ele>93.0</ele><time>2026-04-03T17:00:36.998Z</time></trkpt><trkpt lat="44.53672266615349" lon="0.9433616800015229"><ele>93.0</ele><time>2026-04-03T17:00:53Z</time></trkpt><trkpt lat="44.53665811503509" lon="0.9433274541925456"><ele>93.0</ele><time>2026-04-03T17:00:54Z</time></trkpt><trkpt lat="44.53657530935482" lon="0.9432709213126989"><ele>93.0</ele><time>2026-04-03T17:00:55Z</time></trkpt><trkpt lat="44.53649195870868" lon="0.9432020804639668"><ele>93.0</ele><time>2026-04-03T17:00:56Z</time></trkpt><trkpt lat="44.53641456940238" lon="0.9431330963307702"><ele>93.0</ele><time>2026-04-03T17:00:57Z</time></trkpt><trkpt lat="44.536360693968234" lon="0.943079841960328"><ele>93.0</ele><time>2026-04-03T17:00:58Z</time></trkpt><trkpt lat="44.53624590154885" lon="0.943045222355381"><ele>93.0</ele><time>2026-04-03T17:01:00Z</time></trkpt><trkpt lat="44.53617916014135" lon="0.9429979924658154"><ele>93.0</ele><time>2026-04-03T17:01:01Z</time></trkpt><trkpt lat="44.53612366384966" lon="0.9429484763403299"><ele>92.83333333333333</ele><time>2026-04-03T17:01:02Z</time></trkpt><trkpt lat="44.536012987184286" lon="0.942904642997161"><ele>92.66666666666667</ele><time>2026-04-03T17:01:04Z</time></trkpt><trkpt lat="44.53595359678302" lon="0.9428486185698824"><ele>92.5</ele><time>2026-04-03T17:01:06Z</time></trkpt><trkpt lat="44.53588591969999" lon="0.942821163339171"><ele>92.33333333333334</ele><time>2026-04-03T17:01:08Z</time></trkpt><trkpt lat="44.5358248701053" lon="0.9427839164543217"><ele>92.16666666666667</ele><time>2026-04-03T17:01:10Z</time></trkpt><trkpt lat="44.53574495666472" lon="0.9427694816821085"><ele>92.0</ele><time>2026-04-03T17:01:13Z</time></trkpt><trkpt lat="44.535669650717004" lon="0.9427530440216532"><ele>92.0</ele><time>2026-04-03T17:01:16Z</time></trkpt><trkpt lat="44.535605242444035" lon="0.9427282025235793"><ele>92.0</ele><time>2026-04-03T17:01:18Z</time></trkpt><trkpt lat="44.5354963572973" lon="0.9426775031988484"><ele>92.0</ele><time>2026-04-03T17:01:20Z</time></trkpt><trkpt lat="44.53541378828473" lon="0.9426357035218025"><ele>92.0</ele><time>2026-04-03T17:01:21Z</time></trkpt><trkpt lat="44.535346223126076" lon="0.9426153278953976"><ele>92.0</ele><time>2026-04-03T17:01:22Z</time></trkpt><trkpt lat="44.53524369990437" lon="0.9425950385618417"><ele>92.0</ele><time>2026-04-03T17:01:24Z</time></trkpt><trkpt lat="44.535108369434106" lon="0.9425364154871116"><ele>92.25</ele><time>2026-04-03T17:01:25.999Z</time></trkpt><trkpt lat="44.53497419120187" lon="0.9424890353822863"><ele>92.5</ele><time>2026-04-03T17:01:27.999Z</time></trkpt><trkpt lat="44.53488853504672" lon="0.9424320935681711"><ele>92.75</ele><time>2026-04-03T17:01:28.999Z</time></trkpt><trkpt lat="44.53479023164478" lon="0.9423601526926344"><ele>93.0</ele><time>2026-04-03T17:01:29.999Z</time></trkpt><trkpt lat="44.5346780648406" lon="0.942262551406766"><ele>93.0</ele><time>2026-04-03T17:01:30.999Z</time></trkpt><trkpt lat="44.534603429343946" lon="0.9421873080126839"><ele>93.0</ele><time>2026-04-03T17:01:31.999Z</time></trkpt><trkpt lat="44.534536648738424" lon="0.9421224587147606"><ele>93.0</ele><time>2026-04-03T17:01:33.999Z</time></trkpt><trkpt lat="44.53446444485913" lon="0.9420775181163462"><ele>93.0</ele><time>2026-04-03T17:01:36.999Z</time></trkpt><trkpt lat="44.53452524581203" lon="0.9421446459291501"><ele>93.0</ele><time>2026-04-03T17:01:56.999Z</time></trkpt><trkpt lat="44.53459848594729" lon="0.9421804357477216"><ele>93.0</ele><time>2026-04-03T17:02:00.999Z</time></trkpt><trkpt lat="44.534671795357575" lon="0.9422337102764989"><ele>93.0</ele><time>2026-04-03T17:02:03.999Z</time></trkpt><trkpt lat="44.53475221292353" lon="0.9423214084517908"><ele>93.0</ele><time>2026-04-03T17:02:17.999Z</time></trkpt><trkpt lat="44.534823752581715" lon="0.9423909934812477"><ele>93.0</ele><time>2026-04-03T17:02:18.999Z</time></trkpt><trkpt lat="44.534886340623196" lon="0.9425099851862292"><ele>93.0</ele><time>2026-04-03T17:02:19.999Z</time></trkpt><trkpt lat="44.53489808115334" lon="0.9426807856858813"><ele>93.0</ele><time>2026-04-03T17:02:20.999Z</time></trkpt><trkpt lat="44.53488507624712" lon="0.9428381251243869"><ele>92.60000000000001</ele><time>2026-04-03T17:02:21.999Z</time></trkpt><trkpt lat="44.534898273821156" lon="0.9429674733654528"><ele>92.2</ele><time>2026-04-03T17:02:22.999Z</time></trkpt><trkpt lat="44.53496586231527" lon="0.9430675803206573"><ele>91.8</ele><time>2026-04-03T17:02:23.999Z</time></trkpt><trkpt lat="44.53505193583235" lon="0.9431010886648609"><ele>91.4</ele><time>2026-04-03T17:02:24.999Z</time></trkpt><trkpt lat="44.53514270503622" lon="0.9431316883100874"><ele>91.0</ele><time>2026-04-03T17:02:25.999Z</time></trkpt><trkpt lat="44.53525827609907" lon="0.9431614594532276"><ele>91.0</ele><time>2026-04-03T17:02:26.999Z</time></trkpt><trkpt lat="44.53538712244011" lon="0.9432156839442255"><ele>91.0</ele><time>2026-04-03T17:02:27.999Z</time></trkpt><trkpt lat="44.535501330366074" lon="0.9433159056595711"><ele>91.0</ele><time>2026-04-03T17:02:28.999Z</time></trkpt><trkpt lat="44.53563286648621" lon="0.943408258889092"><ele>91.0</ele><time>2026-04-03T17:02:29.999Z</time></trkpt><trkpt lat="44.53576736162287" lon="0.943487387972404"><ele>90.6</ele><time>2026-04-03T17:02:30.999Z</time></trkpt><trkpt lat="44.53587356672533" lon="0.9435796470242124"><ele>90.19999999999999</ele><time>2026-04-03T17:02:31.999Z</time></trkpt><trkpt lat="44.535966381377406" lon="0.9436673558047249"><ele>89.80000000000001</ele><time>2026-04-03T17:02:32.999Z</time></trkpt><trkpt lat="44.53604172073537" lon="0.9437519018379523"><ele>89.4</ele><time>2026-04-03T17:02:33.999Z</time></trkpt><trkpt lat="44.536119650965695" lon="0.9438401071254379"><ele>89.0</ele><time>2026-04-03T17:02:34.999Z</time></trkpt><trkpt lat="44.536207854597535" lon="0.9439288421816977"><ele>89.80000000000001</ele><time>2026-04-03T17:02:35.998Z</time></trkpt><trkpt lat="44.53628099266228" lon="0.9440096772101191"><ele>90.60000000000001</ele><time>2026-04-03T17:02:36.998Z</time></trkpt><trkpt lat="44.536364213148566" lon="0.9441001721137968"><ele>91.4</ele><time>2026-04-03T17:02:37.998Z</time></trkpt><trkpt lat="44.536442518036125" lon="0.9441764639479178"><ele>92.2</ele><time>2026-04-03T17:02:38.998Z</time></trkpt><trkpt lat="44.53653269691112" lon="0.9442352627919687"><ele>93.0</ele><time>2026-04-03T17:02:39.998Z</time></trkpt><trkpt lat="44.53662974479133" lon="0.9442856063473917"><ele>93.0</ele><time>2026-04-03T17:02:40.998Z</time></trkpt><trkpt lat="44.53672535159687" lon="0.9443213790026449"><ele>93.0</ele><time>2026-04-03T17:02:41.998Z</time></trkpt><trkpt lat="44.53682071463475" lon="0.9443528253620092"><ele>93.0</ele><time>2026-04-03T17:02:42.998Z</time></trkpt><trkpt lat="44.536905031363005" lon="0.9443844478808407"><ele>93.0</ele><time>2026-04-03T17:02:44Z</time></trkpt><trkpt lat="44.536993140184805" lon="0.9444180726508261"><ele>93.0</ele><time>2026-04-03T17:02:45Z</time></trkpt><trkpt lat="44.5370779992711" lon="0.9444675442437327"><ele>92.66666666666667</ele><time>2026-04-03T17:02:46Z</time></trkpt><trkpt lat="44.53714746132397" lon="0.9445410965892144"><ele>92.33333333333333</ele><time>2026-04-03T17:02:47Z</time></trkpt><trkpt lat="44.53719346251595" lon="0.9446453773377443"><ele>92.0</ele><time>2026-04-03T17:02:48Z</time></trkpt><trkpt lat="44.53719012239125" lon="0.9447695354739297"><ele>91.66666666666666</ele><time>2026-04-03T17:02:49Z</time></trkpt><trkpt lat="44.53721361822374" lon="0.9448931668545345"><ele>91.33333333333333</ele><time>2026-04-03T17:02:50Z</time></trkpt><trkpt lat="44.53722272205799" lon="0.9450124155956835"><ele>91.0</ele><time>2026-04-03T17:02:51Z</time></trkpt><trkpt lat="44.537235181009294" lon="0.9451144302587434"><ele>91.0</ele><time>2026-04-03T17:02:52Z</time></trkpt><trkpt lat="44.53724362118722" lon="0.9452435273131221"><ele>91.0</ele><time>2026-04-03T17:02:53Z</time></trkpt><trkpt lat="44.537265831287144" lon="0.9453802313116542"><ele>91.0</ele><time>2026-04-03T17:02:54Z</time></trkpt><trkpt lat="44.537304597082574" lon="0.9455101273267338"><ele>91.0</ele><time>2026-04-03T17:02:55Z</time></trkpt><trkpt lat="44.537319449100636" lon="0.9456463463772055"><ele>91.0</ele><time>2026-04-03T17:02:56Z</time></trkpt><trkpt lat="44.537345755541054" lon="0.945769636703619"><ele>92.66666666666666</ele><time>2026-04-03T17:02:57Z</time></trkpt><trkpt lat="44.537376891832615" lon="0.9459100854532925"><ele>94.33333333333333</ele><time>2026-04-03T17:02:58Z</time></trkpt><trkpt lat="44.53739814490155" lon="0.9460304264955839"><ele>96.0</ele><time>2026-04-03T17:02:59Z</time></trkpt><trkpt lat="44.53741959876116" lon="0.946133016399646"><ele>97.66666666666666</ele><time>2026-04-03T17:03:00Z</time></trkpt><trkpt lat="44.5374348717579" lon="0.9462807624098742"><ele>99.33333333333333</ele><time>2026-04-03T17:03:02Z</time></trkpt><trkpt lat="44.53745516835997" lon="0.9463682910924807"><ele>101.0</ele><time>2026-04-03T17:03:05Z</time></trkpt><trkpt lat="44.537607436841164" lon="0.946360128254285"><ele>101.0</ele><time>2026-04-03T17:03:07Z</time></trkpt><trkpt lat="44.537700533964674" lon="0.9463214828919043"><ele>101.0</ele><time>2026-04-03T17:03:08Z</time></trkpt><trkpt lat="44.53779916256125" lon="0.9462884708165732"><ele>101.0</ele><time>2026-04-03T17:03:09Z</time></trkpt><trkpt lat="44.53792978165775" lon="0.9462746249190387"><ele>101.0</ele><time>2026-04-03T17:03:10Z</time></trkpt><trkpt lat="44.53807659852283" lon="0.9462675203918999"><ele>104.0</ele><time>2026-04-03T17:03:11Z</time></trkpt><trkpt lat="44.538221973336455" lon="0.9462714388728124"><ele>107.0</ele><time>2026-04-03T17:03:12Z</time></trkpt><trkpt lat="44.538374536449176" lon="0.9462942509065002"><ele>110.0</ele><time>2026-04-03T17:03:13Z</time></trkpt><trkpt lat="44.53853321280314" lon="0.9463152876320406"><ele>110.0</ele><time>2026-04-03T17:03:14Z</time></trkpt><trkpt lat="44.53870293345245" lon="0.9463392069578678"><ele>110.0</ele><time>2026-04-03T17:03:15Z</time></trkpt><trkpt lat="44.53887609034706" lon="0.9463698105207108"><ele>110.0</ele><time>2026-04-03T17:03:16Z</time></trkpt><trkpt lat="44.53903474575763" lon="0.9463910798415831"><ele>108.0</ele><time>2026-04-03T17:03:17Z</time></trkpt><trkpt lat="44.53917341992921" lon="0.9464036381448374"><ele>106.0</ele><time>2026-04-03T17:03:18Z</time></trkpt><trkpt lat="44.53929908736156" lon="0.9464184934155178"><ele>104.0</ele><time>2026-04-03T17:03:19Z</time></trkpt><trkpt lat="44.53940219516466" lon="0.9464183792278354"><ele>102.0</ele><time>2026-04-03T17:03:20Z</time></trkpt><trkpt lat="44.53949473531643" lon="0.946453509106196"><ele>101.8</ele><time>2026-04-03T17:03:21Z</time></trkpt><trkpt lat="44.53955675164363" lon="0.94649435347156"><ele>101.6</ele><time>2026-04-03T17:03:22Z</time></trkpt><trkpt lat="44.539627749160715" lon="0.9467835590326473"><ele>101.39999999999999</ele><time>2026-04-03T17:03:24Z</time></trkpt><trkpt lat="44.53968049114971" lon="0.9468653660440342"><ele>101.19999999999999</ele><time>2026-04-03T17:03:25Z</time></trkpt><trkpt lat="44.539740814375016" lon="0.9469457116972848"><ele>101.0</ele><time>2026-04-03T17:03:26Z</time></trkpt><trkpt lat="44.53980965872328" lon="0.9470172799558885"><ele>101.0</ele><time>2026-04-03T17:03:27Z</time></trkpt><trkpt lat="44.53988842380321" lon="0.9470810753003527"><ele>101.0</ele><time>2026-04-03T17:03:28Z</time></trkpt><trkpt lat="44.53997622796896" lon="0.9471482972912084"><ele>101.0</ele><time>2026-04-03T17:03:29Z</time></trkpt><trkpt lat="44.540073828963195" lon="0.9472238893196739"><ele>101.0</ele><time>2026-04-03T17:03:29.999Z</time></trkpt><trkpt lat="44.54016237232746" lon="0.9473294828285513"><ele>101.0</ele><time>2026-04-03T17:03:30.999Z</time></trkpt><trkpt lat="44.54023878562774" lon="0.9474557049239211"><ele>102.5</ele><time>2026-04-03T17:03:31.999Z</time></trkpt><trkpt lat="44.54030064596069" lon="0.9475990158023752"><ele>104.0</ele><time>2026-04-03T17:03:32.999Z</time></trkpt><trkpt lat="44.54035039093472" lon="0.9477501463625977"><ele>105.5</ele><time>2026-04-03T17:03:33.999Z</time></trkpt><trkpt lat="44.54037127839641" lon="0.9478999877606176"><ele>107.0</ele><time>2026-04-03T17:03:34.999Z</time></trkpt><trkpt lat="44.540364599605006" lon="0.9480572871794316"><ele>107.0</ele><time>2026-04-03T17:03:35.999Z</time></trkpt><trkpt lat="44.54032117409597" lon="0.9482056415970407"><ele>107.0</ele><time>2026-04-03T17:03:36.999Z</time></trkpt><trkpt lat="44.54025605673705" lon="0.9483586778533318"><ele>107.0</ele><time>2026-04-03T17:03:37.999Z</time></trkpt><trkpt lat="44.54017974239109" lon="0.9485371282944175"><ele>107.0</ele><time>2026-04-03T17:03:38.999Z</time></trkpt><trkpt lat="44.54012327901114" lon="0.9487278966103231"><ele>108.75</ele><time>2026-04-03T17:03:39.999Z</time></trkpt><trkpt lat="44.54008929138515" lon="0.9489074072888533"><ele>110.5</ele><time>2026-04-03T17:03:40.999Z</time></trkpt><trkpt lat="44.54008705015974" lon="0.9491012266585294"><ele>112.25</ele><time>2026-04-03T17:03:41.999Z</time></trkpt><trkpt lat="44.54010165756307" lon="0.9493127598881198"><ele>114.0</ele><time>2026-04-03T17:03:42.999Z</time></trkpt><trkpt lat="44.54012302806097" lon="0.9495285894547504"><ele>114.0</ele><time>2026-04-03T17:03:43.999Z</time></trkpt><trkpt lat="44.54015224978067" lon="0.9497540249183418"><ele>114.0</ele><time>2026-04-03T17:03:44.999Z</time></trkpt><trkpt lat="44.5401993732161" lon="0.949969824159964"><ele>114.0</ele><time>2026-04-03T17:03:45.999Z</time></trkpt><trkpt lat="44.54025574821108" lon="0.950184974690292"><ele>113.33333333333334</ele><time>2026-04-03T17:03:46.999Z</time></trkpt><trkpt lat="44.54029755524453" lon="0.9503924607734896"><ele>112.66666666666667</ele><time>2026-04-03T17:03:47.999Z</time></trkpt><trkpt lat="44.540348241583594" lon="0.950594532878517"><ele>112.0</ele><time>2026-04-03T17:03:48.999Z</time></trkpt><trkpt lat="44.54039220484374" lon="0.9508007996288894"><ele>115.5</ele><time>2026-04-03T17:03:49.999Z</time></trkpt><trkpt lat="44.54042804514761" lon="0.9510037564307123"><ele>119.0</ele><time>2026-04-03T17:03:50.999Z</time></trkpt><trkpt lat="44.54044749219168" lon="0.9511745280451039"><ele>122.5</ele><time>2026-04-03T17:03:51.999Z</time></trkpt><trkpt lat="44.54044955204261" lon="0.9513306344480744"><ele>126.0</ele><time>2026-04-03T17:03:52.999Z</time></trkpt><trkpt lat="44.540435705123265" lon="0.9514629063977764"><ele>126.0</ele><time>2026-04-03T17:03:53.999Z</time></trkpt><trkpt lat="44.54041112872497" lon="0.9515845099386947"><ele>126.0</ele><time>2026-04-03T17:03:54.999Z</time></trkpt><trkpt lat="44.54038268741022" lon="0.9516843708741697"><ele>126.0</ele><time>2026-04-03T17:03:55.999Z</time></trkpt><trkpt lat="44.54035558211293" lon="0.9517772488235914"><ele>126.0</ele><time>2026-04-03T17:03:56.999Z</time></trkpt><trkpt lat="44.54032684808517" lon="0.9518593701265251"><ele>126.0</ele><time>2026-04-03T17:03:57.999Z</time></trkpt><trkpt lat="44.540295286414796" lon="0.9519408748630396"><ele>126.0</ele><time>2026-04-03T17:03:58.999Z</time></trkpt><trkpt lat="44.54025839147094" lon="0.9520332521554089"><ele>126.0</ele><time>2026-04-03T17:03:59.999Z</time></trkpt><trkpt lat="44.54021936990727" lon="0.9521178571568139"><ele>126.5</ele><time>2026-04-03T17:04:00.999Z</time></trkpt><trkpt lat="44.54016608055347" lon="0.9522094820217928"><ele>127.0</ele><time>2026-04-03T17:04:01.999Z</time></trkpt><trkpt lat="44.540104918605365" lon="0.9522968658300187"><ele>127.5</ele><time>2026-04-03T17:04:02.999Z</time></trkpt><trkpt lat="44.54004584689665" lon="0.9523704664556807"><ele>128.0</ele><time>2026-04-03T17:04:03.999Z</time></trkpt><trkpt lat="44.539986829095014" lon="0.9524432273243416"><ele>128.5</ele><time>2026-04-03T17:04:04.999Z</time></trkpt><trkpt lat="44.53993944789558" lon="0.9525069179562171"><ele>129.0</ele><time>2026-04-03T17:04:05.999Z</time></trkpt><trkpt lat="44.539866499227514" lon="0.9526238294433473"><ele>129.0</ele><time>2026-04-03T17:04:07.999Z</time></trkpt><trkpt lat="44.539815631765634" lon="0.9527188813610311"><ele>129.0</ele><time>2026-04-03T17:04:09.999Z</time></trkpt><trkpt lat="44.53977780495998" lon="0.9527927030529673"><ele>129.0</ele><time>2026-04-03T17:04:27.999Z</time></trkpt><trkpt lat="44.53970995561976" lon="0.9529332515412277"><ele>129.0</ele><time>2026-04-03T17:04:29.999Z</time></trkpt><trkpt lat="44.53966027789153" lon="0.9530476957427627"><ele>129.0</ele><time>2026-04-03T17:04:30.999Z</time></trkpt><trkpt lat="44.53961920539648" lon="0.9531835475985565"><ele>129.0</ele><time>2026-04-03T17:04:31.999Z</time></trkpt><trkpt lat="44.53958375203529" lon="0.9533369608194717"><ele>129.0</ele><time>2026-04-03T17:04:32.999Z</time></trkpt><trkpt lat="44.539569571273645" lon="0.9535287985103018"><ele>129.0</ele><time>2026-04-03T17:04:33.999Z</time></trkpt><trkpt lat="44.53958654429019" lon="0.9537257603488193"><ele>129.0</ele><time>2026-04-03T17:04:34.999Z</time></trkpt><trkpt lat="44.539554526786304" lon="0.953914985563777"><ele>128.25</ele><time>2026-04-03T17:04:35.999Z</time></trkpt><trkpt lat="44.5395072167796" lon="0.9540871750524027"><ele>127.5</ele><time>2026-04-03T17:04:36.999Z</time></trkpt><trkpt lat="44.53943906090894" lon="0.9542433746750384"><ele>126.75</ele><time>2026-04-03T17:04:37.999Z</time></trkpt><trkpt lat="44.539379913106636" lon="0.9543963795989894"><ele>126.0</ele><time>2026-04-03T17:04:38.999Z</time></trkpt><trkpt lat="44.539341214256744" lon="0.9545544059523632"><ele>126.0</ele><time>2026-04-03T17:04:39.999Z</time></trkpt><trkpt lat="44.53931132103049" lon="0.9547091580269735"><ele>126.0</ele><time>2026-04-03T17:04:40.999Z</time></trkpt><trkpt lat="44.539297496818435" lon="0.9548746305720228"><ele>126.0</ele><time>2026-04-03T17:04:41.999Z</time></trkpt><trkpt lat="44.539296266173174" lon="0.9550449281220136"><ele>126.0</ele><time>2026-04-03T17:04:42.998Z</time></trkpt><trkpt lat="44.53931637589998" lon="0.9552163487879888"><ele>126.5</ele><time>2026-04-03T17:04:43.998Z</time></trkpt><trkpt lat="44.53933432334011" lon="0.9553994276361284"><ele>127.0</ele><time>2026-04-03T17:04:44.998Z</time></trkpt><trkpt lat="44.53933821046319" lon="0.9555823911172987"><ele>127.5</ele><time>2026-04-03T17:04:45.998Z</time></trkpt><trkpt lat="44.53932048173432" lon="0.9557808673834866"><ele>128.0</ele><time>2026-04-03T17:04:46.998Z</time></trkpt><trkpt lat="44.53927822859171" lon="0.9559717317952757"><ele>128.0</ele><time>2026-04-03T17:04:47.998Z</time></trkpt><trkpt lat="44.53922160566331" lon="0.956175950993308"><ele>128.0</ele><time>2026-04-03T17:04:49Z</time></trkpt><trkpt lat="44.539159499553925" lon="0.9563910881425178"><ele>128.0</ele><time>2026-04-03T17:04:50Z</time></trkpt><trkpt lat="44.539093283009485" lon="0.956608212646209"><ele>128.66666666666666</ele><time>2026-04-03T17:04:51Z</time></trkpt><trkpt lat="44.539029893822644" lon="0.956822905206824"><ele>129.33333333333334</ele><time>2026-04-03T17:04:52Z</time></trkpt><trkpt lat="44.53897052961638" lon="0.9570373996385569"><ele>130.0</ele><time>2026-04-03T17:04:53Z</time></trkpt><trkpt lat="44.538909462641946" lon="0.9572646546997806"><ele>130.0</ele><time>2026-04-03T17:04:54Z</time></trkpt><trkpt lat="44.53885072028366" lon="0.9574870308783875"><ele>130.0</ele><time>2026-04-03T17:04:55Z</time></trkpt><trkpt lat="44.53879693882881" lon="0.957712040734997"><ele>130.0</ele><time>2026-04-03T17:04:56Z</time></trkpt><trkpt lat="44.53875789276073" lon="0.9578991630762879"><ele>130.4</ele><time>2026-04-03T17:04:57Z</time></trkpt><trkpt lat="44.538726016111106" lon="0.9580710566927099"><ele>130.8</ele><time>2026-04-03T17:04:58Z</time></trkpt><trkpt lat="44.53869973962856" lon="0.9582277425823018"><ele>131.2</ele><time>2026-04-03T17:04:59Z</time></trkpt><trkpt lat="44.53867939189749" lon="0.9583643006903896"><ele>131.6</ele><time>2026-04-03T17:05:00Z</time></trkpt><trkpt lat="44.53866059651487" lon="0.9584938710562687"><ele>132.0</ele><time>2026-04-03T17:05:01Z</time></trkpt><trkpt lat="44.538645077161576" lon="0.9586008575272205"><ele>130.79999999999998</ele><time>2026-04-03T17:05:02Z</time></trkpt><trkpt lat="44.53863054134386" lon="0.9586995458633711"><ele>129.6</ele><time>2026-04-03T17:05:03Z</time></trkpt><trkpt lat="44.53863333242683" lon="0.958791984404738"><ele>128.39999999999998</ele><time>2026-04-03T17:05:04Z</time></trkpt><trkpt lat="44.538595078566765" lon="0.9589346657093908"><ele>127.19999999999999</ele><time>2026-04-03T17:05:06Z</time></trkpt><trkpt lat="44.53857343766773" lon="0.9590781459437465"><ele>126.0</ele><time>2026-04-03T17:05:08Z</time></trkpt><trkpt lat="44.53854838745595" lon="0.9592442301307021"><ele>126.0</ele><time>2026-04-03T17:05:10Z</time></trkpt><trkpt lat="44.53852478869793" lon="0.9594058766651022"><ele>126.0</ele><time>2026-04-03T17:05:12Z</time></trkpt><trkpt lat="44.53850191162324" lon="0.9595654589966117"><ele>126.0</ele><time>2026-04-03T17:05:14Z</time></trkpt><trkpt lat="44.538477513061096" lon="0.9597356547375261"><ele>126.0</ele><time>2026-04-03T17:05:16Z</time></trkpt><trkpt lat="44.538480863449024" lon="0.959829293727502"><ele>126.0</ele><time>2026-04-03T17:05:17Z</time></trkpt><trkpt lat="44.53845155010122" lon="0.959922923553233"><ele>126.5</ele><time>2026-04-03T17:05:18Z</time></trkpt><trkpt lat="44.53844364207811" lon="0.9600968584337268"><ele>127.0</ele><time>2026-04-03T17:05:20Z</time></trkpt><trkpt lat="44.53841573058771" lon="0.9602718484569831"><ele>127.5</ele><time>2026-04-03T17:05:22Z</time></trkpt><trkpt lat="44.53839652291578" lon="0.9604366639407856"><ele>128.0</ele><time>2026-04-03T17:05:24Z</time></trkpt><trkpt lat="44.538372319030046" lon="0.9605744838161748"><ele>128.0</ele><time>2026-04-03T17:05:26Z</time></trkpt><trkpt lat="44.53838673967631" lon="0.9607187312283101"><ele>128.0</ele><time>2026-04-03T17:05:28Z</time></trkpt><trkpt lat="44.53839937309917" lon="0.9608674096046436"><ele>128.0</ele><time>2026-04-03T17:05:30Z</time></trkpt><trkpt lat="44.53842315696323" lon="0.9609715900485216"><ele>128.0</ele><time>2026-04-03T17:05:31Z</time></trkpt><trkpt lat="44.538457586112735" lon="0.9610871932926504"><ele>128.0</ele><time>2026-04-03T17:05:32Z</time></trkpt><trkpt lat="44.538497726953196" lon="0.961241693856511"><ele>128.5</ele><time>2026-04-03T17:05:33Z</time></trkpt><trkpt lat="44.538549709208205" lon="0.9613948642436211"><ele>129.0</ele><time>2026-04-03T17:05:34Z</time></trkpt><trkpt lat="44.53862243455927" lon="0.9615661260878945"><ele>129.5</ele><time>2026-04-03T17:05:35Z</time></trkpt><trkpt lat="44.53867762019834" lon="0.961751011940764"><ele>130.0</ele><time>2026-04-03T17:05:35.999Z</time></trkpt><trkpt lat="44.5387362832697" lon="0.9619525135749101"><ele>133.66666666666669</ele><time>2026-04-03T17:05:36.999Z</time></trkpt><trkpt lat="44.53879247245837" lon="0.962169938518805"><ele>137.33333333333334</ele><time>2026-04-03T17:05:37.999Z</time></trkpt><trkpt lat="44.53883266561767" lon="0.9624010885841975"><ele>141.0</ele><time>2026-04-03T17:05:38.999Z</time></trkpt><trkpt lat="44.53883328292615" lon="0.962640242701526"><ele>141.0</ele><time>2026-04-03T17:05:39.999Z</time></trkpt><trkpt lat="44.53884445327742" lon="0.9628494593360128"><ele>141.0</ele><time>2026-04-03T17:05:40.999Z</time></trkpt><trkpt lat="44.53884667305834" lon="0.9630234145563665"><ele>141.0</ele><time>2026-04-03T17:05:41.999Z</time></trkpt><trkpt lat="44.53883958747592" lon="0.9631563091862531"><ele>141.0</ele><time>2026-04-03T17:05:42.999Z</time></trkpt><trkpt lat="44.538825280787705" lon="0.9632720921436132"><ele>140.66666666666666</ele><time>2026-04-03T17:05:43.999Z</time></trkpt><trkpt lat="44.53879741583592" lon="0.9633843668388461"><ele>140.33333333333331</ele><time>2026-04-03T17:05:45.999Z</time></trkpt><trkpt lat="44.53877448461219" lon="0.9634768405635022"><ele>140.0</ele><time>2026-04-03T17:05:50.999Z</time></trkpt><trkpt lat="44.5391129970875" lon="0.9639126365707631"><ele>140.0</ele><time>2026-04-03T17:06:04.999Z</time></trkpt><trkpt lat="44.53913113577145" lon="0.9640302481213068"><ele>140.0</ele><time>2026-04-03T17:06:06.999Z</time></trkpt><trkpt lat="44.53911310387032" lon="0.9641270849686059"><ele>140.0</ele><time>2026-04-03T17:06:07.999Z</time></trkpt><trkpt lat="44.539097956652775" lon="0.9642334165059225"><ele>140.0</ele><time>2026-04-03T17:06:08.999Z</time></trkpt><trkpt lat="44.539091346238145" lon="0.9643324873881067"><ele>140.0</ele><time>2026-04-03T17:06:09.999Z</time></trkpt><trkpt lat="44.53909299599923" lon="0.9644567679935184"><ele>140.0</ele><time>2026-04-03T17:06:10.999Z</time></trkpt><trkpt lat="44.53911981491118" lon="0.9645850033977323"><ele>141.4</ele><time>2026-04-03T17:06:11.999Z</time></trkpt><trkpt lat="44.53915839447999" lon="0.9647265951573759"><ele>142.8</ele><time>2026-04-03T17:06:12.999Z</time></trkpt><trkpt lat="44.53920128901316" lon="0.964873366681209"><ele>144.2</ele><time>2026-04-03T17:06:13.999Z</time></trkpt><trkpt lat="44.53922567557692" lon="0.964991009181695"><ele>145.6</ele><time>2026-04-03T17:06:14.999Z</time></trkpt><trkpt lat="44.53923051590935" lon="0.9651287309647758"><ele>147.0</ele><time>2026-04-03T17:06:15.999Z</time></trkpt><trkpt lat="44.53923460717067" lon="0.9652907707572302"><ele>148.0</ele><time>2026-04-03T17:06:16.999Z</time></trkpt><trkpt lat="44.53923163946326" lon="0.9654814792600056"><ele>149.0</ele><time>2026-04-03T17:06:17.999Z</time></trkpt><trkpt lat="44.5392252566669" lon="0.9656600132293789"><ele>150.0</ele><time>2026-04-03T17:06:18.999Z</time></trkpt><trkpt lat="44.539229943530735" lon="0.9658647181169653"><ele>151.0</ele><time>2026-04-03T17:06:19.999Z</time></trkpt><trkpt lat="44.539271988686274" lon="0.9660522284737263"><ele>151.5</ele><time>2026-04-03T17:06:20.999Z</time></trkpt><trkpt lat="44.53933267119707" lon="0.9662416966994429"><ele>152.0</ele><time>2026-04-03T17:06:21.999Z</time></trkpt><trkpt lat="44.53941656244579" lon="0.966419677501346"><ele>152.5</ele><time>2026-04-03T17:06:22.999Z</time></trkpt><trkpt lat="44.53946621331913" lon="0.9665916329748697"><ele>153.0</ele><time>2026-04-03T17:06:23.999Z</time></trkpt><trkpt lat="44.53951272198963" lon="0.9667399011526226"><ele>153.0</ele><time>2026-04-03T17:06:24.999Z</time></trkpt><trkpt lat="44.539530614131536" lon="0.9668633978360549"><ele>153.0</ele><time>2026-04-03T17:06:25.999Z</time></trkpt><trkpt lat="44.53955017613318" lon="0.9669651120188942"><ele>153.0</ele><time>2026-04-03T17:06:26.999Z</time></trkpt><trkpt lat="44.53960131118331" lon="0.9670949065581664"><ele>153.0</ele><time>2026-04-03T17:06:28.999Z</time></trkpt><trkpt lat="44.539663046559355" lon="0.9671711609912603"><ele>153.0</ele><time>2026-04-03T17:06:29.999Z</time></trkpt><trkpt lat="44.539751761194424" lon="0.9672470622444351"><ele>152.4</ele><time>2026-04-03T17:06:30.999Z</time></trkpt><trkpt lat="44.539848509568316" lon="0.9673328501661707"><ele>151.8</ele><time>2026-04-03T17:06:32.999Z</time></trkpt><trkpt lat="44.53990286085381" lon="0.9674054695305481"><ele>151.2</ele><time>2026-04-03T17:06:34.999Z</time></trkpt><trkpt lat="44.53998161549147" lon="0.9674955497509669"><ele>150.6</ele><time>2026-04-03T17:06:37.999Z</time></trkpt><trkpt lat="44.54004807518402" lon="0.9675621396600643"><ele>150.0</ele><time>2026-04-03T17:06:40.999Z</time></trkpt><trkpt lat="44.54012222758744" lon="0.9676485113618498"><ele>150.66666666666666</ele><time>2026-04-03T17:06:42.999Z</time></trkpt><trkpt lat="44.54015624383825" lon="0.9677365426258967"><ele>151.33333333333334</ele><time>2026-04-03T17:06:44.999Z</time></trkpt><trkpt lat="44.54021924045377" lon="0.9677689597450039"><ele>152.0</ele><time>2026-04-03T17:07:02Z</time></trkpt><trkpt lat="44.54025865968933" lon="0.9678742781689408"><ele>152.66666666666669</ele><time>2026-04-03T17:07:04Z</time></trkpt><trkpt lat="44.54029459650649" lon="0.9679600982869118"><ele>153.33333333333334</ele><time>2026-04-03T17:07:05Z</time></trkpt><trkpt lat="44.5403443360407" lon="0.9680535252294612"><ele>154.0</ele><time>2026-04-03T17:07:06Z</time></trkpt><trkpt lat="44.54039327844188" lon="0.9681295344359342"><ele>154.0</ele><time>2026-04-03T17:07:07Z</time></trkpt><trkpt lat="44.54044499170307" lon="0.9681856875801269"><ele>154.0</ele><time>2026-04-03T17:07:08Z</time></trkpt><trkpt lat="44.540535445499046" lon="0.9682574521174792"><ele>154.0</ele><time>2026-04-03T17:07:10Z</time></trkpt><trkpt lat="44.54062394064358" lon="0.9682978700315231"><ele>154.0</ele><time>2026-04-03T17:07:13Z</time></trkpt><trkpt lat="44.54070576642723" lon="0.96834708241867"><ele>154.0</ele><time>2026-04-03T17:07:14Z</time></trkpt><trkpt lat="44.54076823541041" lon="0.9683877078372284"><ele>154.0</ele><time>2026-04-03T17:07:16Z</time></trkpt><trkpt lat="44.54083796983237" lon="0.9684175334618322"><ele>154.66666666666669</ele><time>2026-04-03T17:07:18Z</time></trkpt><trkpt lat="44.54090810740123" lon="0.9684414408466757"><ele>155.33333333333334</ele><time>2026-04-03T17:07:19Z</time></trkpt><trkpt lat="44.541002583904756" lon="0.9684731108405935"><ele>156.0</ele><time>2026-04-03T17:07:20Z</time></trkpt><trkpt lat="44.54109042166878" lon="0.9684906251791906"><ele>156.66666666666666</ele><time>2026-04-03T17:07:21Z</time></trkpt><trkpt lat="44.541148699581264" lon="0.9685409572392367"><ele>157.33333333333331</ele><time>2026-04-03T17:07:22Z</time></trkpt><trkpt lat="44.541241195764734" lon="0.968556354950201"><ele>158.0</ele><time>2026-04-03T17:07:24Z</time></trkpt><trkpt lat="44.54128702701931" lon="0.9684116122815195"><ele>157.83333333333331</ele><time>2026-04-03T17:07:26Z</time></trkpt><trkpt lat="44.54128418283756" lon="0.9683058358229271"><ele>157.66666666666666</ele><time>2026-04-03T17:07:28Z</time></trkpt><trkpt lat="44.54125016112021" lon="0.9681980353367895"><ele>157.5</ele><time>2026-04-03T17:08:05.999Z</time></trkpt><trkpt lat="44.541246362099336" lon="0.968091027562452"><ele>157.33333333333334</ele><time>2026-04-03T17:08:06.999Z</time></trkpt><trkpt lat="44.541249665169794" lon="0.9679184452573188"><ele>157.16666666666669</ele><time>2026-04-03T17:08:08.999Z</time></trkpt><trkpt lat="44.54129382402251" lon="0.9678426086218668"><ele>157.0</ele><time>2026-04-03T17:08:09.999Z</time></trkpt><trkpt lat="44.54137032153389" lon="0.9677679773402473"><ele>157.0</ele><time>2026-04-03T17:08:10.999Z</time></trkpt><trkpt lat="44.541470072626204" lon="0.9677153115656417"><ele>157.0</ele><time>2026-04-03T17:08:11.999Z</time></trkpt><trkpt lat="44.54156963812246" lon="0.967664206372621"><ele>157.0</ele><time>2026-04-03T17:08:12.999Z</time></trkpt><trkpt lat="44.541676418950246" lon="0.9675872902065029"><ele>157.0</ele><time>2026-04-03T17:08:13.999Z</time></trkpt><trkpt lat="44.541801867329916" lon="0.9675286627363253"><ele>158.0</ele><time>2026-04-03T17:08:14.999Z</time></trkpt><trkpt lat="44.5419191077874" lon="0.9674560594573548"><ele>159.0</ele><time>2026-04-03T17:08:15.999Z</time></trkpt><trkpt lat="44.54203615378878" lon="0.9673667715845713"><ele>160.0</ele><time>2026-04-03T17:08:16.999Z</time></trkpt><trkpt lat="44.542151735561276" lon="0.9672612551867776"><ele>161.0</ele><time>2026-04-03T17:08:17.999Z</time></trkpt><trkpt lat="44.54223307193206" lon="0.9671460124800805"><ele>162.8</ele><time>2026-04-03T17:08:18.999Z</time></trkpt><trkpt lat="44.5422962848201" lon="0.9670610662801877"><ele>164.60000000000002</ele><time>2026-04-03T17:08:19.999Z</time></trkpt><trkpt lat="44.54235674612999" lon="0.966959679265338"><ele>166.4</ele><time>2026-04-03T17:08:20.999Z</time></trkpt><trkpt lat="44.54243672776316" lon="0.9669106922038884"><ele>168.2</ele><time>2026-04-03T17:08:21.999Z</time></trkpt><trkpt lat="44.54253355305053" lon="0.9668676683196393"><ele>170.0</ele><time>2026-04-03T17:08:22.999Z</time></trkpt><trkpt lat="44.54263647788045" lon="0.9668673558890861"><ele>170.0</ele><time>2026-04-03T17:08:23.999Z</time></trkpt><trkpt lat="44.54274348477212" lon="0.9669007107925559"><ele>170.0</ele><time>2026-04-03T17:08:24.999Z</time></trkpt><trkpt lat="44.54284339474454" lon="0.9669512280264051"><ele>170.0</ele><time>2026-04-03T17:08:25.999Z</time></trkpt><trkpt lat="44.54294565377825" lon="0.9669969121712924"><ele>170.0</ele><time>2026-04-03T17:08:26.999Z</time></trkpt><trkpt lat="44.543064887000426" lon="0.9670482795523019"><ele>170.0</ele><time>2026-04-03T17:08:27.999Z</time></trkpt><trkpt lat="44.54317296663718" lon="0.9670954375681947"><ele>172.75</ele><time>2026-04-03T17:08:28.999Z</time></trkpt><trkpt lat="44.54328660452533" lon="0.9671419517645329"><ele>175.5</ele><time>2026-04-03T17:08:29.999Z</time></trkpt><trkpt lat="44.543407495760654" lon="0.9672114272766579"><ele>178.25</ele><time>2026-04-03T17:08:30.999Z</time></trkpt><trkpt lat="44.54353057862691" lon="0.9672980700397523"><ele>181.0</ele><time>2026-04-03T17:08:31.999Z</time></trkpt><trkpt lat="44.543639782461874" lon="0.9673974533125862"><ele>181.5</ele><time>2026-04-03T17:08:32.999Z</time></trkpt><trkpt lat="44.543745238049375" lon="0.9674878528912347"><ele>182.0</ele><time>2026-04-03T17:08:33.999Z</time></trkpt><trkpt lat="44.54381797795619" lon="0.9675284064644911"><ele>182.5</ele><time>2026-04-03T17:08:34.999Z</time></trkpt><trkpt lat="44.54388710170715" lon="0.9675737233553989"><ele>183.0</ele><time>2026-04-03T17:08:35.999Z</time></trkpt><trkpt lat="44.54395851812259" lon="0.9676087831533264"><ele>183.5</ele><time>2026-04-03T17:08:36.999Z</time></trkpt><trkpt lat="44.5440204274292" lon="0.9676358631541262"><ele>184.0</ele><time>2026-04-03T17:08:37.999Z</time></trkpt><trkpt lat="44.54407785588387" lon="0.967718311190163"><ele>184.0</ele><time>2026-04-03T17:08:38.999Z</time></trkpt><trkpt lat="44.5441420234066" lon="0.9677816911589526"><ele>184.0</ele><time>2026-04-03T17:08:39.999Z</time></trkpt><trkpt lat="44.54420704990458" lon="0.9678424593940058"><ele>184.0</ele><time>2026-04-03T17:08:40.999Z</time></trkpt><trkpt lat="44.54428044970479" lon="0.9679028317086028"><ele>184.0</ele><time>2026-04-03T17:08:41.999Z</time></trkpt><trkpt lat="44.54436220745765" lon="0.9679501771934688"><ele>184.0</ele><time>2026-04-03T17:08:42.999Z</time></trkpt><trkpt lat="44.54444533216551" lon="0.9679881884720973"><ele>184.0</ele><time>2026-04-03T17:08:43.999Z</time></trkpt><trkpt lat="44.54453544497195" lon="0.9680023570680277"><ele>185.33333333333334</ele><time>2026-04-03T17:08:44.999Z</time></trkpt><trkpt lat="44.54461457261576" lon="0.9680612905131669"><ele>186.66666666666669</ele><time>2026-04-03T17:08:45.999Z</time></trkpt><trkpt lat="44.54470898889665" lon="0.968108640184682"><ele>188.0</ele><time>2026-04-03T17:08:46.999Z</time></trkpt><trkpt lat="44.54478803439573" lon="0.9681497530906809"><ele>189.33333333333334</ele><time>2026-04-03T17:08:47.999Z</time></trkpt><trkpt lat="44.54485404192444" lon="0.9681853729253365"><ele>190.66666666666666</ele><time>2026-04-03T17:08:48.999Z</time></trkpt><trkpt lat="44.54492449114078" lon="0.968223541263204"><ele>192.0</ele><time>2026-04-03T17:08:49.999Z</time></trkpt><trkpt lat="44.5449925000742" lon="0.9682600475216256"><ele>192.0</ele><time>2026-04-03T17:08:50.999Z</time></trkpt><trkpt lat="44.54505831555323" lon="0.9682946901536377"><ele>192.0</ele><time>2026-04-03T17:08:51.999Z</time></trkpt><trkpt lat="44.54512245752595" lon="0.9683284519346463"><ele>192.0</ele><time>2026-04-03T17:08:52.999Z</time></trkpt><trkpt lat="44.545186536052555" lon="0.9683621803042379"><ele>192.0</ele><time>2026-04-03T17:08:53.999Z</time></trkpt><trkpt lat="44.54530265636833" lon="0.9684233013997054"><ele>192.0</ele><time>2026-04-03T17:08:55.999Z</time></trkpt><trkpt lat="44.54536662088648" lon="0.9684590788698855"><ele>192.0</ele><time>2026-04-03T17:08:56.999Z</time></trkpt><trkpt lat="44.545432996151504" lon="0.9684975387471224"><ele>192.6</ele><time>2026-04-03T17:08:57.999Z</time></trkpt><trkpt lat="44.54549624046647" lon="0.9685379345118438"><ele>193.2</ele><time>2026-04-03T17:08:58.999Z</time></trkpt><trkpt lat="44.54558343567637" lon="0.9686086896991948"><ele>193.8</ele><time>2026-04-03T17:09:01Z</time></trkpt><trkpt lat="44.545696651252314" lon="0.9684262156333249"><ele>194.4</ele><time>2026-04-03T17:09:03Z</time></trkpt><trkpt lat="44.54571100262015" lon="0.9682852468512946"><ele>195.0</ele><time>2026-04-03T17:09:05Z</time></trkpt><trkpt lat="44.54574278576179" lon="0.9681776331753232"><ele>195.0</ele><time>2026-04-03T17:09:07Z</time></trkpt><trkpt lat="44.54598529214247" lon="0.9681737317160095"><ele>195.0</ele><time>2026-04-03T17:09:08Z</time></trkpt><trkpt lat="44.54611859338134" lon="0.9681435132583366"><ele>195.0</ele><time>2026-04-03T17:09:09Z</time></trkpt><trkpt lat="44.54626510762285" lon="0.9681492849720846"><ele>193.75</ele><time>2026-04-03T17:09:10Z</time></trkpt><trkpt lat="44.54643581837214" lon="0.9681665553751673"><ele>192.5</ele><time>2026-04-03T17:09:11Z</time></trkpt><trkpt lat="44.54657179051678" lon="0.9681556876941699"><ele>191.25</ele><time>2026-04-03T17:09:12Z</time></trkpt><trkpt lat="44.54669564444193" lon="0.9681430328050616"><ele>190.0</ele><time>2026-04-03T17:09:13Z</time></trkpt><trkpt lat="44.5468003914104" lon="0.9681273951119528"><ele>190.0</ele><time>2026-04-03T17:09:14Z</time></trkpt><trkpt lat="44.54689026361682" lon="0.9680782947687351"><ele>190.0</ele><time>2026-04-03T17:09:15Z</time></trkpt><trkpt lat="44.54695940072976" lon="0.9679959480102298"><ele>190.0</ele><time>2026-04-03T17:09:16Z</time></trkpt><trkpt lat="44.54702500083961" lon="0.9678741603326865"><ele>190.0</ele><time>2026-04-03T17:09:17Z</time></trkpt><trkpt lat="44.547109648782715" lon="0.9677884307391401"><ele>190.0</ele><time>2026-04-03T17:09:18Z</time></trkpt><trkpt lat="44.547205219350154" lon="0.9677529159059789"><ele>188.33333333333334</ele><time>2026-04-03T17:09:19Z</time></trkpt><trkpt lat="44.547290800556105" lon="0.9677239190253025"><ele>186.66666666666669</ele><time>2026-04-03T17:09:20Z</time></trkpt><trkpt lat="44.54736707264706" lon="0.9676844307205038"><ele>185.0</ele><time>2026-04-03T17:09:21Z</time></trkpt><trkpt lat="44.54743200962637" lon="0.9676215477842345"><ele>183.33333333333334</ele><time>2026-04-03T17:09:22Z</time></trkpt><trkpt lat="44.54748460847372" lon="0.9675573633979779"><ele>181.66666666666666</ele><time>2026-04-03T17:09:23Z</time></trkpt><trkpt lat="44.547562500585734" lon="0.9674325475610684"><ele>180.0</ele><time>2026-04-03T17:09:25Z</time></trkpt><trkpt lat="44.54764743587074" lon="0.9673278755810332"><ele>180.0</ele><time>2026-04-03T17:09:27Z</time></trkpt><trkpt lat="44.54772155624674" lon="0.9672172347129311"><ele>180.0</ele><time>2026-04-03T17:09:29Z</time></trkpt><trkpt lat="44.547774117685236" lon="0.9671564200023186"><ele>180.0</ele><time>2026-04-03T17:09:30Z</time></trkpt><trkpt lat="44.547865011479914" lon="0.9670791715313227"><ele>180.0</ele><time>2026-04-03T17:09:32Z</time></trkpt><trkpt lat="44.54795930672055" lon="0.9670418748237932"><ele>180.0</ele><time>2026-04-03T17:09:34Z</time></trkpt><trkpt lat="44.54805953574236" lon="0.9670146353901871"><ele>178.6</ele><time>2026-04-03T17:09:36Z</time></trkpt><trkpt lat="44.548166274705444" lon="0.9669806755663417"><ele>177.2</ele><time>2026-04-03T17:09:38Z</time></trkpt><trkpt lat="44.54825873342791" lon="0.9669633199938296"><ele>175.8</ele><time>2026-04-03T17:09:40Z</time></trkpt><trkpt lat="44.548364326513905" lon="0.9669663925640407"><ele>174.4</ele><time>2026-04-03T17:09:42Z</time></trkpt><trkpt lat="44.54846706208545" lon="0.9669667678146127"><ele>173.0</ele><time>2026-04-03T17:09:44Z</time></trkpt><trkpt lat="44.548530848982" lon="0.9669602954447548"><ele>173.0</ele><time>2026-04-03T17:09:46Z</time></trkpt><trkpt lat="44.54861662614488" lon="0.9669771465684749"><ele>173.0</ele><time>2026-04-03T17:09:48Z</time></trkpt><trkpt lat="44.548698598875276" lon="0.9670325585229419"><ele>173.0</ele><time>2026-04-03T17:09:50Z</time></trkpt><trkpt lat="44.54873957277589" lon="0.9671088687389877"><ele>173.0</ele><time>2026-04-03T17:09:51Z</time></trkpt><trkpt lat="44.5487601760966" lon="0.967215493453648"><ele>173.0</ele><time>2026-04-03T17:09:52Z</time></trkpt><trkpt lat="44.54878791189693" lon="0.9673640120546223"><ele>173.0</ele><time>2026-04-03T17:09:53Z</time></trkpt><trkpt lat="44.54883769726996" lon="0.9674793248320436"><ele>171.75</ele><time>2026-04-03T17:09:54Z</time></trkpt><trkpt lat="44.548889828469804" lon="0.9675663260558789"><ele>170.5</ele><time>2026-04-03T17:09:54.999Z</time></trkpt><trkpt lat="44.54896026734357" lon="0.9676407156701773"><ele>169.25</ele><time>2026-04-03T17:09:55.999Z</time></trkpt><trkpt lat="44.54907175869112" lon="0.96772980474793"><ele>168.0</ele><time>2026-04-03T17:09:56.999Z</time></trkpt><trkpt lat="44.549187935008696" lon="0.9678684007299594"><ele>168.0</ele><time>2026-04-03T17:09:57.999Z</time></trkpt><trkpt lat="44.54930966503077" lon="0.9680139146153165"><ele>168.0</ele><time>2026-04-03T17:09:58.999Z</time></trkpt><trkpt lat="44.549443551756035" lon="0.9681887446748386"><ele>168.0</ele><time>2026-04-03T17:09:59.999Z</time></trkpt><trkpt lat="44.54956642876077" lon="0.9683717158694342"><ele>166.66666666666666</ele><time>2026-04-03T17:10:00.999Z</time></trkpt><trkpt lat="44.54967779209398" lon="0.968503560666156"><ele>165.33333333333331</ele><time>2026-04-03T17:10:01.999Z</time></trkpt><trkpt lat="44.549801292914175" lon="0.9686401444040034"><ele>164.0</ele><time>2026-04-03T17:10:02.999Z</time></trkpt><trkpt lat="44.54993392015398" lon="0.9687636806550742"><ele>164.0</ele><time>2026-04-03T17:10:03.999Z</time></trkpt><trkpt lat="44.55004689551455" lon="0.968855382909818"><ele>164.0</ele><time>2026-04-03T17:10:04.999Z</time></trkpt><trkpt lat="44.550150457658646" lon="0.9689380151125374"><ele>164.0</ele><time>2026-04-03T17:10:05.999Z</time></trkpt><trkpt lat="44.55027038689738" lon="0.9689833302619566"><ele>164.0</ele><time>2026-04-03T17:10:06.999Z</time></trkpt><trkpt lat="44.55037361888325" lon="0.9690144942990716"><ele>163.0</ele><time>2026-04-03T17:10:07.999Z</time></trkpt><trkpt lat="44.550470328792606" lon="0.9690453419542359"><ele>162.0</ele><time>2026-04-03T17:10:08.999Z</time></trkpt><trkpt lat="44.55056290361179" lon="0.969070754745101"><ele>161.0</ele><time>2026-04-03T17:10:09.999Z</time></trkpt><trkpt lat="44.55064974418895" lon="0.9690608185090819"><ele>160.0</ele><time>2026-04-03T17:10:10.999Z</time></trkpt><trkpt lat="44.550725136998985" lon="0.9690511203118368"><ele>159.0</ele><time>2026-04-03T17:10:11.999Z</time></trkpt><trkpt lat="44.55079969567145" lon="0.9690245109449057"><ele>158.0</ele><time>2026-04-03T17:10:12.999Z</time></trkpt><trkpt lat="44.55086998950038" lon="0.9690106171075213"><ele>158.0</ele><time>2026-04-03T17:10:13.999Z</time></trkpt><trkpt lat="44.550986964063696" lon="0.9689843080030397"><ele>158.0</ele><time>2026-04-03T17:10:15.999Z</time></trkpt><trkpt lat="44.55110645429636" lon="0.9690029903283987"><ele>158.0</ele><time>2026-04-03T17:10:17.999Z</time></trkpt><trkpt lat="44.55122380427757" lon="0.9690617884005989"><ele>158.0</ele><time>2026-04-03T17:10:19.999Z</time></trkpt><trkpt lat="44.551337031308364" lon="0.9690625912589543"><ele>155.4</ele><time>2026-04-03T17:10:21.999Z</time></trkpt><trkpt lat="44.551436213260665" lon="0.9689709905959982"><ele>152.8</ele><time>2026-04-03T17:10:23.999Z</time></trkpt><trkpt lat="44.551500941319006" lon="0.9688802295627597"><ele>150.2</ele><time>2026-04-03T17:10:25.999Z</time></trkpt><trkpt lat="44.551585178562135" lon="0.968806992949143"><ele>147.6</ele><time>2026-04-03T17:10:27.999Z</time></trkpt><trkpt lat="44.55166017816979" lon="0.968727027495688"><ele>145.0</ele><time>2026-04-03T17:10:29.999Z</time></trkpt><trkpt lat="44.551750601921746" lon="0.9686385160876054"><ele>145.0</ele><time>2026-04-03T17:10:31.999Z</time></trkpt><trkpt lat="44.55180747339988" lon="0.9685953607439022"><ele>145.0</ele><time>2026-04-03T17:10:32.999Z</time></trkpt><trkpt lat="44.5518708244474" lon="0.9685472381593978"><ele>145.0</ele><time>2026-04-03T17:10:33.999Z</time></trkpt><trkpt lat="44.551928770911836" lon="0.9683981872247344"><ele>145.0</ele><time>2026-04-03T17:10:35.999Z</time></trkpt><trkpt lat="44.55195707608888" lon="0.9683086421879824"><ele>145.0</ele><time>2026-04-03T17:10:36.999Z</time></trkpt><trkpt lat="44.55198640986188" lon="0.9681356680516571"><ele>146.16666666666669</ele><time>2026-04-03T17:10:38.999Z</time></trkpt><trkpt lat="44.5519917130497" lon="0.968025887351105"><ele>147.33333333333334</ele><time>2026-04-03T17:10:39.999Z</time></trkpt><trkpt lat="44.5520019606412" lon="0.9679282368469433"><ele>148.5</ele><time>2026-04-03T17:10:40.999Z</time></trkpt><trkpt lat="44.55200686900592" lon="0.9678285424618757"><ele>149.66666666666666</ele><time>2026-04-03T17:10:41.999Z</time></trkpt><trkpt lat="44.55199646973265" lon="0.967722130139615"><ele>150.83333333333331</ele><time>2026-04-03T17:10:42.999Z</time></trkpt><trkpt lat="44.5519759585632" lon="0.967608560080022"><ele>152.0</ele><time>2026-04-03T17:10:43.999Z</time></trkpt><trkpt lat="44.55197411339875" lon="0.9674945810017274"><ele>152.2</ele><time>2026-04-03T17:10:44.999Z</time></trkpt><trkpt lat="44.55196477320942" lon="0.9673698531532"><ele>152.39999999999998</ele><time>2026-04-03T17:10:45.999Z</time></trkpt><trkpt lat="44.55195236877859" lon="0.967249700350377"><ele>152.60000000000002</ele><time>2026-04-03T17:10:46.999Z</time></trkpt><trkpt lat="44.55194586070479" lon="0.9671401373212375"><ele>152.8</ele><time>2026-04-03T17:10:47.999Z</time></trkpt><trkpt lat="44.55192824138536" lon="0.9670482217410531"><ele>153.0</ele><time>2026-04-03T17:10:48.999Z</time></trkpt><trkpt lat="44.551940044925225" lon="0.9668586412746096"><ele>153.0</ele><time>2026-04-03T17:10:50.999Z</time></trkpt><trkpt lat="44.55193579091272" lon="0.9667603213943115"><ele>153.0</ele><time>2026-04-03T17:10:51.999Z</time></trkpt><trkpt lat="44.551948249441224" lon="0.9665783224680125"><ele>153.0</ele><time>2026-04-03T17:10:53.999Z</time></trkpt><trkpt lat="44.55196509547566" lon="0.9664617129059295"><ele>153.0</ele><time>2026-04-03T17:10:54.999Z</time></trkpt><trkpt lat="44.55199092466285" lon="0.9663153545546027"><ele>153.0</ele><time>2026-04-03T17:10:55.999Z</time></trkpt><trkpt lat="44.55203589681538" lon="0.9661570996531057"><ele>150.4</ele><time>2026-04-03T17:10:56.999Z</time></trkpt><trkpt lat="44.55208100252075" lon="0.9659851691933853"><ele>147.8</ele><time>2026-04-03T17:10:57.999Z</time></trkpt><trkpt lat="44.552114530542" lon="0.9658786038346165"><ele>145.2</ele><time>2026-04-03T17:10:58.999Z</time></trkpt><trkpt lat="44.55214078726818" lon="0.9657754784842396"><ele>142.6</ele><time>2026-04-03T17:10:59.999Z</time></trkpt><trkpt lat="44.552211518368665" lon="0.9657194364340683"><ele>140.0</ele><time>2026-04-03T17:11:00.999Z</time></trkpt><trkpt lat="44.552295068827405" lon="0.9657185354983999"><ele>140.0</ele><time>2026-04-03T17:11:01.999Z</time></trkpt><trkpt lat="44.55238643117029" lon="0.9656826075057753"><ele>140.0</ele><time>2026-04-03T17:11:02.999Z</time></trkpt><trkpt lat="44.552478091643856" lon="0.965657249087258"><ele>140.0</ele><time>2026-04-03T17:11:03.999Z</time></trkpt><trkpt lat="44.55253379178215" lon="0.9656122135585"><ele>140.0</ele><time>2026-04-03T17:11:04.999Z</time></trkpt><trkpt lat="44.55260540763869" lon="0.9656438460445569"><ele>140.0</ele><time>2026-04-03T17:11:07Z</time></trkpt><trkpt lat="44.55262852777036" lon="0.965728941355119"><ele>140.0</ele><time>2026-04-03T17:11:08Z</time></trkpt><trkpt lat="44.55265624937827" lon="0.9658458131887641"><ele>139.5</ele><time>2026-04-03T17:11:09Z</time></trkpt><trkpt lat="44.552689978839254" lon="0.9659778731452756"><ele>139.0</ele><time>2026-04-03T17:11:10Z</time></trkpt><trkpt lat="44.55272086457776" lon="0.9661194252709105"><ele>138.5</ele><time>2026-04-03T17:11:11Z</time></trkpt><trkpt lat="44.552769884747995" lon="0.9662875475376201"><ele>138.0</ele><time>2026-04-03T17:11:12Z</time></trkpt><trkpt lat="44.552850055854734" lon="0.966426606737894"><ele>140.25</ele><time>2026-04-03T17:11:13Z</time></trkpt><trkpt lat="44.55294431572257" lon="0.96656021588877"><ele>142.5</ele><time>2026-04-03T17:11:14Z</time></trkpt><trkpt lat="44.553051498248266" lon="0.9666953182839861"><ele>144.75</ele><time>2026-04-03T17:11:15Z</time></trkpt><trkpt lat="44.55317002396194" lon="0.966808345473493"><ele>147.0</ele><time>2026-04-03T17:11:16Z</time></trkpt><trkpt lat="44.55326077233483" lon="0.9669297417331193"><ele>147.2</ele><time>2026-04-03T17:11:17Z</time></trkpt><trkpt lat="44.553332259518925" lon="0.9670405276173613"><ele>147.39999999999998</ele><time>2026-04-03T17:11:18Z</time></trkpt><trkpt lat="44.55340246322216" lon="0.9671165880377478"><ele>147.60000000000002</ele><time>2026-04-03T17:11:19Z</time></trkpt><trkpt lat="44.55346031531439" lon="0.9671718202767622"><ele>147.8</ele><time>2026-04-03T17:11:20Z</time></trkpt><trkpt lat="44.55337562198459" lon="0.9673123388931466"><ele>148.0</ele><time>2026-04-03T17:11:25Z</time></trkpt><trkpt lat="44.553298058308584" lon="0.9673479555109225"><ele>148.0</ele><time>2026-04-03T17:11:28Z</time></trkpt><trkpt lat="44.55320976676336" lon="0.9674144895461776"><ele>148.0</ele><time>2026-04-03T17:11:30Z</time></trkpt><trkpt lat="44.55315325949288" lon="0.9675122010037843"><ele>148.0</ele><time>2026-04-03T17:11:31Z</time></trkpt><trkpt lat="44.553106584075834" lon="0.967631826618368"><ele>148.0</ele><time>2026-04-03T17:11:32Z</time></trkpt><trkpt lat="44.55307383044301" lon="0.9677381964815511"><ele>148.0</ele><time>2026-04-03T17:11:33Z</time></trkpt><trkpt lat="44.553047858004774" lon="0.9678294734486336"><ele>148.0</ele><time>2026-04-03T17:11:34Z</time></trkpt><trkpt lat="44.55302191248343" lon="0.9679997070692273"><ele>149.0</ele><time>2026-04-03T17:11:36Z</time></trkpt><trkpt lat="44.55298501957997" lon="0.9681220326887218"><ele>150.0</ele><time>2026-04-03T17:11:37Z</time></trkpt><trkpt lat="44.55292970379408" lon="0.9682535174545233"><ele>151.0</ele><time>2026-04-03T17:11:38Z</time></trkpt><trkpt lat="44.552863402284544" lon="0.9683852594436526"><ele>152.0</ele><time>2026-04-03T17:11:39Z</time></trkpt><trkpt lat="44.55278535920602" lon="0.968471972704326"><ele>153.0</ele><time>2026-04-03T17:11:40Z</time></trkpt><trkpt lat="44.55266212038933" lon="0.9685436276714127"><ele>153.0</ele><time>2026-04-03T17:11:41Z</time></trkpt><trkpt lat="44.55256576031397" lon="0.9686286477829852"><ele>153.0</ele><time>2026-04-03T17:11:42Z</time></trkpt><trkpt lat="44.552492142535556" lon="0.9687428336077298"><ele>153.0</ele><time>2026-04-03T17:11:43Z</time></trkpt><trkpt lat="44.552437522093854" lon="0.968851920802122"><ele>153.0</ele><time>2026-04-03T17:11:44Z</time></trkpt><trkpt lat="44.55235826751794" lon="0.9689208450062103"><ele>153.0</ele><time>2026-04-03T17:11:45Z</time></trkpt><trkpt lat="44.552294768520724" lon="0.9690475974232272"><ele>153.0</ele><time>2026-04-03T17:11:47Z</time></trkpt><trkpt lat="44.55220940769284" lon="0.9691580652218004"><ele>153.0</ele><time>2026-04-03T17:11:49Z</time></trkpt><trkpt lat="44.55214492221299" lon="0.9692386992334477"><ele>153.0</ele><time>2026-04-03T17:11:50Z</time></trkpt><trkpt lat="44.552116739368635" lon="0.9693207562667182"><ele>153.0</ele><time>2026-04-03T17:11:51Z</time></trkpt><trkpt lat="44.55208147874207" lon="0.969401327395213"><ele>153.0</ele><time>2026-04-03T17:11:52Z</time></trkpt><trkpt lat="44.55204835625532" lon="0.9695485938921568"><ele>153.0</ele><time>2026-04-03T17:11:54Z</time></trkpt><trkpt lat="44.55206141563296" lon="0.9696909778541797"><ele>153.0</ele><time>2026-04-03T17:11:56Z</time></trkpt><trkpt lat="44.55205607415521" lon="0.9698200343547437"><ele>153.0</ele><time>2026-04-03T17:11:57.999Z</time></trkpt><trkpt lat="44.55205200295905" lon="0.9699699391571812"><ele>153.0</ele><time>2026-04-03T17:11:59.999Z</time></trkpt><trkpt lat="44.55206701914656" lon="0.9700704616277906"><ele>153.0</ele><time>2026-04-03T17:12:00.999Z</time></trkpt><trkpt lat="44.552088234744936" lon="0.9701961843378756"><ele>153.0</ele><time>2026-04-03T17:12:01.999Z</time></trkpt><trkpt lat="44.55209803931332" lon="0.9703011549944841"><ele>153.0</ele><time>2026-04-03T17:12:02.999Z</time></trkpt><trkpt lat="44.552139718999356" lon="0.9704416746976022"><ele>153.0</ele><time>2026-04-03T17:12:04.999Z</time></trkpt><trkpt lat="44.55222552507602" lon="0.9705307855024052"><ele>153.0</ele><time>2026-04-03T17:12:06.999Z</time></trkpt><trkpt lat="44.55227595699728" lon="0.9706196889995719"><ele>153.0</ele><time>2026-04-03T17:12:08.999Z</time></trkpt><trkpt lat="44.55225401191891" lon="0.9707234982918659"><ele>153.0</ele><time>2026-04-03T17:12:10.999Z</time></trkpt><trkpt lat="44.552211461753416" lon="0.9708034972349595"><ele>153.0</ele><time>2026-04-03T17:12:15.999Z</time></trkpt><trkpt lat="44.55214868300644" lon="0.9708976675237633"><ele>153.0</ele><time>2026-04-03T17:12:17.999Z</time></trkpt><trkpt lat="44.5520724366037" lon="0.9709099573850734"><ele>153.14285714285714</ele><time>2026-04-03T17:12:19.999Z</time></trkpt><trkpt lat="44.55199916625938" lon="0.970935666096486"><ele>153.28571428571428</ele><time>2026-04-03T17:12:22.999Z</time></trkpt><trkpt lat="44.551914217884644" lon="0.9709821798233665"><ele>153.42857142857144</ele><time>2026-04-03T17:12:25.999Z</time></trkpt><trkpt lat="44.551850814751134" lon="0.9709903355496471"><ele>153.57142857142856</ele><time>2026-04-03T17:12:26.999Z</time></trkpt><trkpt lat="44.551799080262356" lon="0.971056698153998"><ele>153.71428571428572</ele><time>2026-04-03T17:12:29.999Z</time></trkpt><trkpt lat="44.55176613009517" lon="0.9711385315801893"><ele>153.85714285714286</ele><time>2026-04-03T17:12:30.999Z</time></trkpt><trkpt lat="44.55174768020445" lon="0.9712478956966862"><ele>154.0</ele><time>2026-04-03T17:12:31.999Z</time></trkpt><trkpt lat="44.55172111231305" lon="0.9713346174754871"><ele>154.0</ele><time>2026-04-03T17:12:32.999Z</time></trkpt><trkpt lat="44.55170538030515" lon="0.9714336691331695"><ele>154.0</ele><time>2026-04-03T17:12:33.999Z</time></trkpt><trkpt lat="44.55167280781223" lon="0.9715511742855012"><ele>154.0</ele><time>2026-04-03T17:12:34.999Z</time></trkpt><trkpt lat="44.55161672841745" lon="0.9716760560983676"><ele>154.0</ele><time>2026-04-03T17:12:35.999Z</time></trkpt><trkpt lat="44.55157327593818" lon="0.9717687839284753"><ele>154.0</ele><time>2026-04-03T17:12:36.999Z</time></trkpt><trkpt lat="44.55155853678218" lon="0.9719044006273985"><ele>154.0</ele><time>2026-04-03T17:12:38.999Z</time></trkpt><trkpt lat="44.55153771034881" lon="0.9719916285696449"><ele>155.0</ele><time>2026-04-03T17:12:42.999Z</time></trkpt><trkpt lat="44.55151899869717" lon="0.9721027354766548"><ele>156.0</ele><time>2026-04-03T17:13:23Z</time></trkpt><trkpt lat="44.55152646188231" lon="0.9722033026511847"><ele>157.0</ele><time>2026-04-03T17:13:26Z</time></trkpt><trkpt lat="44.551481009774335" lon="0.9722791733843885"><ele>158.0</ele><time>2026-04-03T17:13:30Z</time></trkpt><trkpt lat="44.55142358486742" lon="0.9723186391454386"><ele>159.0</ele><time>2026-04-03T17:13:39Z</time></trkpt><trkpt lat="44.551483388203316" lon="0.9722402915280361"><ele>160.0</ele><time>2026-04-03T17:13:52Z</time></trkpt><trkpt lat="44.55150512619385" lon="0.9721518310246322"><ele>161.0</ele><time>2026-04-03T17:13:56Z</time></trkpt><trkpt lat="44.551476816070284" lon="0.9720625293162152"><ele>161.0</ele><time>2026-04-03T17:13:59Z</time></trkpt><trkpt lat="44.551496254494005" lon="0.9719563744183559"><ele>161.0</ele><time>2026-04-03T17:14:02Z</time></trkpt><trkpt lat="44.55151793086701" lon="0.9718167457949484"><ele>161.0</ele><time>2026-04-03T17:14:03.999Z</time></trkpt><trkpt lat="44.55154150551197" lon="0.9717242653554745"><ele>161.0</ele><time>2026-04-03T17:14:04.999Z</time></trkpt><trkpt lat="44.551582936899734" lon="0.9716425294162806"><ele>161.0</ele><time>2026-04-03T17:14:05.999Z</time></trkpt><trkpt lat="44.551621192902275" lon="0.9715676841854289"><ele>161.0</ele><time>2026-04-03T17:14:06.999Z</time></trkpt><trkpt lat="44.55164620881954" lon="0.9714531665750007"><ele>159.83333333333331</ele><time>2026-04-03T17:14:07.999Z</time></trkpt><trkpt lat="44.551677692097755" lon="0.9713599908166143"><ele>158.66666666666666</ele><time>2026-04-03T17:14:08.999Z</time></trkpt><trkpt lat="44.55170119744726" lon="0.9712741194431144"><ele>157.5</ele><time>2026-04-03T17:14:09.999Z</time></trkpt><trkpt lat="44.55170774401272" lon="0.9711861234316722"><ele>156.33333333333334</ele><time>2026-04-03T17:14:10.999Z</time></trkpt><trkpt lat="44.55173416870436" lon="0.9711046855541277"><ele>155.16666666666669</ele><time>2026-04-03T17:14:11.999Z</time></trkpt><trkpt lat="44.55177110901235" lon="0.9709901164632925"><ele>154.0</ele><time>2026-04-03T17:14:13.999Z</time></trkpt><trkpt lat="44.551896113579474" lon="0.9709587116817681"><ele>154.0</ele><time>2026-04-03T17:14:15.999Z</time></trkpt><trkpt lat="44.55202478747279" lon="0.9709273274662552"><ele>154.0</ele><time>2026-04-03T17:14:17.999Z</time></trkpt><trkpt lat="44.55211722585633" lon="0.9708749130988367"><ele>154.0</ele><time>2026-04-03T17:14:19.999Z</time></trkpt><trkpt lat="44.552169910910784" lon="0.9707880522736354"><ele>154.0</ele><time>2026-04-03T17:14:21.999Z</time></trkpt><trkpt lat="44.55221891441436" lon="0.9707079763839976"><ele>154.0</ele><time>2026-04-03T17:14:23.999Z</time></trkpt><trkpt lat="44.552284476275425" lon="0.9706964418973525"><ele>153.8</ele><time>2026-04-03T17:14:24.999Z</time></trkpt><trkpt lat="44.55239675911974" lon="0.9707749315509082"><ele>153.60000000000002</ele><time>2026-04-03T17:14:26.999Z</time></trkpt><trkpt lat="44.552458232002685" lon="0.9708306549854187"><ele>153.4</ele><time>2026-04-03T17:14:28.999Z</time></trkpt><trkpt lat="44.552526038848164" lon="0.9708434985703324"><ele>153.20000000000002</ele><time>2026-04-03T17:14:30.999Z</time></trkpt><trkpt lat="44.55243281626338" lon="0.9708089214340315"><ele>153.0</ele><time>2026-04-03T17:15:03.999Z</time></trkpt><trkpt lat="44.55231641683942" lon="0.9707374463260044"><ele>153.0</ele><time>2026-04-03T17:15:34Z</time></trkpt><trkpt lat="44.552239475325884" lon="0.9707519986657284"><ele>153.0</ele><time>2026-04-03T17:15:37Z</time></trkpt><trkpt lat="44.552191443932216" lon="0.9708143498739802"><ele>153.0</ele><time>2026-04-03T17:36:09.998Z</time></trkpt><trkpt lat="44.55221946091972" lon="0.9706953185893176"><ele>153.0</ele><time>2026-04-03T17:36:32Z</time></trkpt><trkpt lat="44.55220772470713" lon="0.9705856474671487"><ele>153.0</ele><time>2026-04-03T17:36:35Z</time></trkpt><trkpt lat="44.55216320020279" lon="0.9705198650935375"><ele>153.0</ele><time>2026-04-03T17:36:36Z</time></trkpt><trkpt lat="44.55209224978105" lon="0.9704335210281818"><ele>153.0</ele><time>2026-04-03T17:36:38Z</time></trkpt><trkpt lat="44.552045283972795" lon="0.9703074057048502"><ele>153.0</ele><time>2026-04-03T17:36:40Z</time></trkpt><trkpt lat="44.552045979224644" lon="0.9701649681379183"><ele>153.0</ele><time>2026-04-03T17:36:42Z</time></trkpt><trkpt lat="44.55203684335943" lon="0.9700506404789078"><ele>153.0</ele><time>2026-04-03T17:36:43Z</time></trkpt><trkpt lat="44.55202162808326" lon="0.9699509686924"><ele>153.0</ele><time>2026-04-03T17:36:44Z</time></trkpt><trkpt lat="44.552013019433616" lon="0.9698043374729425"><ele>153.0</ele><time>2026-04-03T17:36:46Z</time></trkpt><trkpt lat="44.55204285333003" lon="0.9696826921948046"><ele>153.0</ele><time>2026-04-03T17:36:48Z</time></trkpt><trkpt lat="44.55200274769001" lon="0.9695983981861496"><ele>153.0</ele><time>2026-04-03T17:36:49Z</time></trkpt><trkpt lat="44.55200988136389" lon="0.9694720764481688"><ele>153.0</ele><time>2026-04-03T17:36:51Z</time></trkpt><trkpt lat="44.55208600936489" lon="0.9693010138968854"><ele>153.0</ele><time>2026-04-03T17:36:53Z</time></trkpt><trkpt lat="44.55215036629691" lon="0.9691736286294004"><ele>153.0</ele><time>2026-04-03T17:36:54Z</time></trkpt><trkpt lat="44.55222153281329" lon="0.9690588002097106"><ele>153.0</ele><time>2026-04-03T17:36:55Z</time></trkpt><trkpt lat="44.5523198507819" lon="0.9689439426924779"><ele>153.0</ele><time>2026-04-03T17:36:56Z</time></trkpt><trkpt lat="44.55241955050672" lon="0.96882404848577"><ele>153.0</ele><time>2026-04-03T17:36:57Z</time></trkpt><trkpt lat="44.55250397256663" lon="0.9687097210599984"><ele>153.0</ele><time>2026-04-03T17:36:58Z</time></trkpt><trkpt lat="44.552571144552125" lon="0.9686325849285246"><ele>153.0</ele><time>2026-04-03T17:36:59Z</time></trkpt><trkpt lat="44.55264213120048" lon="0.9685224312362228"><ele>153.0</ele><time>2026-04-03T17:37:00Z</time></trkpt><trkpt lat="44.55269771763542" lon="0.9684606417342829"><ele>153.0</ele><time>2026-04-03T17:37:01Z</time></trkpt><trkpt lat="44.552774207908975" lon="0.9684211416106951"><ele>153.0</ele><time>2026-04-03T17:37:03Z</time></trkpt><trkpt lat="44.55285760592744" lon="0.9683417331244782"><ele>153.0</ele><time>2026-04-03T17:37:05Z</time></trkpt><trkpt lat="44.5529200402331" lon="0.9682608536944841"><ele>154.0</ele><time>2026-04-03T17:37:06.999Z</time></trkpt><trkpt lat="44.55296592918976" lon="0.9681145721074205"><ele>155.0</ele><time>2026-04-03T17:37:08.999Z</time></trkpt><trkpt lat="44.552986613654085" lon="0.9680306853116094"><ele>156.0</ele><time>2026-04-03T17:37:09.999Z</time></trkpt><trkpt lat="44.55299917188617" lon="0.9679348126199733"><ele>157.0</ele><time>2026-04-03T17:37:10.999Z</time></trkpt><trkpt lat="44.5530154105037" lon="0.9678487052661358"><ele>158.0</ele><time>2026-04-03T17:37:11.999Z</time></trkpt><trkpt lat="44.5530628700844" lon="0.9677152759671773"><ele>159.0</ele><time>2026-04-03T17:37:13.999Z</time></trkpt><trkpt lat="44.553111711363925" lon="0.9676358769847041"><ele>159.0</ele><time>2026-04-03T17:37:16.999Z</time></trkpt><trkpt lat="44.55314027729328" lon="0.9675481717676745"><ele>159.0</ele><time>2026-04-03T17:37:17.999Z</time></trkpt><trkpt lat="44.55317939694747" lon="0.9674641733062245"><ele>159.0</ele><time>2026-04-03T17:37:18.999Z</time></trkpt><trkpt lat="44.55324910837767" lon="0.967370959085654"><ele>159.0</ele><time>2026-04-03T17:37:20.999Z</time></trkpt><trkpt lat="44.55333327021231" lon="0.9672966698289469"><ele>159.0</ele><time>2026-04-03T17:37:22.999Z</time></trkpt><trkpt lat="44.553456416570526" lon="0.967267856884329"><ele>156.8</ele><time>2026-04-03T17:37:25.999Z</time></trkpt><trkpt lat="44.55350509309679" lon="0.967201592241617"><ele>154.60000000000002</ele><time>2026-04-03T17:37:27.999Z</time></trkpt><trkpt lat="44.55345108047751" lon="0.9671258135308236"><ele>152.4</ele><time>2026-04-03T17:37:29.999Z</time></trkpt><trkpt lat="44.553384642872146" lon="0.9670598137714678"><ele>150.20000000000002</ele><time>2026-04-03T17:37:30.999Z</time></trkpt><trkpt lat="44.553299034857865" lon="0.9669773265414116"><ele>148.0</ele><time>2026-04-03T17:37:31.999Z</time></trkpt><trkpt lat="44.553225855521234" lon="0.9668354508110971"><ele>148.0</ele><time>2026-04-03T17:37:32.999Z</time></trkpt><trkpt lat="44.55311700279705" lon="0.9667227151222412"><ele>148.0</ele><time>2026-04-03T17:37:33.999Z</time></trkpt><trkpt lat="44.55301328727335" lon="0.9665757545853051"><ele>148.0</ele><time>2026-04-03T17:37:34.999Z</time></trkpt><trkpt lat="44.55291030123244" lon="0.966418252308789"><ele>148.0</ele><time>2026-04-03T17:37:35.999Z</time></trkpt><trkpt lat="44.55281324453779" lon="0.9662862970890245"><ele>146.4</ele><time>2026-04-03T17:37:36.999Z</time></trkpt><trkpt lat="44.552747688787605" lon="0.9661532330749835"><ele>144.8</ele><time>2026-04-03T17:37:37.999Z</time></trkpt><trkpt lat="44.55269478608765" lon="0.9660152051469485"><ele>143.2</ele><time>2026-04-03T17:37:38.999Z</time></trkpt><trkpt lat="44.55266464925388" lon="0.9658881210839533"><ele>141.6</ele><time>2026-04-03T17:37:39.999Z</time></trkpt><trkpt lat="44.55264601989563" lon="0.9657619679248565"><ele>140.0</ele><time>2026-04-03T17:37:40.999Z</time></trkpt><trkpt lat="44.552614490021554" lon="0.9656713899562529"><ele>140.0</ele><time>2026-04-03T17:37:41.999Z</time></trkpt><trkpt lat="44.552598206949746" lon="0.9655696782708431"><ele>140.0</ele><time>2026-04-03T17:37:43.999Z</time></trkpt><trkpt lat="44.55247612850952" lon="0.9656574242711833"><ele>140.0</ele><time>2026-04-03T17:37:45.999Z</time></trkpt><trkpt lat="44.552405313949365" lon="0.9657289996354853"><ele>140.0</ele><time>2026-04-03T17:37:47.999Z</time></trkpt><trkpt lat="44.55231900035064" lon="0.9657596097161819"><ele>140.0</ele><time>2026-04-03T17:37:49.999Z</time></trkpt><trkpt lat="44.5521856431739" lon="0.9657763233526729"><ele>140.0</ele><time>2026-04-03T17:37:51.999Z</time></trkpt><trkpt lat="44.552132263201635" lon="0.9658446112097197"><ele>140.0</ele><time>2026-04-03T17:37:52.999Z</time></trkpt><trkpt lat="44.55208982195736" lon="0.9659588531094557"><ele>140.0</ele><time>2026-04-03T17:37:53.999Z</time></trkpt><trkpt lat="44.552046656959845" lon="0.9660883320552652"><ele>140.0</ele><time>2026-04-03T17:37:54.999Z</time></trkpt><trkpt lat="44.55198561209456" lon="0.9662824940633734"><ele>140.0</ele><time>2026-04-03T17:37:55.999Z</time></trkpt><trkpt lat="44.55196460580852" lon="0.9664385412201449"><ele>142.6</ele><time>2026-04-03T17:37:56.999Z</time></trkpt><trkpt lat="44.551940977563156" lon="0.9666124605599573"><ele>145.2</ele><time>2026-04-03T17:37:57.999Z</time></trkpt><trkpt lat="44.55192640264255" lon="0.9667803419804953"><ele>147.8</ele><time>2026-04-03T17:37:58.999Z</time></trkpt><trkpt lat="44.55192995618336" lon="0.9669129332933851"><ele>150.4</ele><time>2026-04-03T17:37:59.999Z</time></trkpt><trkpt lat="44.551931641959825" lon="0.9670469919537156"><ele>153.0</ele><time>2026-04-03T17:38:00.999Z</time></trkpt><trkpt lat="44.55193312369718" lon="0.9671626255274981"><ele>153.0</ele><time>2026-04-03T17:38:01.999Z</time></trkpt><trkpt lat="44.55196343035301" lon="0.9672954895303416"><ele>153.0</ele><time>2026-04-03T17:38:02.999Z</time></trkpt><trkpt lat="44.551978070371526" lon="0.9674279664795608"><ele>153.0</ele><time>2026-04-03T17:38:03.999Z</time></trkpt><trkpt lat="44.55198177149805" lon="0.9675332724879389"><ele>153.0</ele><time>2026-04-03T17:38:04.999Z</time></trkpt><trkpt lat="44.55199243062246" lon="0.9676629802399788"><ele>153.0</ele><time>2026-04-03T17:38:05.999Z</time></trkpt><trkpt lat="44.55200365219306" lon="0.9678221028783748"><ele>152.8</ele><time>2026-04-03T17:38:06.999Z</time></trkpt><trkpt lat="44.552001772168445" lon="0.967987357630655"><ele>152.60000000000002</ele><time>2026-04-03T17:38:07.999Z</time></trkpt><trkpt lat="44.55199876076031" lon="0.9681314272423349"><ele>152.39999999999998</ele><time>2026-04-03T17:38:08.999Z</time></trkpt><trkpt lat="44.55197158872739" lon="0.9682840454596915"><ele>152.2</ele><time>2026-04-03T17:38:09.999Z</time></trkpt><trkpt lat="44.5519388139318" lon="0.9684067348839621"><ele>152.0</ele><time>2026-04-03T17:38:10.999Z</time></trkpt><trkpt lat="44.55190539721728" lon="0.9684923300492718"><ele>150.83333333333331</ele><time>2026-04-03T17:38:11.999Z</time></trkpt><trkpt lat="44.55184832172817" lon="0.9685525087446004"><ele>149.66666666666666</ele><time>2026-04-03T17:38:12.999Z</time></trkpt><trkpt lat="44.551798987590615" lon="0.968634787666856"><ele>148.5</ele><time>2026-04-03T17:38:13.999Z</time></trkpt><trkpt lat="44.55171760336245" lon="0.9687007047926498"><ele>147.33333333333334</ele><time>2026-04-03T17:38:14.998Z</time></trkpt><trkpt lat="44.55164096953043" lon="0.9687788199687171"><ele>146.16666666666669</ele><time>2026-04-03T17:38:15.998Z</time></trkpt><trkpt lat="44.551560778816366" lon="0.9688620098702749"><ele>145.0</ele><time>2026-04-03T17:38:16.998Z</time></trkpt><trkpt lat="44.55150549768764" lon="0.9689215835010195"><ele>145.0</ele><time>2026-04-03T17:38:17.998Z</time></trkpt><trkpt lat="44.55142757131594" lon="0.9690181537425602"><ele>145.0</ele><time>2026-04-03T17:38:19.998Z</time></trkpt><trkpt lat="44.55136775890279" lon="0.969072828962852"><ele>145.0</ele><time>2026-04-03T17:38:20.998Z</time></trkpt><trkpt lat="44.55130033302389" lon="0.9691138108796251"><ele>145.0</ele><time>2026-04-03T17:38:21.998Z</time></trkpt><trkpt lat="44.5512153214028" lon="0.9691341913340645"><ele>145.0</ele><time>2026-04-03T17:38:23.998Z</time></trkpt><trkpt lat="44.55113464196369" lon="0.9691096251907576"><ele>145.0</ele><time>2026-04-03T17:38:26Z</time></trkpt><trkpt lat="44.55102115651266" lon="0.9690367215178852"><ele>147.16666666666669</ele><time>2026-04-03T17:38:28Z</time></trkpt><trkpt lat="44.550946251048195" lon="0.9689897571012314"><ele>149.33333333333334</ele><time>2026-04-03T17:38:29Z</time></trkpt><trkpt lat="44.550854591977874" lon="0.9690437775940342"><ele>151.5</ele><time>2026-04-03T17:38:31Z</time></trkpt><trkpt lat="44.550780259023846" lon="0.9690815983444819"><ele>153.66666666666666</ele><time>2026-04-03T17:38:34Z</time></trkpt><trkpt lat="44.550684294246985" lon="0.9690983461553461"><ele>155.83333333333331</ele><time>2026-04-03T17:38:36Z</time></trkpt><trkpt lat="44.55060202999614" lon="0.9691058052716769"><ele>158.0</ele><time>2026-04-03T17:38:37Z</time></trkpt><trkpt lat="44.55049795809871" lon="0.9691052850955929"><ele>158.0</ele><time>2026-04-03T17:38:38Z</time></trkpt><trkpt lat="44.55037829683345" lon="0.9690821968763145"><ele>158.0</ele><time>2026-04-03T17:38:39Z</time></trkpt><trkpt lat="44.550257916228524" lon="0.9690428058499639"><ele>158.0</ele><time>2026-04-03T17:38:40Z</time></trkpt><trkpt lat="44.550136460420674" lon="0.9689722343132832"><ele>158.0</ele><time>2026-04-03T17:38:41Z</time></trkpt><trkpt lat="44.550000383861914" lon="0.9688888260710619"><ele>160.0</ele><time>2026-04-03T17:38:42Z</time></trkpt><trkpt lat="44.549877245508235" lon="0.968748053546878"><ele>162.0</ele><time>2026-04-03T17:38:43Z</time></trkpt><trkpt lat="44.549758296595556" lon="0.9686443906142349"><ele>164.0</ele><time>2026-04-03T17:38:44Z</time></trkpt><trkpt lat="44.549634827408575" lon="0.9684997585818494"><ele>165.33333333333331</ele><time>2026-04-03T17:38:45Z</time></trkpt><trkpt lat="44.54951470550266" lon="0.9683387325895508"><ele>166.66666666666666</ele><time>2026-04-03T17:38:46Z</time></trkpt><trkpt lat="44.54939670427224" lon="0.9681790162465359"><ele>168.0</ele><time>2026-04-03T17:38:47Z</time></trkpt><trkpt lat="44.54929290444655" lon="0.9680246291883056"><ele>168.0</ele><time>2026-04-03T17:38:48Z</time></trkpt><trkpt lat="44.54917145383906" lon="0.9678623488492423"><ele>168.0</ele><time>2026-04-03T17:38:49Z</time></trkpt><trkpt lat="44.54905157471781" lon="0.9677345352879222"><ele>168.0</ele><time>2026-04-03T17:38:50Z</time></trkpt><trkpt lat="44.54895558212017" lon="0.9676343462279943"><ele>168.0</ele><time>2026-04-03T17:38:51Z</time></trkpt><trkpt lat="44.54888397153184" lon="0.9675432285169473"><ele>168.5</ele><time>2026-04-03T17:38:52Z</time></trkpt><trkpt lat="44.54882186273756" lon="0.967450412776325"><ele>169.0</ele><time>2026-04-03T17:38:53Z</time></trkpt><trkpt lat="44.5488027438133" lon="0.9673489309169391"><ele>169.5</ele><time>2026-04-03T17:38:54Z</time></trkpt><trkpt lat="44.54877610086751" lon="0.967238187069724"><ele>170.0</ele><time>2026-04-03T17:38:55Z</time></trkpt><trkpt lat="44.54875409851631" lon="0.9671063678529132"><ele>170.5</ele><time>2026-04-03T17:38:56Z</time></trkpt><trkpt lat="44.54869318720333" lon="0.9670002854280431"><ele>171.0</ele><time>2026-04-03T17:38:58Z</time></trkpt><trkpt lat="44.54858080843574" lon="0.9669961432308398"><ele>171.33333333333334</ele><time>2026-04-03T17:39:00Z</time></trkpt><trkpt lat="44.54851664456956" lon="0.9670020053176458"><ele>171.66666666666666</ele><time>2026-04-03T17:39:01Z</time></trkpt><trkpt lat="44.5484428407039" lon="0.9669882556874217"><ele>172.0</ele><time>2026-04-03T17:39:02Z</time></trkpt><trkpt lat="44.54836839340703" lon="0.9669979436404152"><ele>172.33333333333331</ele><time>2026-04-03T17:39:03Z</time></trkpt><trkpt lat="44.54827244894073" lon="0.9670096836971824"><ele>172.66666666666666</ele><time>2026-04-03T17:39:04Z</time></trkpt><trkpt lat="44.54816380649496" lon="0.9670281638265076"><ele>173.0</ele><time>2026-04-03T17:39:05Z</time></trkpt><trkpt lat="44.54803019252137" lon="0.9670496524324342"><ele>173.0</ele><time>2026-04-03T17:39:06Z</time></trkpt><trkpt lat="44.54790893561572" lon="0.9670843300659743"><ele>173.0</ele><time>2026-04-03T17:39:07Z</time></trkpt><trkpt lat="44.54780600919354" lon="0.9671387601690823"><ele>173.0</ele><time>2026-04-03T17:39:08Z</time></trkpt><trkpt lat="44.54770428889601" lon="0.967231489696266"><ele>173.0</ele><time>2026-04-03T17:39:08.999Z</time></trkpt><trkpt lat="44.547629407867696" lon="0.9673608292672385"><ele>174.75</ele><time>2026-04-03T17:39:09.999Z</time></trkpt><trkpt lat="44.547542564074746" lon="0.9675037129650257"><ele>176.5</ele><time>2026-04-03T17:39:10.999Z</time></trkpt><trkpt lat="44.547439527932085" lon="0.9676267342791535"><ele>178.25</ele><time>2026-04-03T17:39:11.999Z</time></trkpt><trkpt lat="44.54731684834848" lon="0.9677345032623144"><ele>180.0</ele><time>2026-04-03T17:39:12.999Z</time></trkpt><trkpt lat="44.54718474155373" lon="0.9678203627291357"><ele>180.0</ele><time>2026-04-03T17:39:13.999Z</time></trkpt><trkpt lat="44.54705826314826" lon="0.9678713674998273"><ele>180.0</ele><time>2026-04-03T17:39:14.999Z</time></trkpt><trkpt lat="44.54696529128942" lon="0.9679427471701009"><ele>180.0</ele><time>2026-04-03T17:39:15.999Z</time></trkpt><trkpt lat="44.546874923688115" lon="0.968039083169803"><ele>180.0</ele><time>2026-04-03T17:39:16.999Z</time></trkpt><trkpt lat="44.546796477159255" lon="0.9681215115428049"><ele>180.0</ele><time>2026-04-03T17:39:17.999Z</time></trkpt><trkpt lat="44.546726971745514" lon="0.9681762441773452"><ele>181.66666666666666</ele><time>2026-04-03T17:39:18.999Z</time></trkpt><trkpt lat="44.54666066219352" lon="0.9681717247869149"><ele>183.33333333333334</ele><time>2026-04-03T17:39:19.999Z</time></trkpt><trkpt lat="44.546594024505374" lon="0.9681525268214751"><ele>185.0</ele><time>2026-04-03T17:39:20.999Z</time></trkpt><trkpt lat="44.54649795939226" lon="0.9681585982676891"><ele>186.66666666666669</ele><time>2026-04-03T17:39:22.999Z</time></trkpt><trkpt lat="44.5464089272705" lon="0.9681787920319292"><ele>188.33333333333334</ele><time>2026-04-03T17:39:24.999Z</time></trkpt><trkpt lat="44.54630565235085" lon="0.9681787326467232"><ele>190.0</ele><time>2026-04-03T17:39:26.999Z</time></trkpt><trkpt lat="44.54622911221406" lon="0.968180629509152"><ele>190.83333333333334</ele><time>2026-04-03T17:39:27.999Z</time></trkpt><trkpt lat="44.546132474194074" lon="0.9681732237106148"><ele>191.66666666666669</ele><time>2026-04-03T17:39:28.999Z</time></trkpt><trkpt lat="44.54603993134864" lon="0.9681771293368795"><ele>192.5</ele><time>2026-04-03T17:39:29.999Z</time></trkpt><trkpt lat="44.5459689025037" lon="0.9681965801027325"><ele>193.33333333333334</ele><time>2026-04-03T17:39:30.999Z</time></trkpt><trkpt lat="44.545905660746875" lon="0.9682187225765627"><ele>194.16666666666666</ele><time>2026-04-03T17:39:31.999Z</time></trkpt><trkpt lat="44.54582678947537" lon="0.9682668281835968"><ele>195.0</ele><time>2026-04-03T17:39:33.999Z</time></trkpt><trkpt lat="44.54575172313275" lon="0.9683119170507883"><ele>195.33333333333334</ele><time>2026-04-03T17:39:36.999Z</time></trkpt><trkpt lat="44.54569890009443" lon="0.968377119743195"><ele>195.66666666666669</ele><time>2026-04-03T17:39:38.999Z</time></trkpt><trkpt lat="44.545659058285814" lon="0.9684993077637218"><ele>196.0</ele><time>2026-04-03T17:39:40.999Z</time></trkpt><trkpt lat="44.545594726656844" lon="0.9685569737962013"><ele>196.33333333333334</ele><time>2026-04-03T17:39:42.999Z</time></trkpt><trkpt lat="44.54549359519683" lon="0.9685554041324458"><ele>196.66666666666669</ele><time>2026-04-03T17:39:44.999Z</time></trkpt><trkpt lat="44.54546687815529" lon="0.9684667735359944"><ele>197.0</ele><time>2026-04-03T17:39:45.999Z</time></trkpt><trkpt lat="44.54534724133641" lon="0.9683974519349625"><ele>196.0</ele><time>2026-04-03T17:39:47.999Z</time></trkpt><trkpt lat="44.54524519314782" lon="0.9683433068695267"><ele>195.0</ele><time>2026-04-03T17:39:48.999Z</time></trkpt><trkpt lat="44.54513359832776" lon="0.9682845678338345"><ele>194.0</ele><time>2026-04-03T17:39:49.999Z</time></trkpt><trkpt lat="44.5450460736346" lon="0.9682384982718282"><ele>193.0</ele><time>2026-04-03T17:39:50.999Z</time></trkpt><trkpt lat="44.54493513116253" lon="0.9682028598519226"><ele>192.0</ele><time>2026-04-03T17:39:51.999Z</time></trkpt><trkpt lat="44.54481229277026" lon="0.9681267819214243"><ele>192.0</ele><time>2026-04-03T17:39:52.999Z</time></trkpt><trkpt lat="44.5446682800482" lon="0.9680507999452763"><ele>192.0</ele><time>2026-04-03T17:39:53.999Z</time></trkpt><trkpt lat="44.54451316611425" lon="0.9679905774515335"><ele>192.0</ele><time>2026-04-03T17:39:54.999Z</time></trkpt><trkpt lat="44.54437474766066" lon="0.9679069864497513"><ele>190.0</ele><time>2026-04-03T17:39:55.999Z</time></trkpt><trkpt lat="44.54425155777668" lon="0.9678319719959187"><ele>188.0</ele><time>2026-04-03T17:39:56.999Z</time></trkpt><trkpt lat="44.544138785416145" lon="0.9677497813969879"><ele>186.0</ele><time>2026-04-03T17:39:57.999Z</time></trkpt><trkpt lat="44.5440619404685" lon="0.9676455900791855"><ele>184.0</ele><time>2026-04-03T17:39:58.999Z</time></trkpt><trkpt lat="44.5439884062673" lon="0.9675704962588474"><ele>184.16666666666669</ele><time>2026-04-03T17:39:59.999Z</time></trkpt><trkpt lat="44.54392792492082" lon="0.9675058696510659"><ele>184.33333333333334</ele><time>2026-04-03T17:40:00.999Z</time></trkpt><trkpt lat="44.54388795350179" lon="0.9674345549779855"><ele>184.5</ele><time>2026-04-03T17:40:01.999Z</time></trkpt><trkpt lat="44.54381947306723" lon="0.967314076738968"><ele>184.66666666666666</ele><time>2026-04-03T17:40:03.999Z</time></trkpt><trkpt lat="44.543811792659675" lon="0.9672207051833769"><ele>184.83333333333331</ele><time>2026-04-03T17:40:05.999Z</time></trkpt><trkpt lat="44.54380490772318" lon="0.9671130569017939"><ele>185.0</ele><time>2026-04-03T17:40:08.999Z</time></trkpt><trkpt lat="44.54325049121712" lon="0.9671651750360742"><ele>184.2</ele><time>2026-04-03T17:40:18.999Z</time></trkpt><trkpt lat="44.543136037918096" lon="0.967114947920542"><ele>183.4</ele><time>2026-04-03T17:40:20.998Z</time></trkpt><trkpt lat="44.54302038155541" lon="0.9670614598145325"><ele>182.60000000000002</ele><time>2026-04-03T17:40:22.998Z</time></trkpt><trkpt lat="44.54295397576013" lon="0.9670359338844072"><ele>181.8</ele><time>2026-04-03T17:40:23.998Z</time></trkpt><trkpt lat="44.54288716600575" lon="0.9670145480148424"><ele>181.0</ele><time>2026-04-03T17:40:24.998Z</time></trkpt><trkpt lat="44.542789940111334" lon="0.9669615062931598"><ele>178.8</ele><time>2026-04-03T17:40:26.998Z</time></trkpt><trkpt lat="44.54266827933557" lon="0.9669253967138469"><ele>176.60000000000002</ele><time>2026-04-03T17:40:28.998Z</time></trkpt><trkpt lat="44.54256462577021" lon="0.9669180906458466"><ele>174.4</ele><time>2026-04-03T17:40:31Z</time></trkpt><trkpt lat="44.542465328800546" lon="0.966945593339273"><ele>172.2</ele><time>2026-04-03T17:40:33Z</time></trkpt><trkpt lat="44.54239990077058" lon="0.9669805867398232"><ele>170.0</ele><time>2026-04-03T17:40:34Z</time></trkpt><trkpt lat="44.5423370558292" lon="0.9670315434303418"><ele>170.0</ele><time>2026-04-03T17:40:35Z</time></trkpt><trkpt lat="44.5422939512283" lon="0.967101046453684"><ele>170.0</ele><time>2026-04-03T17:40:36Z</time></trkpt><trkpt lat="44.542245809267236" lon="0.9671720119731697"><ele>170.0</ele><time>2026-04-03T17:40:37Z</time></trkpt><trkpt lat="44.54216226841081" lon="0.9672882352517569"><ele>170.0</ele><time>2026-04-03T17:40:39Z</time></trkpt><trkpt lat="44.542112243235636" lon="0.9673499185739981"><ele>170.0</ele><time>2026-04-03T17:40:40Z</time></trkpt><trkpt lat="44.54205250372907" lon="0.9674208814111332"><ele>170.0</ele><time>2026-04-03T17:40:41Z</time></trkpt><trkpt lat="44.542001147958814" lon="0.9674738470460995"><ele>168.2</ele><time>2026-04-03T17:40:42Z</time></trkpt><trkpt lat="44.54192429441183" lon="0.9674989646692032"><ele>166.4</ele><time>2026-04-03T17:40:43Z</time></trkpt><trkpt lat="44.54186882418129" lon="0.9675491129260346"><ele>164.60000000000002</ele><time>2026-04-03T17:40:44Z</time></trkpt><trkpt lat="44.5417611364609" lon="0.9675910065002082"><ele>162.8</ele><time>2026-04-03T17:40:46Z</time></trkpt><trkpt lat="44.541658419871034" lon="0.9676434277910555"><ele>161.0</ele><time>2026-04-03T17:40:48Z</time></trkpt><trkpt lat="44.541569052117296" lon="0.9677016203688596"><ele>160.33333333333331</ele><time>2026-04-03T17:40:50Z</time></trkpt><trkpt lat="44.541488313619936" lon="0.9677587921744887"><ele>159.66666666666666</ele><time>2026-04-03T17:40:52Z</time></trkpt><trkpt lat="44.5414034077243" lon="0.9678124303285233"><ele>159.0</ele><time>2026-04-03T17:40:54Z</time></trkpt><trkpt lat="44.54131838039703" lon="0.9678916864742892"><ele>158.33333333333334</ele><time>2026-04-03T17:40:56Z</time></trkpt><trkpt lat="44.5412704755717" lon="0.9680043258811634"><ele>157.66666666666669</ele><time>2026-04-03T17:40:58Z</time></trkpt><trkpt lat="44.54126336019135" lon="0.9680942187969629"><ele>157.0</ele><time>2026-04-03T17:41:00Z</time></trkpt><trkpt lat="44.54127420121438" lon="0.9682629705752643"><ele>157.16666666666669</ele><time>2026-04-03T17:41:02Z</time></trkpt><trkpt lat="44.54129159299036" lon="0.9683831636739135"><ele>157.33333333333334</ele><time>2026-04-03T17:41:03Z</time></trkpt><trkpt lat="44.54128885609471" lon="0.9684894921839374"><ele>157.5</ele><time>2026-04-03T17:41:04Z</time></trkpt><trkpt lat="44.54122036238075" lon="0.9686031203406517"><ele>157.66666666666666</ele><time>2026-04-03T17:41:06Z</time></trkpt><trkpt lat="44.54113021147727" lon="0.9685815924526228"><ele>157.83333333333331</ele><time>2026-04-03T17:41:08Z</time></trkpt><trkpt lat="44.54106342704674" lon="0.9685289846780559"><ele>158.0</ele><time>2026-04-03T17:41:10Z</time></trkpt><trkpt lat="44.54098396697496" lon="0.9684931719479598"><ele>158.4</ele><time>2026-04-03T17:41:12Z</time></trkpt><trkpt lat="44.54090596866747" lon="0.9684707692520977"><ele>158.8</ele><time>2026-04-03T17:41:14Z</time></trkpt><trkpt lat="44.54079755100899" lon="0.9684186003776726"><ele>159.2</ele><time>2026-04-03T17:41:16Z</time></trkpt><trkpt lat="44.54072949872039" lon="0.9683886970874545"><ele>159.6</ele><time>2026-04-03T17:41:16.999Z</time></trkpt><trkpt lat="44.54062634891396" lon="0.9683467696017836"><ele>160.0</ele><time>2026-04-03T17:41:17.999Z</time></trkpt><trkpt lat="44.540514682410695" lon="0.9682920065444651"><ele>159.25</ele><time>2026-04-03T17:41:18.999Z</time></trkpt><trkpt lat="44.54042067193058" lon="0.9682006858062484"><ele>158.5</ele><time>2026-04-03T17:41:19.999Z</time></trkpt><trkpt lat="44.54032261583027" lon="0.9680833989499614"><ele>157.75</ele><time>2026-04-03T17:41:20.999Z</time></trkpt><trkpt lat="44.54023953611644" lon="0.9679546132243074"><ele>157.0</ele><time>2026-04-03T17:41:21.999Z</time></trkpt><trkpt lat="44.54016565213056" lon="0.9678008309341053"><ele>157.0</ele><time>2026-04-03T17:41:22.999Z</time></trkpt><trkpt lat="44.540098242011545" lon="0.9676707958076799"><ele>157.0</ele><time>2026-04-03T17:41:23.999Z</time></trkpt><trkpt lat="44.540010699697454" lon="0.967589575055946"><ele>157.0</ele><time>2026-04-03T17:41:24.999Z</time></trkpt><trkpt lat="44.53994387381948" lon="0.9674918766909182"><ele>157.0</ele><time>2026-04-03T17:41:25.999Z</time></trkpt><trkpt lat="44.53987314989856" lon="0.9674013841097685"><ele>157.0</ele><time>2026-04-03T17:41:26.999Z</time></trkpt><trkpt lat="44.53980433136796" lon="0.9673298412604665"><ele>156.33333333333334</ele><time>2026-04-03T17:41:27.999Z</time></trkpt><trkpt lat="44.53975157447696" lon="0.9672501681058574"><ele>155.66666666666669</ele><time>2026-04-03T17:41:28.999Z</time></trkpt><trkpt lat="44.539688549390675" lon="0.96719200329294"><ele>155.0</ele><time>2026-04-03T17:41:29.999Z</time></trkpt><trkpt lat="44.539620614838405" lon="0.9671534866294796"><ele>154.33333333333334</ele><time>2026-04-03T17:41:30.999Z</time></trkpt><trkpt lat="44.53955638732738" lon="0.9670916555654866"><ele>153.66666666666666</ele><time>2026-04-03T17:41:31.999Z</time></trkpt><trkpt lat="44.53951069044242" lon="0.9669769167895528"><ele>153.0</ele><time>2026-04-03T17:41:32.999Z</time></trkpt><trkpt lat="44.53947661462233" lon="0.9668164220369261"><ele>153.0</ele><time>2026-04-03T17:41:33.999Z</time></trkpt><trkpt lat="44.539441040834035" lon="0.9666284806177927"><ele>153.0</ele><time>2026-04-03T17:41:34.999Z</time></trkpt><trkpt lat="44.53939040495185" lon="0.9664402032134782"><ele>153.0</ele><time>2026-04-03T17:41:35.999Z</time></trkpt><trkpt lat="44.53932066521515" lon="0.9662765221696383"><ele>153.0</ele><time>2026-04-03T17:41:36.999Z</time></trkpt><trkpt lat="44.539271982054785" lon="0.9661091491025647"><ele>153.0</ele><time>2026-04-03T17:41:37.999Z</time></trkpt><trkpt lat="44.53923645644881" lon="0.9659888329797328"><ele>153.0</ele><time>2026-04-03T17:41:38.999Z</time></trkpt><trkpt lat="44.53919938760804" lon="0.9658629176555452"><ele>153.0</ele><time>2026-04-03T17:41:39.999Z</time></trkpt><trkpt lat="44.53919536644512" lon="0.9657051173665112"><ele>153.0</ele><time>2026-04-03T17:41:40.999Z</time></trkpt><trkpt lat="44.53920736589997" lon="0.9655315963268994"><ele>153.0</ele><time>2026-04-03T17:41:41.999Z</time></trkpt><trkpt lat="44.53921510261141" lon="0.9653821859234469"><ele>152.6</ele><time>2026-04-03T17:41:42.999Z</time></trkpt><trkpt lat="44.53921380890019" lon="0.9652375393704188"><ele>152.20000000000002</ele><time>2026-04-03T17:41:43.999Z</time></trkpt><trkpt lat="44.539204040035436" lon="0.9650929055565596"><ele>151.8</ele><time>2026-04-03T17:41:44.999Z</time></trkpt><trkpt lat="44.53918863509854" lon="0.9649445207730543"><ele>151.4</ele><time>2026-04-03T17:41:45.999Z</time></trkpt><trkpt lat="44.53917111170399" lon="0.9648130572782058"><ele>151.0</ele><time>2026-04-03T17:41:46.999Z</time></trkpt><trkpt lat="44.53914253301313" lon="0.9646723413929893"><ele>150.2</ele><time>2026-04-03T17:41:47.999Z</time></trkpt><trkpt lat="44.53909434699033" lon="0.964533110472007"><ele>149.39999999999998</ele><time>2026-04-03T17:41:48.999Z</time></trkpt><trkpt lat="44.5390568274687" lon="0.9643956657489824"><ele>148.6</ele><time>2026-04-03T17:41:49.999Z</time></trkpt><trkpt lat="44.539063526064126" lon="0.9642584794894135"><ele>147.79999999999998</ele><time>2026-04-03T17:41:50.999Z</time></trkpt><trkpt lat="44.539082237864115" lon="0.9641135647653268"><ele>147.0</ele><time>2026-04-03T17:41:51.999Z</time></trkpt><trkpt lat="44.53910340129146" lon="0.9639850681498177"><ele>145.6</ele><time>2026-04-03T17:41:52.999Z</time></trkpt><trkpt lat="44.539067368418024" lon="0.9638078489291659"><ele>144.2</ele><time>2026-04-03T17:41:54.999Z</time></trkpt><trkpt lat="44.5390050732712" lon="0.9637155776372742"><ele>142.8</ele><time>2026-04-03T17:41:55.999Z</time></trkpt><trkpt lat="44.53894097020057" lon="0.9636377045078952"><ele>141.4</ele><time>2026-04-03T17:41:56.999Z</time></trkpt><trkpt lat="44.53890332503211" lon="0.9635529322534766"><ele>140.0</ele><time>2026-04-03T17:41:57.999Z</time></trkpt><trkpt lat="44.53885929083744" lon="0.9634135215637654"><ele>140.2</ele><time>2026-04-03T17:41:59.999Z</time></trkpt><trkpt lat="44.53883429112949" lon="0.9633058437043623"><ele>140.4</ele><time>2026-04-03T17:42:01.999Z</time></trkpt><trkpt lat="44.538870994374385" lon="0.9631867648506153"><ele>140.6</ele><time>2026-04-03T17:42:03.999Z</time></trkpt><trkpt lat="44.538878399009704" lon="0.9630758853898145"><ele>140.8</ele><time>2026-04-03T17:42:04.999Z</time></trkpt><trkpt lat="44.538879721439216" lon="0.962922561007888"><ele>141.0</ele><time>2026-04-03T17:42:05.999Z</time></trkpt><trkpt lat="44.53887341783029" lon="0.9627535816149805"><ele>141.0</ele><time>2026-04-03T17:42:06.999Z</time></trkpt><trkpt lat="44.53885065854332" lon="0.9625624723065895"><ele>141.0</ele><time>2026-04-03T17:42:07.999Z</time></trkpt><trkpt lat="44.5388329862423" lon="0.9623725990498322"><ele>141.0</ele><time>2026-04-03T17:42:08.999Z</time></trkpt><trkpt lat="44.538805540671994" lon="0.9621641946799185"><ele>141.0</ele><time>2026-04-03T17:42:09.999Z</time></trkpt><trkpt lat="44.53875038232713" lon="0.961957520304522"><ele>138.66666666666666</ele><time>2026-04-03T17:42:10.999Z</time></trkpt><trkpt lat="44.53868616251547" lon="0.9617445951909197"><ele>136.33333333333331</ele><time>2026-04-03T17:42:11.999Z</time></trkpt><trkpt lat="44.538626358011946" lon="0.961519851124048"><ele>134.0</ele><time>2026-04-03T17:42:12.999Z</time></trkpt><trkpt lat="44.53855466793043" lon="0.9612966732547624"><ele>132.66666666666666</ele><time>2026-04-03T17:42:13.999Z</time></trkpt><trkpt lat="44.53846910141196" lon="0.9610977755376696"><ele>131.33333333333334</ele><time>2026-04-03T17:42:14.999Z</time></trkpt><trkpt lat="44.5384132663786" lon="0.9609046281834077"><ele>130.0</ele><time>2026-04-03T17:42:15.999Z</time></trkpt><trkpt lat="44.53840580272954" lon="0.9606850216760326"><ele>129.33333333333334</ele><time>2026-04-03T17:42:16.999Z</time></trkpt><trkpt lat="44.53841005565557" lon="0.9604596808528642"><ele>128.66666666666666</ele><time>2026-04-03T17:42:17.999Z</time></trkpt><trkpt lat="44.5384287793275" lon="0.9602243420584338"><ele>128.0</ele><time>2026-04-03T17:42:18.999Z</time></trkpt><trkpt lat="44.53846513819997" lon="0.9599894742091025"><ele>127.33333333333333</ele><time>2026-04-03T17:42:19.999Z</time></trkpt><trkpt lat="44.538493771670154" lon="0.9597424355384391"><ele>126.66666666666666</ele><time>2026-04-03T17:42:20.999Z</time></trkpt><trkpt lat="44.53854311783994" lon="0.9595148986984351"><ele>126.0</ele><time>2026-04-03T17:42:21.999Z</time></trkpt><trkpt lat="44.538580098805234" lon="0.9592595910123289"><ele>125.66666666666666</ele><time>2026-04-03T17:42:22.999Z</time></trkpt><trkpt lat="44.53861643364432" lon="0.959018688885208"><ele>125.33333333333333</ele><time>2026-04-03T17:42:23.999Z</time></trkpt><trkpt lat="44.53865135849291" lon="0.9587871356380279"><ele>125.0</ele><time>2026-04-03T17:42:24.999Z</time></trkpt><trkpt lat="44.53867998805043" lon="0.9585943971467609"><ele>125.0</ele><time>2026-04-03T17:42:25.999Z</time></trkpt><trkpt lat="44.53870255036397" lon="0.9584388588092305"><ele>125.0</ele><time>2026-04-03T17:42:26.999Z</time></trkpt><trkpt lat="44.53871865293526" lon="0.9583278520029449"><ele>125.0</ele><time>2026-04-03T17:42:27.999Z</time></trkpt><trkpt lat="44.5387333903455" lon="0.9582306368323353"><ele>125.0</ele><time>2026-04-03T17:42:28.998Z</time></trkpt><trkpt lat="44.53875279485378" lon="0.9581088285360676"><ele>125.0</ele><time>2026-04-03T17:42:30.998Z</time></trkpt><trkpt lat="44.53855709976833" lon="0.9580900293621479"><ele>124.33333333333333</ele><time>2026-04-03T17:43:48.999Z</time></trkpt><trkpt lat="44.53848378098548" lon="0.9581331579639938"><ele>123.66666666666666</ele><time>2026-04-03T17:43:53.999Z</time></trkpt><trkpt lat="44.53842068525678" lon="0.9581770491271753"><ele>123.0</ele><time>2026-04-03T17:43:56.999Z</time></trkpt><trkpt lat="44.53832829100936" lon="0.9582640344013394"><ele>122.33333333333334</ele><time>2026-04-03T17:43:58.999Z</time></trkpt><trkpt lat="44.53824356127213" lon="0.9582829442162184"><ele>121.66666666666667</ele><time>2026-04-03T17:43:59.999Z</time></trkpt><trkpt lat="44.53815023309822" lon="0.9583130033100591"><ele>121.0</ele><time>2026-04-03T17:44:00.999Z</time></trkpt><trkpt lat="44.53804830814268" lon="0.9583431404435803"><ele>121.19999999999999</ele><time>2026-04-03T17:44:01.999Z</time></trkpt><trkpt lat="44.53794345938684" lon="0.958378005664345"><ele>121.39999999999999</ele><time>2026-04-03T17:44:02.999Z</time></trkpt><trkpt lat="44.537848445478815" lon="0.9584104431800895"><ele>121.6</ele><time>2026-04-03T17:44:03.999Z</time></trkpt><trkpt lat="44.53776221842923" lon="0.9584418349057064"><ele>121.8</ele><time>2026-04-03T17:44:04.999Z</time></trkpt><trkpt lat="44.53767586941555" lon="0.9584779776330371"><ele>122.0</ele><time>2026-04-03T17:44:05.999Z</time></trkpt><trkpt lat="44.537583911307706" lon="0.9585176676064995"><ele>122.0</ele><time>2026-04-03T17:44:06.999Z</time></trkpt><trkpt lat="44.53748987678436" lon="0.9585475628361901"><ele>121.99999999999999</ele><time>2026-04-03T17:44:07.999Z</time></trkpt><trkpt lat="44.53739667050953" lon="0.9585531541263067"><ele>121.99999999999999</ele><time>2026-04-03T17:44:08.999Z</time></trkpt><trkpt lat="44.53730110361225" lon="0.9585462232624163"><ele>122.0</ele><time>2026-04-03T17:44:09.999Z</time></trkpt><trkpt lat="44.537207471790445" lon="0.9585344695386414"><ele>122.0</ele><time>2026-04-03T17:44:10.999Z</time></trkpt><trkpt lat="44.5371163998517" lon="0.9585168129881456"><ele>123.8</ele><time>2026-04-03T17:44:11.999Z</time></trkpt><trkpt lat="44.537021737382055" lon="0.9585158920486178"><ele>125.6</ele><time>2026-04-03T17:44:12.999Z</time></trkpt><trkpt lat="44.53693499001897" lon="0.9584630275007735"><ele>127.39999999999999</ele><time>2026-04-03T17:44:13.999Z</time></trkpt><trkpt lat="44.53684053367505" lon="0.9584262060641042"><ele>129.2</ele><time>2026-04-03T17:44:14.999Z</time></trkpt><trkpt lat="44.53674098472421" lon="0.9583870671430664"><ele>131.0</ele><time>2026-04-03T17:44:15.999Z</time></trkpt><trkpt lat="44.53664868440489" lon="0.9583657831201903"><ele>131.0</ele><time>2026-04-03T17:44:16.999Z</time></trkpt><trkpt lat="44.53655359343376" lon="0.9583202676923079"><ele>131.0</ele><time>2026-04-03T17:44:17.999Z</time></trkpt><trkpt lat="44.53644626118132" lon="0.9582664620798539"><ele>131.0</ele><time>2026-04-03T17:44:18.999Z</time></trkpt><trkpt lat="44.536348603759734" lon="0.9582023500979692"><ele>131.0</ele><time>2026-04-03T17:44:19.999Z</time></trkpt><trkpt lat="44.536268726955605" lon="0.9581946924032932"><ele>131.0</ele><time>2026-04-03T17:44:20.999Z</time></trkpt><trkpt lat="44.536163127184885" lon="0.9581645983894536"><ele>131.8</ele><time>2026-04-03T17:44:22.999Z</time></trkpt><trkpt lat="44.53609966599933" lon="0.9581312242054527"><ele>132.6</ele><time>2026-04-03T17:44:24.999Z</time></trkpt><trkpt lat="44.53601179989015" lon="0.9581046231032185"><ele>133.4</ele><time>2026-04-03T17:44:43Z</time></trkpt><trkpt lat="44.535879857252475" lon="0.9581563812754618"><ele>134.2</ele><time>2026-04-03T17:45:26Z</time></trkpt><trkpt lat="44.535840836336924" lon="0.9582493633184809"><ele>135.0</ele><time>2026-04-03T17:45:28Z</time></trkpt><trkpt lat="44.53577207396923" lon="0.9584180881541066"><ele>137.25</ele><time>2026-04-03T17:45:30Z</time></trkpt><trkpt lat="44.53571570887245" lon="0.9584897532551183"><ele>139.5</ele><time>2026-04-03T17:45:31Z</time></trkpt><trkpt lat="44.53580779392689" lon="0.9587548660417811"><ele>141.75</ele><time>2026-04-03T17:45:32Z</time></trkpt><trkpt lat="44.5357919783639" lon="0.9589160122380761"><ele>144.0</ele><time>2026-04-03T17:45:33Z</time></trkpt><trkpt lat="44.53578511740641" lon="0.9590847538746489"><ele>144.0</ele><time>2026-04-03T17:45:33.999Z</time></trkpt><trkpt lat="44.53577563448319" lon="0.959198699046599"><ele>144.0</ele><time>2026-04-03T17:45:34.999Z</time></trkpt><trkpt lat="44.535368104448345" lon="0.9591401845758212"><ele>144.8</ele><time>2026-04-03T17:45:35.999Z</time></trkpt><trkpt lat="44.535336407002134" lon="0.9592966577863659"><ele>145.60000000000002</ele><time>2026-04-03T17:45:36.999Z</time></trkpt><trkpt lat="44.53529404837148" lon="0.9595087625110467"><ele>146.4</ele><time>2026-04-03T17:45:38.999Z</time></trkpt><trkpt lat="44.53526035434189" lon="0.959618791336223"><ele>147.20000000000002</ele><time>2026-04-03T17:45:39.999Z</time></trkpt><trkpt lat="44.53523169273804" lon="0.9597029250650564"><ele>148.0</ele><time>2026-04-03T17:45:40.999Z</time></trkpt><trkpt lat="44.53520432822189" lon="0.9597832513055556"><ele>148.0</ele><time>2026-04-03T17:45:41.999Z</time></trkpt><trkpt lat="44.535174220496344" lon="0.9598716299991782"><ele>148.0</ele><time>2026-04-03T17:45:42.999Z</time></trkpt><trkpt lat="44.53514112859146" lon="0.9599687685062501"><ele>148.0</ele><time>2026-04-03T17:45:43.999Z</time></trkpt><trkpt lat="44.53534555121717" lon="0.9602402635049198"><ele>148.0</ele><time>2026-04-03T17:45:44.999Z</time></trkpt><trkpt lat="44.53530822131642" lon="0.9603527345248365"><ele>149.20000000000002</ele><time>2026-04-03T17:45:45.999Z</time></trkpt><trkpt lat="44.535289812945436" lon="0.9604722401662406"><ele>150.4</ele><time>2026-04-03T17:45:46.999Z</time></trkpt><trkpt lat="44.5352591533594" lon="0.9606087061355738"><ele>151.60000000000002</ele><time>2026-04-03T17:45:47.999Z</time></trkpt><trkpt lat="44.53521509881724" lon="0.9607419747594891"><ele>152.8</ele><time>2026-04-03T17:45:48.999Z</time></trkpt><trkpt lat="44.53516090693311" lon="0.9608921602953487"><ele>154.0</ele><time>2026-04-03T17:45:49.999Z</time></trkpt><trkpt lat="44.535093342729574" lon="0.9610285961490086"><ele>154.5</ele><time>2026-04-03T17:45:50.999Z</time></trkpt><trkpt lat="44.53503594055237" lon="0.9611981494896289"><ele>155.0</ele><time>2026-04-03T17:45:51.999Z</time></trkpt><trkpt lat="44.53497401809672" lon="0.9613586871466722"><ele>155.5</ele><time>2026-04-03T17:45:52.999Z</time></trkpt><trkpt lat="44.53491346218447" lon="0.9615218995347176"><ele>156.0</ele><time>2026-04-03T17:45:53.999Z</time></trkpt><trkpt lat="44.53486004375013" lon="0.9616406623225793"><ele>156.0</ele><time>2026-04-03T17:45:54.999Z</time></trkpt><trkpt lat="44.53481655485564" lon="0.9617697623222744"><ele>156.0</ele><time>2026-04-03T17:45:55.999Z</time></trkpt><trkpt lat="44.53477886237023" lon="0.9619085631573449"><ele>156.0</ele><time>2026-04-03T17:45:56.999Z</time></trkpt><trkpt lat="44.53474942841121" lon="0.9620427761014388"><ele>156.0</ele><time>2026-04-03T17:45:57.999Z</time></trkpt><trkpt lat="44.534729979511944" lon="0.962154918444011"><ele>156.0</ele><time>2026-04-03T17:45:58.999Z</time></trkpt><trkpt lat="44.53473877671913" lon="0.9622854956631134"><ele>156.0</ele><time>2026-04-03T17:45:59.999Z</time></trkpt><trkpt lat="44.53477622309823" lon="0.9624008036882769"><ele>156.0</ele><time>2026-04-03T17:46:00.999Z</time></trkpt><trkpt lat="44.53478041416379" lon="0.9625274837819714"><ele>156.0</ele><time>2026-04-03T17:46:01.999Z</time></trkpt><trkpt lat="44.53478359881693" lon="0.9626274329023211"><ele>156.0</ele><time>2026-04-03T17:46:02.999Z</time></trkpt><trkpt lat="44.534788076034936" lon="0.9627217832748054"><ele>156.0</ele><time>2026-04-03T17:46:03.999Z</time></trkpt><trkpt lat="44.534790776015996" lon="0.9628857829282947"><ele>156.0</ele><time>2026-04-03T17:46:05.999Z</time></trkpt><trkpt lat="44.534804122667595" lon="0.9629884638770545"><ele>156.8</ele><time>2026-04-03T17:46:06.999Z</time></trkpt><trkpt lat="44.53480721370332" lon="0.9631082142508901"><ele>157.6</ele><time>2026-04-03T17:46:07.999Z</time></trkpt><trkpt lat="44.5348116583275" lon="0.9632399622549023"><ele>158.4</ele><time>2026-04-03T17:46:08.999Z</time></trkpt><trkpt lat="44.53481121241933" lon="0.9633825033890286"><ele>159.2</ele><time>2026-04-03T17:46:09.999Z</time></trkpt><trkpt lat="44.53479541198164" lon="0.9634975828517228"><ele>160.0</ele><time>2026-04-03T17:46:10.999Z</time></trkpt><trkpt lat="44.534754607314326" lon="0.963604183580032"><ele>159.8</ele><time>2026-04-03T17:46:11.999Z</time></trkpt><trkpt lat="44.534678688306755" lon="0.9637154450857137"><ele>159.6</ele><time>2026-04-03T17:46:12.999Z</time></trkpt><trkpt lat="44.53463822417082" lon="0.9638260323731629"><ele>159.4</ele><time>2026-04-03T17:46:13.999Z</time></trkpt><trkpt lat="44.53460429244548" lon="0.9639097535171578"><ele>159.2</ele><time>2026-04-03T17:46:14.999Z</time></trkpt><trkpt lat="44.53453410826515" lon="0.9640071693848296"><ele>159.0</ele><time>2026-04-03T17:46:16.999Z</time></trkpt><trkpt lat="44.5344428302151" lon="0.9640758120946642"><ele>159.0</ele><time>2026-04-03T17:46:18.999Z</time></trkpt><trkpt lat="44.53441164521621" lon="0.964187308354338"><ele>159.0</ele><time>2026-04-03T17:46:20.999Z</time></trkpt><trkpt lat="44.53442670539749" lon="0.9642754515134333"><ele>159.0</ele><time>2026-04-03T17:46:22.999Z</time></trkpt><trkpt lat="44.53441117662582" lon="0.9643710066771364"><ele>159.0</ele><time>2026-04-03T17:46:24.999Z</time></trkpt><trkpt lat="44.53434849588295" lon="0.9645663801819672"><ele>159.0</ele><time>2026-04-03T17:46:26.999Z</time></trkpt><trkpt lat="44.53429791598078" lon="0.9647118480474902"><ele>159.8</ele><time>2026-04-03T17:46:27.999Z</time></trkpt><trkpt lat="44.534245498421825" lon="0.964848964480363"><ele>160.60000000000002</ele><time>2026-04-03T17:46:28.999Z</time></trkpt><trkpt lat="44.53417604294645" lon="0.9649564836994036"><ele>161.4</ele><time>2026-04-03T17:46:29.999Z</time></trkpt><trkpt lat="44.534094040820094" lon="0.9650496858544135"><ele>162.20000000000002</ele><time>2026-04-03T17:46:30.999Z</time></trkpt><trkpt lat="44.53399918652725" lon="0.9651380520814299"><ele>163.0</ele><time>2026-04-03T17:46:31.999Z</time></trkpt><trkpt lat="44.53389500563771" lon="0.9652057406106525"><ele>164.0</ele><time>2026-04-03T17:46:32.999Z</time></trkpt><trkpt lat="44.533777767990614" lon="0.9652271857519549"><ele>165.0</ele><time>2026-04-03T17:46:33.999Z</time></trkpt><trkpt lat="44.53364941873899" lon="0.965251976012788"><ele>166.0</ele><time>2026-04-03T17:46:34.999Z</time></trkpt><trkpt lat="44.53353787016265" lon="0.965315886407018"><ele>167.0</ele><time>2026-04-03T17:46:35.999Z</time></trkpt><trkpt lat="44.53346620464434" lon="0.9653995862934202"><ele>167.0</ele><time>2026-04-03T17:46:36.999Z</time></trkpt><trkpt lat="44.533407151514204" lon="0.9655173478104305"><ele>167.0</ele><time>2026-04-03T17:46:37.999Z</time></trkpt><trkpt lat="44.533351810122625" lon="0.9656098807109169"><ele>167.0</ele><time>2026-04-03T17:46:38.999Z</time></trkpt><trkpt lat="44.53329330356166" lon="0.9656979408385871"><ele>167.0</ele><time>2026-04-03T17:46:39.999Z</time></trkpt><trkpt lat="44.533240232045166" lon="0.9657750220460638"><ele>167.0</ele><time>2026-04-03T17:46:40.999Z</time></trkpt><trkpt lat="44.53318200734569" lon="0.9658548323827798"><ele>167.0</ele><time>2026-04-03T17:46:41.999Z</time></trkpt><trkpt lat="44.53310906173486" lon="0.9659544604645116"><ele>167.0</ele><time>2026-04-03T17:46:42.999Z</time></trkpt><trkpt lat="44.53304029342169" lon="0.9660232885015804"><ele>167.0</ele><time>2026-04-03T17:46:43.999Z</time></trkpt><trkpt lat="44.53298208135307" lon="0.966083631793898"><ele>167.0</ele><time>2026-04-03T17:46:44.999Z</time></trkpt><trkpt lat="44.53291681040116" lon="0.9661210317157128"><ele>167.0</ele><time>2026-04-03T17:46:45.998Z</time></trkpt><trkpt lat="44.532843863841386" lon="0.9661358853182115"><ele>167.0</ele><time>2026-04-03T17:46:46.998Z</time></trkpt><trkpt lat="44.53277105294325" lon="0.9661353423207428"><ele>167.0</ele><time>2026-04-03T17:46:47.998Z</time></trkpt><trkpt lat="44.53270167088057" lon="0.9661419089695106"><ele>167.0</ele><time>2026-04-03T17:46:49Z</time></trkpt><trkpt lat="44.53261912486277" lon="0.9661697755072844"><ele>166.5</ele><time>2026-04-03T17:46:50Z</time></trkpt><trkpt lat="44.53254364664572" lon="0.9661952822018601"><ele>166.0</ele><time>2026-04-03T17:46:51Z</time></trkpt><trkpt lat="44.53247976428101" lon="0.9662407086030055"><ele>165.5</ele><time>2026-04-03T17:46:52Z</time></trkpt><trkpt lat="44.53240718020326" lon="0.9662546787931268"><ele>165.0</ele><time>2026-04-03T17:46:53Z</time></trkpt><trkpt lat="44.53231079055285" lon="0.966263126272697"><ele>164.5</ele><time>2026-04-03T17:46:55Z</time></trkpt><trkpt lat="44.53223475228582" lon="0.9662275677455987"><ele>164.0</ele><time>2026-04-03T17:46:57Z</time></trkpt><trkpt lat="44.532165901069376" lon="0.9662232279970989"><ele>164.0</ele><time>2026-04-03T17:46:59Z</time></trkpt><trkpt lat="44.53210213564649" lon="0.9662112212450656"><ele>164.0</ele><time>2026-04-03T17:47:02Z</time></trkpt><trkpt lat="44.53203842126343" lon="0.9661991469654471"><ele>164.0</ele><time>2026-04-03T17:53:21Z</time></trkpt><trkpt lat="44.531946351528276" lon="0.9661815491074689"><ele>164.0</ele><time>2026-04-03T17:53:29Z</time></trkpt><trkpt lat="44.53187018237413" lon="0.9662474733515916"><ele>164.0</ele><time>2026-04-03T17:53:31Z</time></trkpt><trkpt lat="44.53177272295728" lon="0.9663020158649761"><ele>164.0</ele><time>2026-04-03T17:53:33Z</time></trkpt><trkpt lat="44.53170762033024" lon="0.9663267695833135"><ele>164.0</ele><time>2026-04-03T17:53:35Z</time></trkpt><trkpt lat="44.53162816153712" lon="0.9663762428111121"><ele>164.0</ele><time>2026-04-03T17:53:36Z</time></trkpt><trkpt lat="44.531551325910044" lon="0.9664209625248987"><ele>164.0</ele><time>2026-04-03T17:53:38Z</time></trkpt><trkpt lat="44.53146502150829" lon="0.9664863727895171"><ele>164.0</ele><time>2026-04-03T17:53:40Z</time></trkpt><trkpt lat="44.53135557950055" lon="0.9665482223985543"><ele>164.0</ele><time>2026-04-03T17:53:42Z</time></trkpt><trkpt lat="44.5312990222863" lon="0.9666160966572044"><ele>164.0</ele><time>2026-04-03T17:53:43Z</time></trkpt><trkpt lat="44.53122435523392" lon="0.9666880528962772"><ele>164.0</ele><time>2026-04-03T17:53:45Z</time></trkpt><trkpt lat="44.53107440597488" lon="0.9667994417275956"><ele>164.0</ele><time>2026-04-03T17:53:47Z</time></trkpt><trkpt lat="44.530991227977786" lon="0.9668541149125767"><ele>164.0</ele><time>2026-04-03T17:53:48Z</time></trkpt><trkpt lat="44.5309392106516" lon="0.9669286366071703"><ele>164.0</ele><time>2026-04-03T17:53:49Z</time></trkpt><trkpt lat="44.530905555165035" lon="0.9670321522998429"><ele>164.0</ele><time>2026-04-03T17:53:50Z</time></trkpt><trkpt lat="44.530875518918556" lon="0.9671205863069648"><ele>164.0</ele><time>2026-04-03T17:53:51Z</time></trkpt><trkpt lat="44.530829839719026" lon="0.9672756611847246"><ele>164.0</ele><time>2026-04-03T17:53:53Z</time></trkpt><trkpt lat="44.53079910233504" lon="0.9674070937558974"><ele>164.0</ele><time>2026-04-03T17:53:55Z</time></trkpt><trkpt lat="44.5307523802488" lon="0.9675228695157158"><ele>164.0</ele><time>2026-04-03T17:53:57Z</time></trkpt><trkpt lat="44.53070404060294" lon="0.9675818603905224"><ele>164.0</ele><time>2026-04-03T17:53:58Z</time></trkpt><trkpt lat="44.530618658521405" lon="0.9676246742773685"><ele>164.0</ele><time>2026-04-03T17:53:59Z</time></trkpt><trkpt lat="44.530540389737695" lon="0.9676470454155023"><ele>164.0</ele><time>2026-04-03T17:53:59.999Z</time></trkpt><trkpt lat="44.53047210857766" lon="0.9676435430163762"><ele>164.0</ele><time>2026-04-03T17:54:00.999Z</time></trkpt><trkpt lat="44.530383688365866" lon="0.9676088962262606"><ele>164.0</ele><time>2026-04-03T17:54:01.999Z</time></trkpt><trkpt lat="44.530292363911386" lon="0.9675694788941875"><ele>164.0</ele><time>2026-04-03T17:54:02.999Z</time></trkpt><trkpt lat="44.530202160214024" lon="0.9675910829174137"><ele>164.0</ele><time>2026-04-03T17:54:03.999Z</time></trkpt><trkpt lat="44.5300774023146" lon="0.9676383084261119"><ele>164.0</ele><time>2026-04-03T17:54:04.999Z</time></trkpt><trkpt lat="44.52995755589891" lon="0.967660489403883"><ele>164.0</ele><time>2026-04-03T17:54:05.999Z</time></trkpt><trkpt lat="44.529818145960256" lon="0.9676480225716784"><ele>164.0</ele><time>2026-04-03T17:54:06.999Z</time></trkpt><trkpt lat="44.52968217656318" lon="0.9676096317589788"><ele>164.0</ele><time>2026-04-03T17:54:07.999Z</time></trkpt><trkpt lat="44.52954779954578" lon="0.9675514189821514"><ele>165.0</ele><time>2026-04-03T17:54:08.999Z</time></trkpt><trkpt lat="44.52943334443212" lon="0.9675034055276046"><ele>166.0</ele><time>2026-04-03T17:54:09.999Z</time></trkpt><trkpt lat="44.52932256979641" lon="0.9674443951629544"><ele>167.0</ele><time>2026-04-03T17:54:10.999Z</time></trkpt><trkpt lat="44.529225159590865" lon="0.9673458136816026"><ele>168.0</ele><time>2026-04-03T17:54:11.999Z</time></trkpt><trkpt lat="44.52914077866633" lon="0.9672861361679832"><ele>168.0</ele><time>2026-04-03T17:54:12.999Z</time></trkpt><trkpt lat="44.52906892469322" lon="0.9672260713581355"><ele>168.0</ele><time>2026-04-03T17:54:14.999Z</time></trkpt><trkpt lat="44.52899021431805" lon="0.9672050914097158"><ele>168.0</ele><time>2026-04-03T17:54:16.999Z</time></trkpt><trkpt lat="44.52892111212546" lon="0.9671843544785498"><ele>168.0</ele><time>2026-04-03T17:54:20.999Z</time></trkpt><trkpt lat="44.52884513429126" lon="0.967170150011714"><ele>168.0</ele><time>2026-04-03T17:54:23.999Z</time></trkpt><trkpt lat="44.528770215774784" lon="0.9671427853292778"><ele>168.0</ele><time>2026-04-03T17:54:25.999Z</time></trkpt><trkpt lat="44.52862807421545" lon="0.9671343695533307"><ele>171.0</ele><time>2026-04-03T17:54:27.999Z</time></trkpt><trkpt lat="44.52852652552689" lon="0.9671299846820578"><ele>174.0</ele><time>2026-04-03T17:54:28.999Z</time></trkpt><trkpt lat="44.528427191266324" lon="0.9670721433155548"><ele>177.0</ele><time>2026-04-03T17:54:29.999Z</time></trkpt><trkpt lat="44.52830737063385" lon="0.9670051679993367"><ele>180.0</ele><time>2026-04-03T17:54:30.999Z</time></trkpt><trkpt lat="44.528183186753495" lon="0.9669499449228525"><ele>180.0</ele><time>2026-04-03T17:54:31.999Z</time></trkpt><trkpt lat="44.52805769622542" lon="0.9668815632486583"><ele>180.0</ele><time>2026-04-03T17:54:32.999Z</time></trkpt><trkpt lat="44.52791607177503" lon="0.9668027456970744"><ele>180.0</ele><time>2026-04-03T17:54:33.999Z</time></trkpt><trkpt lat="44.52778045428082" lon="0.9667300086088183"><ele>180.0</ele><time>2026-04-03T17:54:34.999Z</time></trkpt><trkpt lat="44.52765492167113" lon="0.9666350931832227"><ele>178.2</ele><time>2026-04-03T17:54:35.999Z</time></trkpt><trkpt lat="44.527536862176795" lon="0.9665440226866979"><ele>176.4</ele><time>2026-04-03T17:54:36.999Z</time></trkpt><trkpt lat="44.527451318672114" lon="0.9664576486464815"><ele>174.60000000000002</ele><time>2026-04-03T17:54:37.999Z</time></trkpt><trkpt lat="44.52738714626458" lon="0.9664124236225352"><ele>172.8</ele><time>2026-04-03T17:54:38.999Z</time></trkpt><trkpt lat="44.52731031722883" lon="0.966371701685691"><ele>171.0</ele><time>2026-04-03T17:54:39.999Z</time></trkpt><trkpt lat="44.52723330912905" lon="0.9663386829481521"><ele>171.0</ele><time>2026-04-03T17:54:40.999Z</time></trkpt><trkpt lat="44.52716736096103" lon="0.9662967952763629"><ele>171.0</ele><time>2026-04-03T17:54:41.999Z</time></trkpt><trkpt lat="44.52711961880993" lon="0.9662344341554743"><ele>171.0</ele><time>2026-04-03T17:54:42.999Z</time></trkpt><trkpt lat="44.52708836817541" lon="0.9661507709408648"><ele>171.0</ele><time>2026-04-03T17:54:43.999Z</time></trkpt><trkpt lat="44.52710694151225" lon="0.9659956012302381"><ele>171.0</ele><time>2026-04-03T17:54:45.999Z</time></trkpt><trkpt lat="44.52705898046123" lon="0.9658505714639981"><ele>171.0</ele><time>2026-04-03T17:54:49.999Z</time></trkpt><trkpt lat="44.52731394860725" lon="0.9658341921877845"><ele>169.99999999999997</ele><time>2026-04-03T17:54:50.999Z</time></trkpt><trkpt lat="44.527374887144575" lon="0.9658084513289296"><ele>169.0</ele><time>2026-04-03T17:54:51.999Z</time></trkpt><trkpt lat="44.527430881359756" lon="0.965763703555748"><ele>168.0</ele><time>2026-04-03T17:54:52.999Z</time></trkpt><trkpt lat="44.52749233870101" lon="0.9657226744374774"><ele>167.0</ele><time>2026-04-03T17:54:53.999Z</time></trkpt><trkpt lat="44.52757057367654" lon="0.9656940959656152"><ele>166.0</ele><time>2026-04-03T17:54:54.999Z</time></trkpt><trkpt lat="44.527631570199205" lon="0.9656599572302463"><ele>164.99999999999997</ele><time>2026-04-03T17:54:55.999Z</time></trkpt><trkpt lat="44.52770878776392" lon="0.96563589506378"><ele>164.0</ele><time>2026-04-03T17:54:56.999Z</time></trkpt><trkpt lat="44.527790896777205" lon="0.9655968715298406"><ele>164.0</ele><time>2026-04-03T17:54:57.999Z</time></trkpt><trkpt lat="44.52787303104786" lon="0.965567741687462"><ele>164.0</ele><time>2026-04-03T17:54:58.999Z</time></trkpt><trkpt lat="44.527983069717926" lon="0.9655264832166297"><ele>164.0</ele><time>2026-04-03T17:54:59.999Z</time></trkpt><trkpt lat="44.5281010577972" lon="0.9654650501990681"><ele>164.0</ele><time>2026-04-03T17:55:00.999Z</time></trkpt><trkpt lat="44.52822644790835" lon="0.9653947936111757"><ele>162.5</ele><time>2026-04-03T17:55:01.999Z</time></trkpt><trkpt lat="44.5283565709245" lon="0.9653243606984816"><ele>161.0</ele><time>2026-04-03T17:55:02.999Z</time></trkpt><trkpt lat="44.52848943075368" lon="0.9652581837311923"><ele>159.5</ele><time>2026-04-03T17:55:03.999Z</time></trkpt><trkpt lat="44.5286076084768" lon="0.9651887903397675"><ele>158.0</ele><time>2026-04-03T17:55:04.999Z</time></trkpt><trkpt lat="44.528695386667614" lon="0.9650949849556839"><ele>156.33333333333331</ele><time>2026-04-03T17:55:05.999Z</time></trkpt><trkpt lat="44.5287806569907" lon="0.9650268072696002"><ele>154.66666666666666</ele><time>2026-04-03T17:55:06.999Z</time></trkpt><trkpt lat="44.52885341934014" lon="0.9649824366237462"><ele>153.0</ele><time>2026-04-03T17:55:07.999Z</time></trkpt><trkpt lat="44.52890246192562" lon="0.9649032405080084"><ele>151.33333333333334</ele><time>2026-04-03T17:55:08.998Z</time></trkpt><trkpt lat="44.52892474393856" lon="0.9647801811310891"><ele>149.66666666666669</ele><time>2026-04-03T17:55:10.998Z</time></trkpt><trkpt lat="44.528895505071105" lon="0.9646675646367864"><ele>148.0</ele><time>2026-04-03T17:55:13Z</time></trkpt><trkpt lat="44.528852609638285" lon="0.9645496870052996"><ele>148.0</ele><time>2026-04-03T17:55:15Z</time></trkpt><trkpt lat="44.52886059935987" lon="0.964460974757089"><ele>148.0</ele><time>2026-04-03T17:55:18Z</time></trkpt><trkpt lat="44.52889314920122" lon="0.9643648730942908"><ele>148.0</ele><time>2026-04-03T17:55:22Z</time></trkpt><trkpt lat="44.5289418684804" lon="0.9642684241854068"><ele>148.0</ele><time>2026-04-03T17:55:24Z</time></trkpt><trkpt lat="44.529016652783916" lon="0.964099273091436"><ele>148.0</ele><time>2026-04-03T17:55:26Z</time></trkpt><trkpt lat="44.5290630100244" lon="0.9639699483788369"><ele>147.6</ele><time>2026-04-03T17:55:27Z</time></trkpt><trkpt lat="44.5291058131769" lon="0.9638572160926215"><ele>147.20000000000002</ele><time>2026-04-03T17:55:28Z</time></trkpt><trkpt lat="44.52915755201146" lon="0.9637609339160573"><ele>146.8</ele><time>2026-04-03T17:55:29Z</time></trkpt><trkpt lat="44.52921674504973" lon="0.9636806031161399"><ele>146.4</ele><time>2026-04-03T17:55:30Z</time></trkpt><trkpt lat="44.52929904634489" lon="0.9636092424543785"><ele>146.0</ele><time>2026-04-03T17:55:31Z</time></trkpt><trkpt lat="44.52938135212759" lon="0.9635101859206455"><ele>146.75</ele><time>2026-04-03T17:55:32Z</time></trkpt><trkpt lat="44.52941829115394" lon="0.9633577717835841"><ele>147.5</ele><time>2026-04-03T17:55:33Z</time></trkpt><trkpt lat="44.52944672055321" lon="0.9631857345285947"><ele>148.25</ele><time>2026-04-03T17:55:34Z</time></trkpt><trkpt lat="44.52944737233999" lon="0.9630158175224284"><ele>149.0</ele><time>2026-04-03T17:55:35Z</time></trkpt><trkpt lat="44.529452799251246" lon="0.9628773242963328"><ele>149.0</ele><time>2026-04-03T17:55:36Z</time></trkpt><trkpt lat="44.52945075821926" lon="0.9627676820339938"><ele>149.0</ele><time>2026-04-03T17:55:37Z</time></trkpt><trkpt lat="44.52945931729931" lon="0.962668772975303"><ele>149.0</ele><time>2026-04-03T17:55:38Z</time></trkpt><trkpt lat="44.529481558924346" lon="0.9625064727976312"><ele>149.0</ele><time>2026-04-03T17:55:40Z</time></trkpt><trkpt lat="44.52952319525904" lon="0.9623680785443454"><ele>149.0</ele><time>2026-04-03T17:55:42Z</time></trkpt><trkpt lat="44.529571003392896" lon="0.9623035406448647"><ele>149.0</ele><time>2026-04-03T17:55:43Z</time></trkpt><trkpt lat="44.529626563068575" lon="0.9622216703351012"><ele>148.8</ele><time>2026-04-03T17:55:44Z</time></trkpt><trkpt lat="44.52970502755713" lon="0.9621233582018299"><ele>148.60000000000002</ele><time>2026-04-03T17:55:45Z</time></trkpt><trkpt lat="44.529772114218" lon="0.962015418466942"><ele>148.4</ele><time>2026-04-03T17:55:46Z</time></trkpt><trkpt lat="44.529817882319286" lon="0.9619448248235704"><ele>148.20000000000002</ele><time>2026-04-03T17:55:47Z</time></trkpt><trkpt lat="44.529860755685775" lon="0.9617935486428948"><ele>148.0</ele><time>2026-04-03T17:55:49Z</time></trkpt><trkpt lat="44.52990163135442" lon="0.9616554025969759"><ele>148.0</ele><time>2026-04-03T17:55:51Z</time></trkpt><trkpt lat="44.52996157211888" lon="0.9615236225715047"><ele>148.0</ele><time>2026-04-03T17:55:53Z</time></trkpt><trkpt lat="44.52998773586759" lon="0.9614011271169093"><ele>148.0</ele><time>2026-04-03T17:55:54Z</time></trkpt><trkpt lat="44.5300261613594" lon="0.9612501589334919"><ele>148.0</ele><time>2026-04-03T17:55:55Z</time></trkpt><trkpt lat="44.530054404026146" lon="0.9610939383631845"><ele>148.0</ele><time>2026-04-03T17:55:56Z</time></trkpt><trkpt lat="44.53009175379023" lon="0.9609894783622696"><ele>148.0</ele><time>2026-04-03T17:55:57Z</time></trkpt><trkpt lat="44.53015056319095" lon="0.9609273666725946"><ele>148.0</ele><time>2026-04-03T17:55:58Z</time></trkpt><trkpt lat="44.53018204551149" lon="0.9607505810115329"><ele>148.0</ele><time>2026-04-03T17:55:59Z</time></trkpt><trkpt lat="44.53021896472555" lon="0.9606089891837846"><ele>148.0</ele><time>2026-04-03T17:56:00Z</time></trkpt><trkpt lat="44.5302412192128" lon="0.9604567699046602"><ele>148.0</ele><time>2026-04-03T17:56:01Z</time></trkpt><trkpt lat="44.53022927245935" lon="0.9602995479406802"><ele>148.33333333333334</ele><time>2026-04-03T17:56:01.999Z</time></trkpt><trkpt lat="44.530221840077004" lon="0.9601743234651694"><ele>148.66666666666669</ele><time>2026-04-03T17:56:02.999Z</time></trkpt><trkpt lat="44.530214576531655" lon="0.9600738160547687"><ele>149.0</ele><time>2026-04-03T17:56:03.999Z</time></trkpt><trkpt lat="44.53020706964399" lon="0.9599681354544806"><ele>149.33333333333334</ele><time>2026-04-03T17:56:05.999Z</time></trkpt><trkpt lat="44.530185462946484" lon="0.9598582017100424"><ele>149.66666666666666</ele><time>2026-04-03T17:56:12.999Z</time></trkpt><trkpt lat="44.530180284685414" lon="0.9596997335820429"><ele>150.0</ele><time>2026-04-03T17:56:14.999Z</time></trkpt><trkpt lat="44.530228309856355" lon="0.9596020362451404"><ele>150.0</ele><time>2026-04-03T17:56:16.999Z</time></trkpt><trkpt lat="44.53028949508569" lon="0.9595314906685045"><ele>150.0</ele><time>2026-04-03T17:56:17.999Z</time></trkpt><trkpt lat="44.53021864024072" lon="0.9593960889986846"><ele>150.0</ele><time>2026-04-03T17:56:19.999Z</time></trkpt><trkpt lat="44.530197949171196" lon="0.9593046452312934"><ele>150.0</ele><time>2026-04-03T17:56:21.999Z</time></trkpt><trkpt lat="44.530169478336" lon="0.9591991436555265"><ele>150.0</ele><time>2026-04-03T17:56:36.999Z</time></trkpt><trkpt lat="44.53022379452836" lon="0.959088864430889"><ele>150.0</ele><time>2026-04-03T17:56:37.999Z</time></trkpt><trkpt lat="44.53027385201025" lon="0.9590209132782984"><ele>149.33333333333334</ele><time>2026-04-03T17:56:38.999Z</time></trkpt><trkpt lat="44.53033863418128" lon="0.9589626509798672"><ele>148.66666666666666</ele><time>2026-04-03T17:56:39.999Z</time></trkpt><trkpt lat="44.53037905376943" lon="0.9588774747650058"><ele>148.0</ele><time>2026-04-03T17:56:40.999Z</time></trkpt><trkpt lat="44.53039480732805" lon="0.958776872560351"><ele>147.33333333333331</ele><time>2026-04-03T17:56:41.999Z</time></trkpt><trkpt lat="44.530412461132414" lon="0.9586910515995117"><ele>146.66666666666666</ele><time>2026-04-03T17:56:42.999Z</time></trkpt><trkpt lat="44.53047140319529" lon="0.9586268623229519"><ele>146.0</ele><time>2026-04-03T17:56:44.999Z</time></trkpt><trkpt lat="44.53055799458626" lon="0.9586010096537624"><ele>144.8</ele><time>2026-04-03T17:56:46.999Z</time></trkpt><trkpt lat="44.530632813895785" lon="0.9585650832448526"><ele>143.6</ele><time>2026-04-03T17:56:48.999Z</time></trkpt><trkpt lat="44.530730739092526" lon="0.958515144125397"><ele>142.4</ele><time>2026-04-03T17:56:51.999Z</time></trkpt><trkpt lat="44.530800568626056" lon="0.9584825734417387"><ele>141.2</ele><time>2026-04-03T17:56:53.999Z</time></trkpt><trkpt lat="44.53070728499187" lon="0.9583413889396102"><ele>140.0</ele><time>2026-04-03T17:56:56.999Z</time></trkpt><trkpt lat="44.53064779787439" lon="0.9582848998846941"><ele>140.0</ele><time>2026-04-03T17:56:58.999Z</time></trkpt><trkpt lat="44.53058887521821" lon="0.9582315689925212"><ele>140.0</ele><time>2026-04-03T17:56:59.999Z</time></trkpt><trkpt lat="44.53046441319539" lon="0.9581093589908916"><ele>140.0</ele><time>2026-04-03T17:57:01.999Z</time></trkpt><trkpt lat="44.530360203446634" lon="0.9580346354519353"><ele>140.0</ele><time>2026-04-03T17:57:02.999Z</time></trkpt><trkpt lat="44.5302496457001" lon="0.9579202134995344"><ele>140.25</ele><time>2026-04-03T17:57:03.999Z</time></trkpt><trkpt lat="44.53013610484839" lon="0.9578128196334459"><ele>140.5</ele><time>2026-04-03T17:57:04.999Z</time></trkpt><trkpt lat="44.53005376606789" lon="0.9577119115268572"><ele>140.75</ele><time>2026-04-03T17:57:05.999Z</time></trkpt><trkpt lat="44.52996418418993" lon="0.9575949115686446"><ele>141.0</ele><time>2026-04-03T17:57:06.999Z</time></trkpt><trkpt lat="44.529893512291565" lon="0.9574591192774187"><ele>140.4</ele><time>2026-04-03T17:57:07.999Z</time></trkpt><trkpt lat="44.52984967002674" lon="0.9573198508834333"><ele>139.8</ele><time>2026-04-03T17:57:08.999Z</time></trkpt><trkpt lat="44.5298501837917" lon="0.9572020841566774"><ele>139.20000000000002</ele><time>2026-04-03T17:57:09.999Z</time></trkpt><trkpt lat="44.5298963989547" lon="0.9570483308423332"><ele>138.6</ele><time>2026-04-03T17:57:10.999Z</time></trkpt><trkpt lat="44.52989111842173" lon="0.9568749205987848"><ele>138.0</ele><time>2026-04-03T17:57:11.998Z</time></trkpt><trkpt lat="44.52986727251954" lon="0.9567006510279138"><ele>138.0</ele><time>2026-04-03T17:57:12.998Z</time></trkpt><trkpt lat="44.52978637682312" lon="0.9565792704184091"><ele>138.0</ele><time>2026-04-03T17:57:13.998Z</time></trkpt><trkpt lat="44.5297025450222" lon="0.9564542985975474"><ele>138.0</ele><time>2026-04-03T17:57:14.998Z</time></trkpt><trkpt lat="44.52966102314831" lon="0.956318716473491"><ele>138.0</ele><time>2026-04-03T17:57:15.998Z</time></trkpt><trkpt lat="44.529583975447196" lon="0.956170687269961"><ele>138.8</ele><time>2026-04-03T17:57:16.998Z</time></trkpt><trkpt lat="44.5295394038203" lon="0.9560263876635279"><ele>139.60000000000002</ele><time>2026-04-03T17:57:17.998Z</time></trkpt><trkpt lat="44.52948042680714" lon="0.9558943940198075"><ele>140.39999999999998</ele><time>2026-04-03T17:57:19Z</time></trkpt><trkpt lat="44.52941805465262" lon="0.955778609601583"><ele>141.2</ele><time>2026-04-03T17:57:20Z</time></trkpt><trkpt lat="44.52936149543193" lon="0.9556541378745557"><ele>142.0</ele><time>2026-04-03T17:57:21Z</time></trkpt><trkpt lat="44.529299461303744" lon="0.955552920326232"><ele>142.0</ele><time>2026-04-03T17:57:22Z</time></trkpt><trkpt lat="44.52922481556797" lon="0.9554223782612112"><ele>142.0</ele><time>2026-04-03T17:57:23Z</time></trkpt><trkpt lat="44.52909193283557" lon="0.9553396866013205"><ele>142.0</ele><time>2026-04-03T17:57:24Z</time></trkpt><trkpt lat="44.52895495963678" lon="0.9552640614869552"><ele>142.0</ele><time>2026-04-03T17:57:25Z</time></trkpt><trkpt lat="44.52880441357691" lon="0.9551745656494991"><ele>142.66666666666669</ele><time>2026-04-03T17:57:26Z</time></trkpt><trkpt lat="44.52865414496497" lon="0.9550771925199334"><ele>143.33333333333334</ele><time>2026-04-03T17:57:27Z</time></trkpt><trkpt lat="44.52851620034056" lon="0.9549680217366644"><ele>144.0</ele><time>2026-04-03T17:57:28Z</time></trkpt><trkpt lat="44.528369202880576" lon="0.9548470630430845"><ele>142.0</ele><time>2026-04-03T17:57:29Z</time></trkpt><trkpt lat="44.52821451084147" lon="0.9547288414122322"><ele>140.0</ele><time>2026-04-03T17:57:30Z</time></trkpt><trkpt lat="44.52807638335755" lon="0.9546119019837183"><ele>138.0</ele><time>2026-04-03T17:57:31Z</time></trkpt><trkpt lat="44.52796298992007" lon="0.9544796960939773"><ele>138.8</ele><time>2026-04-03T17:57:32Z</time></trkpt><trkpt lat="44.52784874372676" lon="0.9543762473487258"><ele>139.60000000000002</ele><time>2026-04-03T17:57:33Z</time></trkpt><trkpt lat="44.52774038838924" lon="0.9543165795121459"><ele>140.39999999999998</ele><time>2026-04-03T17:57:34Z</time></trkpt><trkpt lat="44.527651796042804" lon="0.9542573420176411"><ele>141.2</ele><time>2026-04-03T17:57:35Z</time></trkpt><trkpt lat="44.5275878686747" lon="0.9542493478363102"><ele>142.0</ele><time>2026-04-03T17:57:36Z</time></trkpt><trkpt lat="44.527504807448324" lon="0.954217675089594"><ele>140.6</ele><time>2026-04-03T17:57:38Z</time></trkpt><trkpt lat="44.52740910083844" lon="0.9541780201384796"><ele>139.2</ele><time>2026-04-03T17:57:47Z</time></trkpt><trkpt lat="44.52731485375634" lon="0.9541236834196869"><ele>137.8</ele><time>2026-04-03T17:57:48Z</time></trkpt><trkpt lat="44.52724328026399" lon="0.9540981124050167"><ele>136.4</ele><time>2026-04-03T17:57:49Z</time></trkpt><trkpt lat="44.52717313107872" lon="0.9540743591041195"><ele>135.0</ele><time>2026-04-03T17:57:50Z</time></trkpt><trkpt lat="44.527034394296194" lon="0.9540310236142427"><ele>134.0</ele><time>2026-04-03T17:57:52Z</time></trkpt><trkpt lat="44.52694597964429" lon="0.9540224351132779"><ele>133.0</ele><time>2026-04-03T17:57:53Z</time></trkpt><trkpt lat="44.52685706468951" lon="0.9539981564989696"><ele>132.0</ele><time>2026-04-03T17:57:54Z</time></trkpt><trkpt lat="44.52677896242334" lon="0.9539823845250232"><ele>131.0</ele><time>2026-04-03T17:57:55Z</time></trkpt><trkpt lat="44.52669541229894" lon="0.953960948344425"><ele>130.0</ele><time>2026-04-03T17:57:56Z</time></trkpt><trkpt lat="44.52657386675042" lon="0.9539592828557707"><ele>130.0</ele><time>2026-04-03T17:57:58Z</time></trkpt><trkpt lat="44.52648487271103" lon="0.9539460449893246"><ele>130.0</ele><time>2026-04-03T17:58:00Z</time></trkpt><trkpt lat="44.526447953636925" lon="0.9542141313306894"><ele>130.0</ele><time>2026-04-03T17:58:04Z</time></trkpt><trkpt lat="44.52640164886712" lon="0.9543356750959817"><ele>130.0</ele><time>2026-04-03T17:58:05Z</time></trkpt><trkpt lat="44.526323320742556" lon="0.9544668415935766"><ele>131.0</ele><time>2026-04-03T17:58:06Z</time></trkpt><trkpt lat="44.52625805127113" lon="0.9546155598518022"><ele>132.0</ele><time>2026-04-03T17:58:06.999Z</time></trkpt><trkpt lat="44.52619808189469" lon="0.9546905424780006"><ele>133.0</ele><time>2026-04-03T17:58:07.999Z</time></trkpt><trkpt lat="44.526137233990674" lon="0.9547843576328086"><ele>134.0</ele><time>2026-04-03T17:58:08.999Z</time></trkpt><trkpt lat="44.526144056639794" lon="0.9549302434322344"><ele>135.0</ele><time>2026-04-03T17:58:10.999Z</time></trkpt><trkpt lat="44.52622162187747" lon="0.9550302259928041"><ele>136.4</ele><time>2026-04-03T17:58:11.999Z</time></trkpt><trkpt lat="44.526309366582694" lon="0.9551016061802706"><ele>137.8</ele><time>2026-04-03T17:58:12.999Z</time></trkpt><trkpt lat="44.52638559581444" lon="0.9551049644234046"><ele>139.2</ele><time>2026-04-03T17:58:13.999Z</time></trkpt><trkpt lat="44.52642668960763" lon="0.9551945593575385"><ele>140.6</ele><time>2026-04-03T17:58:16.999Z</time></trkpt><trkpt lat="44.52652580640487" lon="0.9553084242620407"><ele>142.0</ele><time>2026-04-03T17:58:23.999Z</time></trkpt><trkpt lat="44.52661335882422" lon="0.9553466504030678"><ele>142.0</ele><time>2026-04-03T17:58:24.999Z</time></trkpt><trkpt lat="44.526676005892455" lon="0.9553924365442735"><ele>142.0</ele><time>2026-04-03T17:58:25.999Z</time></trkpt><trkpt lat="44.52675362387138" lon="0.9555049048355261"><ele>142.0</ele><time>2026-04-03T17:58:26.999Z</time></trkpt><trkpt lat="44.52683181743762" lon="0.9555915853157114"><ele>142.0</ele><time>2026-04-03T17:58:27.999Z</time></trkpt><trkpt lat="44.526909050971625" lon="0.9556669964930352"><ele>142.0</ele><time>2026-04-03T17:58:28.999Z</time></trkpt><trkpt lat="44.52691301771372" lon="0.9557862652915097"><ele>142.0</ele><time>2026-04-03T17:58:30.999Z</time></trkpt><trkpt lat="44.52685763740316" lon="0.9558631582216929"><ele>142.0</ele><time>2026-04-03T17:58:31.999Z</time></trkpt><trkpt lat="44.526770734761875" lon="0.9559489803895631"><ele>142.0</ele><time>2026-04-03T17:58:32.999Z</time></trkpt><trkpt lat="44.52669885234909" lon="0.9560507748006187"><ele>142.0</ele><time>2026-04-03T17:58:33.999Z</time></trkpt><trkpt lat="44.52665037077935" lon="0.9561440656283758"><ele>142.0</ele><time>2026-04-03T17:58:34.999Z</time></trkpt><trkpt lat="44.52662191968459" lon="0.9562344806571439"><ele>142.0</ele><time>2026-04-03T17:58:35.999Z</time></trkpt><trkpt lat="44.52665242996408" lon="0.9563898936209622"><ele>143.16666666666669</ele><time>2026-04-03T17:58:37.999Z</time></trkpt><trkpt lat="44.52667395109018" lon="0.9564936873963898"><ele>144.33333333333334</ele><time>2026-04-03T17:58:38.999Z</time></trkpt><trkpt lat="44.52667937633102" lon="0.9566173836759139"><ele>145.5</ele><time>2026-04-03T17:58:39.999Z</time></trkpt><trkpt lat="44.52668740679202" lon="0.9567112301603536"><ele>146.66666666666666</ele><time>2026-04-03T17:58:40.999Z</time></trkpt><trkpt lat="44.52668443058247" lon="0.9568145922289003"><ele>147.83333333333331</ele><time>2026-04-03T17:58:41.999Z</time></trkpt><trkpt lat="44.526694144831936" lon="0.9569769284620889"><ele>149.0</ele><time>2026-04-03T17:58:42.999Z</time></trkpt><trkpt lat="44.526676829903224" lon="0.9571438130142778"><ele>150.0</ele><time>2026-04-03T17:58:43.999Z</time></trkpt><trkpt lat="44.5266640204224" lon="0.9572774008656159"><ele>151.0</ele><time>2026-04-03T17:58:44.999Z</time></trkpt><trkpt lat="44.526638313734644" lon="0.9574225384448142"><ele>152.0</ele><time>2026-04-03T17:58:46.999Z</time></trkpt><trkpt lat="44.5265794192462" lon="0.9574582526135264"><ele>153.0</ele><time>2026-04-03T17:58:47.999Z</time></trkpt><trkpt lat="44.52649635869862" lon="0.9574281991468749"><ele>154.0</ele><time>2026-04-03T17:58:48.999Z</time></trkpt><trkpt lat="44.526422638723126" lon="0.9574102484225989"><ele>155.0</ele><time>2026-04-03T17:58:49.999Z</time></trkpt><trkpt lat="44.526343612078506" lon="0.957442579152387"><ele>155.0</ele><time>2026-04-03T17:58:51.999Z</time></trkpt><trkpt lat="44.526275969758935" lon="0.9574105271251682"><ele>155.0</ele><time>2026-04-03T17:58:52.999Z</time></trkpt><trkpt lat="44.52619299852635" lon="0.9573515348306113"><ele>155.0</ele><time>2026-04-03T17:58:53.999Z</time></trkpt><trkpt lat="44.52609058373576" lon="0.9572947684783774"><ele>155.0</ele><time>2026-04-03T17:58:54.999Z</time></trkpt><trkpt lat="44.5260016437811" lon="0.9572904723113849"><ele>155.0</ele><time>2026-04-03T17:58:55.999Z</time></trkpt><trkpt lat="44.52591146484082" lon="0.9572080016429088"><ele>157.4</ele><time>2026-04-03T17:58:57.999Z</time></trkpt><trkpt lat="44.525831418587394" lon="0.9571815671444768"><ele>159.8</ele><time>2026-04-03T17:58:59.999Z</time></trkpt><trkpt lat="44.525752230974994" lon="0.9571420750057708"><ele>162.2</ele><time>2026-04-03T17:59:01.999Z</time></trkpt><trkpt lat="44.525665373761" lon="0.9571061668956732"><ele>164.6</ele><time>2026-04-03T17:59:03.999Z</time></trkpt><trkpt lat="44.52557916115679" lon="0.957078868527701"><ele>167.0</ele><time>2026-04-03T17:59:05.999Z</time></trkpt><trkpt lat="44.525488410739456" lon="0.9569874180653664"><ele>167.0</ele><time>2026-04-03T17:59:09.999Z</time></trkpt><trkpt lat="44.52542575838941" lon="0.9569666515243866"><ele>167.0</ele><time>2026-04-03T17:59:12.999Z</time></trkpt><trkpt lat="44.52535903483544" lon="0.9569331506572937"><ele>167.0</ele><time>2026-04-03T18:01:31Z</time></trkpt><trkpt lat="44.52529996315135" lon="0.9568901012095222"><ele>167.0</ele><time>2026-04-03T18:01:38Z</time></trkpt><trkpt lat="44.525201335785816" lon="0.9568538058448833"><ele>167.0</ele><time>2026-04-03T18:14:01.998Z</time></trkpt><trkpt lat="44.52513323062858" lon="0.9568207809917255"><ele>167.0</ele><time>2026-04-03T18:14:02.998Z</time></trkpt><trkpt lat="44.525071047921465" lon="0.9567730803766314"><ele>167.0</ele><time>2026-04-03T18:14:04.998Z</time></trkpt><trkpt lat="44.52514122519964" lon="0.9568083788598948"><ele>167.0</ele><time>2026-04-03T18:14:16Z</time></trkpt><trkpt lat="44.5252267006318" lon="0.9568301316931732"><ele>167.0</ele><time>2026-04-03T18:14:18Z</time></trkpt><trkpt lat="44.525296980548866" lon="0.9568574840162325"><ele>167.0</ele><time>2026-04-03T18:14:19Z</time></trkpt><trkpt lat="44.5253556055441" lon="0.9568899253872845"><ele>167.0</ele><time>2026-04-03T18:14:21Z</time></trkpt><trkpt lat="44.52544563357552" lon="0.9568838139524544"><ele>167.0</ele><time>2026-04-03T18:15:34.999Z</time></trkpt><trkpt lat="44.52549893828483" lon="0.9569344032688382"><ele>167.0</ele><time>2026-04-03T18:15:39.999Z</time></trkpt><trkpt lat="44.525342216040784" lon="0.9569097998080208"><ele>167.0</ele><time>2026-04-03T18:17:03.999Z</time></trkpt><trkpt lat="44.52522385795643" lon="0.9568496057151131"><ele>167.0</ele><time>2026-04-03T18:17:05.999Z</time></trkpt><trkpt lat="44.525137286036774" lon="0.9568205724529316"><ele>167.0</ele><time>2026-04-03T18:17:06.999Z</time></trkpt><trkpt lat="44.52504348855839" lon="0.9567785162185053"><ele>167.0</ele><time>2026-04-03T18:17:08.999Z</time></trkpt><trkpt lat="44.52494654464677" lon="0.9566963420205189"><ele>167.0</ele><time>2026-04-03T18:17:10.999Z</time></trkpt><trkpt lat="44.524860757931755" lon="0.9566750658752644"><ele>167.66666666666666</ele><time>2026-04-03T18:17:12.999Z</time></trkpt><trkpt lat="44.52480157095509" lon="0.9567686522454829"><ele>168.33333333333331</ele><time>2026-04-03T18:17:15.999Z</time></trkpt><trkpt lat="44.52475848508099" lon="0.9568722247042012"><ele>169.0</ele><time>2026-04-03T18:17:18.999Z</time></trkpt><trkpt lat="44.524763090332655" lon="0.9569646052503938"><ele>169.66666666666666</ele><time>2026-04-03T18:17:47.999Z</time></trkpt><trkpt lat="44.52475691519361" lon="0.957091013842098"><ele>170.33333333333334</ele><time>2026-04-03T18:17:51.999Z</time></trkpt><trkpt lat="44.52479788319368" lon="0.9572416893385295"><ele>171.0</ele><time>2026-04-03T18:17:53.999Z</time></trkpt><trkpt lat="44.52478142893275" lon="0.9573443926343306"><ele>171.0</ele><time>2026-04-03T18:17:55.999Z</time></trkpt><trkpt lat="44.52471096320299" lon="0.9573628619162361"><ele>171.0</ele><time>2026-04-03T18:17:56.999Z</time></trkpt><trkpt lat="44.524611141864526" lon="0.9574235504675694"><ele>171.0</ele><time>2026-04-03T18:17:58.999Z</time></trkpt><trkpt lat="44.52452480676491" lon="0.9574859597669172"><ele>171.0</ele><time>2026-04-03T18:18:00.999Z</time></trkpt><trkpt lat="44.52447685557099" lon="0.9573926902549473"><ele>171.0</ele><time>2026-04-03T18:18:02.999Z</time></trkpt><trkpt lat="44.52439289221619" lon="0.9573145649227326"><ele>168.0</ele><time>2026-04-03T18:18:04.999Z</time></trkpt><trkpt lat="44.52431395283247" lon="0.9572336257145466"><ele>165.0</ele><time>2026-04-03T18:18:07.998Z</time></trkpt><trkpt lat="44.524310142520555" lon="0.9570873358909124"><ele>162.0</ele><time>2026-04-03T18:18:12.998Z</time></trkpt><trkpt lat="44.52429120429793" lon="0.9569584679402087"><ele>159.0</ele><time>2026-04-03T18:18:14.998Z</time></trkpt><trkpt lat="44.52419183275463" lon="0.956894786373642"><ele>156.0</ele><time>2026-04-03T18:18:16.998Z</time></trkpt><trkpt lat="44.52410553585418" lon="0.9568842932625623"><ele>156.0</ele><time>2026-04-03T18:18:17.998Z</time></trkpt><trkpt lat="44.52400884403518" lon="0.9569160400705217"><ele>156.0</ele><time>2026-04-03T18:18:19Z</time></trkpt><trkpt lat="44.52392630111421" lon="0.9568835981225579"><ele>156.0</ele><time>2026-04-03T18:18:20Z</time></trkpt><trkpt lat="44.523839582736734" lon="0.9568357694858555"><ele>156.0</ele><time>2026-04-03T18:18:21Z</time></trkpt><trkpt lat="44.52376453860955" lon="0.9568001370121227"><ele>156.0</ele><time>2026-04-03T18:18:22Z</time></trkpt><trkpt lat="44.52368665378884" lon="0.956742770487205"><ele>156.0</ele><time>2026-04-03T18:18:24Z</time></trkpt><trkpt lat="44.52370183330116" lon="0.9565914767589525"><ele>153.66666666666666</ele><time>2026-04-03T18:18:27Z</time></trkpt><trkpt lat="44.523714897653335" lon="0.9565012864441388"><ele>151.33333333333334</ele><time>2026-04-03T18:18:34Z</time></trkpt><trkpt lat="44.523676448518266" lon="0.9564106938157632"><ele>149.0</ele><time>2026-04-03T18:18:49Z</time></trkpt><trkpt lat="44.523614962175536" lon="0.9562949657751955"><ele>146.66666666666669</ele><time>2026-04-03T18:18:51Z</time></trkpt><trkpt lat="44.52362072760273" lon="0.956126995128272"><ele>144.33333333333334</ele><time>2026-04-03T18:18:53Z</time></trkpt><trkpt lat="44.523684459670505" lon="0.9560611194430352"><ele>142.0</ele><time>2026-04-03T18:18:54Z</time></trkpt><trkpt lat="44.5237126118931" lon="0.9559675858820665"><ele>142.16666666666669</ele><time>2026-04-03T18:18:55Z</time></trkpt><trkpt lat="44.52377221661556" lon="0.955860818062472"><ele>142.33333333333334</ele><time>2026-04-03T18:18:56Z</time></trkpt><trkpt lat="44.52383526135797" lon="0.9557537232689572"><ele>142.5</ele><time>2026-04-03T18:18:57Z</time></trkpt><trkpt lat="44.52389312960915" lon="0.9556545671587785"><ele>142.66666666666666</ele><time>2026-04-03T18:18:58Z</time></trkpt><trkpt lat="44.52393629636432" lon="0.9555612560819697"><ele>142.83333333333331</ele><time>2026-04-03T18:18:59Z</time></trkpt><trkpt lat="44.52398126207711" lon="0.9554815604975138"><ele>143.0</ele><time>2026-04-03T18:19:00Z</time></trkpt><trkpt lat="44.52405648268054" lon="0.9554012514733458"><ele>143.0</ele><time>2026-04-03T18:19:01Z</time></trkpt><trkpt lat="44.52412966358371" lon="0.9553143728755"><ele>143.0</ele><time>2026-04-03T18:19:02Z</time></trkpt><trkpt lat="44.52422759784733" lon="0.9552587528885527"><ele>143.0</ele><time>2026-04-03T18:19:02.999Z</time></trkpt><trkpt lat="44.52429120761235" lon="0.9552505445216004"><ele>143.0</ele><time>2026-04-03T18:19:03.999Z</time></trkpt><trkpt lat="44.524371434723534" lon="0.955206591494263"><ele>143.0</ele><time>2026-04-03T18:19:05.999Z</time></trkpt><trkpt lat="44.524397522337004" lon="0.9550894415611095"><ele>143.0</ele><time>2026-04-03T18:19:06.999Z</time></trkpt><trkpt lat="44.524420373858746" lon="0.954977294437355"><ele>143.0</ele><time>2026-04-03T18:19:08.999Z</time></trkpt><trkpt lat="44.52441843131824" lon="0.9548558039932857"><ele>143.0</ele><time>2026-04-03T18:19:09.999Z</time></trkpt><trkpt lat="44.524412784212316" lon="0.9547141082849544"><ele>143.0</ele><time>2026-04-03T18:19:11.999Z</time></trkpt><trkpt lat="44.52448129239339" lon="0.9546084179533875"><ele>143.0</ele><time>2026-04-03T18:19:13.999Z</time></trkpt><trkpt lat="44.524481087060956" lon="0.9544754851799938"><ele>143.0</ele><time>2026-04-03T18:19:15.999Z</time></trkpt><trkpt lat="44.52450676027609" lon="0.9543620877364314"><ele>142.6</ele><time>2026-04-03T18:19:17.999Z</time></trkpt><trkpt lat="44.5245933068888" lon="0.9543359307140089"><ele>142.20000000000002</ele><time>2026-04-03T18:19:23.999Z</time></trkpt><trkpt lat="44.52465105933302" lon="0.9542282095897363"><ele>141.8</ele><time>2026-04-03T18:19:26.999Z</time></trkpt><trkpt lat="44.52474425561707" lon="0.9540803878469545"><ele>141.4</ele><time>2026-04-03T18:19:28.999Z</time></trkpt><trkpt lat="44.524773950519865" lon="0.9539992059954564"><ele>141.0</ele><time>2026-04-03T18:19:29.999Z</time></trkpt><trkpt lat="44.524803998562284" lon="0.953874687820046"><ele>139.0</ele><time>2026-04-03T18:19:31.999Z</time></trkpt><trkpt lat="44.52480251737844" lon="0.9537833498277992"><ele>137.0</ele><time>2026-04-03T18:19:34.999Z</time></trkpt><trkpt lat="44.52477354048464" lon="0.9536768795260554"><ele>135.0</ele><time>2026-04-03T18:19:37.999Z</time></trkpt><trkpt lat="44.52472866361707" lon="0.9535632632302242"><ele>133.0</ele><time>2026-04-03T18:19:39.999Z</time></trkpt><trkpt lat="44.5246908733779" lon="0.9533990846391466"><ele>131.0</ele><time>2026-04-03T18:19:42.999Z</time></trkpt><trkpt lat="44.52465961361556" lon="0.9533053257734769"><ele>129.0</ele><time>2026-04-03T18:19:43.999Z</time></trkpt><trkpt lat="44.52462421100882" lon="0.9531744994397966"><ele>127.33333333333333</ele><time>2026-04-03T18:19:44.999Z</time></trkpt><trkpt lat="44.52460096132265" lon="0.9530792283329886"><ele>125.66666666666666</ele><time>2026-04-03T18:19:45.999Z</time></trkpt><trkpt lat="44.52463747738413" lon="0.9529216582133914"><ele>124.0</ele><time>2026-04-03T18:19:47.999Z</time></trkpt><trkpt lat="44.52465146547207" lon="0.9528151707353393"><ele>122.33333333333333</ele><time>2026-04-03T18:19:51.999Z</time></trkpt><trkpt lat="44.52469150145656" lon="0.9527034198630897"><ele>120.66666666666666</ele><time>2026-04-03T18:19:53.999Z</time></trkpt><trkpt lat="44.52475499711807" lon="0.9526499924325678"><ele>119.0</ele><time>2026-04-03T18:19:55.999Z</time></trkpt><trkpt lat="44.5248211766002" lon="0.952617736836798"><ele>119.0</ele><time>2026-04-03T18:19:59.999Z</time></trkpt><trkpt lat="44.52488055819481" lon="0.9527168684212098"><ele>119.0</ele><time>2026-04-03T18:20:01.999Z</time></trkpt><trkpt lat="44.52496789786782" lon="0.9528190411532694"><ele>119.0</ele><time>2026-04-03T18:20:03.999Z</time></trkpt><trkpt lat="44.52507961200179" lon="0.9528995048497279"><ele>119.0</ele><time>2026-04-03T18:20:05.999Z</time></trkpt><trkpt lat="44.52512957784305" lon="0.9529532464711434"><ele>119.0</ele><time>2026-04-03T18:20:06.999Z</time></trkpt><trkpt lat="44.525204548157404" lon="0.9530310685894795"><ele>119.0</ele><time>2026-04-03T18:20:07.999Z</time></trkpt><trkpt lat="44.525270094487844" lon="0.9531320219994304"><ele>119.0</ele><time>2026-04-03T18:20:08.999Z</time></trkpt><trkpt lat="44.52533094861494" lon="0.953255461024887"><ele>119.0</ele><time>2026-04-03T18:20:09.999Z</time></trkpt><trkpt lat="44.525411063989466" lon="0.9533634732268857"><ele>119.0</ele><time>2026-04-03T18:20:10.998Z</time></trkpt><trkpt lat="44.52549289036444" lon="0.9535103286196777"><ele>119.0</ele><time>2026-04-03T18:20:11.998Z</time></trkpt><trkpt lat="44.525593006569935" lon="0.9536305932694504"><ele>121.0</ele><time>2026-04-03T18:20:12.998Z</time></trkpt><trkpt lat="44.52567104019669" lon="0.9537260174884016"><ele>123.0</ele><time>2026-04-03T18:20:13.998Z</time></trkpt><trkpt lat="44.52575247452016" lon="0.9537758425364206"><ele>125.0</ele><time>2026-04-03T18:20:14.998Z</time></trkpt><trkpt lat="44.5258490917488" lon="0.9538466360275196"><ele>127.0</ele><time>2026-04-03T18:20:15.998Z</time></trkpt><trkpt lat="44.525963808211586" lon="0.9539129419971208"><ele>129.0</ele><time>2026-04-03T18:20:16.998Z</time></trkpt><trkpt lat="44.526085729292895" lon="0.9539721093588547"><ele>129.0</ele><time>2026-04-03T18:20:17.998Z</time></trkpt><trkpt lat="44.52620063347041" lon="0.9540027906882148"><ele>129.0</ele><time>2026-04-03T18:20:18.998Z</time></trkpt><trkpt lat="44.5262934410416" lon="0.9540096114814136"><ele>129.0</ele><time>2026-04-03T18:20:19.998Z</time></trkpt><trkpt lat="44.526394773134115" lon="0.9540076186982028"><ele>129.0</ele><time>2026-04-03T18:20:20.998Z</time></trkpt><trkpt lat="44.526495742255705" lon="0.9539808729171889"><ele>129.0</ele><time>2026-04-03T18:20:21.998Z</time></trkpt><trkpt lat="44.52660754909426" lon="0.9539868718146584"><ele>129.25</ele><time>2026-04-03T18:20:22.998Z</time></trkpt><trkpt lat="44.52672016727133" lon="0.9540028614380986"><ele>129.5</ele><time>2026-04-03T18:20:23.998Z</time></trkpt><trkpt lat="44.52684474328425" lon="0.9540284295834576"><ele>129.75</ele><time>2026-04-03T18:20:25Z</time></trkpt><trkpt lat="44.52697154621736" lon="0.9540422393434491"><ele>130.0</ele><time>2026-04-03T18:20:26Z</time></trkpt><trkpt lat="44.527099130522835" lon="0.9540813826056846"><ele>131.25</ele><time>2026-04-03T18:20:27Z</time></trkpt><trkpt lat="44.527206987194226" lon="0.9541331873985333"><ele>132.5</ele><time>2026-04-03T18:20:28Z</time></trkpt><trkpt lat="44.52733110351291" lon="0.9541570973760607"><ele>133.75</ele><time>2026-04-03T18:20:29Z</time></trkpt><trkpt lat="44.52744133752091" lon="0.9542032684295522"><ele>135.0</ele><time>2026-04-03T18:20:30Z</time></trkpt><trkpt lat="44.52755050248837" lon="0.9542533723723748"><ele>135.6</ele><time>2026-04-03T18:20:31Z</time></trkpt><trkpt lat="44.52767013123059" lon="0.9542993973888821"><ele>136.2</ele><time>2026-04-03T18:20:32Z</time></trkpt><trkpt lat="44.52778449815232" lon="0.9543728728880732"><ele>136.8</ele><time>2026-04-03T18:20:37Z</time></trkpt><trkpt lat="44.52784281109257" lon="0.9544239127438284"><ele>137.4</ele><time>2026-04-03T18:20:38Z</time></trkpt><trkpt lat="44.52791883128596" lon="0.9544882472077272"><ele>138.0</ele><time>2026-04-03T18:20:40Z</time></trkpt><trkpt lat="44.527989634636945" lon="0.9545727562341599"><ele>138.0</ele><time>2026-04-03T18:20:42Z</time></trkpt><trkpt lat="44.52804871393355" lon="0.9546325841719578"><ele>138.0</ele><time>2026-04-03T18:20:44Z</time></trkpt><trkpt lat="44.52809642166507" lon="0.9547043973416692"><ele>138.0</ele><time>2026-04-03T18:20:47Z</time></trkpt><trkpt lat="44.52805014633466" lon="0.954618023164041"><ele>138.0</ele><time>2026-04-03T18:20:53Z</time></trkpt><trkpt lat="44.527968375278775" lon="0.9545572274066729"><ele>138.0</ele><time>2026-04-03T18:20:54Z</time></trkpt><trkpt lat="44.52790360960762" lon="0.9544892271009833"><ele>138.0</ele><time>2026-04-03T18:20:55Z</time></trkpt><trkpt lat="44.52783795185594" lon="0.9544263622057374"><ele>138.66666666666666</ele><time>2026-04-03T18:20:56Z</time></trkpt><trkpt lat="44.527748576594185" lon="0.9543495697730102"><ele>139.33333333333334</ele><time>2026-04-03T18:20:57Z</time></trkpt><trkpt lat="44.52766729165723" lon="0.9542710826845237"><ele>140.0</ele><time>2026-04-03T18:20:58Z</time></trkpt><trkpt lat="44.52758225930481" lon="0.9542462984687095"><ele>140.66666666666669</ele><time>2026-04-03T18:21:00Z</time></trkpt><trkpt lat="44.52751349069827" lon="0.9542186314094446"><ele>141.33333333333334</ele><time>2026-04-03T18:21:16.999Z</time></trkpt><trkpt lat="44.527586340722685" lon="0.9542412124956208"><ele>142.0</ele><time>2026-04-03T18:21:35.999Z</time></trkpt><trkpt lat="44.52765293588675" lon="0.954269453435108"><ele>142.0</ele><time>2026-04-03T18:21:37.999Z</time></trkpt><trkpt lat="44.527836728758416" lon="0.9543633381065824"><ele>142.0</ele><time>2026-04-03T18:21:54.999Z</time></trkpt><trkpt lat="44.527946224265726" lon="0.9544482469548303"><ele>142.0</ele><time>2026-04-03T18:21:55.999Z</time></trkpt><trkpt lat="44.528055725229265" lon="0.9545121302815179"><ele>142.0</ele><time>2026-04-03T18:21:56.999Z</time></trkpt><trkpt lat="44.528136593221944" lon="0.9547025939826403"><ele>142.5</ele><time>2026-04-03T18:21:57.999Z</time></trkpt><trkpt lat="44.52824028662942" lon="0.954805164161743"><ele>143.0</ele><time>2026-04-03T18:21:58.999Z</time></trkpt><trkpt lat="44.52836864129504" lon="0.9548812932241797"><ele>143.5</ele><time>2026-04-03T18:21:59.999Z</time></trkpt><trkpt lat="44.52847657219248" lon="0.9549891267582479"><ele>144.0</ele><time>2026-04-03T18:22:00.999Z</time></trkpt><trkpt lat="44.52858648967283" lon="0.9550810145633674"><ele>144.0</ele><time>2026-04-03T18:22:01.999Z</time></trkpt><trkpt lat="44.528695290985056" lon="0.9551413108301671"><ele>144.0</ele><time>2026-04-03T18:22:02.999Z</time></trkpt><trkpt lat="44.52879044147666" lon="0.9552057177291463"><ele>144.0</ele><time>2026-04-03T18:22:03.999Z</time></trkpt><trkpt lat="44.52888411736194" lon="0.9552580040227227"><ele>144.0</ele><time>2026-04-03T18:22:04.999Z</time></trkpt><trkpt lat="44.52897320660688" lon="0.9553061469266594"><ele>144.0</ele><time>2026-04-03T18:22:05.999Z</time></trkpt><trkpt lat="44.52906403077431" lon="0.9553733233394454"><ele>143.6</ele><time>2026-04-03T18:22:06.999Z</time></trkpt><trkpt lat="44.52916806929591" lon="0.955438318078232"><ele>143.2</ele><time>2026-04-03T18:22:07.999Z</time></trkpt><trkpt lat="44.529256971377414" lon="0.955516518896404"><ele>142.79999999999998</ele><time>2026-04-03T18:22:08.999Z</time></trkpt><trkpt lat="44.52932328226217" lon="0.9556314478285004"><ele>142.4</ele><time>2026-04-03T18:22:09.999Z</time></trkpt><trkpt lat="44.52937950670361" lon="0.9557592120789776"><ele>142.0</ele><time>2026-04-03T18:22:10.999Z</time></trkpt><trkpt lat="44.52943780600108" lon="0.9558868666695276"><ele>141.0</ele><time>2026-04-03T18:22:11.999Z</time></trkpt><trkpt lat="44.529496204725795" lon="0.9560175653899053"><ele>140.0</ele><time>2026-04-03T18:22:12.999Z</time></trkpt><trkpt lat="44.52956578332409" lon="0.9561778851973947"><ele>139.0</ele><time>2026-04-03T18:22:13.999Z</time></trkpt><trkpt lat="44.52962685946413" lon="0.9563286178140304"><ele>138.0</ele><time>2026-04-03T18:22:14.999Z</time></trkpt><trkpt lat="44.52968184174891" lon="0.9564690442883292"><ele>138.0</ele><time>2026-04-03T18:22:15.999Z</time></trkpt><trkpt lat="44.52974199526867" lon="0.9565677366167334"><ele>138.0</ele><time>2026-04-03T18:22:16.999Z</time></trkpt><trkpt lat="44.52979147675627" lon="0.9566627639010599"><ele>138.0</ele><time>2026-04-03T18:22:17.999Z</time></trkpt><trkpt lat="44.52982542867108" lon="0.956755885927218"><ele>138.0</ele><time>2026-04-03T18:22:18.999Z</time></trkpt><trkpt lat="44.52986570646872" lon="0.9568537248286525"><ele>138.0</ele><time>2026-04-03T18:22:19.998Z</time></trkpt><trkpt lat="44.52988776810411" lon="0.9569560580828586"><ele>138.0</ele><time>2026-04-03T18:22:20.998Z</time></trkpt><trkpt lat="44.52986700978702" lon="0.9570686182078666"><ele>138.0</ele><time>2026-04-03T18:22:21.998Z</time></trkpt><trkpt lat="44.52983459056454" lon="0.9571933258889668"><ele>138.0</ele><time>2026-04-03T18:22:22.998Z</time></trkpt><trkpt lat="44.52985140953399" lon="0.9573464557430474"><ele>138.0</ele><time>2026-04-03T18:22:23.998Z</time></trkpt><trkpt lat="44.529874765989014" lon="0.9574955343921808"><ele>138.0</ele><time>2026-04-03T18:22:24.998Z</time></trkpt><trkpt lat="44.52996057356038" lon="0.9576139760660044"><ele>138.0</ele><time>2026-04-03T18:22:25.998Z</time></trkpt><trkpt lat="44.53003525828612" lon="0.9577430474781142"><ele>138.5</ele><time>2026-04-03T18:22:26.998Z</time></trkpt><trkpt lat="44.53012848246427" lon="0.9578411931158067"><ele>139.0</ele><time>2026-04-03T18:22:27.998Z</time></trkpt><trkpt lat="44.53024516636679" lon="0.9579557414428073"><ele>139.5</ele><time>2026-04-03T18:22:28.998Z</time></trkpt><trkpt lat="44.53034201474263" lon="0.958050504163373"><ele>140.0</ele><time>2026-04-03T18:22:29.998Z</time></trkpt><trkpt lat="44.530453706426634" lon="0.9581612160939544"><ele>140.0</ele><time>2026-04-03T18:22:31Z</time></trkpt><trkpt lat="44.53054493703288" lon="0.958255039738598"><ele>140.0</ele><time>2026-04-03T18:22:32Z</time></trkpt><trkpt lat="44.530609781969886" lon="0.9583222114349603"><ele>140.0</ele><time>2026-04-03T18:22:33Z</time></trkpt><trkpt lat="44.530694456579944" lon="0.9584140495638568"><ele>140.0</ele><time>2026-04-03T18:22:35Z</time></trkpt><trkpt lat="44.53075035079392" lon="0.9584964476023834"><ele>140.0</ele><time>2026-04-03T18:22:38Z</time></trkpt><trkpt lat="44.53083647370289" lon="0.9584802264697091"><ele>140.0</ele><time>2026-04-03T18:22:40Z</time></trkpt><trkpt lat="44.53092845280897" lon="0.9584106392449221"><ele>140.0</ele><time>2026-04-03T18:22:42Z</time></trkpt><trkpt lat="44.531016141177155" lon="0.9583741743226858"><ele>140.0</ele><time>2026-04-03T18:22:43Z</time></trkpt><trkpt lat="44.531086581745264" lon="0.9583199749447917"><ele>140.0</ele><time>2026-04-03T18:22:44Z</time></trkpt><trkpt lat="44.53116399704247" lon="0.95825948274795"><ele>140.0</ele><time>2026-04-03T18:22:45Z</time></trkpt><trkpt lat="44.531241371224226" lon="0.9582002623144324"><ele>139.5</ele><time>2026-04-03T18:22:46Z</time></trkpt><trkpt lat="44.53131304162193" lon="0.9581216519968754"><ele>139.0</ele><time>2026-04-03T18:22:47Z</time></trkpt><trkpt lat="44.53141797372422" lon="0.9580616257099627"><ele>138.5</ele><time>2026-04-03T18:22:48Z</time></trkpt><trkpt lat="44.531526383956226" lon="0.9579730673366116"><ele>138.0</ele><time>2026-04-03T18:22:49Z</time></trkpt><trkpt lat="44.531648599686235" lon="0.9578732317445807"><ele>138.0</ele><time>2026-04-03T18:22:50Z</time></trkpt><trkpt lat="44.531769117317424" lon="0.9577730136981404"><ele>138.0</ele><time>2026-04-03T18:22:51Z</time></trkpt><trkpt lat="44.53189211188014" lon="0.9576434608528931"><ele>138.0</ele><time>2026-04-03T18:22:52Z</time></trkpt><trkpt lat="44.53203509344763" lon="0.9575398330453909"><ele>136.0</ele><time>2026-04-03T18:22:53Z</time></trkpt><trkpt lat="44.53215775778407" lon="0.9574168200560771"><ele>134.0</ele><time>2026-04-03T18:22:54Z</time></trkpt><trkpt lat="44.532259129701146" lon="0.9572775802319307"><ele>132.0</ele><time>2026-04-03T18:22:55Z</time></trkpt><trkpt lat="44.53236682670418" lon="0.9571141619760769"><ele>132.0</ele><time>2026-04-03T18:22:56Z</time></trkpt><trkpt lat="44.53246557265366" lon="0.9569299498341913"><ele>132.0</ele><time>2026-04-03T18:22:57Z</time></trkpt><trkpt lat="44.532573282840076" lon="0.9567327614622984"><ele>132.0</ele><time>2026-04-03T18:22:58Z</time></trkpt><trkpt lat="44.53267743459764" lon="0.956544795699363"><ele>131.66666666666666</ele><time>2026-04-03T18:22:59Z</time></trkpt><trkpt lat="44.53278488367105" lon="0.9563508787683052"><ele>131.33333333333331</ele><time>2026-04-03T18:23:00Z</time></trkpt><trkpt lat="44.53287235056271" lon="0.9561552801805786"><ele>131.0</ele><time>2026-04-03T18:23:01Z</time></trkpt><trkpt lat="44.532972794585966" lon="0.95601825314609"><ele>129.5</ele><time>2026-04-03T18:23:02Z</time></trkpt><trkpt lat="44.533052122606264" lon="0.9558805480925292"><ele>128.0</ele><time>2026-04-03T18:23:03Z</time></trkpt><trkpt lat="44.53312812265083" lon="0.955745311326617"><ele>126.5</ele><time>2026-04-03T18:23:04Z</time></trkpt><trkpt lat="44.53318293957785" lon="0.9556098399248693"><ele>125.0</ele><time>2026-04-03T18:23:05Z</time></trkpt><trkpt lat="44.533246662487336" lon="0.955496334306494"><ele>125.0</ele><time>2026-04-03T18:23:06Z</time></trkpt><trkpt lat="44.53330884517116" lon="0.9553735780157588"><ele>125.0</ele><time>2026-04-03T18:23:07Z</time></trkpt><trkpt lat="44.533366939744056" lon="0.9552568336602378"><ele>125.0</ele><time>2026-04-03T18:23:08Z</time></trkpt><trkpt lat="44.53338665137495" lon="0.9551130670518924"><ele>125.0</ele><time>2026-04-03T18:23:09Z</time></trkpt><trkpt lat="44.53341234920754" lon="0.9550056888471792"><ele>125.0</ele><time>2026-04-03T18:23:10Z</time></trkpt><trkpt lat="44.53341991912103" lon="0.9549075087784014"><ele>124.99999999999999</ele><time>2026-04-03T18:23:11Z</time></trkpt><trkpt lat="44.53342178830584" lon="0.9548140365338198"><ele>125.0</ele><time>2026-04-03T18:23:12Z</time></trkpt><trkpt lat="44.53343017059245" lon="0.9546483394501796"><ele>125.0</ele><time>2026-04-03T18:23:14Z</time></trkpt><trkpt lat="44.53342822402746" lon="0.9545415769077508"><ele>125.0</ele><time>2026-04-03T18:23:16Z</time></trkpt><trkpt lat="44.53343563391004" lon="0.9544484488360782"><ele>124.99999999999999</ele><time>2026-04-03T18:23:17.999Z</time></trkpt><trkpt lat="44.53345274737729" lon="0.9543438686940529"><ele>125.0</ele><time>2026-04-03T18:23:20.999Z</time></trkpt><trkpt lat="44.53345964560162" lon="0.9542328893543703"><ele>124.66666666666666</ele><time>2026-04-03T18:23:25.999Z</time></trkpt><trkpt lat="44.53349130267011" lon="0.9541131249323185"><ele>124.33333333333333</ele><time>2026-04-03T18:23:27.999Z</time></trkpt><trkpt lat="44.53350505832124" lon="0.9540242047663225"><ele>124.0</ele><time>2026-04-03T18:23:28.999Z</time></trkpt><trkpt lat="44.53353478706464" lon="0.9539149485121272"><ele>123.66666666666666</ele><time>2026-04-03T18:23:29.999Z</time></trkpt><trkpt lat="44.53357832799895" lon="0.9537988750575765"><ele>123.33333333333333</ele><time>2026-04-03T18:23:30.999Z</time></trkpt><trkpt lat="44.53359806766105" lon="0.9536647066408317"><ele>123.0</ele><time>2026-04-03T18:23:31.999Z</time></trkpt><trkpt lat="44.533634890589035" lon="0.953534856568085"><ele>123.0</ele><time>2026-04-03T18:23:32.999Z</time></trkpt><trkpt lat="44.53367238693242" lon="0.9534027146160922"><ele>123.00000000000001</ele><time>2026-04-03T18:23:33.999Z</time></trkpt><trkpt lat="44.5337172709275" lon="0.9532658665412643"><ele>123.00000000000001</ele><time>2026-04-03T18:23:34.999Z</time></trkpt><trkpt lat="44.53375953644163" lon="0.9531250821729926"><ele>123.0</ele><time>2026-04-03T18:23:35.999Z</time></trkpt><trkpt lat="44.533808386887" lon="0.95297920253201"><ele>123.0</ele><time>2026-04-03T18:23:36.999Z</time></trkpt><trkpt lat="44.533860734231546" lon="0.9528337244840238"><ele>121.5</ele><time>2026-04-03T18:23:37.999Z</time></trkpt><trkpt lat="44.53391841923582" lon="0.952664049373276"><ele>120.0</ele><time>2026-04-03T18:23:38.999Z</time></trkpt><trkpt lat="44.533973678411016" lon="0.9525165559122479"><ele>118.5</ele><time>2026-04-03T18:23:39.999Z</time></trkpt><trkpt lat="44.53404024155194" lon="0.952361977443999"><ele>117.0</ele><time>2026-04-03T18:23:40.999Z</time></trkpt><trkpt lat="44.53411513307891" lon="0.9521502739313524"><ele>115.33333333333334</ele><time>2026-04-03T18:23:41.999Z</time></trkpt><trkpt lat="44.534138149799126" lon="0.9519493597851739"><ele>113.66666666666667</ele><time>2026-04-03T18:23:42.999Z</time></trkpt><trkpt lat="44.53415406502476" lon="0.95170815070409"><ele>112.0</ele><time>2026-04-03T18:23:43.999Z</time></trkpt><trkpt lat="44.53415502271013" lon="0.9514666529320922"><ele>110.66666666666667</ele><time>2026-04-03T18:23:44.999Z</time></trkpt><trkpt lat="44.534148228518596" lon="0.9512208888240762"><ele>109.33333333333334</ele><time>2026-04-03T18:23:45.999Z</time></trkpt><trkpt lat="44.53415579355994" lon="0.9509676288929992"><ele>108.0</ele><time>2026-04-03T18:23:46.999Z</time></trkpt><trkpt lat="44.534141989325214" lon="0.9507219010696937"><ele>108.0</ele><time>2026-04-03T18:23:47.999Z</time></trkpt><trkpt lat="44.53415830976126" lon="0.9505008657991717"><ele>108.0</ele><time>2026-04-03T18:23:48.999Z</time></trkpt><trkpt lat="44.534175100679775" lon="0.9503056385895255"><ele>108.0</ele><time>2026-04-03T18:23:49.999Z</time></trkpt><trkpt lat="44.534191935732714" lon="0.9501172870238839"><ele>108.0</ele><time>2026-04-03T18:23:50.999Z</time></trkpt><trkpt lat="44.534208628217975" lon="0.9499410908195604"><ele>107.4</ele><time>2026-04-03T18:23:51.999Z</time></trkpt><trkpt lat="44.534220682320765" lon="0.9497749724266267"><ele>106.80000000000001</ele><time>2026-04-03T18:23:52.999Z</time></trkpt><trkpt lat="44.53424350893908" lon="0.949622980244947"><ele>106.2</ele><time>2026-04-03T18:23:53.999Z</time></trkpt><trkpt lat="44.53424420854703" lon="0.9494690836914002"><ele>105.6</ele><time>2026-04-03T18:23:54.999Z</time></trkpt><trkpt lat="44.534257051479976" lon="0.9493316382342074"><ele>105.0</ele><time>2026-04-03T18:23:55.999Z</time></trkpt><trkpt lat="44.534274101426426" lon="0.9491973346281316"><ele>103.4</ele><time>2026-04-03T18:23:56.999Z</time></trkpt><trkpt lat="44.53429738305547" lon="0.9490685128316537"><ele>101.8</ele><time>2026-04-03T18:23:57.999Z</time></trkpt><trkpt lat="44.5343567646537" lon="0.9489517229363843"><ele>100.19999999999999</ele><time>2026-04-03T18:23:58.999Z</time></trkpt><trkpt lat="44.53443842580337" lon="0.9488827796357449"><ele>98.6</ele><time>2026-04-03T18:23:59.999Z</time></trkpt><trkpt lat="44.53454169948278" lon="0.9489181116159086"><ele>97.0</ele><time>2026-04-03T18:24:00.999Z</time></trkpt><trkpt lat="44.53463768708942" lon="0.9488843122198248"><ele>96.66666666666667</ele><time>2026-04-03T18:24:01.999Z</time></trkpt><trkpt lat="44.534704201589534" lon="0.9487969778548696"><ele>96.33333333333334</ele><time>2026-04-03T18:24:02.999Z</time></trkpt><trkpt lat="44.534758384894324" lon="0.9487142802814861"><ele>96.0</ele><time>2026-04-03T18:24:03.999Z</time></trkpt><trkpt lat="44.53480944829207" lon="0.9486494545095575"><ele>95.66666666666667</ele><time>2026-04-03T18:24:04.999Z</time></trkpt><trkpt lat="44.534836747865654" lon="0.9485655922135795"><ele>95.33333333333334</ele><time>2026-04-03T18:24:05.999Z</time></trkpt><trkpt lat="44.53490517630548" lon="0.9484698755834314"><ele>95.0</ele><time>2026-04-03T18:24:07.999Z</time></trkpt><trkpt lat="44.53498093855108" lon="0.9484375384947229"><ele>95.0</ele><time>2026-04-03T18:24:08.999Z</time></trkpt><trkpt lat="44.535058207972405" lon="0.9483961838303534"><ele>95.0</ele><time>2026-04-03T18:24:09.999Z</time></trkpt><trkpt lat="44.535143494746706" lon="0.9483377217259326"><ele>95.0</ele><time>2026-04-03T18:24:10.999Z</time></trkpt><trkpt lat="44.53524745747046" lon="0.9482825615819401"><ele>95.0</ele><time>2026-04-03T18:24:11.999Z</time></trkpt><trkpt lat="44.53536688611791" lon="0.9482165019653886"><ele>95.0</ele><time>2026-04-03T18:24:12.999Z</time></trkpt><trkpt lat="44.53548698186837" lon="0.9481341911377446"><ele>95.75</ele><time>2026-04-03T18:24:13.999Z</time></trkpt><trkpt lat="44.53560701303224" lon="0.9480492522268626"><ele>96.5</ele><time>2026-04-03T18:24:14.999Z</time></trkpt><trkpt lat="44.535731424614575" lon="0.9479531669433036"><ele>97.25</ele><time>2026-04-03T18:24:15.999Z</time></trkpt><trkpt lat="44.53585641525088" lon="0.9478382036842017"><ele>98.0</ele><time>2026-04-03T18:24:16.999Z</time></trkpt><trkpt lat="44.53599256956119" lon="0.9477242150822206"><ele>98.0</ele><time>2026-04-03T18:24:17.999Z</time></trkpt><trkpt lat="44.5361262120986" lon="0.9475977908063045"><ele>98.0</ele><time>2026-04-03T18:24:18.999Z</time></trkpt><trkpt lat="44.5362657621839" lon="0.9474611393868102"><ele>98.0</ele><time>2026-04-03T18:24:19.999Z</time></trkpt><trkpt lat="44.53640625975956" lon="0.9473138638196615"><ele>97.33333333333333</ele><time>2026-04-03T18:24:20.999Z</time></trkpt><trkpt lat="44.53654903944162" lon="0.9471807111650616"><ele>96.66666666666666</ele><time>2026-04-03T18:24:21.999Z</time></trkpt><trkpt lat="44.53669103742925" lon="0.9470313075106"><ele>96.0</ele><time>2026-04-03T18:24:22.999Z</time></trkpt><trkpt lat="44.536832590650114" lon="0.9468834215988394"><ele>96.0</ele><time>2026-04-03T18:24:23.999Z</time></trkpt><trkpt lat="44.53695931670103" lon="0.9467564513967307"><ele>96.0</ele><time>2026-04-03T18:24:24.999Z</time></trkpt><trkpt lat="44.53707491342053" lon="0.9466498653899834"><ele>96.0</ele><time>2026-04-03T18:24:25.999Z</time></trkpt><trkpt lat="44.53717268336808" lon="0.9465588402612866"><ele>96.0</ele><time>2026-04-03T18:24:26.999Z</time></trkpt><trkpt lat="44.537263006630994" lon="0.9464955361993556"><ele>97.0</ele><time>2026-04-03T18:24:27.999Z</time></trkpt><trkpt lat="44.53734125658035" lon="0.9464506444768226"><ele>98.0</ele><time>2026-04-03T18:24:28.998Z</time></trkpt><trkpt lat="44.53740343451361" lon="0.9464225963801806"><ele>99.0</ele><time>2026-04-03T18:24:29.998Z</time></trkpt><trkpt lat="44.53747751179567" lon="0.9463989600086726"><ele>100.0</ele><time>2026-04-03T18:24:31.998Z</time></trkpt><trkpt lat="44.537456982784796" lon="0.9461916152929937"><ele>101.0</ele><time>2026-04-03T18:24:33.998Z</time></trkpt><trkpt lat="44.537428325381995" lon="0.9460429589809728"><ele>100.99999999999999</ele><time>2026-04-03T18:24:35.998Z</time></trkpt><trkpt lat="44.53740828758348" lon="0.9459457700785571"><ele>101.0</ele><time>2026-04-03T18:24:37Z</time></trkpt><trkpt lat="44.53738512928173" lon="0.9458337189634745"><ele>101.0</ele><time>2026-04-03T18:24:38Z</time></trkpt><trkpt lat="44.53736114829276" lon="0.9457161223876042"><ele>101.0</ele><time>2026-04-03T18:24:39Z</time></trkpt><trkpt lat="44.53733809052505" lon="0.9455915939811391"><ele>100.99999999999999</ele><time>2026-04-03T18:24:40Z</time></trkpt><trkpt lat="44.53731460778867" lon="0.9454591026341574"><ele>101.0</ele><time>2026-04-03T18:24:41Z</time></trkpt><trkpt lat="44.537288046098936" lon="0.9453137325855523"><ele>98.5</ele><time>2026-04-03T18:24:42Z</time></trkpt><trkpt lat="44.537261095218106" lon="0.9451767740383464"><ele>96.0</ele><time>2026-04-03T18:24:43Z</time></trkpt><trkpt lat="44.5372377955496" lon="0.9450136537226265"><ele>93.5</ele><time>2026-04-03T18:24:44Z</time></trkpt><trkpt lat="44.537219618434726" lon="0.9448462784118375"><ele>91.0</ele><time>2026-04-03T18:24:45Z</time></trkpt><trkpt lat="44.53720389584574" lon="0.9446906898769034"><ele>91.0</ele><time>2026-04-03T18:24:46Z</time></trkpt><trkpt lat="44.53716454878875" lon="0.9445051135367364"><ele>91.0</ele><time>2026-04-03T18:24:47Z</time></trkpt><trkpt lat="44.53707483879186" lon="0.9444115341112604"><ele>91.0</ele><time>2026-04-03T18:24:48Z</time></trkpt><trkpt lat="44.53695397732687" lon="0.9443571408387595"><ele>91.0</ele><time>2026-04-03T18:24:49Z</time></trkpt><trkpt lat="44.53681595272007" lon="0.9443304962843357"><ele>91.66666666666666</ele><time>2026-04-03T18:24:50Z</time></trkpt><trkpt lat="44.53666718994105" lon="0.9442908595864431"><ele>92.33333333333333</ele><time>2026-04-03T18:24:51Z</time></trkpt><trkpt lat="44.53653506947247" lon="0.9442002388239413"><ele>93.0</ele><time>2026-04-03T18:24:52Z</time></trkpt><trkpt lat="44.536397776664664" lon="0.9440943118208005"><ele>93.0</ele><time>2026-04-03T18:24:53Z</time></trkpt><trkpt lat="44.53627160150548" lon="0.9439647014660257"><ele>93.0</ele><time>2026-04-03T18:24:54Z</time></trkpt><trkpt lat="44.53613803878926" lon="0.9438212653282779"><ele>93.0</ele><time>2026-04-03T18:24:55Z</time></trkpt><trkpt lat="44.53601481413562" lon="0.9436866074376049"><ele>92.66666666666667</ele><time>2026-04-03T18:24:56Z</time></trkpt><trkpt lat="44.535883925933" lon="0.9435777349518945"><ele>92.33333333333334</ele><time>2026-04-03T18:24:57Z</time></trkpt><trkpt lat="44.53575210838848" lon="0.9434554574631255"><ele>92.0</ele><time>2026-04-03T18:24:58Z</time></trkpt><trkpt lat="44.53560808886645" lon="0.9433478980933258"><ele>92.0</ele><time>2026-04-03T18:24:59Z</time></trkpt><trkpt lat="44.53546298379009" lon="0.9432536393908845"><ele>92.0</ele><time>2026-04-03T18:25:00Z</time></trkpt><trkpt lat="44.53534077374913" lon="0.9431785268536341"><ele>92.0</ele><time>2026-04-03T18:25:01Z</time></trkpt><trkpt lat="44.535231071904775" lon="0.9431260886590487"><ele>92.0</ele><time>2026-04-03T18:25:02Z</time></trkpt><trkpt lat="44.53512715311618" lon="0.9430913141044668"><ele>91.83333333333334</ele><time>2026-04-03T18:25:03Z</time></trkpt><trkpt lat="44.5350333979273" lon="0.9430551916694622"><ele>91.66666666666667</ele><time>2026-04-03T18:25:04Z</time></trkpt><trkpt lat="44.53496379792233" lon="0.942973094361336"><ele>91.5</ele><time>2026-04-03T18:25:05Z</time></trkpt><trkpt lat="44.53489971732183" lon="0.9428998190353495"><ele>91.33333333333333</ele><time>2026-04-03T18:25:06Z</time></trkpt><trkpt lat="44.53488304159792" lon="0.9427907600475876"><ele>91.16666666666666</ele><time>2026-04-03T18:25:07Z</time></trkpt><trkpt lat="44.53491363005583" lon="0.9426830609701798"><ele>91.0</ele><time>2026-04-03T18:25:08Z</time></trkpt><trkpt lat="44.53489079636857" lon="0.9425379818848184"><ele>90.83333333333333</ele><time>2026-04-03T18:25:10Z</time></trkpt><trkpt lat="44.534858862018936" lon="0.942417696287239"><ele>90.66666666666666</ele><time>2026-04-03T18:25:12Z</time></trkpt><trkpt lat="44.534800986810495" lon="0.9423189699678685"><ele>90.5</ele><time>2026-04-03T18:25:14Z</time></trkpt><trkpt lat="44.53469443570706" lon="0.9422448204734971"><ele>90.33333333333333</ele><time>2026-04-03T18:25:16Z</time></trkpt><trkpt lat="44.534631544444956" lon="0.9422008154996367"><ele>90.16666666666667</ele><time>2026-04-03T18:25:17Z</time></trkpt><trkpt lat="44.53456619297014" lon="0.9421516332654656"><ele>90.0</ele><time>2026-04-03T18:25:18Z</time></trkpt><trkpt lat="44.5344912273186" lon="0.9421088035899072"><ele>90.0</ele><time>2026-04-03T18:25:19Z</time></trkpt><trkpt lat="44.534417373593044" lon="0.9420644136330989"><ele>90.0</ele><time>2026-04-03T18:25:20Z</time></trkpt><trkpt lat="44.53435946291803" lon="0.9420206798586942"><ele>90.0</ele><time>2026-04-03T18:25:21Z</time></trkpt><trkpt lat="44.53425996061922" lon="0.9419607044309734"><ele>90.0</ele><time>2026-04-03T18:25:23Z</time></trkpt><trkpt lat="44.534175949633116" lon="0.9419085043293708"><ele>90.0</ele><time>2026-04-03T18:25:25Z</time></trkpt><trkpt lat="44.53409007070493" lon="0.9418581539397557"><ele>90.0</ele><time>2026-04-03T18:25:26.999Z</time></trkpt><trkpt lat="44.53397812180091" lon="0.9417969810770342"><ele>90.0</ele><time>2026-04-03T18:25:28.999Z</time></trkpt><trkpt lat="44.53391895765563" lon="0.9417570165328241"><ele>90.0</ele><time>2026-04-03T18:25:29.999Z</time></trkpt><trkpt lat="44.53382812113562" lon="0.9417118644546782"><ele>90.0</ele><time>2026-04-03T18:25:31.999Z</time></trkpt><trkpt lat="44.533754635666035" lon="0.9416750563695326"><ele>90.0</ele><time>2026-04-03T18:25:33.999Z</time></trkpt><trkpt lat="44.533681856406666" lon="0.9416308089509803"><ele>90.0</ele><time>2026-04-03T18:25:35.999Z</time></trkpt><trkpt lat="44.53358514771257" lon="0.9416134280759745"><ele>90.0</ele><time>2026-04-03T18:25:38.999Z</time></trkpt><trkpt lat="44.53351862151981" lon="0.9415988856803672"><ele>90.0</ele><time>2026-04-03T18:25:40.999Z</time></trkpt><trkpt lat="44.5334556889585" lon="0.9415733481888121"><ele>90.0</ele><time>2026-04-03T18:25:42.999Z</time></trkpt><trkpt lat="44.53337483447172" lon="0.9415520344238183"><ele>90.0</ele><time>2026-04-03T18:25:45.999Z</time></trkpt><trkpt lat="44.53329004165818" lon="0.9415193596972151"><ele>90.0</ele><time>2026-04-03T18:25:48.999Z</time></trkpt><trkpt lat="44.53321398754094" lon="0.9414855313077295"><ele>90.0</ele><time>2026-04-03T18:25:51.999Z</time></trkpt><trkpt lat="44.533121977395446" lon="0.9414611745322482"><ele>90.0</ele><time>2026-04-03T18:25:54.999Z</time></trkpt><trkpt lat="44.533024824066736" lon="0.9414352709390759"><ele>90.0</ele><time>2026-04-03T18:25:56.999Z</time></trkpt><trkpt lat="44.53290542873351" lon="0.9413925253847268"><ele>90.0</ele><time>2026-04-03T18:25:58.999Z</time></trkpt><trkpt lat="44.5328224450923" lon="0.9413569508489169"><ele>90.0</ele><time>2026-04-03T18:26:00.999Z</time></trkpt><trkpt lat="44.53276795377219" lon="0.9413086961943837"><ele>90.0</ele><time>2026-04-03T18:26:02.999Z</time></trkpt><trkpt lat="44.53267916197296" lon="0.9412693869250558"><ele>90.0</ele><time>2026-04-03T18:26:04.999Z</time></trkpt><trkpt lat="44.53259643683492" lon="0.9412298524648061"><ele>89.66666666666667</ele><time>2026-04-03T18:26:05.999Z</time></trkpt><trkpt lat="44.5325504078931" lon="0.9411569487412969"><ele>89.33333333333333</ele><time>2026-04-03T18:26:07.999Z</time></trkpt><trkpt lat="44.53246093352874" lon="0.9410636663298588"><ele>89.0</ele><time>2026-04-03T18:26:09.999Z</time></trkpt><trkpt lat="44.532352265082615" lon="0.9409775169036055"><ele>88.66666666666666</ele><time>2026-04-03T18:26:11.999Z</time></trkpt><trkpt lat="44.53229789389092" lon="0.9409325560201887"><ele>88.33333333333333</ele><time>2026-04-03T18:26:12.999Z</time></trkpt><trkpt lat="44.5322377550198" lon="0.9408873228824143"><ele>88.0</ele><time>2026-04-03T18:26:13.999Z</time></trkpt><trkpt lat="44.53217276988855" lon="0.9408463282494166"><ele>87.83333333333333</ele><time>2026-04-03T18:26:14.999Z</time></trkpt><trkpt lat="44.53210342018126" lon="0.9408029028732604"><ele>87.66666666666666</ele><time>2026-04-03T18:26:15.999Z</time></trkpt><trkpt lat="44.53202889506184" lon="0.9407607780705743"><ele>87.5</ele><time>2026-04-03T18:26:16.999Z</time></trkpt><trkpt lat="44.53195405346529" lon="0.9407175038455166"><ele>87.33333333333333</ele><time>2026-04-03T18:26:17.999Z</time></trkpt><trkpt lat="44.531869396288165" lon="0.940690722680313"><ele>87.16666666666667</ele><time>2026-04-03T18:26:18.999Z</time></trkpt><trkpt lat="44.53176913579776" lon="0.9406568879170177"><ele>87.0</ele><time>2026-04-03T18:26:19.999Z</time></trkpt><trkpt lat="44.53165539856654" lon="0.940629895051042"><ele>87.0</ele><time>2026-04-03T18:26:20.999Z</time></trkpt><trkpt lat="44.53153548166068" lon="0.9405779263208435"><ele>87.0</ele><time>2026-04-03T18:26:21.999Z</time></trkpt><trkpt lat="44.53140045448897" lon="0.940553424623833"><ele>87.0</ele><time>2026-04-03T18:26:22.999Z</time></trkpt><trkpt lat="44.53125958492628" lon="0.9405117685816008"><ele>87.0</ele><time>2026-04-03T18:26:23.999Z</time></trkpt><trkpt lat="44.5311186420049" lon="0.9404631042564537"><ele>88.0</ele><time>2026-04-03T18:26:24.999Z</time></trkpt><trkpt lat="44.53096996802732" lon="0.9404094152316941"><ele>89.0</ele><time>2026-04-03T18:26:25.999Z</time></trkpt><trkpt lat="44.53081268892315" lon="0.9403486328974158"><ele>90.0</ele><time>2026-04-03T18:26:26.999Z</time></trkpt><trkpt lat="44.53065696888652" lon="0.9402726378186059"><ele>90.0</ele><time>2026-04-03T18:26:27.999Z</time></trkpt><trkpt lat="44.53049867197974" lon="0.9401740464378054"><ele>90.0</ele><time>2026-04-03T18:26:28.999Z</time></trkpt><trkpt lat="44.53034103622243" lon="0.9400600655861738"><ele>90.0</ele><time>2026-04-03T18:26:29.999Z</time></trkpt><trkpt lat="44.53019184524609" lon="0.9399503997302823"><ele>90.33333333333333</ele><time>2026-04-03T18:26:30.999Z</time></trkpt><trkpt lat="44.530043083669604" lon="0.9398523103380056"><ele>90.66666666666666</ele><time>2026-04-03T18:26:31.999Z</time></trkpt><trkpt lat="44.52989949605656" lon="0.9397748143638778"><ele>91.0</ele><time>2026-04-03T18:26:32.999Z</time></trkpt><trkpt lat="44.5297430428037" lon="0.9397037281646043"><ele>91.0</ele><time>2026-04-03T18:26:33.999Z</time></trkpt><trkpt lat="44.52957438721222" lon="0.9396288675380239"><ele>91.0</ele><time>2026-04-03T18:26:34.999Z</time></trkpt><trkpt lat="44.529414820660165" lon="0.9395584987481757"><ele>91.0</ele><time>2026-04-03T18:26:35.999Z</time></trkpt><trkpt lat="44.52925584345572" lon="0.9394953320564493"><ele>91.5</ele><time>2026-04-03T18:26:36.998Z</time></trkpt><trkpt lat="44.52911614396258" lon="0.9394353037960321"><ele>92.0</ele><time>2026-04-03T18:26:37.998Z</time></trkpt><trkpt lat="44.52899183535864" lon="0.9393904712655018"><ele>92.5</ele><time>2026-04-03T18:26:38.998Z</time></trkpt><trkpt lat="44.52888513807251" lon="0.9393443860501194"><ele>93.0</ele><time>2026-04-03T18:26:39.998Z</time></trkpt><trkpt lat="44.52879210470484" lon="0.9392825610059646"><ele>92.60000000000001</ele><time>2026-04-03T18:26:40.998Z</time></trkpt><trkpt lat="44.52870606873024" lon="0.9392456032184248"><ele>92.2</ele><time>2026-04-03T18:26:41.998Z</time></trkpt><trkpt lat="44.52861641083387" lon="0.9392092829966819"><ele>91.8</ele><time>2026-04-03T18:26:43Z</time></trkpt><trkpt lat="44.52851760632957" lon="0.9391769635462237"><ele>91.4</ele><time>2026-04-03T18:26:44Z</time></trkpt><trkpt lat="44.52841906942961" lon="0.9391387766859413"><ele>91.0</ele><time>2026-04-03T18:26:45Z</time></trkpt><trkpt lat="44.52832483680785" lon="0.9391037564397744"><ele>91.33333333333333</ele><time>2026-04-03T18:26:46Z</time></trkpt><trkpt lat="44.5282300381665" lon="0.9390741856057124"><ele>91.66666666666666</ele><time>2026-04-03T18:26:47Z</time></trkpt><trkpt lat="44.528149888215076" lon="0.9390420547465544"><ele>92.0</ele><time>2026-04-03T18:26:48Z</time></trkpt><trkpt lat="44.528072888927426" lon="0.9390134282962419"><ele>92.33333333333333</ele><time>2026-04-03T18:26:49Z</time></trkpt><trkpt lat="44.52799852430609" lon="0.9389921124190374"><ele>92.66666666666667</ele><time>2026-04-03T18:26:50Z</time></trkpt><trkpt lat="44.52793230513798" lon="0.9389704968081558"><ele>93.0</ele><time>2026-04-03T18:26:51Z</time></trkpt><trkpt lat="44.52787054352295" lon="0.9389438334648336"><ele>93.0</ele><time>2026-04-03T18:26:52Z</time></trkpt><trkpt lat="44.52775347241296" lon="0.938903068472696"><ele>93.0</ele><time>2026-04-03T18:26:54Z</time></trkpt><trkpt lat="44.5276813272065" lon="0.9388827298748164"><ele>93.0</ele><time>2026-04-03T18:26:55Z</time></trkpt><trkpt lat="44.52761076456872" lon="0.93884699489148"><ele>93.0</ele><time>2026-04-03T18:26:57Z</time></trkpt><trkpt lat="44.527516009122515" lon="0.9388134577023282"><ele>93.0</ele><time>2026-04-03T18:27:02Z</time></trkpt><trkpt lat="44.5274105044974" lon="0.9387055290717943"><ele>93.0</ele><time>2026-04-03T18:27:04Z</time></trkpt><trkpt lat="44.527306209523815" lon="0.9386775866721212"><ele>93.0</ele><time>2026-04-03T18:27:05Z</time></trkpt><trkpt lat="44.52721201223446" lon="0.9386047425583522"><ele>93.0</ele><time>2026-04-03T18:27:06Z</time></trkpt><trkpt lat="44.5271026884508" lon="0.9385112753472833"><ele>93.0</ele><time>2026-04-03T18:27:07Z</time></trkpt><trkpt lat="44.526992112106484" lon="0.9384217078485138"><ele>92.33333333333333</ele><time>2026-04-03T18:27:08Z</time></trkpt><trkpt lat="44.526862652824086" lon="0.9383143065606239"><ele>91.66666666666666</ele><time>2026-04-03T18:27:09Z</time></trkpt><trkpt lat="44.526733977619" lon="0.9382167929044155"><ele>91.0</ele><time>2026-04-03T18:27:10Z</time></trkpt><trkpt lat="44.5265935425049" lon="0.9381204626807637"><ele>91.0</ele><time>2026-04-03T18:27:11Z</time></trkpt><trkpt lat="44.52644229541854" lon="0.9380296836034191"><ele>91.0</ele><time>2026-04-03T18:27:12Z</time></trkpt><trkpt lat="44.52629848983103" lon="0.9379126208642519"><ele>91.0</ele><time>2026-04-03T18:27:13Z</time></trkpt><trkpt lat="44.52614782709442" lon="0.9378180290059435"><ele>90.25</ele><time>2026-04-03T18:27:14Z</time></trkpt><trkpt lat="44.52601178795995" lon="0.9377509239137709"><ele>89.5</ele><time>2026-04-03T18:27:15Z</time></trkpt><trkpt lat="44.525877791511085" lon="0.9376794438000197"><ele>88.75</ele><time>2026-04-03T18:27:16Z</time></trkpt><trkpt lat="44.52574658783259" lon="0.9375940326550357"><ele>88.0</ele><time>2026-04-03T18:27:17Z</time></trkpt><trkpt lat="44.52560397931536" lon="0.9375173145958258"><ele>89.66666666666666</ele><time>2026-04-03T18:27:18Z</time></trkpt><trkpt lat="44.525462996450976" lon="0.9374246995838277"><ele>91.33333333333333</ele><time>2026-04-03T18:27:19Z</time></trkpt><trkpt lat="44.52532425195463" lon="0.93732863267789"><ele>93.0</ele><time>2026-04-03T18:27:20Z</time></trkpt><trkpt lat="44.52518945878071" lon="0.937227471451213"><ele>93.0</ele><time>2026-04-03T18:27:21Z</time></trkpt><trkpt lat="44.52505227974011" lon="0.9371346389573343"><ele>93.0</ele><time>2026-04-03T18:27:22Z</time></trkpt><trkpt lat="44.52491382932934" lon="0.9370055402132053"><ele>93.0</ele><time>2026-04-03T18:27:23Z</time></trkpt><trkpt lat="44.52480335575229" lon="0.9369221378961075"><ele>93.0</ele><time>2026-04-03T18:27:24Z</time></trkpt><trkpt lat="44.52467889943792" lon="0.9368499224135295"><ele>93.0</ele><time>2026-04-03T18:27:25Z</time></trkpt><trkpt lat="44.524579914110646" lon="0.9367793998376456"><ele>93.0</ele><time>2026-04-03T18:27:26Z</time></trkpt><trkpt lat="44.52448608829831" lon="0.936720045059856"><ele>93.0</ele><time>2026-04-03T18:27:27Z</time></trkpt><trkpt lat="44.52439714171709" lon="0.9366512117526962"><ele>93.0</ele><time>2026-04-03T18:27:28Z</time></trkpt><trkpt lat="44.52431164646057" lon="0.9366010487664443"><ele>93.0</ele><time>2026-04-03T18:27:29Z</time></trkpt><trkpt lat="44.524219969419164" lon="0.9365518666117845"><ele>93.60000000000001</ele><time>2026-04-03T18:27:30Z</time></trkpt><trkpt lat="44.52412023570381" lon="0.9364998867281812"><ele>94.2</ele><time>2026-04-03T18:27:30.999Z</time></trkpt><trkpt lat="44.524016059327586" lon="0.9364355868579449"><ele>94.8</ele><time>2026-04-03T18:27:31.999Z</time></trkpt><trkpt lat="44.5239126236181" lon="0.9363802820356438"><ele>95.4</ele><time>2026-04-03T18:27:32.999Z</time></trkpt><trkpt lat="44.52380586208469" lon="0.9363260754954329"><ele>96.0</ele><time>2026-04-03T18:27:33.999Z</time></trkpt><trkpt lat="44.5236945701385" lon="0.9362761992514234"><ele>94.0</ele><time>2026-04-03T18:27:34.999Z</time></trkpt><trkpt lat="44.523583116373274" lon="0.9362368510579272"><ele>92.0</ele><time>2026-04-03T18:27:35.999Z</time></trkpt><trkpt lat="44.52346725432158" lon="0.9361684284612816"><ele>90.0</ele><time>2026-04-03T18:27:36.999Z</time></trkpt><trkpt lat="44.523346491325604" lon="0.936173279755377"><ele>88.0</ele><time>2026-04-03T18:27:37.999Z</time></trkpt><trkpt lat="44.52322236006424" lon="0.936174152479553"><ele>88.0</ele><time>2026-04-03T18:27:38.999Z</time></trkpt><trkpt lat="44.52310765794512" lon="0.9361720641309608"><ele>88.0</ele><time>2026-04-03T18:27:39.999Z</time></trkpt><trkpt lat="44.522989826777575" lon="0.9361826338290384"><ele>88.0</ele><time>2026-04-03T18:27:40.999Z</time></trkpt><trkpt lat="44.52288279663024" lon="0.9361733086482331"><ele>88.0</ele><time>2026-04-03T18:27:41.999Z</time></trkpt><trkpt lat="44.52279354478577" lon="0.9361635848429082"><ele>88.0</ele><time>2026-04-03T18:27:42.999Z</time></trkpt><trkpt lat="44.522712622266965" lon="0.9361428650862594"><ele>87.66666666666666</ele><time>2026-04-03T18:27:43.999Z</time></trkpt><trkpt lat="44.52264191703371" lon="0.9361147378925745"><ele>87.33333333333333</ele><time>2026-04-03T18:27:44.999Z</time></trkpt><trkpt lat="44.52257617210355" lon="0.9361101256401451"><ele>87.0</ele><time>2026-04-03T18:27:45.999Z</time></trkpt><trkpt lat="44.522465792355696" lon="0.9360913467551278"><ele>86.66666666666667</ele><time>2026-04-03T18:27:47.999Z</time></trkpt><trkpt lat="44.522376833521975" lon="0.9360685814310639"><ele>86.33333333333334</ele><time>2026-04-03T18:27:49.999Z</time></trkpt><trkpt lat="44.52230051829025" lon="0.9360594832244055"><ele>86.0</ele><time>2026-04-03T18:27:51.999Z</time></trkpt><trkpt lat="44.52221249402833" lon="0.9360368529527126"><ele>86.0</ele><time>2026-04-03T18:27:53.999Z</time></trkpt><trkpt lat="44.52211069671056" lon="0.9360184024232908"><ele>86.0</ele><time>2026-04-03T18:27:55.999Z</time></trkpt><trkpt lat="44.52203586142475" lon="0.9360052733474643"><ele>86.0</ele><time>2026-04-03T18:27:57.999Z</time></trkpt><trkpt lat="44.52194354884402" lon="0.935982282572447"><ele>86.0</ele><time>2026-04-03T18:27:59.999Z</time></trkpt><trkpt lat="44.52183480589188" lon="0.9359507212097558"><ele>86.0</ele><time>2026-04-03T18:28:01.999Z</time></trkpt><trkpt lat="44.52171912213154" lon="0.9359237682863232"><ele>88.5</ele><time>2026-04-03T18:28:03.999Z</time></trkpt><trkpt lat="44.52159978660771" lon="0.9358799777932232"><ele>91.0</ele><time>2026-04-03T18:28:05.999Z</time></trkpt><trkpt lat="44.521490711597544" lon="0.9358341555033408"><ele>93.5</ele><time>2026-04-03T18:28:07.999Z</time></trkpt><trkpt lat="44.52138520071728" lon="0.9357744422308808"><ele>96.0</ele><time>2026-04-03T18:28:09.999Z</time></trkpt><trkpt lat="44.521300177849476" lon="0.935674671533555"><ele>96.0</ele><time>2026-04-03T18:28:11.999Z</time></trkpt><trkpt lat="44.521243383930695" lon="0.9355576893391458"><ele>96.0</ele><time>2026-04-03T18:28:13.999Z</time></trkpt><trkpt lat="44.5212076464218" lon="0.9354315892675714"><ele>96.0</ele><time>2026-04-03T18:28:15.999Z</time></trkpt><trkpt lat="44.521193791725054" lon="0.9352903158537752"><ele>96.0</ele><time>2026-04-03T18:28:17.999Z</time></trkpt><trkpt lat="44.52120042294524" lon="0.9351610919782399"><ele>96.0</ele><time>2026-04-03T18:28:19.999Z</time></trkpt><trkpt lat="44.5212290677976" lon="0.9350287966876238"><ele>96.28571428571428</ele><time>2026-04-03T18:28:21.999Z</time></trkpt><trkpt lat="44.521248298811344" lon="0.9349443066097091"><ele>96.57142857142857</ele><time>2026-04-03T18:28:22.999Z</time></trkpt><trkpt lat="44.52129514881631" lon="0.9348741001505526"><ele>96.85714285714286</ele><time>2026-04-03T18:28:23.999Z</time></trkpt><trkpt lat="44.52133464395506" lon="0.9347841719986354"><ele>97.14285714285714</ele><time>2026-04-03T18:28:24.999Z</time></trkpt><trkpt lat="44.521396612463754" lon="0.9347005812030257"><ele>97.42857142857143</ele><time>2026-04-03T18:28:25.999Z</time></trkpt><trkpt lat="44.5214512718398" lon="0.9346131453839494"><ele>97.71428571428571</ele><time>2026-04-03T18:28:26.999Z</time></trkpt><trkpt lat="44.521495747760476" lon="0.9345392412319055"><ele>98.0</ele><time>2026-04-03T18:28:27.999Z</time></trkpt><trkpt lat="44.52155625281555" lon="0.9344359946137899"><ele>98.0</ele><time>2026-04-03T18:28:29.999Z</time></trkpt><trkpt lat="44.521611141582135" lon="0.9343508832029095"><ele>98.0</ele><time>2026-04-03T18:28:31.999Z</time></trkpt><trkpt lat="44.52165612755401" lon="0.9342247434014924"><ele>98.0</ele><time>2026-04-03T18:28:33.999Z</time></trkpt><trkpt lat="44.52170151471505" lon="0.9340959045067987"><ele>98.0</ele><time>2026-04-03T18:28:35.999Z</time></trkpt><trkpt lat="44.521744299128414" lon="0.933962835417077"><ele>98.0</ele><time>2026-04-03T18:28:37.999Z</time></trkpt><trkpt lat="44.5217785992783" lon="0.9338287694643203"><ele>97.4</ele><time>2026-04-03T18:28:39.998Z</time></trkpt><trkpt lat="44.52180659047484" lon="0.9336645634008093"><ele>96.80000000000001</ele><time>2026-04-03T18:28:41.998Z</time></trkpt><trkpt lat="44.52181025873314" lon="0.9335278311174218"><ele>96.2</ele><time>2026-04-03T18:28:42.998Z</time></trkpt><trkpt lat="44.521806882157485" lon="0.9334257216875996"><ele>95.6</ele><time>2026-04-03T18:28:43.998Z</time></trkpt><trkpt lat="44.52178216617832" lon="0.9332828079249145"><ele>95.0</ele><time>2026-04-03T18:28:45.998Z</time></trkpt><trkpt lat="44.52178682744442" lon="0.933191653421128"><ele>94.0</ele><time>2026-04-03T18:28:46.998Z</time></trkpt><trkpt lat="44.52174192667593" lon="0.9330297503818384"><ele>93.0</ele><time>2026-04-03T18:28:49Z</time></trkpt><trkpt lat="44.521703138796994" lon="0.9328930028513133"><ele>92.0</ele><time>2026-04-03T18:28:51Z</time></trkpt><trkpt lat="44.521659643649826" lon="0.9327351601946876"><ele>91.0</ele><time>2026-04-03T18:28:53Z</time></trkpt><trkpt lat="44.521634141769994" lon="0.9325869345479474"><ele>91.4</ele><time>2026-04-03T18:28:55Z</time></trkpt><trkpt lat="44.52158136419539" lon="0.9323745483471231"><ele>91.8</ele><time>2026-04-03T18:28:57Z</time></trkpt><trkpt lat="44.52153489550077" lon="0.9322582122161926"><ele>92.2</ele><time>2026-04-03T18:28:58Z</time></trkpt><trkpt lat="44.521477437354534" lon="0.9321586172884836"><ele>92.60000000000001</ele><time>2026-04-03T18:28:59Z</time></trkpt><trkpt lat="44.521433343843405" lon="0.932076315610681"><ele>93.0</ele><time>2026-04-03T18:29:00Z</time></trkpt><trkpt lat="44.52134437242486" lon="0.9319644569207503"><ele>93.0</ele><time>2026-04-03T18:29:02Z</time></trkpt><trkpt lat="44.52125050226365" lon="0.9318791835379799"><ele>93.0</ele><time>2026-04-03T18:29:04Z</time></trkpt><trkpt lat="44.521187852889796" lon="0.9318427123666475"><ele>93.0</ele><time>2026-04-03T18:29:05Z</time></trkpt><trkpt lat="44.52112155044172" lon="0.9318128085865116"><ele>93.0</ele><time>2026-04-03T18:29:06Z</time></trkpt><trkpt lat="44.521050268222886" lon="0.9317992729567429"><ele>93.0</ele><time>2026-04-03T18:29:07Z</time></trkpt><trkpt lat="44.52097401338505" lon="0.931805282278074"><ele>93.0</ele><time>2026-04-03T18:29:08Z</time></trkpt><trkpt lat="44.52089448986993" lon="0.9318243102360124"><ele>91.66666666666667</ele><time>2026-04-03T18:29:09Z</time></trkpt><trkpt lat="44.520821322238994" lon="0.9318600467805238"><ele>90.33333333333333</ele><time>2026-04-03T18:29:10Z</time></trkpt><trkpt lat="44.52073551366255" lon="0.9319002811150946"><ele>89.0</ele><time>2026-04-03T18:29:11Z</time></trkpt><trkpt lat="44.52065365516234" lon="0.9319440823644481"><ele>87.66666666666666</ele><time>2026-04-03T18:29:12Z</time></trkpt><trkpt lat="44.52058676742636" lon="0.9319666246978443"><ele>86.33333333333333</ele><time>2026-04-03T18:29:13Z</time></trkpt><trkpt lat="44.520508937023045" lon="0.9319856105566463"><ele>85.0</ele><time>2026-04-03T18:29:14Z</time></trkpt><trkpt lat="44.52044394439298" lon="0.9320365888882441"><ele>85.5</ele><time>2026-04-03T18:29:15Z</time></trkpt><trkpt lat="44.5203769154728" lon="0.9320744918258868"><ele>86.0</ele><time>2026-04-03T18:29:16Z</time></trkpt><trkpt lat="44.520305610113866" lon="0.932089073207163"><ele>86.5</ele><time>2026-04-03T18:29:17Z</time></trkpt><trkpt lat="44.52023648555759" lon="0.932122223478023"><ele>87.0</ele><time>2026-04-03T18:29:18Z</time></trkpt><trkpt lat="44.5201622014248" lon="0.9321768814672092"><ele>87.5</ele><time>2026-04-03T18:29:19Z</time></trkpt><trkpt lat="44.520089705348546" lon="0.9322076183308556"><ele>88.0</ele><time>2026-04-03T18:29:20Z</time></trkpt><trkpt lat="44.52001119065785" lon="0.9322457133713925"><ele>88.0</ele><time>2026-04-03T18:29:21Z</time></trkpt><trkpt lat="44.51992849199608" lon="0.9322840565235829"><ele>88.0</ele><time>2026-04-03T18:29:22Z</time></trkpt><trkpt lat="44.519847607196986" lon="0.9323248538913692"><ele>88.0</ele><time>2026-04-03T18:29:23Z</time></trkpt><trkpt lat="44.51976345844758" lon="0.9323628938501588"><ele>88.0</ele><time>2026-04-03T18:29:24Z</time></trkpt><trkpt lat="44.519682312542" lon="0.9324219843477779"><ele>88.0</ele><time>2026-04-03T18:29:25Z</time></trkpt><trkpt lat="44.51959967257735" lon="0.9324762411224439"><ele>88.0</ele><time>2026-04-03T18:29:26Z</time></trkpt><trkpt lat="44.51952832522973" lon="0.9325340205162784"><ele>88.33333333333333</ele><time>2026-04-03T18:29:27Z</time></trkpt><trkpt lat="44.519458105236325" lon="0.9326026333284968"><ele>88.66666666666666</ele><time>2026-04-03T18:29:28Z</time></trkpt><trkpt lat="44.519382020981645" lon="0.932657802145316"><ele>89.0</ele><time>2026-04-03T18:29:29Z</time></trkpt><trkpt lat="44.51930649270683" lon="0.9327166543322583"><ele>89.33333333333333</ele><time>2026-04-03T18:29:30Z</time></trkpt><trkpt lat="44.51922801594086" lon="0.9327767966260723"><ele>89.66666666666667</ele><time>2026-04-03T18:29:31Z</time></trkpt><trkpt lat="44.51915046507521" lon="0.9328393189311027"><ele>90.0</ele><time>2026-04-03T18:29:32Z</time></trkpt><trkpt lat="44.51907392503436" lon="0.932906403092686"><ele>90.0</ele><time>2026-04-03T18:29:33Z</time></trkpt><trkpt lat="44.51898685768569" lon="0.9329808382794809"><ele>90.0</ele><time>2026-04-03T18:29:34Z</time></trkpt><trkpt lat="44.518887442399055" lon="0.933042021089926"><ele>90.0</ele><time>2026-04-03T18:29:35Z</time></trkpt><trkpt lat="44.5187734733015" lon="0.9331163762366178"><ele>90.0</ele><time>2026-04-03T18:29:36Z</time></trkpt><trkpt lat="44.51864637830468" lon="0.933180048688747"><ele>91.5</ele><time>2026-04-03T18:29:37Z</time></trkpt><trkpt lat="44.51851820920474" lon="0.9332150719323387"><ele>93.0</ele><time>2026-04-03T18:29:38Z</time></trkpt><trkpt lat="44.51837112544419" lon="0.9332819460294113"><ele>94.5</ele><time>2026-04-03T18:29:38.999Z</time></trkpt><trkpt lat="44.51822904482723" lon="0.9333332939822846"><ele>96.0</ele><time>2026-04-03T18:29:39.999Z</time></trkpt><trkpt lat="44.51807693100097" lon="0.9333842435325753"><ele>96.0</ele><time>2026-04-03T18:29:40.999Z</time></trkpt><trkpt lat="44.517924476832654" lon="0.9334337764041192"><ele>96.0</ele><time>2026-04-03T18:29:41.999Z</time></trkpt><trkpt lat="44.51776990520158" lon="0.9334868988793302"><ele>96.0</ele><time>2026-04-03T18:29:42.999Z</time></trkpt><trkpt lat="44.51761805982425" lon="0.9335011344754051"><ele>96.0</ele><time>2026-04-03T18:29:43.999Z</time></trkpt><trkpt lat="44.51749582677529" lon="0.9334644818718825"><ele>96.0</ele><time>2026-04-03T18:29:44.999Z</time></trkpt><trkpt lat="44.51739344103858" lon="0.933457003084276"><ele>96.0</ele><time>2026-04-03T18:29:45.999Z</time></trkpt><trkpt lat="44.51730033513118" lon="0.9334380795323395"><ele>96.0</ele><time>2026-04-03T18:29:46.999Z</time></trkpt><trkpt lat="44.51721629962256" lon="0.9334042859087485"><ele>96.0</ele><time>2026-04-03T18:29:47.999Z</time></trkpt><trkpt lat="44.517143424839105" lon="0.9333824156422063"><ele>95.83333333333333</ele><time>2026-04-03T18:29:48.999Z</time></trkpt><trkpt lat="44.51705365551038" lon="0.9333560725060823"><ele>95.66666666666667</ele><time>2026-04-03T18:29:50.999Z</time></trkpt><trkpt lat="44.51698530720092" lon="0.9333262509432019"><ele>95.5</ele><time>2026-04-03T18:29:53.999Z</time></trkpt><trkpt lat="44.5169182379305" lon="0.9332947676169245"><ele>95.33333333333334</ele><time>2026-04-03T18:29:57.999Z</time></trkpt><trkpt lat="44.51698069524289" lon="0.9333415139702834"><ele>95.16666666666667</ele><time>2026-04-03T18:30:04.999Z</time></trkpt><trkpt lat="44.517069845069194" lon="0.9333850850034628"><ele>95.0</ele><time>2026-04-03T18:30:07.999Z</time></trkpt><trkpt lat="44.517036335396526" lon="0.9337266470780898"><ele>95.0</ele><time>2026-04-03T18:30:08.999Z</time></trkpt><trkpt lat="44.51703623711125" lon="0.9339204604298298"><ele>95.0</ele><time>2026-04-03T18:30:10.999Z</time></trkpt><trkpt lat="44.51703315289248" lon="0.9340288759684157"><ele>95.0</ele><time>2026-04-03T18:30:11.999Z</time></trkpt><trkpt lat="44.517029744174316" lon="0.9341405938960307"><ele>95.0</ele><time>2026-04-03T18:30:12.999Z</time></trkpt><trkpt lat="44.51702633485704" lon="0.9342523314727303"><ele>95.0</ele><time>2026-04-03T18:30:13.999Z</time></trkpt><trkpt lat="44.51702289328612" lon="0.9343661991570197"><ele>94.28571428571429</ele><time>2026-04-03T18:30:14.999Z</time></trkpt><trkpt lat="44.51702095014131" lon="0.9344601479819373"><ele>93.57142857142858</ele><time>2026-04-03T18:30:15.999Z</time></trkpt><trkpt lat="44.51701881499538" lon="0.9345633796256447"><ele>92.85714285714286</ele><time>2026-04-03T18:30:16.999Z</time></trkpt><trkpt lat="44.51701674706984" lon="0.9346633613951503"><ele>92.14285714285714</ele><time>2026-04-03T18:30:17.999Z</time></trkpt><trkpt lat="44.51701484853044" lon="0.9347551534035131"><ele>91.42857142857143</ele><time>2026-04-03T18:30:18.999Z</time></trkpt><trkpt lat="44.51701317081933" lon="0.9348512808242201"><ele>90.71428571428571</ele><time>2026-04-03T18:30:19.999Z</time></trkpt><trkpt lat="44.517009737527395" lon="0.9349445920622735"><ele>90.0</ele><time>2026-04-03T18:30:20.999Z</time></trkpt><trkpt lat="44.51701578500607" lon="0.9350416770137945"><ele>89.28571428571428</ele><time>2026-04-03T18:30:21.999Z</time></trkpt><trkpt lat="44.51699887088496" lon="0.9351318398066565"><ele>88.57142857142858</ele><time>2026-04-03T18:30:22.999Z</time></trkpt><trkpt lat="44.516981312769914" lon="0.935229807732782"><ele>87.85714285714286</ele><time>2026-04-03T18:30:23.999Z</time></trkpt><trkpt lat="44.51698589905781" lon="0.9353340333532556"><ele>87.14285714285714</ele><time>2026-04-03T18:30:24.999Z</time></trkpt><trkpt lat="44.516981605390825" lon="0.935444394166318"><ele>86.42857142857142</ele><time>2026-04-03T18:30:25.999Z</time></trkpt><trkpt lat="44.51698053293049" lon="0.9355532111390152"><ele>85.71428571428572</ele><time>2026-04-03T18:30:26.999Z</time></trkpt><trkpt lat="44.516979295050994" lon="0.9356611830408625"><ele>85.0</ele><time>2026-04-03T18:30:27.999Z</time></trkpt><trkpt lat="44.516970933829334" lon="0.9357636757067119"><ele>85.0</ele><time>2026-04-03T18:30:28.999Z</time></trkpt><trkpt lat="44.516938073938924" lon="0.9358549854134292"><ele>85.0</ele><time>2026-04-03T18:30:29.999Z</time></trkpt><trkpt lat="44.51688303919236" lon="0.9359240485065674"><ele>85.0</ele><time>2026-04-03T18:30:30.999Z</time></trkpt><trkpt lat="44.51680766609129" lon="0.9359401509245194"><ele>85.0</ele><time>2026-04-03T18:30:31.999Z</time></trkpt><trkpt lat="44.51671257831324" lon="0.9360187139010706"><ele>85.0</ele><time>2026-04-03T18:30:33.999Z</time></trkpt><trkpt lat="44.516631174850794" lon="0.9360455468490306"><ele>85.0</ele><time>2026-04-03T18:30:35.999Z</time></trkpt><trkpt lat="44.516678949852626" lon="0.9363108145875246"><ele>84.16666666666666</ele><time>2026-04-03T18:30:40.999Z</time></trkpt><trkpt lat="44.51668705067355" lon="0.9364153933376838"><ele>83.33333333333333</ele><time>2026-04-03T18:30:43.999Z</time></trkpt><trkpt lat="44.51667567445675" lon="0.9365276267765273"><ele>82.5</ele><time>2026-04-03T18:30:46.999Z</time></trkpt><trkpt lat="44.51662138923969" lon="0.9365811710315345"><ele>81.66666666666667</ele><time>2026-04-03T18:30:48.998Z</time></trkpt><trkpt lat="44.516548071370295" lon="0.936585548277414"><ele>80.83333333333334</ele><time>2026-04-03T18:30:50.998Z</time></trkpt><trkpt lat="44.516471887922016" lon="0.936568940935757"><ele>80.0</ele><time>2026-04-03T18:30:52.998Z</time></trkpt><trkpt lat="44.51636549144338" lon="0.9365474725465878"><ele>80.0</ele><time>2026-04-03T18:30:55Z</time></trkpt><trkpt lat="44.51627829439292" lon="0.9365278506710779"><ele>80.0</ele><time>2026-04-03T18:30:56Z</time></trkpt><trkpt lat="44.516176938297384" lon="0.9365058714581463"><ele>80.0</ele><time>2026-04-03T18:30:57Z</time></trkpt><trkpt lat="44.51606673473483" lon="0.9365018038953001"><ele>80.0</ele><time>2026-04-03T18:30:58Z</time></trkpt><trkpt lat="44.515933883423536" lon="0.9365152122119672"><ele>80.0</ele><time>2026-04-03T18:30:59Z</time></trkpt><trkpt lat="44.515804842410645" lon="0.936524834042303"><ele>80.0</ele><time>2026-04-03T18:31:00Z</time></trkpt><trkpt lat="44.51566646655554" lon="0.9365515580827038"><ele>80.0</ele><time>2026-04-03T18:31:01Z</time></trkpt><trkpt lat="44.51552269555836" lon="0.9365710899112478"><ele>80.0</ele><time>2026-04-03T18:31:02Z</time></trkpt><trkpt lat="44.51535702984751" lon="0.9365955049921282"><ele>80.5</ele><time>2026-04-03T18:31:03Z</time></trkpt><trkpt lat="44.515201854234455" lon="0.9366258754622993"><ele>81.0</ele><time>2026-04-03T18:31:04Z</time></trkpt><trkpt lat="44.51507753901527" lon="0.9366662199224638"><ele>81.5</ele><time>2026-04-03T18:31:05Z</time></trkpt><trkpt lat="44.51496011794899" lon="0.9366845082079578"><ele>82.0</ele><time>2026-04-03T18:31:06Z</time></trkpt><trkpt lat="44.51484967645096" lon="0.9367179953873972"><ele>81.19999999999999</ele><time>2026-04-03T18:31:07Z</time></trkpt><trkpt lat="44.51474961622919" lon="0.936756762027601"><ele>80.39999999999999</ele><time>2026-04-03T18:31:08Z</time></trkpt><trkpt lat="44.51466299570265" lon="0.9367596980680378"><ele>79.6</ele><time>2026-04-03T18:31:09Z</time></trkpt><trkpt lat="44.514568339131564" lon="0.9367667245428418"><ele>78.8</ele><time>2026-04-03T18:31:10Z</time></trkpt><trkpt lat="44.5144643330093" lon="0.9367898153248697"><ele>78.0</ele><time>2026-04-03T18:31:11Z</time></trkpt><trkpt lat="44.514376691697066" lon="0.9368243804686334"><ele>78.0</ele><time>2026-04-03T18:31:12Z</time></trkpt><trkpt lat="44.514278222173125" lon="0.9368456899034956"><ele>78.0</ele><time>2026-04-03T18:31:13Z</time></trkpt><trkpt lat="44.51417598021138" lon="0.9368761032548447"><ele>78.0</ele><time>2026-04-03T18:31:14Z</time></trkpt><trkpt lat="44.51407201218632" lon="0.9369055718942848"><ele>78.0</ele><time>2026-04-03T18:31:15Z</time></trkpt><trkpt lat="44.513984010727576" lon="0.9369360333554594"><ele>78.0</ele><time>2026-04-03T18:31:16Z</time></trkpt><trkpt lat="44.5138701890458" lon="0.9370089748396768"><ele>78.25</ele><time>2026-04-03T18:31:18Z</time></trkpt><trkpt lat="44.5136862512205" lon="0.9370293062529523"><ele>78.5</ele><time>2026-04-03T18:31:19Z</time></trkpt><trkpt lat="44.513584863274495" lon="0.937065894820602"><ele>78.75</ele><time>2026-04-03T18:31:20Z</time></trkpt><trkpt lat="44.51347685368248" lon="0.9371258832679559"><ele>79.0</ele><time>2026-04-03T18:31:21Z</time></trkpt><trkpt lat="44.51336377712777" lon="0.937177275643128"><ele>79.0</ele><time>2026-04-03T18:31:22Z</time></trkpt><trkpt lat="44.51322166147127" lon="0.9372462971992997"><ele>79.0</ele><time>2026-04-03T18:31:23Z</time></trkpt><trkpt lat="44.51307110328868" lon="0.9373119376465909"><ele>79.0</ele><time>2026-04-03T18:31:24Z</time></trkpt><trkpt lat="44.51292939064258" lon="0.9373623998205294"><ele>79.5</ele><time>2026-04-03T18:31:25Z</time></trkpt><trkpt lat="44.51282482393098" lon="0.9374357654284348"><ele>80.0</ele><time>2026-04-03T18:31:26Z</time></trkpt><trkpt lat="44.512711320956974" lon="0.9374928301028267"><ele>80.5</ele><time>2026-04-03T18:31:27Z</time></trkpt><trkpt lat="44.512613769940096" lon="0.9375426516683794"><ele>81.0</ele><time>2026-04-03T18:31:28Z</time></trkpt><trkpt lat="44.51250431191976" lon="0.9375862494066334"><ele>81.0</ele><time>2026-04-03T18:31:29Z</time></trkpt><trkpt lat="44.512395933726744" lon="0.9376322894083169"><ele>81.0</ele><time>2026-04-03T18:31:30Z</time></trkpt><trkpt lat="44.51227367040056" lon="0.9376931777468681"><ele>81.0</ele><time>2026-04-03T18:31:31Z</time></trkpt><trkpt lat="44.512147111839106" lon="0.9377605274784928"><ele>81.0</ele><time>2026-04-03T18:31:32Z</time></trkpt><trkpt lat="44.512013375593384" lon="0.9378289967329531"><ele>81.0</ele><time>2026-04-03T18:31:33Z</time></trkpt><trkpt lat="44.511886868185215" lon="0.9379224150768631"><ele>81.0</ele><time>2026-04-03T18:31:34Z</time></trkpt><trkpt lat="44.51177329706527" lon="0.9379665733896759"><ele>81.0</ele><time>2026-04-03T18:31:35Z</time></trkpt><trkpt lat="44.51168558020391" lon="0.9380095816433544"><ele>81.0</ele><time>2026-04-03T18:31:36Z</time></trkpt><trkpt lat="44.511621264280684" lon="0.9380913841731051"><ele>81.0</ele><time>2026-04-03T18:31:37Z</time></trkpt><trkpt lat="44.511553170851634" lon="0.9381685009637396"><ele>81.0</ele><time>2026-04-03T18:31:38Z</time></trkpt><trkpt lat="44.51150831129519" lon="0.938253403995796"><ele>81.0</ele><time>2026-04-03T18:31:39Z</time></trkpt><trkpt lat="44.51144387829047" lon="0.9382882709124615"><ele>81.0</ele><time>2026-04-03T18:31:40Z</time></trkpt><trkpt lat="44.51137758935352" lon="0.9383500244946874"><ele>81.0</ele><time>2026-04-03T18:31:41Z</time></trkpt><trkpt lat="44.511312370080155" lon="0.9383780330659148"><ele>81.0</ele><time>2026-04-03T18:31:42Z</time></trkpt><trkpt lat="44.51118910792449" lon="0.9384343975535172"><ele>81.0</ele><time>2026-04-03T18:31:44Z</time></trkpt><trkpt lat="44.51106842872704" lon="0.9384576100791834"><ele>80.8</ele><time>2026-04-03T18:31:45.999Z</time></trkpt><trkpt lat="44.51098408555409" lon="0.9384839941258354"><ele>80.6</ele><time>2026-04-03T18:31:46.999Z</time></trkpt><trkpt lat="44.51090877075086" lon="0.9385025530993162"><ele>80.4</ele><time>2026-04-03T18:31:47.999Z</time></trkpt><trkpt lat="44.510816931658816" lon="0.9385417388354003"><ele>80.2</ele><time>2026-04-03T18:31:48.999Z</time></trkpt><trkpt lat="44.510728305505495" lon="0.9385928862603923"><ele>80.0</ele><time>2026-04-03T18:31:49.999Z</time></trkpt><trkpt lat="44.51063527063574" lon="0.938666719595116"><ele>80.0</ele><time>2026-04-03T18:31:50.999Z</time></trkpt><trkpt lat="44.510525455735745" lon="0.9387321517428694"><ele>80.0</ele><time>2026-04-03T18:31:51.999Z</time></trkpt><trkpt lat="44.5104304962879" lon="0.9388305571939933"><ele>80.0</ele><time>2026-04-03T18:31:52.999Z</time></trkpt><trkpt lat="44.5103041689899" lon="0.938901406745453"><ele>80.0</ele><time>2026-04-03T18:31:53.999Z</time></trkpt><trkpt lat="44.51019254626018" lon="0.938986783359896"><ele>79.75</ele><time>2026-04-03T18:31:54.999Z</time></trkpt><trkpt lat="44.5100792290904" lon="0.9390900036390899"><ele>79.5</ele><time>2026-04-03T18:31:55.999Z</time></trkpt><trkpt lat="44.50998504723335" lon="0.9391612480075142"><ele>79.25</ele><time>2026-04-03T18:31:56.999Z</time></trkpt><trkpt lat="44.509863477997676" lon="0.9392382490958353"><ele>79.0</ele><time>2026-04-03T18:31:57.999Z</time></trkpt><trkpt lat="44.509751090190974" lon="0.9393154347476204"><ele>79.0</ele><time>2026-04-03T18:31:58.999Z</time></trkpt><trkpt lat="44.50963275892136" lon="0.9394035745961105"><ele>79.0</ele><time>2026-04-03T18:31:59.999Z</time></trkpt><trkpt lat="44.50951450139899" lon="0.9394962022159871"><ele>79.0</ele><time>2026-04-03T18:32:00.999Z</time></trkpt><trkpt lat="44.509400527565994" lon="0.9395992234996214"><ele>79.0</ele><time>2026-04-03T18:32:01.999Z</time></trkpt><trkpt lat="44.50927408959458" lon="0.9396792019498295"><ele>79.0</ele><time>2026-04-03T18:32:02.999Z</time></trkpt><trkpt lat="44.50916773119152" lon="0.939754097256604"><ele>79.0</ele><time>2026-04-03T18:32:03.999Z</time></trkpt><trkpt lat="44.50905946146278" lon="0.9398455538489306"><ele>79.0</ele><time>2026-04-03T18:32:04.999Z</time></trkpt><trkpt lat="44.50892695380332" lon="0.9399443789313578"><ele>79.0</ele><time>2026-04-03T18:32:05.999Z</time></trkpt><trkpt lat="44.50879076956431" lon="0.9400409289231397"><ele>79.0</ele><time>2026-04-03T18:32:06.999Z</time></trkpt><trkpt lat="44.50867433788155" lon="0.9401298413194604"><ele>79.0</ele><time>2026-04-03T18:32:07.999Z</time></trkpt><trkpt lat="44.50856729245397" lon="0.9401896603748147"><ele>79.0</ele><time>2026-04-03T18:32:08.999Z</time></trkpt><trkpt lat="44.50845642587676" lon="0.9403001681207902"><ele>79.0</ele><time>2026-04-03T18:32:09.999Z</time></trkpt><trkpt lat="44.50834066218641" lon="0.9403923843182022"><ele>79.0</ele><time>2026-04-03T18:32:10.999Z</time></trkpt><trkpt lat="44.50821041913985" lon="0.9404709283280066"><ele>79.0</ele><time>2026-04-03T18:32:11.999Z</time></trkpt><trkpt lat="44.508084018081036" lon="0.9405899054193534"><ele>79.0</ele><time>2026-04-03T18:32:12.999Z</time></trkpt><trkpt lat="44.50794487875328" lon="0.940698700796883"><ele>79.5</ele><time>2026-04-03T18:32:13.999Z</time></trkpt><trkpt lat="44.50781496654521" lon="0.940817857720578"><ele>80.0</ele><time>2026-04-03T18:32:14.999Z</time></trkpt><trkpt lat="44.50767320474422" lon="0.9409048815390662"><ele>80.5</ele><time>2026-04-03T18:32:15.999Z</time></trkpt><trkpt lat="44.50755969540894" lon="0.9409839373151332"><ele>81.0</ele><time>2026-04-03T18:32:16.999Z</time></trkpt><trkpt lat="44.50744934618404" lon="0.9410585937602048"><ele>81.0</ele><time>2026-04-03T18:32:17.999Z</time></trkpt><trkpt lat="44.50735252882138" lon="0.9411337369484584"><ele>81.0</ele><time>2026-04-03T18:32:18.999Z</time></trkpt><trkpt lat="44.50728308313353" lon="0.9411895888301676"><ele>81.0</ele><time>2026-04-03T18:32:19.999Z</time></trkpt><trkpt lat="44.50719147387195" lon="0.9412790783674608"><ele>81.0</ele><time>2026-04-03T18:32:21.999Z</time></trkpt><trkpt lat="44.5071692672375" lon="0.9413659757938541"><ele>81.0</ele><time>2026-04-03T18:32:23.999Z</time></trkpt><trkpt lat="44.50710242397695" lon="0.9413896800520446"><ele>81.0</ele><time>2026-04-03T18:32:26.999Z</time></trkpt><trkpt lat="44.507034252237794" lon="0.941452690633961"><ele>80.83333333333333</ele><time>2026-04-03T18:32:28.999Z</time></trkpt><trkpt lat="44.50695657763209" lon="0.94148227257616"><ele>80.66666666666667</ele><time>2026-04-03T18:32:29.999Z</time></trkpt><trkpt lat="44.50687192770208" lon="0.9415017338867137"><ele>80.5</ele><time>2026-04-03T18:32:30.999Z</time></trkpt><trkpt lat="44.50678219870701" lon="0.9415213435919842"><ele>80.33333333333334</ele><time>2026-04-03T18:32:31.999Z</time></trkpt><trkpt lat="44.50669439470341" lon="0.9415323435789685"><ele>80.16666666666667</ele><time>2026-04-03T18:32:32.999Z</time></trkpt><trkpt lat="44.50659898626552" lon="0.9415333305592101"><ele>80.0</ele><time>2026-04-03T18:32:33.999Z</time></trkpt><trkpt lat="44.506496395076475" lon="0.9415545834851444"><ele>80.0</ele><time>2026-04-03T18:32:34.999Z</time></trkpt><trkpt lat="44.50638583149869" lon="0.9415540942329209"><ele>80.0</ele><time>2026-04-03T18:32:35.999Z</time></trkpt><trkpt lat="44.50629597478764" lon="0.9415779210576897"><ele>80.0</ele><time>2026-04-03T18:32:36.999Z</time></trkpt><trkpt lat="44.50619710726369" lon="0.9415576758494205"><ele>80.0</ele><time>2026-04-03T18:32:37.999Z</time></trkpt><trkpt lat="44.506089081097784" lon="0.9415955032476894"><ele>80.0</ele><time>2026-04-03T18:32:38.999Z</time></trkpt><trkpt lat="44.50598976030954" lon="0.9416015037749618"><ele>79.5</ele><time>2026-04-03T18:32:39.999Z</time></trkpt><trkpt lat="44.505891804993716" lon="0.9416399319045309"><ele>79.0</ele><time>2026-04-03T18:32:40.999Z</time></trkpt><trkpt lat="44.505776657987326" lon="0.941674998754085"><ele>78.5</ele><time>2026-04-03T18:32:41.999Z</time></trkpt><trkpt lat="44.505641671308034" lon="0.9416646803363689"><ele>78.0</ele><time>2026-04-03T18:32:42.999Z</time></trkpt><trkpt lat="44.505508530221476" lon="0.941680238339438"><ele>77.75</ele><time>2026-04-03T18:32:43.999Z</time></trkpt><trkpt lat="44.505380188381295" lon="0.9417025957326677"><ele>77.5</ele><time>2026-04-03T18:32:44.999Z</time></trkpt><trkpt lat="44.505225757159096" lon="0.9417171607049637"><ele>77.25</ele><time>2026-04-03T18:32:45.999Z</time></trkpt><trkpt lat="44.50507082775885" lon="0.9417204021543241"><ele>77.0</ele><time>2026-04-03T18:32:46.999Z</time></trkpt><trkpt lat="44.50490080695651" lon="0.9417166667229033"><ele>76.75</ele><time>2026-04-03T18:32:47.999Z</time></trkpt><trkpt lat="44.50474660373656" lon="0.9417433953781822"><ele>76.5</ele><time>2026-04-03T18:32:48.999Z</time></trkpt><trkpt lat="44.504597530720176" lon="0.9417581360668823"><ele>76.25</ele><time>2026-04-03T18:32:49.999Z</time></trkpt><trkpt lat="44.504471713362484" lon="0.9417747779003683"><ele>76.0</ele><time>2026-04-03T18:32:50.999Z</time></trkpt><trkpt lat="44.50435805334196" lon="0.9417795812259776"><ele>75.8</ele><time>2026-04-03T18:32:51.999Z</time></trkpt><trkpt lat="44.50425552562053" lon="0.9417800146569387"><ele>75.6</ele><time>2026-04-03T18:32:52.999Z</time></trkpt><trkpt lat="44.504160646590435" lon="0.9417843332532261"><ele>75.4</ele><time>2026-04-03T18:32:53.998Z</time></trkpt><trkpt lat="44.50406559507822" lon="0.9417973763552272"><ele>75.2</ele><time>2026-04-03T18:32:54.998Z</time></trkpt><trkpt lat="44.50396049488409" lon="0.941803549506508"><ele>75.0</ele><time>2026-04-03T18:32:55.998Z</time></trkpt><trkpt lat="44.50386937135834" lon="0.9418018063502853"><ele>75.0</ele><time>2026-04-03T18:32:56.998Z</time></trkpt><trkpt lat="44.50378515104622" lon="0.9417976830750029"><ele>75.0</ele><time>2026-04-03T18:32:57.998Z</time></trkpt><trkpt lat="44.50369223356619" lon="0.9418230957246068"><ele>75.0</ele><time>2026-04-03T18:32:58.998Z</time></trkpt><trkpt lat="44.50357506972907" lon="0.9418250675403103"><ele>75.0</ele><time>2026-04-03T18:33:01Z</time></trkpt><trkpt lat="44.50344263450385" lon="0.9418425717241453"><ele>75.0</ele><time>2026-04-03T18:33:03Z</time></trkpt><trkpt lat="44.50334216524554" lon="0.9418445208791006"><ele>75.0</ele><time>2026-04-03T18:33:05Z</time></trkpt><trkpt lat="44.503239004637294" lon="0.9418436726661171"><ele>75.0</ele><time>2026-04-03T18:33:07Z</time></trkpt><trkpt lat="44.50313629337303" lon="0.941861277391671"><ele>75.0</ele><time>2026-04-03T18:33:09Z</time></trkpt><trkpt lat="44.503030900551856" lon="0.9418635121394057"><ele>75.0</ele><time>2026-04-03T18:33:11Z</time></trkpt><trkpt lat="44.502912241581214" lon="0.9418698591859339"><ele>75.0</ele><time>2026-04-03T18:33:13Z</time></trkpt><trkpt lat="44.50284782199674" lon="0.9418712283580206"><ele>75.16666666666667</ele><time>2026-04-03T18:33:14Z</time></trkpt><trkpt lat="44.502732739602195" lon="0.9418839184638853"><ele>75.33333333333333</ele><time>2026-04-03T18:33:16Z</time></trkpt><trkpt lat="44.50264680645161" lon="0.9418904506053568"><ele>75.5</ele><time>2026-04-03T18:33:18Z</time></trkpt><trkpt lat="44.50258127303379" lon="0.941908520054312"><ele>75.66666666666666</ele><time>2026-04-03T18:33:20Z</time></trkpt><trkpt lat="44.50251262109398" lon="0.9419009545423159"><ele>75.83333333333333</ele><time>2026-04-03T18:33:22Z</time></trkpt><trkpt lat="44.502425911531596" lon="0.9418957563403774"><ele>76.0</ele><time>2026-04-03T18:33:24Z</time></trkpt><trkpt lat="44.50235331971807" lon="0.9418916608387273"><ele>76.0</ele><time>2026-04-03T18:33:26Z</time></trkpt><trkpt lat="44.502269126535644" lon="0.9418920510692013"><ele>76.0</ele><time>2026-04-03T18:33:29Z</time></trkpt><trkpt lat="44.502184219792404" lon="0.9418950353559026"><ele>76.0</ele><time>2026-04-03T18:33:32Z</time></trkpt><trkpt lat="44.50209118484567" lon="0.9419080781846102"><ele>76.0</ele><time>2026-04-03T18:33:34Z</time></trkpt><trkpt lat="44.502027793981945" lon="0.9419226524252375"><ele>76.0</ele><time>2026-04-03T18:33:35Z</time></trkpt><trkpt lat="44.501913738113615" lon="0.9419514811272497"><ele>76.0</ele><time>2026-04-03T18:33:37Z</time></trkpt><trkpt lat="44.50177917784985" lon="0.941977843710251"><ele>76.6</ele><time>2026-04-03T18:33:39Z</time></trkpt><trkpt lat="44.50169607030109" lon="0.9419995307894979"><ele>77.19999999999999</ele><time>2026-04-03T18:33:40Z</time></trkpt><trkpt lat="44.50159709041396" lon="0.9420137159222088"><ele>77.80000000000001</ele><time>2026-04-03T18:33:41Z</time></trkpt><trkpt lat="44.501488179570174" lon="0.9420434684689039"><ele>78.4</ele><time>2026-04-03T18:33:42Z</time></trkpt><trkpt lat="44.50137516009577" lon="0.9420702404867695"><ele>79.0</ele><time>2026-04-03T18:33:43Z</time></trkpt><trkpt lat="44.501274698130565" lon="0.9420683642025277"><ele>78.60000000000001</ele><time>2026-04-03T18:33:44Z</time></trkpt><trkpt lat="44.50119487945213" lon="0.9420609728892113"><ele>78.2</ele><time>2026-04-03T18:33:45Z</time></trkpt><trkpt lat="44.50110848065037" lon="0.9420957752420032"><ele>77.80000000000001</ele><time>2026-04-03T18:33:46Z</time></trkpt><trkpt lat="44.50099633917699" lon="0.942141228124511"><ele>77.4</ele><time>2026-04-03T18:33:47Z</time></trkpt><trkpt lat="44.50089251752856" lon="0.9421877917104707"><ele>77.0</ele><time>2026-04-03T18:33:48Z</time></trkpt><trkpt lat="44.50078762852112" lon="0.942200826743983"><ele>77.0</ele><time>2026-04-03T18:33:49Z</time></trkpt><trkpt lat="44.50067290546452" lon="0.9421987533733152"><ele>77.0</ele><time>2026-04-03T18:33:49.999Z</time></trkpt><trkpt lat="44.5005366015249" lon="0.9421692996596643"><ele>77.0</ele><time>2026-04-03T18:33:50.999Z</time></trkpt><trkpt lat="44.500401715407975" lon="0.9421580072947112"><ele>77.0</ele><time>2026-04-03T18:33:51.999Z</time></trkpt><trkpt lat="44.50028057980579" lon="0.9421484341645279"><ele>76.6</ele><time>2026-04-03T18:33:52.999Z</time></trkpt><trkpt lat="44.50018052458815" lon="0.9421125667933947"><ele>76.2</ele><time>2026-04-03T18:33:53.999Z</time></trkpt><trkpt lat="44.500083626665386" lon="0.9420589042896532"><ele>75.8</ele><time>2026-04-03T18:33:54.999Z</time></trkpt><trkpt lat="44.49998767829562" lon="0.9420146991898566"><ele>75.4</ele><time>2026-04-03T18:33:55.999Z</time></trkpt><trkpt lat="44.49988606267676" lon="0.9420300312766304"><ele>75.0</ele><time>2026-04-03T18:33:56.999Z</time></trkpt><trkpt lat="44.49977638497434" lon="0.9420500465178373"><ele>75.0</ele><time>2026-04-03T18:33:57.999Z</time></trkpt><trkpt lat="44.49964302719613" lon="0.9420835060171259"><ele>75.0</ele><time>2026-04-03T18:33:58.999Z</time></trkpt><trkpt lat="44.49949139764185" lon="0.9421004135611231"><ele>75.0</ele><time>2026-04-03T18:33:59.999Z</time></trkpt><trkpt lat="44.49933748875562" lon="0.9421208868231417"><ele>75.0</ele><time>2026-04-03T18:34:00.999Z</time></trkpt><trkpt lat="44.499183857011765" lon="0.9421476803364829"><ele>74.5</ele><time>2026-04-03T18:34:01.999Z</time></trkpt><trkpt lat="44.49906416175333" lon="0.942146159788967"><ele>74.0</ele><time>2026-04-03T18:34:02.999Z</time></trkpt><trkpt lat="44.49894781356061" lon="0.9421607986603348"><ele>73.5</ele><time>2026-04-03T18:34:03.999Z</time></trkpt><trkpt lat="44.49881302492358" lon="0.9421700998788136"><ele>73.0</ele><time>2026-04-03T18:34:04.999Z</time></trkpt><trkpt lat="44.49867947829504" lon="0.9421781829456071"><ele>73.0</ele><time>2026-04-03T18:34:05.999Z</time></trkpt><trkpt lat="44.49856427447606" lon="0.9421824789020018"><ele>73.0</ele><time>2026-04-03T18:34:06.999Z</time></trkpt><trkpt lat="44.49846851198377" lon="0.9421821882498216"><ele>73.0</ele><time>2026-04-03T18:34:07.999Z</time></trkpt><trkpt lat="44.49838404001082" lon="0.9421944301280947"><ele>73.0</ele><time>2026-04-03T18:34:08.999Z</time></trkpt><trkpt lat="44.49830741932473" lon="0.9422085981742983"><ele>73.0</ele><time>2026-04-03T18:34:09.999Z</time></trkpt><trkpt lat="44.498218113090545" lon="0.9422268146282274"><ele>73.0</ele><time>2026-04-03T18:34:10.999Z</time></trkpt><trkpt lat="44.498140792540916" lon="0.9422722380278524"><ele>73.0</ele><time>2026-04-03T18:34:11.999Z</time></trkpt><trkpt lat="44.49807567223086" lon="0.9423444059648679"><ele>73.0</ele><time>2026-04-03T18:34:12.999Z</time></trkpt><trkpt lat="44.49801173469968" lon="0.9423664568074446"><ele>73.0</ele><time>2026-04-03T18:34:13.999Z</time></trkpt><trkpt lat="44.49792063912568" lon="0.9423629865583544"><ele>73.0</ele><time>2026-04-03T18:34:15.999Z</time></trkpt><trkpt lat="44.497843319402136" lon="0.9422344040354387"><ele>73.0</ele><time>2026-04-03T18:34:17.999Z</time></trkpt><trkpt lat="44.4978555977854" lon="0.9421091507976188"><ele>73.25</ele><time>2026-04-03T18:34:18.999Z</time></trkpt><trkpt lat="44.497827284532015" lon="0.9419427928194704"><ele>73.5</ele><time>2026-04-03T18:34:20.999Z</time></trkpt><trkpt lat="44.49775375013627" lon="0.9418241928682146"><ele>73.75</ele><time>2026-04-03T18:34:21.999Z</time></trkpt><trkpt lat="44.49771242276462" lon="0.9416697262913309"><ele>74.0</ele><time>2026-04-03T18:34:22.999Z</time></trkpt><trkpt lat="44.49770147795775" lon="0.9415023176992801"><ele>76.0</ele><time>2026-04-03T18:34:23.999Z</time></trkpt><trkpt lat="44.49768092690009" lon="0.9413677841265277"><ele>78.0</ele><time>2026-04-03T18:34:24.999Z</time></trkpt><trkpt lat="44.49776935002354" lon="0.9411926975101473"><ele>80.0</ele><time>2026-04-03T18:34:25.999Z</time></trkpt><trkpt lat="44.49773907637691" lon="0.9410157694914002"><ele>82.0</ele><time>2026-04-03T18:34:26.999Z</time></trkpt><trkpt lat="44.4976705373316" lon="0.9408616756385537"><ele>83.0</ele><time>2026-04-03T18:34:27.999Z</time></trkpt><trkpt lat="44.497580293590254" lon="0.9407281482414896"><ele>84.0</ele><time>2026-04-03T18:34:28.999Z</time></trkpt><trkpt lat="44.49749183130098" lon="0.9405900341058855"><ele>85.0</ele><time>2026-04-03T18:34:29.999Z</time></trkpt><trkpt lat="44.497418183783815" lon="0.9404720367239778"><ele>86.0</ele><time>2026-04-03T18:34:30.999Z</time></trkpt><trkpt lat="44.497333230064406" lon="0.9403254095696504"><ele>86.0</ele><time>2026-04-03T18:34:31.999Z</time></trkpt><trkpt lat="44.49723714511676" lon="0.9401595085619533"><ele>86.0</ele><time>2026-04-03T18:34:32.999Z</time></trkpt><trkpt lat="44.497139839607115" lon="0.9399971174140747"><ele>86.0</ele><time>2026-04-03T18:34:33.999Z</time></trkpt><trkpt lat="44.497051752606005" lon="0.9398532084992539"><ele>86.0</ele><time>2026-04-03T18:34:34.999Z</time></trkpt><trkpt lat="44.49700609236664" lon="0.9397640372454436"><ele>86.6</ele><time>2026-04-03T18:34:36.999Z</time></trkpt><trkpt lat="44.49685391305947" lon="0.9398604812005209"><ele>87.19999999999999</ele><time>2026-04-03T18:34:39.999Z</time></trkpt><trkpt lat="44.49681658733813" lon="0.9399338711986596"><ele>87.80000000000001</ele><time>2026-04-03T18:34:40.999Z</time></trkpt><trkpt lat="44.49677350871415" lon="0.9399999788280163"><ele>88.4</ele><time>2026-04-03T18:34:41.999Z</time></trkpt><trkpt lat="44.49664861595197" lon="0.9400039268434363"><ele>89.0</ele><time>2026-04-03T18:34:42.999Z</time></trkpt><trkpt lat="44.496550645941824" lon="0.9400824404009429"><ele>89.0</ele><time>2026-04-03T18:34:43.999Z</time></trkpt><trkpt lat="44.49644492833793" lon="0.9401634065333928"><ele>89.0</ele><time>2026-04-03T18:34:44.999Z</time></trkpt><trkpt lat="44.49633520689555" lon="0.9402441641710438"><ele>89.0</ele><time>2026-04-03T18:34:45.999Z</time></trkpt><trkpt lat="44.49621648516217" lon="0.9403129257488156"><ele>89.0</ele><time>2026-04-03T18:34:46.999Z</time></trkpt><trkpt lat="44.496087568219004" lon="0.9403732415042625"><ele>91.75</ele><time>2026-04-03T18:34:47.999Z</time></trkpt><trkpt lat="44.49596083886978" lon="0.9404492123066833"><ele>94.5</ele><time>2026-04-03T18:34:48.999Z</time></trkpt><trkpt lat="44.49583273191939" lon="0.9405230285843061"><ele>97.25</ele><time>2026-04-03T18:34:49.999Z</time></trkpt><trkpt lat="44.4956994883749" lon="0.9406033776797201"><ele>100.0</ele><time>2026-04-03T18:34:50.999Z</time></trkpt><trkpt lat="44.49556727796674" lon="0.940698510221196"><ele>100.00000000000001</ele><time>2026-04-03T18:34:51.999Z</time></trkpt><trkpt lat="44.495448539669276" lon="0.940734298860034"><ele>100.0</ele><time>2026-04-03T18:34:52.999Z</time></trkpt><trkpt lat="44.495364434958624" lon="0.9407531582663156"><ele>100.0</ele><time>2026-04-03T18:34:53.999Z</time></trkpt><trkpt lat="44.495293082535035" lon="0.9407516400290138"><ele>100.0</ele><time>2026-04-03T18:34:54.999Z</time></trkpt><trkpt lat="44.495230624107975" lon="0.9407393079031074"><ele>100.00000000000001</ele><time>2026-04-03T18:34:55.999Z</time></trkpt><trkpt lat="44.495144101885224" lon="0.940674615174494"><ele>100.0</ele><time>2026-04-03T18:34:57.999Z</time></trkpt><trkpt lat="44.4950550235549" lon="0.9406298060289227"><ele>101.00000000000001</ele><time>2026-04-03T18:34:59.998Z</time></trkpt><trkpt lat="44.4949790244795" lon="0.940555299040334"><ele>102.0</ele><time>2026-04-03T18:35:01.998Z</time></trkpt><trkpt lat="44.49491229724924" lon="0.9405303610317504"><ele>103.0</ele><time>2026-04-03T18:35:03.998Z</time></trkpt><trkpt lat="44.494822146995446" lon="0.9405697236221627"><ele>104.0</ele><time>2026-04-03T18:35:05.998Z</time></trkpt><trkpt lat="44.49475645849756" lon="0.9405843059858521"><ele>105.00000000000001</ele><time>2026-04-03T18:35:07Z</time></trkpt><trkpt lat="44.49467896011052" lon="0.9406311129818273"><ele>106.0</ele><time>2026-04-03T18:35:08Z</time></trkpt><trkpt lat="44.4945815568852" lon="0.9406812588291312"><ele>106.0</ele><time>2026-04-03T18:35:09Z</time></trkpt><trkpt lat="44.49446803038248" lon="0.9407324833597529"><ele>106.0</ele><time>2026-04-03T18:35:10Z</time></trkpt><trkpt lat="44.494331989996695" lon="0.9407499385671352"><ele>106.0</ele><time>2026-04-03T18:35:11Z</time></trkpt><trkpt lat="44.494195044079774" lon="0.9407205683370252"><ele>106.0</ele><time>2026-04-03T18:35:12Z</time></trkpt><trkpt lat="44.49407788668817" lon="0.9406560456848471"><ele>106.0</ele><time>2026-04-03T18:35:13Z</time></trkpt><trkpt lat="44.49397046743269" lon="0.940583374391109"><ele>106.0</ele><time>2026-04-03T18:35:14Z</time></trkpt><trkpt lat="44.49389052265132" lon="0.9404726980491284"><ele>106.0</ele><time>2026-04-03T18:35:15Z</time></trkpt><trkpt lat="44.493832325980115" lon="0.9403438507294868"><ele>106.0</ele><time>2026-04-03T18:35:16Z</time></trkpt><trkpt lat="44.493785688876486" lon="0.940211890314329"><ele>106.0</ele><time>2026-04-03T18:35:17Z</time></trkpt><trkpt lat="44.49374524662449" lon="0.9400969805133991"><ele>103.4</ele><time>2026-04-03T18:35:18Z</time></trkpt><trkpt lat="44.49373598900381" lon="0.9399858253620577"><ele>100.8</ele><time>2026-04-03T18:35:19Z</time></trkpt><trkpt lat="44.49371867940937" lon="0.9398363627066803"><ele>98.2</ele><time>2026-04-03T18:35:21Z</time></trkpt><trkpt lat="44.49371338983794" lon="0.9397220761660725"><ele>95.60000000000001</ele><time>2026-04-03T18:35:23Z</time></trkpt><trkpt lat="44.493712158227105" lon="0.939579553773583"><ele>93.0</ele><time>2026-04-03T18:35:25Z</time></trkpt><trkpt lat="44.49371967205007" lon="0.9394555052780964"><ele>93.0</ele><time>2026-04-03T18:35:26Z</time></trkpt><trkpt lat="44.49370216823653" lon="0.939331875044363"><ele>93.0</ele><time>2026-04-03T18:35:27Z</time></trkpt><trkpt lat="44.49368557564052" lon="0.9392364488431179"><ele>93.0</ele><time>2026-04-03T18:35:28Z</time></trkpt><trkpt lat="44.493639397296825" lon="0.9391571810762265"><ele>93.0</ele><time>2026-04-03T18:35:29Z</time></trkpt><trkpt lat="44.49357407704953" lon="0.9391131107620961"><ele>93.0</ele><time>2026-04-03T18:35:30Z</time></trkpt><trkpt lat="44.49350402208739" lon="0.9390769627502362"><ele>93.0</ele><time>2026-04-03T18:35:31Z</time></trkpt><trkpt lat="44.49343244072968" lon="0.9390661401077962"><ele>93.0</ele><time>2026-04-03T18:35:32Z</time></trkpt><trkpt lat="44.493329710803344" lon="0.9390400160647109"><ele>93.0</ele><time>2026-04-03T18:35:34Z</time></trkpt><trkpt lat="44.49323436970569" lon="0.9390763480931594"><ele>93.0</ele><time>2026-04-03T18:35:36Z</time></trkpt><trkpt lat="44.49315778252131" lon="0.9391527848942995"><ele>93.0</ele><time>2026-04-03T18:35:38Z</time></trkpt><trkpt lat="44.493139213853325" lon="0.939243621982698"><ele>93.0</ele><time>2026-04-03T18:35:39Z</time></trkpt><trkpt lat="44.493112858220876" lon="0.9393376650677668"><ele>93.0</ele><time>2026-04-03T18:35:40Z</time></trkpt><trkpt lat="44.49306962299425" lon="0.9394664435176273"><ele>93.0</ele><time>2026-04-03T18:35:41Z</time></trkpt><trkpt lat="44.493019342959826" lon="0.9396075945186217"><ele>93.0</ele><time>2026-04-03T18:35:42Z</time></trkpt><trkpt lat="44.4929418564221" lon="0.9397538682923892"><ele>93.0</ele><time>2026-04-03T18:35:43Z</time></trkpt><trkpt lat="44.49285924085053" lon="0.9399035937771812"><ele>93.0</ele><time>2026-04-03T18:35:44Z</time></trkpt><trkpt lat="44.49277016015166" lon="0.940053686046799"><ele>93.75</ele><time>2026-04-03T18:35:45Z</time></trkpt><trkpt lat="44.49266906481039" lon="0.9401954700737057"><ele>94.5</ele><time>2026-04-03T18:35:46Z</time></trkpt><trkpt lat="44.49255459465285" lon="0.9403281800417644"><ele>95.25</ele><time>2026-04-03T18:35:47Z</time></trkpt><trkpt lat="44.49243621673116" lon="0.9404489759249308"><ele>96.0</ele><time>2026-04-03T18:35:48Z</time></trkpt><trkpt lat="44.49231890531502" lon="0.9405458180472623"><ele>96.0</ele><time>2026-04-03T18:35:49Z</time></trkpt><trkpt lat="44.49221356401744" lon="0.9406826484694668"><ele>96.0</ele><time>2026-04-03T18:35:50Z</time></trkpt><trkpt lat="44.49208779337122" lon="0.9407938550733151"><ele>96.0</ele><time>2026-04-03T18:35:51Z</time></trkpt><trkpt lat="44.49196242653221" lon="0.94088897921994"><ele>96.0</ele><time>2026-04-03T18:35:52Z</time></trkpt><trkpt lat="44.49182487721241" lon="0.9409468025538807"><ele>98.0</ele><time>2026-04-03T18:35:53Z</time></trkpt><trkpt lat="44.49171436717844" lon="0.9410064942297452"><ele>100.0</ele><time>2026-04-03T18:35:53.999Z</time></trkpt><trkpt lat="44.49162432252083" lon="0.9410642390753708"><ele>102.0</ele><time>2026-04-03T18:35:54.999Z</time></trkpt><trkpt lat="44.49154914540762" lon="0.9410724886322348"><ele>104.0</ele><time>2026-04-03T18:35:55.999Z</time></trkpt><trkpt lat="44.49146033557479" lon="0.9410252325934663"><ele>106.0</ele><time>2026-04-03T18:35:57.999Z</time></trkpt><trkpt lat="44.49140650744726" lon="0.9411698797967127"><ele>106.0</ele><time>2026-04-03T18:35:59.999Z</time></trkpt><trkpt lat="44.491394122317054" lon="0.9413150638001546"><ele>106.0</ele><time>2026-04-03T18:36:01.999Z</time></trkpt><trkpt lat="44.49138228972376" lon="0.9414676180381278"><ele>106.0</ele><time>2026-04-03T18:36:03.999Z</time></trkpt><trkpt lat="44.491341597554175" lon="0.9416196131674949"><ele>106.0</ele><time>2026-04-03T18:36:05.999Z</time></trkpt><trkpt lat="44.49129405497499" lon="0.9417702703018013"><ele>106.0</ele><time>2026-04-03T18:36:07.999Z</time></trkpt><trkpt lat="44.491257774280115" lon="0.9418763508657086"><ele>100.0</ele><time>2026-04-03T18:36:09.999Z</time></trkpt><trkpt lat="44.491423899447156" lon="0.9419793853001672"><ele>100.0</ele><time>2026-04-03T18:36:35.999Z</time></trkpt></trkseg></trk></gpx>